Wetterdaten: Sonntag, 17.09.2017
Datum Zeit Temp. A. Temp. A. max Feuchte A. Luftdruck Regen Wind Richtung Richtung Sonnenschein ET UV Solar Taupunkt Windchill Windböen
17.09.2017 00:00 5,4 °C 5,5 °C 95 % 1013,0 hPa 0,0 mm 0,0 km/h (0 Bft) O-SO 123 ° 0 min 0,000 mm 0,0 UV-I 0 W/m² 4,7 °C 5,4 °C 0,0 km/h (0 Bft)
17.09.2017 00:01 5,4 °C 5,4 °C 95 % 1012,9 hPa 0,0 mm 0,0 km/h (0 Bft) O-SO 123 ° 0 min 0,000 mm 0,0 UV-I 0 W/m² 4,7 °C 5,4 °C 0,0 km/h (0 Bft)
17.09.2017 00:02 5,5 °C 5,5 °C 95 % 1012,9 hPa 0,0 mm 0,0 km/h (0 Bft) O-SO 123 ° 0 min 0,000 mm 0,0 UV-I 0 W/m² 4,8 °C 5,5 °C 0,0 km/h (0 Bft)
17.09.2017 00:03 5,6 °C 5,6 °C 95 % 1012,9 hPa 0,0 mm 0,0 km/h (0 Bft) O-SO 123 ° 0 min 0,000 mm 0,0 UV-I 0 W/m² 4,9 °C 5,6 °C 0,0 km/h (0 Bft)
17.09.2017 00:04 5,6 °C 5,6 °C 95 % 1013,0 hPa 0,0 mm 0,0 km/h (0 Bft) O-SO 123 ° 0 min 0,000 mm 0,0 UV-I 0 W/m² 4,9 °C 5,6 °C 0,0 km/h (0 Bft)
17.09.2017 00:05 5,7 °C 5,7 °C 95 % 1013,0 hPa 0,0 mm 0,0 km/h (0 Bft) O-SO 123 ° 0 min 0,000 mm 0,0 UV-I 0 W/m² 5,0 °C 5,7 °C 0,0 km/h (0 Bft)
17.09.2017 00:06 5,8 °C 5,8 °C 95 % 1013,0 hPa 0,0 mm 0,2 km/h (0 Bft) S-SO 148 ° 0 min 0,000 mm 0,0 UV-I 0 W/m² 5,1 °C 5,8 °C 1,6 km/h (1 Bft)
17.09.2017 00:07 5,9 °C 5,9 °C 95 % 1013,0 hPa 0,0 mm 2,1 km/h (1 Bft) S-SO 155 ° 0 min 0,000 mm 0,0 UV-I 0 W/m² 5,2 °C 5,9 °C 3,2 km/h (1 Bft)
17.09.2017 00:08 5,9 °C 5,9 °C 95 % 1012,9 hPa 0,0 mm 1,9 km/h (1 Bft) S-SO 155 ° 0 min 0,000 mm 0,0 UV-I 0 W/m² 5,2 °C 5,9 °C 3,2 km/h (1 Bft)
17.09.2017 00:09 5,9 °C 5,9 °C 95 % 1012,9 hPa 0,0 mm 1,2 km/h (1 Bft) S 183 ° 0 min 0,000 mm 0,0 UV-I 0 W/m² 5,2 °C 5,9 °C 4,8 km/h (1 Bft)
17.09.2017 00:10 5,9 °C 5,9 °C 95 % 1013,0 hPa 0,0 mm 6,7 km/h (2 Bft) S 185 ° 0 min 0,000 mm 0,0 UV-I 0 W/m² 5,2 °C 4,5 °C 9,7 km/h (2 Bft)
17.09.2017 00:11 6,0 °C 6,1 °C 95 % 1012,9 hPa 0,0 mm 2,9 km/h (1 Bft) S 185 ° 0 min 0,000 mm 0,0 UV-I 0 W/m² 5,3 °C 6,0 °C 4,8 km/h (1 Bft)
17.09.2017 00:12 6,1 °C 6,1 °C 95 % 1012,9 hPa 0,0 mm 1,3 km/h (1 Bft) S 185 ° 0 min 0,000 mm 0,0 UV-I 0 W/m² 5,4 °C 6,1 °C 3,2 km/h (1 Bft)
17.09.2017 00:13 6,1 °C 6,1 °C 95 % 1012,9 hPa 0,0 mm 0,0 km/h (0 Bft) S 185 ° 0 min 0,000 mm 0,0 UV-I 0 W/m² 5,4 °C 6,1 °C 0,0 km/h (0 Bft)
17.09.2017 00:14 6,1 °C 6,1 °C 95 % 1012,9 hPa 0,0 mm 0,0 km/h (0 Bft) S 185 ° 0 min 0,000 mm 0,0 UV-I 0 W/m² 5,4 °C 6,1 °C 0,0 km/h (0 Bft)
17.09.2017 00:15 6,2 °C 6,2 °C 95 % 1012,9 hPa 0,0 mm 1,3 km/h (1 Bft) S 185 ° 0 min 0,000 mm 0,0 UV-I 0 W/m² 5,5 °C 6,2 °C 3,2 km/h (1 Bft)
17.09.2017 00:16 6,2 °C 6,2 °C 95 % 1012,9 hPa 0,0 mm 2,8 km/h (1 Bft) S 184 ° 0 min 0,000 mm 0,0 UV-I 0 W/m² 5,5 °C 6,2 °C 4,8 km/h (1 Bft)
17.09.2017 00:17 6,2 °C 6,2 °C 95 % 1012,9 hPa 0,0 mm 1,8 km/h (1 Bft) S 184 ° 0 min 0,000 mm 0,0 UV-I 0 W/m² 5,5 °C 6,2 °C 3,2 km/h (1 Bft)
17.09.2017 00:18 6,2 °C 6,2 °C 95 % 1012,9 hPa 0,0 mm 1,2 km/h (1 Bft) S 184 ° 0 min 0,000 mm 0,0 UV-I 0 W/m² 5,5 °C 6,2 °C 3,2 km/h (1 Bft)
17.09.2017 00:19 6,2 °C 6,3 °C 95 % 1012,9 hPa 0,0 mm 0,1 km/h (0 Bft) S 184 ° 0 min 0,000 mm 0,0 UV-I 0 W/m² 5,5 °C 6,2 °C 1,6 km/h (1 Bft)
17.09.2017 00:20 6,2 °C 6,2 °C 95 % 1012,9 hPa 0,0 mm 0,0 km/h (0 Bft) S 184 ° 0 min 0,000 mm 0,0 UV-I 0 W/m² 5,5 °C 6,2 °C 0,0 km/h (0 Bft)
17.09.2017 00:21 6,2 °C 6,2 °C 95 % 1012,9 hPa 0,0 mm 0,0 km/h (0 Bft) S 184 ° 0 min 0,000 mm 0,0 UV-I 0 W/m² 5,5 °C 6,2 °C 0,0 km/h (0 Bft)
17.09.2017 00:22 6,2 °C 6,2 °C 95 % 1012,9 hPa 0,0 mm 0,5 km/h (0 Bft) S 184 ° 0 min 0,000 mm 0,0 UV-I 0 W/m² 5,5 °C 6,2 °C 3,2 km/h (1 Bft)
17.09.2017 00:23 6,3 °C 6,3 °C 95 % 1012,9 hPa 0,0 mm 1,0 km/h (0 Bft) S 184 ° 0 min 0,000 mm 0,0 UV-I 0 W/m² 5,6 °C 6,3 °C 3,2 km/h (1 Bft)
17.09.2017 00:24 6,3 °C 6,3 °C 95 % 1013,0 hPa 0,0 mm 0,0 km/h (0 Bft) S 184 ° 0 min 0,000 mm 0,0 UV-I 0 W/m² 5,6 °C 6,3 °C 0,0 km/h (0 Bft)
17.09.2017 00:25 6,3 °C 6,3 °C 95 % 1013,0 hPa 0,0 mm 0,6 km/h (0 Bft) S 183 ° 0 min 0,000 mm 0,0 UV-I 0 W/m² 5,6 °C 6,3 °C 1,6 km/h (1 Bft)
17.09.2017 00:26 6,3 °C 6,3 °C 95 % 1013,0 hPa 0,0 mm 0,2 km/h (0 Bft) S 183 ° 0 min 0,000 mm 0,0 UV-I 0 W/m² 5,6 °C 6,3 °C 1,6 km/h (1 Bft)
17.09.2017 00:27 6,3 °C 6,3 °C 95 % 1012,9 hPa 0,0 mm 0,1 km/h (0 Bft) S 183 ° 0 min 0,000 mm 0,0 UV-I 0 W/m² 5,6 °C 6,3 °C 1,6 km/h (1 Bft)
17.09.2017 00:28 6,3 °C 6,3 °C 95 % 1012,9 hPa 0,0 mm 0,0 km/h (0 Bft) S 183 ° 0 min 0,000 mm 0,0 UV-I 0 W/m² 5,6 °C 6,3 °C 0,0 km/h (0 Bft)
17.09.2017 00:29 6,3 °C 6,3 °C 95 % 1012,9 hPa 0,0 mm 0,0 km/h (0 Bft) S 183 ° 0 min 0,000 mm 0,0 UV-I 0 W/m² 5,6 °C 6,3 °C 0,0 km/h (0 Bft)
17.09.2017 00:30 6,3 °C 6,3 °C 95 % 1012,9 hPa 0,0 mm 0,0 km/h (0 Bft) S 183 ° 0 min 0,000 mm 0,0 UV-I 0 W/m² 5,6 °C 6,3 °C 0,0 km/h (0 Bft)
17.09.2017 00:31 6,3 °C 6,3 °C 95 % 1012,8 hPa 0,0 mm 0,0 km/h (0 Bft) S 183 ° 0 min 0,000 mm 0,0 UV-I 0 W/m² 5,6 °C 6,3 °C 0,0 km/h (0 Bft)
17.09.2017 00:32 6,3 °C 6,3 °C 95 % 1012,8 hPa 0,0 mm 0,0 km/h (0 Bft) S 183 ° 0 min 0,000 mm 0,0 UV-I 0 W/m² 5,6 °C 6,3 °C 0,0 km/h (0 Bft)
17.09.2017 00:33 6,4 °C 6,4 °C 95 % 1012,8 hPa 0,0 mm 0,0 km/h (0 Bft) S 183 ° 0 min 0,000 mm 0,0 UV-I 0 W/m² 5,7 °C 6,4 °C 0,0 km/h (0 Bft)
17.09.2017 00:34 6,4 °C 6,4 °C 95 % 1012,7 hPa 0,0 mm 0,0 km/h (0 Bft) S 183 ° 0 min 0,000 mm 0,0 UV-I 0 W/m² 5,7 °C 6,4 °C 0,0 km/h (0 Bft)
17.09.2017 00:35 6,4 °C 6,4 °C 95 % 1012,6 hPa 0,0 mm 0,0 km/h (0 Bft) S 183 ° 0 min 0,000 mm 0,0 UV-I 0 W/m² 5,7 °C 6,4 °C 0,0 km/h (0 Bft)
17.09.2017 00:36 6,4 °C 6,4 °C 95 % 1012,6 hPa 0,0 mm 0,0 km/h (0 Bft) S 183 ° 0 min 0,000 mm 0,0 UV-I 0 W/m² 5,7 °C 6,4 °C 0,0 km/h (0 Bft)
17.09.2017 00:37 6,4 °C 6,4 °C 95 % 1012,6 hPa 0,0 mm 0,0 km/h (0 Bft) S 183 ° 0 min 0,000 mm 0,0 UV-I 0 W/m² 5,7 °C 6,4 °C 0,0 km/h (0 Bft)
17.09.2017 00:38 6,4 °C 6,4 °C 95 % 1012,6 hPa 0,0 mm 0,0 km/h (0 Bft) S 183 ° 0 min 0,000 mm 0,0 UV-I 0 W/m² 5,7 °C 6,4 °C 0,0 km/h (0 Bft)
17.09.2017 00:39 6,4 °C 6,4 °C 95 % 1012,6 hPa 0,0 mm 1,4 km/h (1 Bft) S 183 ° 0 min 0,000 mm 0,0 UV-I 0 W/m² 5,7 °C 6,4 °C 3,2 km/h (1 Bft)
17.09.2017 00:40 6,4 °C 6,4 °C 95 % 1012,6 hPa 0,0 mm 1,9 km/h (1 Bft) S 183 ° 0 min 0,000 mm 0,0 UV-I 0 W/m² 5,7 °C 6,4 °C 3,2 km/h (1 Bft)
17.09.2017 00:41 6,4 °C 6,4 °C 95 % 1012,6 hPa 0,0 mm 0,0 km/h (0 Bft) S 183 ° 0 min 0,000 mm 0,0 UV-I 0 W/m² 5,7 °C 6,4 °C 0,0 km/h (0 Bft)
17.09.2017 00:42 6,4 °C 6,4 °C 95 % 1012,6 hPa 0,0 mm 0,0 km/h (0 Bft) S 183 ° 0 min 0,000 mm 0,0 UV-I 0 W/m² 5,7 °C 6,4 °C 0,0 km/h (0 Bft)
17.09.2017 00:43 6,5 °C 6,5 °C 95 % 1012,5 hPa 0,0 mm 0,0 km/h (0 Bft) S 183 ° 0 min 0,000 mm 0,0 UV-I 0 W/m² 5,8 °C 6,5 °C 0,0 km/h (0 Bft)
17.09.2017 00:44 6,5 °C 6,6 °C 95 % 1012,5 hPa 0,0 mm 2,1 km/h (1 Bft) S 183 ° 0 min 0,000 mm 0,0 UV-I 0 W/m² 5,8 °C 6,5 °C 3,2 km/h (1 Bft)
17.09.2017 00:45 6,6 °C 6,6 °C 95 % 1012,5 hPa 0,0 mm 0,6 km/h (0 Bft) S 183 ° 0 min 0,000 mm 0,0 UV-I 0 W/m² 5,9 °C 6,6 °C 1,6 km/h (1 Bft)
17.09.2017 00:46 6,5 °C 6,6 °C 95 % 1012,5 hPa 0,0 mm 0,5 km/h (0 Bft) S 183 ° 0 min 0,000 mm 0,0 UV-I 0 W/m² 5,8 °C 6,5 °C 1,6 km/h (1 Bft)
17.09.2017 00:47 6,5 °C 6,6 °C 95 % 1012,6 hPa 0,0 mm 1,7 km/h (1 Bft) S 170 ° 0 min 0,000 mm 0,0 UV-I 0 W/m² 5,8 °C 6,5 °C 3,2 km/h (1 Bft)
17.09.2017 00:48 6,6 °C 6,6 °C 94 % 1012,6 hPa 0,0 mm 1,8 km/h (1 Bft) S 171 ° 0 min 0,000 mm 0,0 UV-I 0 W/m² 5,7 °C 6,6 °C 3,2 km/h (1 Bft)
17.09.2017 00:49 6,6 °C 6,6 °C 95 % 1012,7 hPa 0,0 mm 1,7 km/h (1 Bft) SW 235 ° 0 min 0,000 mm 0,0 UV-I 0 W/m² 5,9 °C 6,6 °C 3,2 km/h (1 Bft)
17.09.2017 00:50 6,6 °C 6,6 °C 95 % 1012,7 hPa 0,0 mm 3,1 km/h (1 Bft) W-SW 241 ° 0 min 0,000 mm 0,0 UV-I 0 W/m² 5,9 °C 6,6 °C 4,8 km/h (1 Bft)
17.09.2017 00:51 6,7 °C 6,7 °C 95 % 1012,7 hPa 0,0 mm 2,5 km/h (1 Bft) W-SW 241 ° 0 min 0,000 mm 0,0 UV-I 0 W/m² 6,0 °C 6,7 °C 4,8 km/h (1 Bft)
17.09.2017 00:52 6,7 °C 6,7 °C 94 % 1012,7 hPa 0,0 mm 2,2 km/h (1 Bft) S-SW 201 ° 0 min 0,000 mm 0,0 UV-I 0 W/m² 5,8 °C 6,7 °C 3,2 km/h (1 Bft)
17.09.2017 00:53 6,7 °C 6,7 °C 94 % 1012,7 hPa 0,0 mm 0,5 km/h (0 Bft) S-SW 201 ° 0 min 0,000 mm 0,0 UV-I 0 W/m² 5,8 °C 6,7 °C 1,6 km/h (1 Bft)
17.09.2017 00:54 6,7 °C 6,7 °C 94 % 1012,8 hPa 0,0 mm 4,7 km/h (1 Bft) W-SW 242 ° 0 min 0,000 mm 0,0 UV-I 0 W/m² 5,8 °C 6,1 °C 6,4 km/h (2 Bft)
17.09.2017 00:55 6,8 °C 6,8 °C 94 % 1012,8 hPa 0,0 mm 1,5 km/h (1 Bft) W-SW 242 ° 0 min 0,000 mm 0,0 UV-I 0 W/m² 5,9 °C 6,8 °C 4,8 km/h (1 Bft)
17.09.2017 00:56 6,8 °C 6,8 °C 94 % 1012,8 hPa 0,0 mm 2,1 km/h (1 Bft) W-SW 242 ° 0 min 0,000 mm 0,0 UV-I 0 W/m² 5,9 °C 6,8 °C 3,2 km/h (1 Bft)
17.09.2017 00:57 6,8 °C 6,8 °C 94 % 1012,8 hPa 0,0 mm 3,1 km/h (1 Bft) SW 229 ° 0 min 0,000 mm 0,0 UV-I 0 W/m² 5,9 °C 6,8 °C 4,8 km/h (1 Bft)
17.09.2017 00:58 6,8 °C 6,8 °C 93 % 1012,8 hPa 0,0 mm 5,0 km/h (1 Bft) S-SW 202 ° 0 min 0,000 mm 0,0 UV-I 0 W/m² 5,7 °C 6,1 °C 9,7 km/h (2 Bft)
17.09.2017 00:59 6,8 °C 6,8 °C 93 % 1012,9 hPa 0,0 mm 4,4 km/h (1 Bft) S-SW 196 ° 0 min 0,000 mm 0,0 UV-I 0 W/m² 5,7 °C 6,8 °C 8,0 km/h (2 Bft)
17.09.2017 01:00 6,8 °C 6,8 °C 93 % 1012,7 hPa 0,0 mm 4,1 km/h (1 Bft) S 173 ° 0 min 0,000 mm 0,0 UV-I 0 W/m² 5,7 °C 6,8 °C 9,7 km/h (2 Bft)
17.09.2017 01:01 6,8 °C 6,8 °C 93 % 1012,7 hPa 0,0 mm 0,7 km/h (0 Bft) S 173 ° 0 min 0,000 mm 0,0 UV-I 0 W/m² 5,7 °C 6,8 °C 3,2 km/h (1 Bft)
17.09.2017 01:02 6,7 °C 6,8 °C 93 % 1012,6 hPa 0,0 mm 0,7 km/h (0 Bft) S 173 ° 0 min 0,000 mm 0,0 UV-I 0 W/m² 5,6 °C 6,7 °C 3,2 km/h (1 Bft)
17.09.2017 01:03 6,7 °C 6,7 °C 93 % 1012,6 hPa 0,0 mm 3,6 km/h (1 Bft) S-SW 192 ° 0 min 0,000 mm 0,0 UV-I 0 W/m² 5,6 °C 6,7 °C 11,3 km/h (2 Bft)
17.09.2017 01:04 6,7 °C 6,7 °C 94 % 1012,6 hPa 0,0 mm 5,3 km/h (1 Bft) S 186 ° 0 min 0,000 mm 0,0 UV-I 0 W/m² 5,8 °C 5,9 °C 8,0 km/h (2 Bft)
17.09.2017 01:05 6,7 °C 6,7 °C 94 % 1012,6 hPa 0,0 mm 1,7 km/h (1 Bft) S 185 ° 0 min 0,000 mm 0,0 UV-I 0 W/m² 5,8 °C 6,7 °C 4,8 km/h (1 Bft)
17.09.2017 01:06 6,7 °C 6,7 °C 94 % 1012,6 hPa 0,0 mm 2,7 km/h (1 Bft) S-SW 200 ° 0 min 0,000 mm 0,0 UV-I 0 W/m² 5,8 °C 6,7 °C 4,8 km/h (1 Bft)
17.09.2017 01:07 6,7 °C 6,7 °C 94 % 1012,6 hPa 0,0 mm 0,3 km/h (0 Bft) S-SW 200 ° 0 min 0,000 mm 0,0 UV-I 0 W/m² 5,8 °C 6,7 °C 1,6 km/h (1 Bft)
17.09.2017 01:08 6,7 °C 6,7 °C 93 % 1012,6 hPa 0,0 mm 0,9 km/h (0 Bft) S-SW 199 ° 0 min 0,000 mm 0,0 UV-I 0 W/m² 5,6 °C 6,7 °C 3,2 km/h (1 Bft)
17.09.2017 01:09 6,7 °C 6,7 °C 94 % 1012,6 hPa 0,0 mm 3,0 km/h (1 Bft) S 175 ° 0 min 0,000 mm 0,0 UV-I 0 W/m² 5,8 °C 6,7 °C 6,4 km/h (2 Bft)
17.09.2017 01:10 6,7 °C 6,7 °C 93 % 1012,6 hPa 0,0 mm 0,1 km/h (0 Bft) S 175 ° 0 min 0,000 mm 0,0 UV-I 0 W/m² 5,6 °C 6,7 °C 1,6 km/h (1 Bft)
17.09.2017 01:11 6,7 °C 6,7 °C 93 % 1012,5 hPa 0,0 mm 2,9 km/h (1 Bft) S-SW 212 ° 0 min 0,000 mm 0,0 UV-I 0 W/m² 5,6 °C 6,7 °C 4,8 km/h (1 Bft)
17.09.2017 01:12 6,8 °C 6,8 °C 94 % 1012,5 hPa 0,0 mm 1,2 km/h (1 Bft) S-SW 210 ° 0 min 0,000 mm 0,0 UV-I 0 W/m² 5,9 °C 6,8 °C 4,8 km/h (1 Bft)
17.09.2017 01:13 6,8 °C 6,8 °C 94 % 1012,5 hPa 0,0 mm 0,1 km/h (0 Bft) S-SW 210 ° 0 min 0,000 mm 0,0 UV-I 0 W/m² 5,9 °C 6,8 °C 1,6 km/h (1 Bft)
17.09.2017 01:14 6,8 °C 6,8 °C 93 % 1012,5 hPa 0,0 mm 3,2 km/h (1 Bft) S-SW 205 ° 0 min 0,000 mm 0,0 UV-I 0 W/m² 5,7 °C 6,8 °C 4,8 km/h (1 Bft)
17.09.2017 01:15 6,8 °C 6,8 °C 93 % 1012,5 hPa 0,0 mm 3,6 km/h (1 Bft) S 191 ° 0 min 0,000 mm 0,0 UV-I 0 W/m² 5,7 °C 6,8 °C 4,8 km/h (1 Bft)
17.09.2017 01:16 6,8 °C 6,8 °C 93 % 1012,6 hPa 0,0 mm 2,1 km/h (1 Bft) S-SW 196 ° 0 min 0,000 mm 0,0 UV-I 0 W/m² 5,7 °C 6,8 °C 3,2 km/h (1 Bft)
17.09.2017 01:17 6,8 °C 6,8 °C 93 % 1012,6 hPa 0,0 mm 4,1 km/h (1 Bft) S-SO 162 ° 0 min 0,000 mm 0,0 UV-I 0 W/m² 5,7 °C 6,8 °C 6,4 km/h (2 Bft)
17.09.2017 01:18 6,8 °C 6,8 °C 93 % 1012,5 hPa 0,0 mm 0,5 km/h (0 Bft) S-SO 162 ° 0 min 0,000 mm 0,0 UV-I 0 W/m² 5,7 °C 6,8 °C 3,2 km/h (1 Bft)
17.09.2017 01:19 6,8 °C 6,8 °C 94 % 1012,5 hPa 0,0 mm 0,7 km/h (0 Bft) S-SO 162 ° 0 min 0,000 mm 0,0 UV-I 0 W/m² 5,9 °C 6,8 °C 1,6 km/h (1 Bft)
17.09.2017 01:20 6,8 °C 6,8 °C 94 % 1012,5 hPa 0,0 mm 2,1 km/h (1 Bft) S-SO 162 ° 0 min 0,000 mm 0,0 UV-I 0 W/m² 5,9 °C 6,8 °C 3,2 km/h (1 Bft)
17.09.2017 01:21 6,8 °C 6,8 °C 94 % 1012,5 hPa 0,0 mm 2,7 km/h (1 Bft) S 178 ° 0 min 0,000 mm 0,0 UV-I 0 W/m² 5,9 °C 6,8 °C 4,8 km/h (1 Bft)
17.09.2017 01:22 6,9 °C 6,9 °C 94 % 1012,5 hPa 0,0 mm 3,3 km/h (1 Bft) S 175 ° 0 min 0,000 mm 0,0 UV-I 0 W/m² 6,0 °C 6,9 °C 4,8 km/h (1 Bft)
17.09.2017 01:23 6,9 °C 6,9 °C 94 % 1012,5 hPa 0,0 mm 5,5 km/h (1 Bft) S-SO 155 ° 0 min 0,000 mm 0,0 UV-I 0 W/m² 6,0 °C 6,1 °C 8,0 km/h (2 Bft)
17.09.2017 01:24 6,9 °C 6,9 °C 94 % 1012,5 hPa 0,0 mm 1,2 km/h (1 Bft) SW 225 ° 0 min 0,000 mm 0,0 UV-I 0 W/m² 6,0 °C 6,9 °C 3,2 km/h (1 Bft)
17.09.2017 01:25 7,0 °C 7,0 °C 94 % 1012,5 hPa 0,0 mm 3,4 km/h (1 Bft) S 184 ° 0 min 0,000 mm 0,0 UV-I 0 W/m² 6,1 °C 7,0 °C 4,8 km/h (1 Bft)
17.09.2017 01:26 7,1 °C 7,1 °C 94 % 1012,5 hPa 0,0 mm 3,7 km/h (1 Bft) S-SW 201 ° 0 min 0,000 mm 0,0 UV-I 0 W/m² 6,2 °C 7,1 °C 6,4 km/h (2 Bft)
17.09.2017 01:27 7,2 °C 7,2 °C 94 % 1012,5 hPa 0,0 mm 1,8 km/h (1 Bft) S-SW 201 ° 0 min 0,000 mm 0,0 UV-I 0 W/m² 6,3 °C 7,2 °C 3,2 km/h (1 Bft)
17.09.2017 01:28 7,2 °C 7,2 °C 93 % 1012,5 hPa 0,0 mm 1,5 km/h (1 Bft) S-SW 201 ° 0 min 0,000 mm 0,0 UV-I 0 W/m² 6,1 °C 7,2 °C 3,2 km/h (1 Bft)
17.09.2017 01:29 7,2 °C 7,2 °C 93 % 1012,5 hPa 0,0 mm 0,8 km/h (0 Bft) S-SW 201 ° 0 min 0,000 mm 0,0 UV-I 0 W/m² 6,1 °C 7,2 °C 3,2 km/h (1 Bft)
17.09.2017 01:30 7,2 °C 7,2 °C 93 % 1012,5 hPa 0,0 mm 1,5 km/h (1 Bft) S-SW 201 ° 0 min 0,000 mm 0,0 UV-I 0 W/m² 6,1 °C 7,2 °C 3,2 km/h (1 Bft)
17.09.2017 01:31 7,3 °C 7,3 °C 93 % 1012,5 hPa 0,0 mm 0,0 km/h (0 Bft) S-SW 201 ° 0 min 0,000 mm 0,0 UV-I 0 W/m² 6,2 °C 7,3 °C 0,0 km/h (0 Bft)
17.09.2017 01:32 7,3 °C 7,3 °C 93 % 1012,5 hPa 0,0 mm 1,7 km/h (1 Bft) S-SW 201 ° 0 min 0,000 mm 0,0 UV-I 0 W/m² 6,2 °C 7,3 °C 3,2 km/h (1 Bft)
17.09.2017 01:33 7,3 °C 7,3 °C 93 % 1012,5 hPa 0,0 mm 1,4 km/h (1 Bft) S-SW 201 ° 0 min 0,000 mm 0,0 UV-I 0 W/m² 6,2 °C 7,3 °C 3,2 km/h (1 Bft)
17.09.2017 01:34 7,3 °C 7,3 °C 93 % 1012,4 hPa 0,0 mm 1,5 km/h (1 Bft) S-SW 201 ° 0 min 0,000 mm 0,0 UV-I 0 W/m² 6,2 °C 7,3 °C 4,8 km/h (1 Bft)
17.09.2017 01:35 7,4 °C 7,4 °C 92 % 1012,5 hPa 0,0 mm 3,7 km/h (1 Bft) S 186 ° 0 min 0,000 mm 0,0 UV-I 0 W/m² 6,2 °C 7,4 °C 6,4 km/h (2 Bft)
17.09.2017 01:36 7,4 °C 7,4 °C 93 % 1012,5 hPa 0,0 mm 2,5 km/h (1 Bft) S 186 ° 0 min 0,000 mm 0,0 UV-I 0 W/m² 6,3 °C 7,4 °C 4,8 km/h (1 Bft)
17.09.2017 01:37 7,4 °C 7,4 °C 92 % 1012,4 hPa 0,0 mm 0,4 km/h (0 Bft) S 186 ° 0 min 0,000 mm 0,0 UV-I 0 W/m² 6,2 °C 7,4 °C 3,2 km/h (1 Bft)
17.09.2017 01:38 7,3 °C 7,4 °C 93 % 1012,5 hPa 0,0 mm 1,7 km/h (1 Bft) S 186 ° 0 min 0,000 mm 0,0 UV-I 0 W/m² 6,2 °C 7,3 °C 4,8 km/h (1 Bft)
17.09.2017 01:39 7,3 °C 7,3 °C 92 % 1012,5 hPa 0,0 mm 0,4 km/h (0 Bft) S 186 ° 0 min 0,000 mm 0,0 UV-I 0 W/m² 6,1 °C 7,3 °C 1,6 km/h (1 Bft)
17.09.2017 01:40 7,3 °C 7,3 °C 92 % 1012,5 hPa 0,0 mm 1,8 km/h (1 Bft) S 186 ° 0 min 0,000 mm 0,0 UV-I 0 W/m² 6,1 °C 7,3 °C 4,8 km/h (1 Bft)
17.09.2017 01:41 7,3 °C 7,3 °C 92 % 1012,5 hPa 0,0 mm 0,7 km/h (0 Bft) S 186 ° 0 min 0,000 mm 0,0 UV-I 0 W/m² 6,1 °C 7,3 °C 3,2 km/h (1 Bft)
17.09.2017 01:42 7,3 °C 7,3 °C 92 % 1012,4 hPa 0,0 mm 1,7 km/h (1 Bft) S 186 ° 0 min 0,000 mm 0,0 UV-I 0 W/m² 6,1 °C 7,3 °C 3,2 km/h (1 Bft)
17.09.2017 01:43 7,3 °C 7,3 °C 92 % 1012,4 hPa 0,0 mm 1,3 km/h (1 Bft) W-SW 238 ° 0 min 0,000 mm 0,0 UV-I 0 W/m² 6,1 °C 7,3 °C 4,8 km/h (1 Bft)
17.09.2017 01:44 7,2 °C 7,3 °C 93 % 1012,4 hPa 0,0 mm 2,6 km/h (1 Bft) W-SW 237 ° 0 min 0,000 mm 0,0 UV-I 0 W/m² 6,1 °C 7,2 °C 4,8 km/h (1 Bft)
17.09.2017 01:45 7,2 °C 7,2 °C 92 % 1012,3 hPa 0,0 mm 0,8 km/h (0 Bft) W-SW 237 ° 0 min 0,000 mm 0,0 UV-I 0 W/m² 6,0 °C 7,2 °C 1,6 km/h (1 Bft)
17.09.2017 01:46 7,3 °C 7,3 °C 93 % 1012,3 hPa 0,0 mm 1,5 km/h (1 Bft) SW 214 ° 0 min 0,000 mm 0,0 UV-I 0 W/m² 6,2 °C 7,3 °C 6,4 km/h (2 Bft)
17.09.2017 01:47 7,3 °C 7,3 °C 92 % 1012,3 hPa 0,0 mm 1,0 km/h (0 Bft) SW 214 ° 0 min 0,000 mm 0,0 UV-I 0 W/m² 6,1 °C 7,3 °C 3,2 km/h (1 Bft)
17.09.2017 01:48 7,3 °C 7,3 °C 92 % 1012,3 hPa 0,0 mm 4,8 km/h (1 Bft) S-SW 205 ° 0 min 0,000 mm 0,0 UV-I 0 W/m² 6,1 °C 6,8 °C 6,4 km/h (2 Bft)
17.09.2017 01:49 7,3 °C 7,4 °C 92 % 1012,4 hPa 0,0 mm 2,5 km/h (1 Bft) S-SW 198 ° 0 min 0,000 mm 0,0 UV-I 0 W/m² 6,1 °C 7,3 °C 4,8 km/h (1 Bft)
17.09.2017 01:50 7,4 °C 7,4 °C 92 % 1012,4 hPa 0,0 mm 3,8 km/h (1 Bft) S-SW 198 ° 0 min 0,000 mm 0,0 UV-I 0 W/m² 6,2 °C 7,4 °C 6,4 km/h (2 Bft)
17.09.2017 01:51 7,4 °C 7,4 °C 92 % 1012,4 hPa 0,0 mm 1,5 km/h (1 Bft) S-SW 194 ° 0 min 0,000 mm 0,0 UV-I 0 W/m² 6,2 °C 7,4 °C 3,2 km/h (1 Bft)
17.09.2017 01:52 7,4 °C 7,4 °C 92 % 1012,4 hPa 0,0 mm 0,6 km/h (0 Bft) S-SW 194 ° 0 min 0,000 mm 0,0 UV-I 0 W/m² 6,2 °C 7,4 °C 3,2 km/h (1 Bft)
17.09.2017 01:53 7,5 °C 7,5 °C 92 % 1012,4 hPa 0,0 mm 3,6 km/h (1 Bft) S-SW 198 ° 0 min 0,000 mm 0,0 UV-I 0 W/m² 6,3 °C 7,5 °C 4,8 km/h (1 Bft)
17.09.2017 01:54 7,5 °C 7,6 °C 92 % 1012,4 hPa 0,0 mm 3,2 km/h (1 Bft) S-SW 198 ° 0 min 0,000 mm 0,0 UV-I 0 W/m² 6,3 °C 7,5 °C 4,8 km/h (1 Bft)
17.09.2017 01:55 7,6 °C 7,6 °C 92 % 1012,4 hPa 0,0 mm 3,3 km/h (1 Bft) S-SW 198 ° 0 min 0,000 mm 0,0 UV-I 0 W/m² 6,4 °C 7,6 °C 4,8 km/h (1 Bft)
17.09.2017 01:56 7,6 °C 7,6 °C 92 % 1012,4 hPa 0,0 mm 1,6 km/h (1 Bft) S-SW 198 ° 0 min 0,000 mm 0,0 UV-I 0 W/m² 6,4 °C 7,6 °C 3,2 km/h (1 Bft)
17.09.2017 01:57 7,6 °C 7,6 °C 92 % 1012,4 hPa 0,0 mm 0,6 km/h (0 Bft) S-SW 198 ° 0 min 0,000 mm 0,0 UV-I 0 W/m² 6,4 °C 7,6 °C 3,2 km/h (1 Bft)
17.09.2017 01:58 7,6 °C 7,6 °C 92 % 1012,5 hPa 0,0 mm 2,5 km/h (1 Bft) S-SW 205 ° 0 min 0,000 mm 0,0 UV-I 0 W/m² 6,4 °C 7,6 °C 3,2 km/h (1 Bft)
17.09.2017 01:59 7,6 °C 7,6 °C 92 % 1012,5 hPa 0,0 mm 2,5 km/h (1 Bft) S-SW 205 ° 0 min 0,000 mm 0,0 UV-I 0 W/m² 6,4 °C 7,6 °C 4,8 km/h (1 Bft)
17.09.2017 02:00 7,6 °C 7,6 °C 92 % 1012,5 hPa 0,0 mm 4,6 km/h (1 Bft) SW 229 ° 0 min 0,000 mm 0,0 UV-I 0 W/m² 6,4 °C 7,2 °C 8,0 km/h (2 Bft)
17.09.2017 02:01 7,6 °C 7,6 °C 92 % 1012,5 hPa 0,0 mm 3,0 km/h (1 Bft) S-SW 198 ° 0 min 0,000 mm 0,0 UV-I 0 W/m² 6,4 °C 7,6 °C 4,8 km/h (1 Bft)
17.09.2017 02:02 7,6 °C 7,6 °C 92 % 1012,5 hPa 0,0 mm 1,9 km/h (1 Bft) W 259 ° 0 min 0,000 mm 0,0 UV-I 0 W/m² 6,4 °C 7,6 °C 4,8 km/h (1 Bft)
17.09.2017 02:03 7,6 °C 7,6 °C 92 % 1012,5 hPa 0,0 mm 2,6 km/h (1 Bft) W-SW 244 ° 0 min 0,000 mm 0,0 UV-I 0 W/m² 6,4 °C 7,6 °C 4,8 km/h (1 Bft)
17.09.2017 02:04 7,6 °C 7,6 °C 92 % 1012,5 hPa 0,0 mm 3,0 km/h (1 Bft) W 259 ° 0 min 0,000 mm 0,0 UV-I 0 W/m² 6,4 °C 7,6 °C 6,4 km/h (2 Bft)
17.09.2017 02:05 7,6 °C 7,6 °C 92 % 1012,5 hPa 0,0 mm 3,4 km/h (1 Bft) S-SW 207 ° 0 min 0,000 mm 0,0 UV-I 0 W/m² 6,4 °C 7,6 °C 8,0 km/h (2 Bft)
17.09.2017 02:06 7,6 °C 7,7 °C 92 % 1012,6 hPa 0,0 mm 2,1 km/h (1 Bft) S-SW 207 ° 0 min 0,000 mm 0,0 UV-I 0 W/m² 6,4 °C 7,6 °C 4,8 km/h (1 Bft)
17.09.2017 02:07 7,6 °C 7,7 °C 92 % 1012,5 hPa 0,0 mm 0,4 km/h (0 Bft) S-SW 207 ° 0 min 0,000 mm 0,0 UV-I 0 W/m² 6,4 °C 7,6 °C 1,6 km/h (1 Bft)
17.09.2017 02:08 7,7 °C 7,7 °C 92 % 1012,5 hPa 0,0 mm 1,8 km/h (1 Bft) S-SW 208 ° 0 min 0,000 mm 0,0 UV-I 0 W/m² 6,5 °C 7,7 °C 3,2 km/h (1 Bft)
17.09.2017 02:09 7,6 °C 7,7 °C 92 % 1012,5 hPa 0,0 mm 3,9 km/h (1 Bft) S 185 ° 0 min 0,000 mm 0,0 UV-I 0 W/m² 6,4 °C 7,6 °C 6,4 km/h (2 Bft)
17.09.2017 02:10 7,6 °C 7,7 °C 92 % 1012,5 hPa 0,0 mm 3,4 km/h (1 Bft) S 178 ° 0 min 0,000 mm 0,0 UV-I 0 W/m² 6,4 °C 7,6 °C 4,8 km/h (1 Bft)
17.09.2017 02:11 7,6 °C 7,6 °C 92 % 1012,5 hPa 0,0 mm 4,8 km/h (1 Bft) S-SW 196 ° 0 min 0,000 mm 0,0 UV-I 0 W/m² 6,4 °C 7,1 °C 6,4 km/h (2 Bft)
17.09.2017 02:12 7,7 °C 7,7 °C 92 % 1012,5 hPa 0,0 mm 4,9 km/h (1 Bft) S-SW 200 ° 0 min 0,000 mm 0,0 UV-I 0 W/m² 6,5 °C 7,2 °C 6,4 km/h (2 Bft)
17.09.2017 02:13 7,6 °C 7,7 °C 92 % 1012,5 hPa 0,0 mm 2,7 km/h (1 Bft) S-SW 204 ° 0 min 0,000 mm 0,0 UV-I 0 W/m² 6,4 °C 7,6 °C 4,8 km/h (1 Bft)
17.09.2017 02:14 7,6 °C 7,6 °C 92 % 1012,5 hPa 0,0 mm 2,5 km/h (1 Bft) S-SW 207 ° 0 min 0,000 mm 0,0 UV-I 0 W/m² 6,4 °C 7,6 °C 4,8 km/h (1 Bft)
17.09.2017 02:15 7,6 °C 7,6 °C 92 % 1012,5 hPa 0,0 mm 0,6 km/h (0 Bft) S-SO 163 ° 0 min 0,000 mm 0,0 UV-I 0 W/m² 6,4 °C 7,6 °C 1,6 km/h (1 Bft)
17.09.2017 02:16 7,6 °C 7,6 °C 92 % 1012,5 hPa 0,0 mm 1,9 km/h (1 Bft) S 170 ° 0 min 0,000 mm 0,0 UV-I 0 W/m² 6,4 °C 7,6 °C 6,4 km/h (2 Bft)
17.09.2017 02:17 7,6 °C 7,6 °C 92 % 1012,6 hPa 0,0 mm 1,4 km/h (1 Bft) S 182 ° 0 min 0,000 mm 0,0 UV-I 0 W/m² 6,4 °C 7,6 °C 3,2 km/h (1 Bft)
17.09.2017 02:18 7,6 °C 7,6 °C 92 % 1012,6 hPa 0,0 mm 0,8 km/h (0 Bft) S 186 ° 0 min 0,000 mm 0,0 UV-I 0 W/m² 6,4 °C 7,6 °C 3,2 km/h (1 Bft)
17.09.2017 02:19 7,6 °C 7,6 °C 92 % 1012,6 hPa 0,0 mm 0,1 km/h (0 Bft) S 186 ° 0 min 0,000 mm 0,0 UV-I 0 W/m² 6,4 °C 7,6 °C 1,6 km/h (1 Bft)
17.09.2017 02:20 7,6 °C 7,6 °C 92 % 1012,6 hPa 0,0 mm 1,5 km/h (1 Bft) SW 231 ° 0 min 0,000 mm 0,0 UV-I 0 W/m² 6,4 °C 7,6 °C 4,8 km/h (1 Bft)
17.09.2017 02:21 7,6 °C 7,6 °C 92 % 1012,6 hPa 0,0 mm 0,9 km/h (0 Bft) SW 231 ° 0 min 0,000 mm 0,0 UV-I 0 W/m² 6,4 °C 7,6 °C 3,2 km/h (1 Bft)
17.09.2017 02:22 7,6 °C 7,6 °C 92 % 1012,6 hPa 0,0 mm 1,8 km/h (1 Bft) SW 231 ° 0 min 0,000 mm 0,0 UV-I 0 W/m² 6,4 °C 7,6 °C 3,2 km/h (1 Bft)
17.09.2017 02:23 7,6 °C 7,6 °C 92 % 1012,5 hPa 0,0 mm 1,5 km/h (1 Bft) SW 231 ° 0 min 0,000 mm 0,0 UV-I 0 W/m² 6,4 °C 7,6 °C 3,2 km/h (1 Bft)
17.09.2017 02:24 7,6 °C 7,6 °C 92 % 1012,5 hPa 0,0 mm 0,9 km/h (0 Bft) SW 231 ° 0 min 0,000 mm 0,0 UV-I 0 W/m² 6,4 °C 7,6 °C 1,6 km/h (1 Bft)
17.09.2017 02:25 7,6 °C 7,6 °C 92 % 1012,6 hPa 0,0 mm 0,2 km/h (0 Bft) SW 231 ° 0 min 0,000 mm 0,0 UV-I 0 W/m² 6,4 °C 7,6 °C 1,6 km/h (1 Bft)
17.09.2017 02:26 7,6 °C 7,6 °C 92 % 1012,6 hPa 0,0 mm 2,3 km/h (1 Bft) SW 236 ° 0 min 0,000 mm 0,0 UV-I 0 W/m² 6,4 °C 7,6 °C 3,2 km/h (1 Bft)
17.09.2017 02:27 7,6 °C 7,6 °C 92 % 1012,5 hPa 0,0 mm 1,2 km/h (1 Bft) SW 236 ° 0 min 0,000 mm 0,0 UV-I 0 W/m² 6,4 °C 7,6 °C 3,2 km/h (1 Bft)
17.09.2017 02:28 7,5 °C 7,6 °C 92 % 1012,5 hPa 0,0 mm 1,9 km/h (1 Bft) SW 236 ° 0 min 0,000 mm 0,0 UV-I 0 W/m² 6,3 °C 7,5 °C 3,2 km/h (1 Bft)
17.09.2017 02:29 7,5 °C 7,6 °C 92 % 1012,6 hPa 0,0 mm 1,4 km/h (1 Bft) SW 229 ° 0 min 0,000 mm 0,0 UV-I 0 W/m² 6,3 °C 7,5 °C 3,2 km/h (1 Bft)
17.09.2017 02:30 7,5 °C 7,5 °C 92 % 1012,5 hPa 0,0 mm 1,5 km/h (1 Bft) SW 226 ° 0 min 0,000 mm 0,0 UV-I 0 W/m² 6,3 °C 7,5 °C 3,2 km/h (1 Bft)
17.09.2017 02:31 7,5 °C 7,5 °C 92 % 1012,5 hPa 0,0 mm 4,3 km/h (1 Bft) S-SW 192 ° 0 min 0,000 mm 0,0 UV-I 0 W/m² 6,3 °C 7,5 °C 4,8 km/h (1 Bft)
17.09.2017 02:32 7,4 °C 7,5 °C 92 % 1012,5 hPa 0,0 mm 5,2 km/h (1 Bft) S 190 ° 0 min 0,000 mm 0,0 UV-I 0 W/m² 6,2 °C 6,7 °C 6,4 km/h (2 Bft)
17.09.2017 02:33 7,4 °C 7,4 °C 92 % 1012,5 hPa 0,0 mm 5,0 km/h (1 Bft) S-SW 196 ° 0 min 0,000 mm 0,0 UV-I 0 W/m² 6,2 °C 6,8 °C 8,0 km/h (2 Bft)
17.09.2017 02:34 7,4 °C 7,4 °C 92 % 1012,5 hPa 0,0 mm 5,2 km/h (1 Bft) S 188 ° 0 min 0,000 mm 0,0 UV-I 0 W/m² 6,2 °C 6,7 °C 8,0 km/h (2 Bft)
17.09.2017 02:35 7,4 °C 7,4 °C 92 % 1012,6 hPa 0,0 mm 2,9 km/h (1 Bft) S 183 ° 0 min 0,000 mm 0,0 UV-I 0 W/m² 6,2 °C 7,4 °C 4,8 km/h (1 Bft)
17.09.2017 02:36 7,4 °C 7,4 °C 92 % 1012,6 hPa 0,0 mm 4,1 km/h (1 Bft) S 188 ° 0 min 0,000 mm 0,0 UV-I 0 W/m² 6,2 °C 7,4 °C 6,4 km/h (2 Bft)
17.09.2017 02:37 7,4 °C 7,4 °C 92 % 1012,5 hPa 0,0 mm 3,2 km/h (1 Bft) S-SW 205 ° 0 min 0,000 mm 0,0 UV-I 0 W/m² 6,2 °C 7,4 °C 4,8 km/h (1 Bft)
17.09.2017 02:38 7,4 °C 7,4 °C 92 % 1012,6 hPa 0,0 mm 2,6 km/h (1 Bft) S 183 ° 0 min 0,000 mm 0,0 UV-I 0 W/m² 6,2 °C 7,4 °C 4,8 km/h (1 Bft)
17.09.2017 02:39 7,4 °C 7,4 °C 92 % 1012,6 hPa 0,0 mm 2,9 km/h (1 Bft) S 189 ° 0 min 0,000 mm 0,0 UV-I 0 W/m² 6,2 °C 7,4 °C 4,8 km/h (1 Bft)
17.09.2017 02:40 7,4 °C 7,4 °C 92 % 1012,7 hPa 0,0 mm 2,1 km/h (1 Bft) S 189 ° 0 min 0,000 mm 0,0 UV-I 0 W/m² 6,2 °C 7,4 °C 4,8 km/h (1 Bft)
17.09.2017 02:41 7,4 °C 7,4 °C 92 % 1012,6 hPa 0,0 mm 2,9 km/h (1 Bft) S 189 ° 0 min 0,000 mm 0,0 UV-I 0 W/m² 6,2 °C 7,4 °C 4,8 km/h (1 Bft)
17.09.2017 02:42 7,3 °C 7,4 °C 92 % 1012,6 hPa 0,0 mm 4,2 km/h (1 Bft) S-SW 194 ° 0 min 0,000 mm 0,0 UV-I 0 W/m² 6,1 °C 7,3 °C 6,4 km/h (2 Bft)
17.09.2017 02:43 7,3 °C 7,3 °C 92 % 1012,6 hPa 0,0 mm 3,9 km/h (1 Bft) S-SW 194 ° 0 min 0,000 mm 0,0 UV-I 0 W/m² 6,1 °C 7,3 °C 6,4 km/h (2 Bft)
17.09.2017 02:44 7,3 °C 7,4 °C 92 % 1012,6 hPa 0,0 mm 3,9 km/h (1 Bft) S-SW 194 ° 0 min 0,000 mm 0,0 UV-I 0 W/m² 6,1 °C 7,3 °C 6,4 km/h (2 Bft)
17.09.2017 02:45 7,3 °C 7,3 °C 92 % 1012,6 hPa 0,0 mm 3,9 km/h (1 Bft) S 186 ° 0 min 0,000 mm 0,0 UV-I 0 W/m² 6,1 °C 7,3 °C 6,4 km/h (2 Bft)
17.09.2017 02:46 7,3 °C 7,3 °C 92 % 1012,6 hPa 0,0 mm 2,2 km/h (1 Bft) S-SW 196 ° 0 min 0,000 mm 0,0 UV-I 0 W/m² 6,1 °C 7,3 °C 4,8 km/h (1 Bft)
17.09.2017 02:47 7,3 °C 7,3 °C 92 % 1012,5 hPa 0,0 mm 3,8 km/h (1 Bft) S 187 ° 0 min 0,000 mm 0,0 UV-I 0 W/m² 6,1 °C 7,3 °C 6,4 km/h (2 Bft)
17.09.2017 02:48 7,3 °C 7,3 °C 92 % 1012,5 hPa 0,0 mm 4,8 km/h (1 Bft) S-SW 201 ° 0 min 0,000 mm 0,0 UV-I 0 W/m² 6,1 °C 6,8 °C 8,0 km/h (2 Bft)
17.09.2017 02:49 7,3 °C 7,3 °C 92 % 1012,5 hPa 0,0 mm 4,9 km/h (1 Bft) S-SW 196 ° 0 min 0,000 mm 0,0 UV-I 0 W/m² 6,1 °C 6,7 °C 6,4 km/h (2 Bft)
17.09.2017 02:50 7,3 °C 7,3 °C 92 % 1012,6 hPa 0,0 mm 5,4 km/h (1 Bft) S 190 ° 0 min 0,000 mm 0,0 UV-I 0 W/m² 6,1 °C 6,6 °C 8,0 km/h (2 Bft)
17.09.2017 02:51 7,3 °C 7,3 °C 92 % 1012,6 hPa 0,0 mm 5,8 km/h (2 Bft) S-SW 196 ° 0 min 0,000 mm 0,0 UV-I 0 W/m² 6,1 °C 6,4 °C 8,0 km/h (2 Bft)
17.09.2017 02:52 7,3 °C 7,3 °C 92 % 1012,6 hPa 0,0 mm 4,2 km/h (1 Bft) S 188 ° 0 min 0,000 mm 0,0 UV-I 0 W/m² 6,1 °C 7,3 °C 6,4 km/h (2 Bft)
17.09.2017 02:53 7,3 °C 7,3 °C 92 % 1012,5 hPa 0,0 mm 4,2 km/h (1 Bft) S 180 ° 0 min 0,000 mm 0,0 UV-I 0 W/m² 6,1 °C 7,3 °C 6,4 km/h (2 Bft)
17.09.2017 02:54 7,3 °C 7,3 °C 92 % 1012,6 hPa 0,0 mm 3,9 km/h (1 Bft) S-SW 205 ° 0 min 0,000 mm 0,0 UV-I 0 W/m² 6,1 °C 7,3 °C 6,4 km/h (2 Bft)
17.09.2017 02:55 7,3 °C 7,3 °C 92 % 1012,6 hPa 0,0 mm 4,0 km/h (1 Bft) S-SW 205 ° 0 min 0,000 mm 0,0 UV-I 0 W/m² 6,1 °C 7,3 °C 6,4 km/h (2 Bft)
17.09.2017 02:56 7,3 °C 7,3 °C 92 % 1012,6 hPa 0,0 mm 1,9 km/h (1 Bft) S-SW 204 ° 0 min 0,000 mm 0,0 UV-I 0 W/m² 6,1 °C 7,3 °C 4,8 km/h (1 Bft)
17.09.2017 02:57 7,3 °C 7,3 °C 92 % 1012,6 hPa 0,0 mm 0,9 km/h (0 Bft) S-SW 204 ° 0 min 0,000 mm 0,0 UV-I 0 W/m² 6,1 °C 7,3 °C 1,6 km/h (1 Bft)
17.09.2017 02:58 7,3 °C 7,3 °C 92 % 1012,5 hPa 0,0 mm 1,5 km/h (1 Bft) S-SW 204 ° 0 min 0,000 mm 0,0 UV-I 0 W/m² 6,1 °C 7,3 °C 4,8 km/h (1 Bft)
17.09.2017 02:59 7,3 °C 7,3 °C 92 % 1012,5 hPa 0,0 mm 2,3 km/h (1 Bft) S-SW 203 ° 0 min 0,000 mm 0,0 UV-I 0 W/m² 6,1 °C 7,3 °C 4,8 km/h (1 Bft)
17.09.2017 03:00 7,2 °C 7,3 °C 92 % 1012,5 hPa 0,0 mm 0,8 km/h (0 Bft) S-SW 203 ° 0 min 0,000 mm 0,0 UV-I 0 W/m² 6,0 °C 7,2 °C 3,2 km/h (1 Bft)
17.09.2017 03:01 7,2 °C 7,2 °C 92 % 1012,5 hPa 0,0 mm 0,2 km/h (0 Bft) S-SW 203 ° 0 min 0,000 mm 0,0 UV-I 0 W/m² 6,0 °C 7,2 °C 1,6 km/h (1 Bft)
17.09.2017 03:02 7,2 °C 7,2 °C 92 % 1012,5 hPa 0,0 mm 0,1 km/h (0 Bft) S-SW 203 ° 0 min 0,000 mm 0,0 UV-I 0 W/m² 6,0 °C 7,2 °C 1,6 km/h (1 Bft)
17.09.2017 03:03 7,2 °C 7,2 °C 92 % 1012,5 hPa 0,0 mm 0,0 km/h (0 Bft) S-SW 203 ° 0 min 0,000 mm 0,0 UV-I 0 W/m² 6,0 °C 7,2 °C 0,0 km/h (0 Bft)
17.09.2017 03:04 7,1 °C 7,2 °C 93 % 1012,5 hPa 0,0 mm 0,1 km/h (0 Bft) S-SW 203 ° 0 min 0,000 mm 0,0 UV-I 0 W/m² 6,0 °C 7,1 °C 1,6 km/h (1 Bft)
17.09.2017 03:05 7,1 °C 7,1 °C 93 % 1012,4 hPa 0,0 mm 1,7 km/h (1 Bft) S-SW 203 ° 0 min 0,000 mm 0,0 UV-I 0 W/m² 6,0 °C 7,1 °C 3,2 km/h (1 Bft)
17.09.2017 03:06 7,1 °C 7,1 °C 93 % 1012,4 hPa 0,0 mm 0,8 km/h (0 Bft) S-SW 204 ° 0 min 0,000 mm 0,0 UV-I 0 W/m² 6,0 °C 7,1 °C 3,2 km/h (1 Bft)
17.09.2017 03:07 7,0 °C 7,1 °C 93 % 1012,5 hPa 0,0 mm 0,0 km/h (0 Bft) S-SW 204 ° 0 min 0,000 mm 0,0 UV-I 0 W/m² 5,9 °C 7,0 °C 0,0 km/h (0 Bft)
17.09.2017 03:08 7,0 °C 7,1 °C 93 % 1012,4 hPa 0,0 mm 0,0 km/h (0 Bft) S-SW 204 ° 0 min 0,000 mm 0,0 UV-I 0 W/m² 5,9 °C 7,0 °C 0,0 km/h (0 Bft)
17.09.2017 03:09 7,0 °C 7,0 °C 93 % 1012,5 hPa 0,0 mm 0,0 km/h (0 Bft) S-SW 204 ° 0 min 0,000 mm 0,0 UV-I 0 W/m² 5,9 °C 7,0 °C 0,0 km/h (0 Bft)
17.09.2017 03:10 7,0 °C 7,0 °C 93 % 1012,5 hPa 0,0 mm 0,0 km/h (0 Bft) S-SW 204 ° 0 min 0,000 mm 0,0 UV-I 0 W/m² 5,9 °C 7,0 °C 0,0 km/h (0 Bft)
17.09.2017 03:11 6,9 °C 7,0 °C 93 % 1012,4 hPa 0,0 mm 0,0 km/h (0 Bft) S-SW 204 ° 0 min 0,000 mm 0,0 UV-I 0 W/m² 5,8 °C 6,9 °C 0,0 km/h (0 Bft)
17.09.2017 03:12 6,9 °C 7,0 °C 93 % 1012,4 hPa 0,0 mm 0,0 km/h (0 Bft) S-SW 204 ° 0 min 0,000 mm 0,0 UV-I 0 W/m² 5,8 °C 6,9 °C 0,0 km/h (0 Bft)
17.09.2017 03:13 6,9 °C 7,0 °C 93 % 1012,4 hPa 0,0 mm 0,0 km/h (0 Bft) S-SW 204 ° 0 min 0,000 mm 0,0 UV-I 0 W/m² 5,8 °C 6,9 °C 0,0 km/h (0 Bft)
17.09.2017 03:14 7,0 °C 7,0 °C 94 % 1012,4 hPa 0,0 mm 0,0 km/h (0 Bft) S-SW 204 ° 0 min 0,000 mm 0,0 UV-I 0 W/m² 6,1 °C 7,0 °C 0,0 km/h (0 Bft)
17.09.2017 03:15 6,9 °C 7,0 °C 94 % 1012,4 hPa 0,0 mm 1,5 km/h (1 Bft) S-SW 204 ° 0 min 0,000 mm 0,0 UV-I 0 W/m² 6,0 °C 6,9 °C 3,2 km/h (1 Bft)
17.09.2017 03:16 7,0 °C 7,0 °C 94 % 1012,4 hPa 0,0 mm 1,7 km/h (1 Bft) S-SW 204 ° 0 min 0,000 mm 0,0 UV-I 0 W/m² 6,1 °C 7,0 °C 3,2 km/h (1 Bft)
17.09.2017 03:17 6,9 °C 7,0 °C 94 % 1012,4 hPa 0,0 mm 0,0 km/h (0 Bft) S-SW 204 ° 0 min 0,000 mm 0,0 UV-I 0 W/m² 6,0 °C 6,9 °C 0,0 km/h (0 Bft)
17.09.2017 03:18 6,9 °C 6,9 °C 94 % 1012,4 hPa 0,0 mm 0,8 km/h (0 Bft) S-SW 204 ° 0 min 0,000 mm 0,0 UV-I 0 W/m² 6,0 °C 6,9 °C 3,2 km/h (1 Bft)
17.09.2017 03:19 6,9 °C 6,9 °C 94 % 1012,4 hPa 0,0 mm 0,0 km/h (0 Bft) S-SW 204 ° 0 min 0,000 mm 0,0 UV-I 0 W/m² 6,0 °C 6,9 °C 0,0 km/h (0 Bft)
17.09.2017 03:20 6,9 °C 6,9 °C 94 % 1012,4 hPa 0,0 mm 0,0 km/h (0 Bft) S-SW 204 ° 0 min 0,000 mm 0,0 UV-I 0 W/m² 6,0 °C 6,9 °C 0,0 km/h (0 Bft)
17.09.2017 03:21 6,9 °C 6,9 °C 94 % 1012,4 hPa 0,0 mm 0,0 km/h (0 Bft) S-SW 204 ° 0 min 0,000 mm 0,0 UV-I 0 W/m² 6,0 °C 6,9 °C 0,0 km/h (0 Bft)
17.09.2017 03:22 6,9 °C 6,9 °C 94 % 1012,4 hPa 0,0 mm 0,0 km/h (0 Bft) S-SW 204 ° 0 min 0,000 mm 0,0 UV-I 0 W/m² 6,0 °C 6,9 °C 0,0 km/h (0 Bft)
17.09.2017 03:23 6,9 °C 6,9 °C 93 % 1012,4 hPa 0,0 mm 0,0 km/h (0 Bft) S-SW 204 ° 0 min 0,000 mm 0,0 UV-I 0 W/m² 5,8 °C 6,9 °C 0,0 km/h (0 Bft)
17.09.2017 03:24 6,9 °C 6,9 °C 93 % 1012,4 hPa 0,0 mm 0,0 km/h (0 Bft) S-SW 204 ° 0 min 0,000 mm 0,0 UV-I 0 W/m² 5,8 °C 6,9 °C 0,0 km/h (0 Bft)
17.09.2017 03:25 6,8 °C 6,9 °C 93 % 1012,4 hPa 0,0 mm 0,0 km/h (0 Bft) S-SW 204 ° 0 min 0,000 mm 0,0 UV-I 0 W/m² 5,7 °C 6,8 °C 0,0 km/h (0 Bft)
17.09.2017 03:26 6,8 °C 6,8 °C 94 % 1012,5 hPa 0,0 mm 0,0 km/h (0 Bft) S-SW 204 ° 0 min 0,000 mm 0,0 UV-I 0 W/m² 5,9 °C 6,8 °C 0,0 km/h (0 Bft)
17.09.2017 03:27 6,8 °C 6,8 °C 94 % 1012,5 hPa 0,0 mm 0,0 km/h (0 Bft) S-SW 204 ° 0 min 0,000 mm 0,0 UV-I 0 W/m² 5,9 °C 6,8 °C 0,0 km/h (0 Bft)
17.09.2017 03:28 6,8 °C 6,8 °C 94 % 1012,5 hPa 0,0 mm 0,5 km/h (0 Bft) S-SW 204 ° 0 min 0,000 mm 0,0 UV-I 0 W/m² 5,9 °C 6,8 °C 1,6 km/h (1 Bft)
17.09.2017 03:29 6,7 °C 6,8 °C 94 % 1012,5 hPa 0,0 mm 1,1 km/h (1 Bft) S-SW 204 ° 0 min 0,000 mm 0,0 UV-I 0 W/m² 5,8 °C 6,7 °C 3,2 km/h (1 Bft)
17.09.2017 03:30 6,6 °C 6,7 °C 93 % 1012,5 hPa 0,0 mm 0,0 km/h (0 Bft) S-SW 204 ° 0 min 0,000 mm 0,0 UV-I 0 W/m² 5,6 °C 6,6 °C 0,0 km/h (0 Bft)
17.09.2017 03:31 6,6 °C 6,6 °C 93 % 1012,4 hPa 0,0 mm 0,0 km/h (0 Bft) S-SW 204 ° 0 min 0,000 mm 0,0 UV-I 0 W/m² 5,6 °C 6,6 °C 0,0 km/h (0 Bft)
17.09.2017 03:32 6,4 °C 6,6 °C 93 % 1012,5 hPa 0,0 mm 0,0 km/h (0 Bft) S-SW 204 ° 0 min 0,000 mm 0,0 UV-I 0 W/m² 5,4 °C 6,4 °C 0,0 km/h (0 Bft)
17.09.2017 03:33 6,4 °C 6,5 °C 93 % 1012,5 hPa 0,0 mm 0,0 km/h (0 Bft) S-SW 204 ° 0 min 0,000 mm 0,0 UV-I 0 W/m² 5,4 °C 6,4 °C 0,0 km/h (0 Bft)
17.09.2017 03:34 6,4 °C 6,4 °C 93 % 1012,5 hPa 0,0 mm 0,0 km/h (0 Bft) S-SW 204 ° 0 min 0,000 mm 0,0 UV-I 0 W/m² 5,4 °C 6,4 °C 0,0 km/h (0 Bft)
17.09.2017 03:35 6,3 °C 6,4 °C 94 % 1012,5 hPa 0,0 mm 0,0 km/h (0 Bft) S-SW 204 ° 0 min 0,000 mm 0,0 UV-I 0 W/m² 5,4 °C 6,3 °C 0,0 km/h (0 Bft)
17.09.2017 03:36 6,3 °C 6,3 °C 94 % 1012,5 hPa 0,0 mm 0,0 km/h (0 Bft) S-SW 204 ° 0 min 0,000 mm 0,0 UV-I 0 W/m² 5,4 °C 6,3 °C 0,0 km/h (0 Bft)
17.09.2017 03:37 6,3 °C 6,3 °C 94 % 1012,5 hPa 0,0 mm 0,0 km/h (0 Bft) S-SW 204 ° 0 min 0,000 mm 0,0 UV-I 0 W/m² 5,4 °C 6,3 °C 0,0 km/h (0 Bft)
17.09.2017 03:38 6,3 °C 6,3 °C 94 % 1012,5 hPa 0,0 mm 0,0 km/h (0 Bft) S-SW 204 ° 0 min 0,000 mm 0,0 UV-I 0 W/m² 5,4 °C 6,3 °C 0,0 km/h (0 Bft)
17.09.2017 03:39 6,3 °C 6,3 °C 94 % 1012,5 hPa 0,0 mm 0,0 km/h (0 Bft) S-SW 204 ° 0 min 0,000 mm 0,0 UV-I 0 W/m² 5,4 °C 6,3 °C 0,0 km/h (0 Bft)
17.09.2017 03:40 6,3 °C 6,3 °C 94 % 1012,5 hPa 0,0 mm 0,0 km/h (0 Bft) S-SW 204 ° 0 min 0,000 mm 0,0 UV-I 0 W/m² 5,4 °C 6,3 °C 0,0 km/h (0 Bft)
17.09.2017 03:41 6,3 °C 6,3 °C 94 % 1012,5 hPa 0,0 mm 0,0 km/h (0 Bft) S-SW 204 ° 0 min 0,000 mm 0,0 UV-I 0 W/m² 5,4 °C 6,3 °C 0,0 km/h (0 Bft)
17.09.2017 03:42 6,3 °C 6,3 °C 94 % 1012,5 hPa 0,0 mm 0,0 km/h (0 Bft) S-SW 204 ° 0 min 0,000 mm 0,0 UV-I 0 W/m² 5,4 °C 6,3 °C 0,0 km/h (0 Bft)
17.09.2017 03:43 6,3 °C 6,3 °C 94 % 1012,5 hPa 0,0 mm 0,0 km/h (0 Bft) S-SW 204 ° 0 min 0,000 mm 0,0 UV-I 0 W/m² 5,4 °C 6,3 °C 0,0 km/h (0 Bft)
17.09.2017 03:44 6,4 °C 6,4 °C 94 % 1012,5 hPa 0,0 mm 0,0 km/h (0 Bft) S-SW 204 ° 0 min 0,000 mm 0,0 UV-I 0 W/m² 5,5 °C 6,4 °C 0,0 km/h (0 Bft)
17.09.2017 03:45 6,3 °C 6,4 °C 94 % 1012,5 hPa 0,0 mm 0,0 km/h (0 Bft) S-SW 204 ° 0 min 0,000 mm 0,0 UV-I 0 W/m² 5,4 °C 6,3 °C 0,0 km/h (0 Bft)
17.09.2017 03:46 6,3 °C 6,4 °C 94 % 1012,5 hPa 0,0 mm 0,0 km/h (0 Bft) S-SW 204 ° 0 min 0,000 mm 0,0 UV-I 0 W/m² 5,4 °C 6,3 °C 0,0 km/h (0 Bft)
17.09.2017 03:47 6,3 °C 6,3 °C 94 % 1012,5 hPa 0,0 mm 0,0 km/h (0 Bft) S-SW 204 ° 0 min 0,000 mm 0,0 UV-I 0 W/m² 5,4 °C 6,3 °C 0,0 km/h (0 Bft)
17.09.2017 03:48 6,3 °C 6,3 °C 94 % 1012,6 hPa 0,0 mm 0,0 km/h (0 Bft) S-SW 204 ° 0 min 0,000 mm 0,0 UV-I 0 W/m² 5,4 °C 6,3 °C 0,0 km/h (0 Bft)
17.09.2017 03:49 6,3 °C 6,3 °C 94 % 1012,6 hPa 0,0 mm 0,0 km/h (0 Bft) S-SW 204 ° 0 min 0,000 mm 0,0 UV-I 0 W/m² 5,4 °C 6,3 °C 0,0 km/h (0 Bft)
17.09.2017 03:50 6,3 °C 6,3 °C 94 % 1012,6 hPa 0,0 mm 0,0 km/h (0 Bft) S-SW 204 ° 0 min 0,000 mm 0,0 UV-I 0 W/m² 5,4 °C 6,3 °C 0,0 km/h (0 Bft)
17.09.2017 03:51 6,3 °C 6,3 °C 94 % 1012,6 hPa 0,0 mm 0,0 km/h (0 Bft) S-SW 204 ° 0 min 0,000 mm 0,0 UV-I 0 W/m² 5,4 °C 6,3 °C 0,0 km/h (0 Bft)
17.09.2017 03:52 6,3 °C 6,3 °C 94 % 1012,6 hPa 0,0 mm 0,0 km/h (0 Bft) S-SW 204 ° 0 min 0,000 mm 0,0 UV-I 0 W/m² 5,4 °C 6,3 °C 0,0 km/h (0 Bft)
17.09.2017 03:53 6,3 °C 6,3 °C 94 % 1012,6 hPa 0,0 mm 0,0 km/h (0 Bft) S-SW 204 ° 0 min 0,000 mm 0,0 UV-I 0 W/m² 5,4 °C 6,3 °C 0,0 km/h (0 Bft)
17.09.2017 03:54 6,3 °C 6,3 °C 94 % 1012,6 hPa 0,0 mm 0,0 km/h (0 Bft) S-SW 204 ° 0 min 0,000 mm 0,0 UV-I 0 W/m² 5,4 °C 6,3 °C 0,0 km/h (0 Bft)
17.09.2017 03:55 6,2 °C 6,3 °C 94 % 1012,6 hPa 0,0 mm 0,0 km/h (0 Bft) S-SW 204 ° 0 min 0,000 mm 0,0 UV-I 0 W/m² 5,3 °C 6,2 °C 0,0 km/h (0 Bft)
17.09.2017 03:56 6,2 °C 6,3 °C 94 % 1012,6 hPa 0,0 mm 0,0 km/h (0 Bft) S-SW 204 ° 0 min 0,000 mm 0,0 UV-I 0 W/m² 5,3 °C 6,2 °C 0,0 km/h (0 Bft)
17.09.2017 03:57 6,3 °C 6,3 °C 94 % 1012,6 hPa 0,0 mm 0,0 km/h (0 Bft) S-SW 204 ° 0 min 0,000 mm 0,0 UV-I 0 W/m² 5,4 °C 6,3 °C 0,0 km/h (0 Bft)
17.09.2017 03:58 6,3 °C 6,3 °C 94 % 1012,6 hPa 0,0 mm 0,0 km/h (0 Bft) S-SW 204 ° 0 min 0,000 mm 0,0 UV-I 0 W/m² 5,4 °C 6,3 °C 0,0 km/h (0 Bft)
17.09.2017 03:59 6,3 °C 6,3 °C 94 % 1012,6 hPa 0,0 mm 0,0 km/h (0 Bft) S-SW 204 ° 0 min 0,000 mm 0,0 UV-I 0 W/m² 5,4 °C 6,3 °C 0,0 km/h (0 Bft)
17.09.2017 04:00 6,3 °C 6,3 °C 94 % 1012,6 hPa 0,0 mm 0,0 km/h (0 Bft) S-SW 204 ° 0 min 0,000 mm 0,0 UV-I 0 W/m² 5,4 °C 6,3 °C 0,0 km/h (0 Bft)
17.09.2017 04:01 6,3 °C 6,3 °C 94 % 1012,6 hPa 0,0 mm 0,0 km/h (0 Bft) S-SW 204 ° 0 min 0,000 mm 0,0 UV-I 0 W/m² 5,4 °C 6,3 °C 0,0 km/h (0 Bft)
17.09.2017 04:02 6,3 °C 6,3 °C 94 % 1012,6 hPa 0,0 mm 0,0 km/h (0 Bft) N 0 ° 0 min 0,000 mm 0,0 UV-I 0 W/m² 5,4 °C 6,3 °C 0,0 km/h (0 Bft)
17.09.2017 04:03 6,3 °C 6,3 °C 94 % 1012,6 hPa 0,0 mm 0,0 km/h (0 Bft) N 0 ° 0 min 0,000 mm 0,0 UV-I 0 W/m² 5,4 °C 6,3 °C 0,0 km/h (0 Bft)
17.09.2017 04:04 6,3 °C 6,3 °C 94 % 1012,6 hPa 0,0 mm 0,0 km/h (0 Bft) N 0 ° 0 min 0,000 mm 0,0 UV-I 0 W/m² 5,4 °C 6,3 °C 0,0 km/h (0 Bft)
17.09.2017 04:05 6,4 °C 6,4 °C 94 % 1012,6 hPa 0,0 mm 0,0 km/h (0 Bft) N 0 ° 0 min 0,000 mm 0,0 UV-I 0 W/m² 5,5 °C 6,4 °C 0,0 km/h (0 Bft)
17.09.2017 04:06 6,4 °C 6,4 °C 94 % 1012,6 hPa 0,0 mm 0,0 km/h (0 Bft) N 0 ° 0 min 0,000 mm 0,0 UV-I 0 W/m² 5,5 °C 6,4 °C 0,0 km/h (0 Bft)
17.09.2017 04:07 6,4 °C 6,4 °C 94 % 1012,6 hPa 0,0 mm 0,0 km/h (0 Bft) N 0 ° 0 min 0,000 mm 0,0 UV-I 0 W/m² 5,5 °C 6,4 °C 0,0 km/h (0 Bft)
17.09.2017 04:08 6,4 °C 6,4 °C 94 % 1012,6 hPa 0,0 mm 0,0 km/h (0 Bft) N 0 ° 0 min 0,000 mm 0,0 UV-I 0 W/m² 5,5 °C 6,4 °C 0,0 km/h (0 Bft)
17.09.2017 04:09 6,4 °C 6,4 °C 94 % 1012,6 hPa 0,0 mm 0,0 km/h (0 Bft) N 0 ° 0 min 0,000 mm 0,0 UV-I 0 W/m² 5,5 °C 6,4 °C 0,0 km/h (0 Bft)
17.09.2017 04:10 6,4 °C 6,4 °C 94 % 1012,6 hPa 0,0 mm 0,0 km/h (0 Bft) N 0 ° 0 min 0,000 mm 0,0 UV-I 0 W/m² 5,5 °C 6,4 °C 0,0 km/h (0 Bft)
17.09.2017 04:11 6,3 °C 6,4 °C 94 % 1012,6 hPa 0,0 mm 0,0 km/h (0 Bft) N 0 ° 0 min 0,000 mm 0,0 UV-I 0 W/m² 5,4 °C 6,3 °C 0,0 km/h (0 Bft)
17.09.2017 04:13 6,3 °C 6,4 °C 94 % 1012,6 hPa 0,0 mm 0,0 km/h (0 Bft) S-SW 204 ° 0 min 0,000 mm 0,0 UV-I 0 W/m² 5,4 °C 6,3 °C 0,0 km/h (0 Bft)
17.09.2017 04:14 6,3 °C 6,3 °C 94 % 1012,6 hPa 0,0 mm 0,0 km/h (0 Bft) S-SW 204 ° 0 min 0,000 mm 0,0 UV-I 0 W/m² 5,4 °C 6,3 °C 0,0 km/h (0 Bft)
17.09.2017 04:15 6,3 °C 6,3 °C 94 % 1012,6 hPa 0,0 mm 0,0 km/h (0 Bft) S-SW 204 ° 0 min 0,000 mm 0,0 UV-I 0 W/m² 5,4 °C 6,3 °C 0,0 km/h (0 Bft)
17.09.2017 04:16 6,3 °C 6,3 °C 94 % 1012,6 hPa 0,0 mm 0,0 km/h (0 Bft) S-SW 204 ° 0 min 0,000 mm 0,0 UV-I 0 W/m² 5,4 °C 6,3 °C 0,0 km/h (0 Bft)
17.09.2017 04:17 6,3 °C 6,3 °C 94 % 1012,6 hPa 0,0 mm 0,0 km/h (0 Bft) S-SW 204 ° 0 min 0,000 mm 0,0 UV-I 0 W/m² 5,4 °C 6,3 °C 0,0 km/h (0 Bft)
17.09.2017 04:18 6,3 °C 6,3 °C 94 % 1012,6 hPa 0,0 mm 0,0 km/h (0 Bft) S-SW 204 ° 0 min 0,000 mm 0,0 UV-I 0 W/m² 5,4 °C 6,3 °C 0,0 km/h (0 Bft)
17.09.2017 04:19 6,3 °C 6,3 °C 94 % 1012,7 hPa 0,0 mm 0,0 km/h (0 Bft) S-SW 204 ° 0 min 0,000 mm 0,0 UV-I 0 W/m² 5,4 °C 6,3 °C 0,0 km/h (0 Bft)
17.09.2017 04:20 6,3 °C 6,3 °C 94 % 1012,7 hPa 0,0 mm 0,0 km/h (0 Bft) S-SW 204 ° 0 min 0,000 mm 0,0 UV-I 0 W/m² 5,4 °C 6,3 °C 0,0 km/h (0 Bft)
17.09.2017 04:21 6,3 °C 6,3 °C 94 % 1012,7 hPa 0,0 mm 0,0 km/h (0 Bft) S-SW 204 ° 0 min 0,000 mm 0,0 UV-I 0 W/m² 5,4 °C 6,3 °C 0,0 km/h (0 Bft)
17.09.2017 04:22 6,3 °C 6,3 °C 94 % 1012,7 hPa 0,0 mm 0,0 km/h (0 Bft) S-SW 204 ° 0 min 0,000 mm 0,0 UV-I 0 W/m² 5,4 °C 6,3 °C 0,0 km/h (0 Bft)
17.09.2017 04:23 6,3 °C 6,3 °C 94 % 1012,7 hPa 0,0 mm 0,0 km/h (0 Bft) S-SW 204 ° 0 min 0,000 mm 0,0 UV-I 0 W/m² 5,4 °C 6,3 °C 0,0 km/h (0 Bft)
17.09.2017 04:24 6,3 °C 6,3 °C 95 % 1012,7 hPa 0,0 mm 0,0 km/h (0 Bft) S-SW 204 ° 0 min 0,000 mm 0,0 UV-I 0 W/m² 5,6 °C 6,3 °C 0,0 km/h (0 Bft)
17.09.2017 04:25 6,3 °C 6,3 °C 94 % 1012,7 hPa 0,0 mm 0,0 km/h (0 Bft) S-SW 204 ° 0 min 0,000 mm 0,0 UV-I 0 W/m² 5,4 °C 6,3 °C 0,0 km/h (0 Bft)
17.09.2017 04:26 6,3 °C 6,3 °C 95 % 1012,7 hPa 0,0 mm 0,0 km/h (0 Bft) S-SW 204 ° 0 min 0,000 mm 0,0 UV-I 0 W/m² 5,6 °C 6,3 °C 0,0 km/h (0 Bft)
17.09.2017 04:27 6,3 °C 6,3 °C 95 % 1012,7 hPa 0,0 mm 0,0 km/h (0 Bft) S-SW 204 ° 0 min 0,000 mm 0,0 UV-I 0 W/m² 5,6 °C 6,3 °C 0,0 km/h (0 Bft)
17.09.2017 04:28 6,3 °C 6,3 °C 94 % 1012,8 hPa 0,0 mm 0,0 km/h (0 Bft) S-SW 204 ° 0 min 0,000 mm 0,0 UV-I 0 W/m² 5,4 °C 6,3 °C 0,0 km/h (0 Bft)
17.09.2017 04:29 6,2 °C 6,3 °C 95 % 1012,7 hPa 0,0 mm 0,0 km/h (0 Bft) S-SW 204 ° 0 min 0,000 mm 0,0 UV-I 0 W/m² 5,5 °C 6,2 °C 0,0 km/h (0 Bft)
17.09.2017 04:30 6,3 °C 6,3 °C 95 % 1012,7 hPa 0,0 mm 0,0 km/h (0 Bft) S-SW 204 ° 0 min 0,000 mm 0,0 UV-I 0 W/m² 5,6 °C 6,3 °C 0,0 km/h (0 Bft)
17.09.2017 04:31 6,3 °C 6,3 °C 95 % 1012,8 hPa 0,0 mm 0,0 km/h (0 Bft) S-SW 204 ° 0 min 0,000 mm 0,0 UV-I 0 W/m² 5,6 °C 6,3 °C 0,0 km/h (0 Bft)
17.09.2017 04:32 6,2 °C 6,3 °C 95 % 1012,7 hPa 0,0 mm 0,0 km/h (0 Bft) S-SW 204 ° 0 min 0,000 mm 0,0 UV-I 0 W/m² 5,5 °C 6,2 °C 0,0 km/h (0 Bft)
17.09.2017 04:33 6,3 °C 6,3 °C 95 % 1012,7 hPa 0,0 mm 0,0 km/h (0 Bft) S-SW 204 ° 0 min 0,000 mm 0,0 UV-I 0 W/m² 5,6 °C 6,3 °C 0,0 km/h (0 Bft)
17.09.2017 04:34 6,2 °C 6,3 °C 95 % 1012,8 hPa 0,0 mm 0,0 km/h (0 Bft) S-SW 204 ° 0 min 0,000 mm 0,0 UV-I 0 W/m² 5,5 °C 6,2 °C 0,0 km/h (0 Bft)
17.09.2017 04:35 6,3 °C 6,3 °C 95 % 1012,8 hPa 0,0 mm 0,0 km/h (0 Bft) S-SW 204 ° 0 min 0,000 mm 0,0 UV-I 0 W/m² 5,6 °C 6,3 °C 0,0 km/h (0 Bft)
17.09.2017 04:36 6,3 °C 6,3 °C 95 % 1012,8 hPa 0,0 mm 0,0 km/h (0 Bft) S-SW 204 ° 0 min 0,000 mm 0,0 UV-I 0 W/m² 5,6 °C 6,3 °C 0,0 km/h (0 Bft)
17.09.2017 04:37 6,3 °C 6,3 °C 95 % 1012,8 hPa 0,0 mm 0,0 km/h (0 Bft) S-SW 204 ° 0 min 0,000 mm 0,0 UV-I 0 W/m² 5,6 °C 6,3 °C 0,0 km/h (0 Bft)
17.09.2017 04:38 6,3 °C 6,3 °C 95 % 1012,8 hPa 0,0 mm 0,0 km/h (0 Bft) S-SW 204 ° 0 min 0,000 mm 0,0 UV-I 0 W/m² 5,6 °C 6,3 °C 0,0 km/h (0 Bft)
17.09.2017 04:39 6,3 °C 6,3 °C 95 % 1012,8 hPa 0,0 mm 0,0 km/h (0 Bft) S-SW 204 ° 0 min 0,000 mm 0,0 UV-I 0 W/m² 5,6 °C 6,3 °C 0,0 km/h (0 Bft)
17.09.2017 04:40 6,3 °C 6,3 °C 95 % 1012,8 hPa 0,0 mm 0,0 km/h (0 Bft) S-SW 204 ° 0 min 0,000 mm 0,0 UV-I 0 W/m² 5,6 °C 6,3 °C 0,0 km/h (0 Bft)
17.09.2017 04:41 6,3 °C 6,3 °C 95 % 1012,8 hPa 0,0 mm 0,0 km/h (0 Bft) S-SW 204 ° 0 min 0,000 mm 0,0 UV-I 0 W/m² 5,6 °C 6,3 °C 0,0 km/h (0 Bft)
17.09.2017 04:42 6,3 °C 6,3 °C 95 % 1012,8 hPa 0,0 mm 0,0 km/h (0 Bft) S-SW 204 ° 0 min 0,000 mm 0,0 UV-I 0 W/m² 5,6 °C 6,3 °C 0,0 km/h (0 Bft)
17.09.2017 04:43 6,3 °C 6,3 °C 95 % 1012,8 hPa 0,0 mm 0,0 km/h (0 Bft) S-SW 204 ° 0 min 0,000 mm 0,0 UV-I 0 W/m² 5,6 °C 6,3 °C 0,0 km/h (0 Bft)
17.09.2017 04:44 6,3 °C 6,3 °C 95 % 1012,7 hPa 0,0 mm 0,0 km/h (0 Bft) S-SW 204 ° 0 min 0,000 mm 0,0 UV-I 0 W/m² 5,6 °C 6,3 °C 0,0 km/h (0 Bft)
17.09.2017 04:45 6,3 °C 6,3 °C 95 % 1012,8 hPa 0,0 mm 0,0 km/h (0 Bft) S-SW 204 ° 0 min 0,000 mm 0,0 UV-I 0 W/m² 5,6 °C 6,3 °C 0,0 km/h (0 Bft)
17.09.2017 04:46 6,3 °C 6,3 °C 95 % 1012,7 hPa 0,0 mm 0,0 km/h (0 Bft) S-SW 204 ° 0 min 0,000 mm 0,0 UV-I 0 W/m² 5,6 °C 6,3 °C 0,0 km/h (0 Bft)
17.09.2017 04:47 6,3 °C 6,3 °C 95 % 1012,7 hPa 0,0 mm 0,0 km/h (0 Bft) S-SW 204 ° 0 min 0,000 mm 0,0 UV-I 0 W/m² 5,6 °C 6,3 °C 0,0 km/h (0 Bft)
17.09.2017 04:48 6,3 °C 6,3 °C 95 % 1012,7 hPa 0,0 mm 0,0 km/h (0 Bft) S-SW 204 ° 0 min 0,000 mm 0,0 UV-I 0 W/m² 5,6 °C 6,3 °C 0,0 km/h (0 Bft)
17.09.2017 04:49 6,3 °C 6,3 °C 95 % 1012,7 hPa 0,0 mm 0,0 km/h (0 Bft) S-SW 204 ° 0 min 0,000 mm 0,0 UV-I 0 W/m² 5,6 °C 6,3 °C 0,0 km/h (0 Bft)
17.09.2017 04:50 6,3 °C 6,3 °C 95 % 1012,7 hPa 0,0 mm 0,0 km/h (0 Bft) S-SW 204 ° 0 min 0,000 mm 0,0 UV-I 0 W/m² 5,6 °C 6,3 °C 0,0 km/h (0 Bft)
17.09.2017 04:51 6,3 °C 6,3 °C 95 % 1012,7 hPa 0,0 mm 0,0 km/h (0 Bft) S-SW 204 ° 0 min 0,000 mm 0,0 UV-I 0 W/m² 5,6 °C 6,3 °C 0,0 km/h (0 Bft)
17.09.2017 04:52 6,3 °C 6,3 °C 95 % 1012,7 hPa 0,0 mm 0,0 km/h (0 Bft) S-SW 204 ° 0 min 0,000 mm 0,0 UV-I 0 W/m² 5,6 °C 6,3 °C 0,0 km/h (0 Bft)
17.09.2017 04:53 6,3 °C 6,3 °C 95 % 1012,6 hPa 0,0 mm 0,0 km/h (0 Bft) S-SW 204 ° 0 min 0,000 mm 0,0 UV-I 0 W/m² 5,6 °C 6,3 °C 0,0 km/h (0 Bft)
17.09.2017 04:54 6,3 °C 6,3 °C 95 % 1012,6 hPa 0,0 mm 0,0 km/h (0 Bft) S-SW 204 ° 0 min 0,000 mm 0,0 UV-I 0 W/m² 5,6 °C 6,3 °C 0,0 km/h (0 Bft)
17.09.2017 04:55 6,3 °C 6,3 °C 95 % 1012,6 hPa 0,0 mm 0,0 km/h (0 Bft) S-SW 204 ° 0 min 0,000 mm 0,0 UV-I 0 W/m² 5,6 °C 6,3 °C 0,0 km/h (0 Bft)
17.09.2017 04:56 6,3 °C 6,3 °C 95 % 1012,6 hPa 0,0 mm 0,0 km/h (0 Bft) S-SW 204 ° 0 min 0,000 mm 0,0 UV-I 0 W/m² 5,6 °C 6,3 °C 0,0 km/h (0 Bft)
17.09.2017 04:57 6,3 °C 6,4 °C 95 % 1012,6 hPa 0,0 mm 0,0 km/h (0 Bft) S-SW 204 ° 0 min 0,000 mm 0,0 UV-I 0 W/m² 5,6 °C 6,3 °C 0,0 km/h (0 Bft)
17.09.2017 04:58 6,3 °C 6,4 °C 95 % 1012,6 hPa 0,0 mm 0,0 km/h (0 Bft) S-SW 204 ° 0 min 0,000 mm 0,0 UV-I 0 W/m² 5,6 °C 6,3 °C 0,0 km/h (0 Bft)
17.09.2017 04:59 6,3 °C 6,4 °C 95 % 1012,6 hPa 0,0 mm 0,0 km/h (0 Bft) S-SW 204 ° 0 min 0,000 mm 0,0 UV-I 0 W/m² 5,6 °C 6,3 °C 0,0 km/h (0 Bft)
17.09.2017 05:00 6,4 °C 6,4 °C 95 % 1012,6 hPa 0,0 mm 0,0 km/h (0 Bft) S-SW 204 ° 0 min 0,000 mm 0,0 UV-I 0 W/m² 5,7 °C 6,4 °C 0,0 km/h (0 Bft)
17.09.2017 05:01 6,4 °C 6,4 °C 95 % 1012,6 hPa 0,0 mm 0,0 km/h (0 Bft) S-SW 204 ° 0 min 0,000 mm 0,0 UV-I 0 W/m² 5,7 °C 6,4 °C 0,0 km/h (0 Bft)
17.09.2017 05:02 6,4 °C 6,4 °C 95 % 1012,6 hPa 0,0 mm 0,0 km/h (0 Bft) S-SW 204 ° 0 min 0,000 mm 0,0 UV-I 0 W/m² 5,7 °C 6,4 °C 0,0 km/h (0 Bft)
17.09.2017 05:03 6,4 °C 6,4 °C 95 % 1012,6 hPa 0,0 mm 0,0 km/h (0 Bft) S-SW 204 ° 0 min 0,000 mm 0,0 UV-I 0 W/m² 5,7 °C 6,4 °C 0,0 km/h (0 Bft)
17.09.2017 05:04 6,4 °C 6,4 °C 95 % 1012,6 hPa 0,0 mm 0,0 km/h (0 Bft) S-SW 204 ° 0 min 0,000 mm 0,0 UV-I 0 W/m² 5,7 °C 6,4 °C 0,0 km/h (0 Bft)
17.09.2017 05:05 6,4 °C 6,4 °C 95 % 1012,6 hPa 0,0 mm 0,0 km/h (0 Bft) S-SW 204 ° 0 min 0,000 mm 0,0 UV-I 0 W/m² 5,7 °C 6,4 °C 0,0 km/h (0 Bft)
17.09.2017 05:06 6,4 °C 6,4 °C 95 % 1012,5 hPa 0,0 mm 0,0 km/h (0 Bft) S-SW 204 ° 0 min 0,000 mm 0,0 UV-I 0 W/m² 5,7 °C 6,4 °C 0,0 km/h (0 Bft)
17.09.2017 05:07 6,4 °C 6,4 °C 95 % 1012,5 hPa 0,0 mm 0,0 km/h (0 Bft) S-SW 204 ° 0 min 0,000 mm 0,0 UV-I 0 W/m² 5,7 °C 6,4 °C 0,0 km/h (0 Bft)
17.09.2017 05:08 6,4 °C 6,4 °C 95 % 1012,6 hPa 0,0 mm 0,0 km/h (0 Bft) S-SW 204 ° 0 min 0,000 mm 0,0 UV-I 0 W/m² 5,7 °C 6,4 °C 0,0 km/h (0 Bft)
17.09.2017 05:09 6,4 °C 6,4 °C 95 % 1012,6 hPa 0,0 mm 0,0 km/h (0 Bft) S-SW 204 ° 0 min 0,000 mm 0,0 UV-I 0 W/m² 5,7 °C 6,4 °C 0,0 km/h (0 Bft)
17.09.2017 05:10 6,4 °C 6,4 °C 95 % 1012,6 hPa 0,0 mm 0,0 km/h (0 Bft) S-SW 204 ° 0 min 0,000 mm 0,0 UV-I 0 W/m² 5,7 °C 6,4 °C 0,0 km/h (0 Bft)
17.09.2017 05:11 6,4 °C 6,4 °C 95 % 1012,5 hPa 0,0 mm 0,0 km/h (0 Bft) S-SW 204 ° 0 min 0,000 mm 0,0 UV-I 0 W/m² 5,7 °C 6,4 °C 0,0 km/h (0 Bft)
17.09.2017 05:12 6,4 °C 6,4 °C 95 % 1012,5 hPa 0,0 mm 0,0 km/h (0 Bft) S-SW 204 ° 0 min 0,000 mm 0,0 UV-I 0 W/m² 5,7 °C 6,4 °C 0,0 km/h (0 Bft)
17.09.2017 05:13 6,4 °C 6,4 °C 95 % 1012,5 hPa 0,0 mm 0,0 km/h (0 Bft) S-SW 204 ° 0 min 0,000 mm 0,0 UV-I 0 W/m² 5,7 °C 6,4 °C 0,0 km/h (0 Bft)
17.09.2017 05:14 6,4 °C 6,4 °C 95 % 1012,5 hPa 0,0 mm 0,0 km/h (0 Bft) S-SW 204 ° 0 min 0,000 mm 0,0 UV-I 0 W/m² 5,7 °C 6,4 °C 0,0 km/h (0 Bft)
17.09.2017 05:15 6,4 °C 6,4 °C 95 % 1012,5 hPa 0,0 mm 0,0 km/h (0 Bft) S-SW 204 ° 0 min 0,000 mm 0,0 UV-I 0 W/m² 5,7 °C 6,4 °C 0,0 km/h (0 Bft)
17.09.2017 05:16 6,4 °C 6,5 °C 95 % 1012,5 hPa 0,0 mm 0,0 km/h (0 Bft) S-SW 204 ° 0 min 0,000 mm 0,0 UV-I 0 W/m² 5,7 °C 6,4 °C 0,0 km/h (0 Bft)
17.09.2017 05:17 6,5 °C 6,5 °C 95 % 1012,5 hPa 0,0 mm 0,0 km/h (0 Bft) S-SW 204 ° 0 min 0,000 mm 0,0 UV-I 0 W/m² 5,8 °C 6,5 °C 0,0 km/h (0 Bft)
17.09.2017 05:18 6,4 °C 6,5 °C 95 % 1012,5 hPa 0,0 mm 0,0 km/h (0 Bft) S-SW 204 ° 0 min 0,000 mm 0,0 UV-I 0 W/m² 5,7 °C 6,4 °C 0,0 km/h (0 Bft)
17.09.2017 05:19 6,4 °C 6,4 °C 95 % 1012,5 hPa 0,0 mm 0,0 km/h (0 Bft) S-SW 204 ° 0 min 0,000 mm 0,0 UV-I 0 W/m² 5,7 °C 6,4 °C 0,0 km/h (0 Bft)
17.09.2017 05:20 6,4 °C 6,4 °C 95 % 1012,5 hPa 0,0 mm 0,0 km/h (0 Bft) S-SW 204 ° 0 min 0,000 mm 0,0 UV-I 0 W/m² 5,7 °C 6,4 °C 0,0 km/h (0 Bft)
17.09.2017 05:21 6,4 °C 6,4 °C 95 % 1012,5 hPa 0,0 mm 0,0 km/h (0 Bft) S-SW 204 ° 0 min 0,000 mm 0,0 UV-I 0 W/m² 5,7 °C 6,4 °C 0,0 km/h (0 Bft)
17.09.2017 05:22 6,4 °C 6,4 °C 95 % 1012,5 hPa 0,0 mm 0,0 km/h (0 Bft) S-SW 204 ° 0 min 0,000 mm 0,0 UV-I 0 W/m² 5,7 °C 6,4 °C 0,0 km/h (0 Bft)
17.09.2017 05:23 6,4 °C 6,4 °C 95 % 1012,5 hPa 0,0 mm 0,0 km/h (0 Bft) S-SW 204 ° 0 min 0,000 mm 0,0 UV-I 0 W/m² 5,7 °C 6,4 °C 0,0 km/h (0 Bft)
17.09.2017 05:24 6,4 °C 6,4 °C 95 % 1012,4 hPa 0,0 mm 0,0 km/h (0 Bft) S-SW 204 ° 0 min 0,000 mm 0,0 UV-I 0 W/m² 5,7 °C 6,4 °C 0,0 km/h (0 Bft)
17.09.2017 05:25 6,4 °C 6,4 °C 95 % 1012,5 hPa 0,0 mm 0,0 km/h (0 Bft) S-SW 204 ° 0 min 0,000 mm 0,0 UV-I 0 W/m² 5,7 °C 6,4 °C 0,0 km/h (0 Bft)
17.09.2017 05:26 6,4 °C 6,4 °C 95 % 1012,4 hPa 0,0 mm 0,0 km/h (0 Bft) S-SW 204 ° 0 min 0,000 mm 0,0 UV-I 0 W/m² 5,7 °C 6,4 °C 0,0 km/h (0 Bft)
17.09.2017 05:27 6,4 °C 6,4 °C 95 % 1012,5 hPa 0,0 mm 0,0 km/h (0 Bft) S-SW 204 ° 0 min 0,000 mm 0,0 UV-I 0 W/m² 5,7 °C 6,4 °C 0,0 km/h (0 Bft)
17.09.2017 05:28 6,4 °C 6,4 °C 95 % 1012,5 hPa 0,0 mm 0,0 km/h (0 Bft) S-SW 204 ° 0 min 0,000 mm 0,0 UV-I 0 W/m² 5,7 °C 6,4 °C 0,0 km/h (0 Bft)
17.09.2017 05:29 6,4 °C 6,4 °C 95 % 1012,5 hPa 0,0 mm 0,0 km/h (0 Bft) S-SW 204 ° 0 min 0,000 mm 0,0 UV-I 0 W/m² 5,7 °C 6,4 °C 0,0 km/h (0 Bft)
17.09.2017 05:30 6,4 °C 6,4 °C 95 % 1012,5 hPa 0,0 mm 0,0 km/h (0 Bft) S-SW 204 ° 0 min 0,000 mm 0,0 UV-I 0 W/m² 5,7 °C 6,4 °C 0,0 km/h (0 Bft)
17.09.2017 05:31 6,4 °C 6,4 °C 95 % 1012,5 hPa 0,0 mm 0,0 km/h (0 Bft) S-SW 204 ° 0 min 0,000 mm 0,0 UV-I 0 W/m² 5,7 °C 6,4 °C 0,0 km/h (0 Bft)
17.09.2017 05:32 6,4 °C 6,4 °C 95 % 1012,5 hPa 0,0 mm 0,0 km/h (0 Bft) S-SW 204 ° 0 min 0,000 mm 0,0 UV-I 0 W/m² 5,7 °C 6,4 °C 0,0 km/h (0 Bft)
17.09.2017 05:33 6,4 °C 6,4 °C 95 % 1012,4 hPa 0,0 mm 0,0 km/h (0 Bft) S-SW 204 ° 0 min 0,000 mm 0,0 UV-I 0 W/m² 5,7 °C 6,4 °C 0,0 km/h (0 Bft)
17.09.2017 05:34 6,4 °C 6,4 °C 95 % 1012,5 hPa 0,0 mm 0,0 km/h (0 Bft) S-SW 204 ° 0 min 0,000 mm 0,0 UV-I 0 W/m² 5,7 °C 6,4 °C 0,0 km/h (0 Bft)
17.09.2017 05:35 6,4 °C 6,4 °C 95 % 1012,5 hPa 0,0 mm 0,0 km/h (0 Bft) S-SW 204 ° 0 min 0,000 mm 0,0 UV-I 0 W/m² 5,7 °C 6,4 °C 0,0 km/h (0 Bft)
17.09.2017 05:36 6,4 °C 6,4 °C 95 % 1012,5 hPa 0,0 mm 0,0 km/h (0 Bft) S-SW 204 ° 0 min 0,000 mm 0,0 UV-I 0 W/m² 5,7 °C 6,4 °C 0,0 km/h (0 Bft)
17.09.2017 05:37 6,4 °C 6,4 °C 95 % 1012,5 hPa 0,0 mm 0,0 km/h (0 Bft) S-SW 204 ° 0 min 0,000 mm 0,0 UV-I 0 W/m² 5,7 °C 6,4 °C 0,0 km/h (0 Bft)
17.09.2017 05:38 6,4 °C 6,4 °C 95 % 1012,4 hPa 0,0 mm 0,0 km/h (0 Bft) S-SW 204 ° 0 min 0,000 mm 0,0 UV-I 0 W/m² 5,7 °C 6,4 °C 0,0 km/h (0 Bft)
17.09.2017 05:39 6,4 °C 6,4 °C 95 % 1012,4 hPa 0,0 mm 0,0 km/h (0 Bft) S-SW 204 ° 0 min 0,000 mm 0,0 UV-I 0 W/m² 5,7 °C 6,4 °C 0,0 km/h (0 Bft)
17.09.2017 05:40 6,4 °C 6,4 °C 95 % 1012,4 hPa 0,0 mm 0,0 km/h (0 Bft) S-SW 204 ° 0 min 0,000 mm 0,0 UV-I 0 W/m² 5,7 °C 6,4 °C 0,0 km/h (0 Bft)
17.09.2017 05:41 6,4 °C 6,4 °C 95 % 1012,5 hPa 0,0 mm 0,0 km/h (0 Bft) S-SW 204 ° 0 min 0,000 mm 0,0 UV-I 0 W/m² 5,7 °C 6,4 °C 0,0 km/h (0 Bft)
17.09.2017 05:42 6,4 °C 6,4 °C 95 % 1012,4 hPa 0,0 mm 0,0 km/h (0 Bft) S-SW 204 ° 0 min 0,000 mm 0,0 UV-I 0 W/m² 5,7 °C 6,4 °C 0,0 km/h (0 Bft)
17.09.2017 05:43 6,4 °C 6,4 °C 95 % 1012,4 hPa 0,0 mm 0,0 km/h (0 Bft) S-SW 204 ° 0 min 0,000 mm 0,0 UV-I 0 W/m² 5,7 °C 6,4 °C 0,0 km/h (0 Bft)
17.09.2017 05:44 6,4 °C 6,4 °C 95 % 1012,4 hPa 0,0 mm 0,0 km/h (0 Bft) S-SW 204 ° 0 min 0,000 mm 0,0 UV-I 0 W/m² 5,7 °C 6,4 °C 0,0 km/h (0 Bft)
17.09.2017 05:45 6,4 °C 6,5 °C 95 % 1012,4 hPa 0,0 mm 0,0 km/h (0 Bft) S-SW 204 ° 0 min 0,000 mm 0,0 UV-I 0 W/m² 5,7 °C 6,4 °C 0,0 km/h (0 Bft)
17.09.2017 05:46 6,5 °C 6,5 °C 95 % 1012,3 hPa 0,0 mm 0,0 km/h (0 Bft) S-SW 204 ° 0 min 0,000 mm 0,0 UV-I 0 W/m² 5,8 °C 6,5 °C 0,0 km/h (0 Bft)
17.09.2017 05:47 6,4 °C 6,5 °C 95 % 1012,3 hPa 0,0 mm 0,0 km/h (0 Bft) S-SW 204 ° 0 min 0,000 mm 0,0 UV-I 0 W/m² 5,7 °C 6,4 °C 0,0 km/h (0 Bft)
17.09.2017 05:48 6,4 °C 6,4 °C 95 % 1012,3 hPa 0,0 mm 0,0 km/h (0 Bft) S-SW 204 ° 0 min 0,000 mm 0,0 UV-I 0 W/m² 5,7 °C 6,4 °C 0,0 km/h (0 Bft)
17.09.2017 05:49 6,4 °C 6,5 °C 95 % 1012,3 hPa 0,0 mm 0,0 km/h (0 Bft) S-SW 204 ° 0 min 0,000 mm 0,0 UV-I 0 W/m² 5,7 °C 6,4 °C 0,0 km/h (0 Bft)
17.09.2017 05:50 6,5 °C 6,5 °C 95 % 1012,3 hPa 0,0 mm 0,0 km/h (0 Bft) S-SW 204 ° 0 min 0,000 mm 0,0 UV-I 0 W/m² 5,8 °C 6,5 °C 0,0 km/h (0 Bft)
17.09.2017 05:51 6,4 °C 6,5 °C 95 % 1012,3 hPa 0,0 mm 0,0 km/h (0 Bft) S-SW 204 ° 0 min 0,000 mm 0,0 UV-I 0 W/m² 5,7 °C 6,4 °C 0,0 km/h (0 Bft)
17.09.2017 05:52 6,5 °C 6,5 °C 95 % 1012,3 hPa 0,0 mm 0,0 km/h (0 Bft) S-SW 204 ° 0 min 0,000 mm 0,0 UV-I 0 W/m² 5,8 °C 6,5 °C 0,0 km/h (0 Bft)
17.09.2017 05:53 6,5 °C 6,5 °C 95 % 1012,3 hPa 0,0 mm 0,9 km/h (0 Bft) O-NO 78 ° 0 min 0,000 mm 0,0 UV-I 0 W/m² 5,8 °C 6,5 °C 4,8 km/h (1 Bft)
17.09.2017 05:54 6,5 °C 6,5 °C 95 % 1012,3 hPa 0,0 mm 0,0 km/h (0 Bft) O-NO 78 ° 0 min 0,000 mm 0,0 UV-I 0 W/m² 5,8 °C 6,5 °C 0,0 km/h (0 Bft)
17.09.2017 05:55 6,5 °C 6,5 °C 95 % 1012,3 hPa 0,0 mm 0,0 km/h (0 Bft) O-NO 78 ° 0 min 0,000 mm 0,0 UV-I 0 W/m² 5,8 °C 6,5 °C 0,0 km/h (0 Bft)
17.09.2017 05:56 6,5 °C 6,5 °C 95 % 1012,3 hPa 0,0 mm 0,0 km/h (0 Bft) O-NO 78 ° 0 min 0,000 mm 0,0 UV-I 0 W/m² 5,8 °C 6,5 °C 0,0 km/h (0 Bft)
17.09.2017 05:57 6,5 °C 6,5 °C 95 % 1012,3 hPa 0,0 mm 0,1 km/h (0 Bft) O-NO 78 ° 0 min 0,000 mm 0,0 UV-I 0 W/m² 5,8 °C 6,5 °C 1,6 km/h (1 Bft)
17.09.2017 05:58 6,5 °C 6,5 °C 95 % 1012,3 hPa 0,0 mm 0,7 km/h (0 Bft) O 79 ° 0 min 0,000 mm 0,0 UV-I 0 W/m² 5,8 °C 6,5 °C 3,2 km/h (1 Bft)
17.09.2017 05:59 6,6 °C 6,6 °C 95 % 1012,3 hPa 0,0 mm 0,2 km/h (0 Bft) O 79 ° 0 min 0,000 mm 0,0 UV-I 0 W/m² 5,9 °C 6,6 °C 1,6 km/h (1 Bft)
17.09.2017 06:00 6,6 °C 6,6 °C 95 % 1012,3 hPa 0,0 mm 0,0 km/h (0 Bft) O 79 ° 0 min 0,000 mm 0,0 UV-I 0 W/m² 5,9 °C 6,6 °C 0,0 km/h (0 Bft)
17.09.2017 06:01 6,6 °C 6,6 °C 95 % 1012,3 hPa 0,0 mm 0,0 km/h (0 Bft) O 79 ° 0 min 0,000 mm 0,0 UV-I 0 W/m² 5,9 °C 6,6 °C 0,0 km/h (0 Bft)
17.09.2017 06:02 6,6 °C 6,6 °C 95 % 1012,2 hPa 0,0 mm 0,0 km/h (0 Bft) O 79 ° 0 min 0,000 mm 0,0 UV-I 0 W/m² 5,9 °C 6,6 °C 0,0 km/h (0 Bft)
17.09.2017 06:03 6,6 °C 6,6 °C 95 % 1012,3 hPa 0,0 mm 1,1 km/h (1 Bft) O-NO 77 ° 0 min 0,000 mm 0,0 UV-I 0 W/m² 5,9 °C 6,6 °C 3,2 km/h (1 Bft)
17.09.2017 06:04 6,6 °C 6,6 °C 95 % 1012,2 hPa 0,0 mm 0,1 km/h (0 Bft) O-NO 77 ° 0 min 0,000 mm 0,0 UV-I 0 W/m² 5,9 °C 6,6 °C 1,6 km/h (1 Bft)
17.09.2017 06:05 6,6 °C 6,6 °C 95 % 1012,3 hPa 0,0 mm 0,0 km/h (0 Bft) O-NO 77 ° 0 min 0,000 mm 0,0 UV-I 0 W/m² 5,9 °C 6,6 °C 0,0 km/h (0 Bft)
17.09.2017 06:06 6,6 °C 6,6 °C 95 % 1012,3 hPa 0,0 mm 0,0 km/h (0 Bft) O-NO 77 ° 0 min 0,000 mm 0,0 UV-I 0 W/m² 5,9 °C 6,6 °C 0,0 km/h (0 Bft)
17.09.2017 06:07 6,6 °C 6,6 °C 95 % 1012,2 hPa 0,0 mm 2,1 km/h (1 Bft) O-NO 65 ° 0 min 0,000 mm 0,0 UV-I 0 W/m² 5,9 °C 6,6 °C 4,8 km/h (1 Bft)
17.09.2017 06:08 6,6 °C 6,6 °C 95 % 1012,2 hPa 0,0 mm 2,3 km/h (1 Bft) NW 326 ° 0 min 0,000 mm 0,0 UV-I 0 W/m² 5,9 °C 6,6 °C 4,8 km/h (1 Bft)
17.09.2017 06:09 6,6 °C 6,6 °C 95 % 1012,2 hPa 0,0 mm 0,0 km/h (0 Bft) NW 326 ° 0 min 0,000 mm 0,0 UV-I 0 W/m² 5,9 °C 6,6 °C 0,0 km/h (0 Bft)
17.09.2017 06:10 6,6 °C 6,7 °C 95 % 1012,2 hPa 0,0 mm 1,3 km/h (1 Bft) NW 326 ° 0 min 0,000 mm 0,0 UV-I 0 W/m² 5,9 °C 6,6 °C 3,2 km/h (1 Bft)
17.09.2017 06:11 6,7 °C 6,7 °C 95 % 1012,3 hPa 0,0 mm 0,2 km/h (0 Bft) NW 326 ° 0 min 0,000 mm 0,0 UV-I 0 W/m² 6,0 °C 6,7 °C 3,2 km/h (1 Bft)
17.09.2017 06:12 6,7 °C 6,7 °C 95 % 1012,3 hPa 0,0 mm 0,3 km/h (0 Bft) NW 326 ° 0 min 0,000 mm 0,0 UV-I 0 W/m² 6,0 °C 6,7 °C 3,2 km/h (1 Bft)
17.09.2017 06:13 6,7 °C 6,7 °C 95 % 1012,3 hPa 0,0 mm 1,3 km/h (1 Bft) NW 326 ° 0 min 0,000 mm 0,0 UV-I 0 W/m² 6,0 °C 6,7 °C 3,2 km/h (1 Bft)
17.09.2017 06:14 6,7 °C 6,7 °C 94 % 1012,3 hPa 0,0 mm 0,0 km/h (0 Bft) NW 326 ° 0 min 0,000 mm 0,0 UV-I 0 W/m² 5,8 °C 6,7 °C 0,0 km/h (0 Bft)
17.09.2017 06:15 6,7 °C 6,7 °C 94 % 1012,3 hPa 0,0 mm 0,0 km/h (0 Bft) NW 326 ° 0 min 0,000 mm 0,0 UV-I 0 W/m² 5,8 °C 6,7 °C 0,0 km/h (0 Bft)
17.09.2017 06:16 6,7 °C 6,7 °C 94 % 1012,4 hPa 0,0 mm 0,0 km/h (0 Bft) NW 326 ° 0 min 0,000 mm 0,0 UV-I 0 W/m² 5,8 °C 6,7 °C 0,0 km/h (0 Bft)
17.09.2017 06:17 6,7 °C 6,7 °C 94 % 1012,4 hPa 0,0 mm 0,0 km/h (0 Bft) NW 326 ° 0 min 0,000 mm 0,0 UV-I 0 W/m² 5,8 °C 6,7 °C 0,0 km/h (0 Bft)
17.09.2017 06:18 6,7 °C 6,7 °C 94 % 1012,4 hPa 0,0 mm 0,0 km/h (0 Bft) NW 326 ° 0 min 0,000 mm 0,0 UV-I 0 W/m² 5,8 °C 6,7 °C 0,0 km/h (0 Bft)
17.09.2017 06:19 6,7 °C 6,7 °C 94 % 1012,4 hPa 0,0 mm 0,0 km/h (0 Bft) NW 326 ° 0 min 0,000 mm 0,0 UV-I 0 W/m² 5,8 °C 6,7 °C 0,0 km/h (0 Bft)
17.09.2017 06:20 6,7 °C 6,7 °C 94 % 1012,4 hPa 0,0 mm 0,0 km/h (0 Bft) NW 326 ° 0 min 0,000 mm 0,0 UV-I 0 W/m² 5,8 °C 6,7 °C 0,0 km/h (0 Bft)
17.09.2017 06:21 6,7 °C 6,7 °C 94 % 1012,4 hPa 0,0 mm 0,0 km/h (0 Bft) NW 326 ° 0 min 0,000 mm 0,0 UV-I 0 W/m² 5,8 °C 6,7 °C 0,0 km/h (0 Bft)
17.09.2017 06:22 6,7 °C 6,7 °C 94 % 1012,4 hPa 0,2 mm 0,0 km/h (0 Bft) NW 326 ° 0 min 0,000 mm 0,0 UV-I 0 W/m² 5,8 °C 6,7 °C 0,0 km/h (0 Bft)
17.09.2017 06:23 6,7 °C 6,7 °C 94 % 1012,4 hPa 0,0 mm 0,0 km/h (0 Bft) NW 326 ° 0 min 0,000 mm 0,0 UV-I 0 W/m² 5,8 °C 6,7 °C 0,0 km/h (0 Bft)
17.09.2017 06:24 6,7 °C 6,7 °C 94 % 1012,4 hPa 0,0 mm 0,0 km/h (0 Bft) NW 326 ° 0 min 0,000 mm 0,0 UV-I 0 W/m² 5,8 °C 6,7 °C 0,0 km/h (0 Bft)
17.09.2017 06:25 6,7 °C 6,7 °C 94 % 1012,5 hPa 0,0 mm 0,0 km/h (0 Bft) NW 326 ° 0 min 0,000 mm 0,0 UV-I 0 W/m² 5,8 °C 6,7 °C 0,0 km/h (0 Bft)
17.09.2017 06:26 6,7 °C 6,7 °C 94 % 1012,5 hPa 0,0 mm 0,0 km/h (0 Bft) NW 326 ° 0 min 0,000 mm 0,0 UV-I 0 W/m² 5,8 °C 6,7 °C 0,0 km/h (0 Bft)
17.09.2017 06:27 6,7 °C 6,7 °C 94 % 1012,4 hPa 0,0 mm 0,0 km/h (0 Bft) NW 326 ° 0 min 0,000 mm 0,0 UV-I 0 W/m² 5,8 °C 6,7 °C 0,0 km/h (0 Bft)
17.09.2017 06:28 6,7 °C 6,7 °C 94 % 1012,4 hPa 0,0 mm 0,0 km/h (0 Bft) NW 326 ° 0 min 0,000 mm 0,0 UV-I 0 W/m² 5,8 °C 6,7 °C 0,0 km/h (0 Bft)
17.09.2017 06:29 6,7 °C 6,7 °C 94 % 1012,4 hPa 0,0 mm 0,0 km/h (0 Bft) NW 326 ° 0 min 0,000 mm 0,0 UV-I 0 W/m² 5,8 °C 6,7 °C 0,0 km/h (0 Bft)
17.09.2017 06:30 6,7 °C 6,7 °C 94 % 1012,4 hPa 0,0 mm 0,0 km/h (0 Bft) NW 326 ° 0 min 0,000 mm 0,0 UV-I 0 W/m² 5,8 °C 6,7 °C 0,0 km/h (0 Bft)
17.09.2017 06:31 6,7 °C 6,7 °C 94 % 1012,4 hPa 0,0 mm 1,4 km/h (1 Bft) N 360 ° 0 min 0,000 mm 0,0 UV-I 0 W/m² 5,8 °C 6,7 °C 3,2 km/h (1 Bft)
17.09.2017 06:32 6,7 °C 6,7 °C 94 % 1012,5 hPa 0,0 mm 0,5 km/h (0 Bft) N 360 ° 0 min 0,000 mm 0,0 UV-I 0 W/m² 5,8 °C 6,7 °C 1,6 km/h (1 Bft)
17.09.2017 06:33 6,7 °C 6,7 °C 94 % 1012,5 hPa 0,0 mm 0,0 km/h (0 Bft) N 360 ° 0 min 0,000 mm 0,0 UV-I 0 W/m² 5,8 °C 6,7 °C 0,0 km/h (0 Bft)
17.09.2017 06:34 6,7 °C 6,7 °C 94 % 1012,5 hPa 0,0 mm 0,3 km/h (0 Bft) N 360 ° 0 min 0,000 mm 0,0 UV-I 0 W/m² 5,8 °C 6,7 °C 1,6 km/h (1 Bft)
17.09.2017 06:35 6,7 °C 6,7 °C 94 % 1012,5 hPa 0,0 mm 0,9 km/h (0 Bft) N 360 ° 0 min 0,000 mm 0,0 UV-I 0 W/m² 5,8 °C 6,7 °C 1,6 km/h (1 Bft)
17.09.2017 06:36 6,7 °C 6,7 °C 94 % 1012,5 hPa 0,0 mm 0,1 km/h (0 Bft) N 360 ° 0 min 0,000 mm 0,0 UV-I 0 W/m² 5,8 °C 6,7 °C 1,6 km/h (1 Bft)
17.09.2017 06:37 6,7 °C 6,7 °C 94 % 1012,5 hPa 0,0 mm 0,0 km/h (0 Bft) N 360 ° 0 min 0,000 mm 0,0 UV-I 0 W/m² 5,8 °C 6,7 °C 0,0 km/h (0 Bft)
17.09.2017 06:38 6,7 °C 6,7 °C 94 % 1012,5 hPa 0,0 mm 0,0 km/h (0 Bft) N 360 ° 0 min 0,000 mm 0,0 UV-I 0 W/m² 5,8 °C 6,7 °C 0,0 km/h (0 Bft)
17.09.2017 06:39 6,7 °C 6,7 °C 94 % 1012,6 hPa 0,0 mm 0,9 km/h (0 Bft) N 360 ° 0 min 0,000 mm 0,0 UV-I 0 W/m² 5,8 °C 6,7 °C 3,2 km/h (1 Bft)
17.09.2017 06:40 6,7 °C 6,7 °C 94 % 1012,6 hPa 0,0 mm 0,1 km/h (0 Bft) N 360 ° 0 min 0,000 mm 0,0 UV-I 0 W/m² 5,8 °C 6,7 °C 1,6 km/h (1 Bft)
17.09.2017 06:41 6,7 °C 6,7 °C 94 % 1012,6 hPa 0,0 mm 0,0 km/h (0 Bft) N 360 ° 0 min 0,000 mm 0,0 UV-I 0 W/m² 5,8 °C 6,7 °C 0,0 km/h (0 Bft)
17.09.2017 06:42 6,7 °C 6,7 °C 94 % 1012,6 hPa 0,0 mm 0,0 km/h (0 Bft) N 360 ° 0 min 0,000 mm 0,0 UV-I 0 W/m² 5,8 °C 6,7 °C 0,0 km/h (0 Bft)
17.09.2017 06:43 6,7 °C 6,7 °C 94 % 1012,6 hPa 0,0 mm 0,2 km/h (0 Bft) N 360 ° 0 min 0,000 mm 0,0 UV-I 0 W/m² 5,8 °C 6,7 °C 1,6 km/h (1 Bft)
17.09.2017 06:44 6,7 °C 6,7 °C 94 % 1012,6 hPa 0,0 mm 0,0 km/h (0 Bft) N 360 ° 0 min 0,000 mm 0,0 UV-I 0 W/m² 5,8 °C 6,7 °C 0,0 km/h (0 Bft)
17.09.2017 06:45 6,6 °C 6,7 °C 94 % 1012,6 hPa 0,0 mm 0,0 km/h (0 Bft) N 360 ° 0 min 0,000 mm 0,0 UV-I 0 W/m² 5,7 °C 6,6 °C 0,0 km/h (0 Bft)
17.09.2017 06:46 6,6 °C 6,7 °C 94 % 1012,6 hPa 0,0 mm 0,5 km/h (0 Bft) N 360 ° 0 min 0,000 mm 0,0 UV-I 0 W/m² 5,7 °C 6,6 °C 3,2 km/h (1 Bft)
17.09.2017 06:47 6,7 °C 6,7 °C 94 % 1012,6 hPa 0,0 mm 0,1 km/h (0 Bft) N 360 ° 0 min 0,000 mm 0,0 UV-I 0 W/m² 5,8 °C 6,7 °C 1,6 km/h (1 Bft)
17.09.2017 06:48 6,6 °C 6,7 °C 94 % 1012,6 hPa 0,0 mm 0,3 km/h (0 Bft) N 360 ° 0 min 0,000 mm 0,0 UV-I 0 W/m² 5,7 °C 6,6 °C 3,2 km/h (1 Bft)
17.09.2017 06:49 6,6 °C 6,7 °C 94 % 1012,6 hPa 0,0 mm 1,0 km/h (0 Bft) N 360 ° 0 min 0,000 mm 0,0 UV-I 0 W/m² 5,7 °C 6,6 °C 3,2 km/h (1 Bft)
17.09.2017 06:50 6,6 °C 6,6 °C 94 % 1012,6 hPa 0,0 mm 0,0 km/h (0 Bft) N 360 ° 0 min 0,000 mm 0,0 UV-I 0 W/m² 5,7 °C 6,6 °C 0,0 km/h (0 Bft)
17.09.2017 06:51 6,6 °C 6,6 °C 94 % 1012,7 hPa 0,0 mm 0,0 km/h (0 Bft) N 360 ° 0 min 0,000 mm 0,0 UV-I 0 W/m² 5,7 °C 6,6 °C 0,0 km/h (0 Bft)
17.09.2017 06:52 6,6 °C 6,6 °C 94 % 1012,7 hPa 0,0 mm 0,0 km/h (0 Bft) N 360 ° 0 min 0,000 mm 0,0 UV-I 0 W/m² 5,7 °C 6,6 °C 0,0 km/h (0 Bft)
17.09.2017 06:53 6,6 °C 6,6 °C 94 % 1012,7 hPa 0,0 mm 0,1 km/h (0 Bft) N 360 ° 0 min 0,000 mm 0,0 UV-I 0 W/m² 5,7 °C 6,6 °C 1,6 km/h (1 Bft)
17.09.2017 06:54 6,6 °C 6,6 °C 94 % 1012,7 hPa 0,0 mm 2,2 km/h (1 Bft) NW 326 ° 0 min 0,000 mm 0,0 UV-I 0 W/m² 5,7 °C 6,6 °C 4,8 km/h (1 Bft)
17.09.2017 06:55 6,6 °C 6,7 °C 94 % 1012,8 hPa 0,0 mm 0,5 km/h (0 Bft) NW 318 ° 0 min 0,000 mm 0,0 UV-I 0 W/m² 5,7 °C 6,6 °C 1,6 km/h (1 Bft)
17.09.2017 06:56 6,7 °C 6,7 °C 94 % 1012,8 hPa 0,0 mm 0,9 km/h (0 Bft) NW 317 ° 0 min 0,000 mm 0,0 UV-I 0 W/m² 5,8 °C 6,7 °C 3,2 km/h (1 Bft)
17.09.2017 06:57 6,7 °C 6,7 °C 94 % 1012,8 hPa 0,0 mm 1,5 km/h (1 Bft) NW 317 ° 0 min 0,000 mm 0,0 UV-I 0 W/m² 5,8 °C 6,7 °C 3,2 km/h (1 Bft)
17.09.2017 06:58 6,7 °C 6,7 °C 94 % 1012,8 hPa 0,0 mm 0,6 km/h (0 Bft) N 355 ° 0 min 0,000 mm 0,0 UV-I 0 W/m² 5,8 °C 6,7 °C 3,2 km/h (1 Bft)
17.09.2017 06:59 6,7 °C 6,7 °C 94 % 1012,8 hPa 0,0 mm 0,1 km/h (0 Bft) N 355 ° 0 min 0,000 mm 0,0 UV-I 0 W/m² 5,8 °C 6,7 °C 1,6 km/h (1 Bft)
17.09.2017 07:00 6,7 °C 6,7 °C 94 % 1012,8 hPa 0,0 mm 0,1 km/h (0 Bft) N 355 ° 0 min 0,000 mm 0,0 UV-I 0 W/m² 5,8 °C 6,7 °C 1,6 km/h (1 Bft)
17.09.2017 07:01 6,7 °C 6,7 °C 94 % 1012,8 hPa 0,0 mm 0,7 km/h (0 Bft) N 355 ° 0 min 0,000 mm 0,0 UV-I 0 W/m² 5,8 °C 6,7 °C 3,2 km/h (1 Bft)
17.09.2017 07:02 6,7 °C 6,7 °C 94 % 1012,8 hPa 0,0 mm 0,2 km/h (0 Bft) N 355 ° 0 min 0,000 mm 0,0 UV-I 5 W/m² 5,8 °C 6,7 °C 1,6 km/h (1 Bft)
17.09.2017 07:03 6,7 °C 6,7 °C 94 % 1012,8 hPa 0,0 mm 0,0 km/h (0 Bft) N 355 ° 0 min 0,000 mm 0,0 UV-I 5 W/m² 5,8 °C 6,7 °C 0,0 km/h (0 Bft)
17.09.2017 07:04 6,7 °C 6,7 °C 94 % 1012,8 hPa 0,0 mm 0,1 km/h (0 Bft) N 355 ° 0 min 0,000 mm 0,0 UV-I 7 W/m² 5,8 °C 6,7 °C 1,6 km/h (1 Bft)
17.09.2017 07:05 6,7 °C 6,7 °C 94 % 1012,8 hPa 0,0 mm 0,4 km/h (0 Bft) N 355 ° 0 min 0,000 mm 0,0 UV-I 7 W/m² 5,8 °C 6,7 °C 1,6 km/h (1 Bft)
17.09.2017 07:06 6,7 °C 6,7 °C 94 % 1012,8 hPa 0,0 mm 0,0 km/h (0 Bft) N 355 ° 0 min 0,000 mm 0,0 UV-I 9 W/m² 5,8 °C 6,7 °C 0,0 km/h (0 Bft)
17.09.2017 07:07 6,7 °C 6,7 °C 94 % 1012,9 hPa 0,0 mm 0,0 km/h (0 Bft) N 355 ° 0 min 0,000 mm 0,0 UV-I 9 W/m² 5,8 °C 6,7 °C 0,0 km/h (0 Bft)
17.09.2017 07:08 6,7 °C 6,7 °C 94 % 1012,9 hPa 0,0 mm 0,0 km/h (0 Bft) N 355 ° 0 min 0,000 mm 0,0 UV-I 9 W/m² 5,8 °C 6,7 °C 0,0 km/h (0 Bft)
17.09.2017 07:09 6,7 °C 6,7 °C 94 % 1012,9 hPa 0,0 mm 0,2 km/h (0 Bft) N 355 ° 0 min 0,000 mm 0,0 UV-I 11 W/m² 5,8 °C 6,7 °C 1,6 km/h (1 Bft)
17.09.2017 07:10 6,7 °C 6,7 °C 94 % 1012,9 hPa 0,0 mm 0,1 km/h (0 Bft) N 355 ° 0 min 0,000 mm 0,0 UV-I 11 W/m² 5,8 °C 6,7 °C 1,6 km/h (1 Bft)
17.09.2017 07:11 6,7 °C 6,7 °C 94 % 1012,9 hPa 0,0 mm 0,2 km/h (0 Bft) N 355 ° 0 min 0,000 mm 0,0 UV-I 11 W/m² 5,8 °C 6,7 °C 1,6 km/h (1 Bft)
17.09.2017 07:12 6,7 °C 6,7 °C 94 % 1013,0 hPa 0,0 mm 0,4 km/h (0 Bft) N 355 ° 0 min 0,000 mm 0,0 UV-I 11 W/m² 5,8 °C 6,7 °C 1,6 km/h (1 Bft)
17.09.2017 07:13 6,7 °C 6,7 °C 93 % 1013,0 hPa 0,0 mm 0,0 km/h (0 Bft) N 355 ° 0 min 0,000 mm 0,0 UV-I 11 W/m² 5,6 °C 6,7 °C 0,0 km/h (0 Bft)
17.09.2017 07:14 6,7 °C 6,7 °C 93 % 1013,0 hPa 0,0 mm 0,0 km/h (0 Bft) N 355 ° 0 min 0,000 mm 0,0 UV-I 12 W/m² 5,6 °C 6,7 °C 0,0 km/h (0 Bft)
17.09.2017 07:15 6,7 °C 6,7 °C 93 % 1013,0 hPa 0,0 mm 0,7 km/h (0 Bft) N 355 ° 0 min 0,000 mm 0,0 UV-I 12 W/m² 5,6 °C 6,7 °C 1,6 km/h (1 Bft)
17.09.2017 07:16 6,7 °C 6,7 °C 93 % 1013,0 hPa 0,0 mm 0,1 km/h (0 Bft) N 355 ° 0 min 0,000 mm 0,0 UV-I 12 W/m² 5,6 °C 6,7 °C 1,6 km/h (1 Bft)
17.09.2017 07:17 6,7 °C 6,7 °C 93 % 1013,0 hPa 0,0 mm 0,2 km/h (0 Bft) N 355 ° 0 min 0,000 mm 0,0 UV-I 12 W/m² 5,6 °C 6,7 °C 1,6 km/h (1 Bft)
17.09.2017 07:18 6,7 °C 6,7 °C 93 % 1013,0 hPa 0,0 mm 0,1 km/h (0 Bft) N 355 ° 0 min 0,000 mm 0,0 UV-I 12 W/m² 5,6 °C 6,7 °C 1,6 km/h (1 Bft)
17.09.2017 07:19 6,7 °C 6,7 °C 93 % 1013,0 hPa 0,0 mm 1,8 km/h (1 Bft) N 350 ° 0 min 0,000 mm 0,0 UV-I 12 W/m² 5,6 °C 6,7 °C 4,8 km/h (1 Bft)
17.09.2017 07:20 6,7 °C 6,7 °C 93 % 1013,0 hPa 0,0 mm 1,5 km/h (1 Bft) N 350 ° 0 min 0,000 mm 0,0 UV-I 12 W/m² 5,6 °C 6,7 °C 3,2 km/h (1 Bft)
17.09.2017 07:21 6,7 °C 6,7 °C 93 % 1013,1 hPa 0,0 mm 0,0 km/h (0 Bft) N 350 ° 0 min 0,000 mm 0,0 UV-I 14 W/m² 5,6 °C 6,7 °C 0,0 km/h (0 Bft)
17.09.2017 07:22 6,7 °C 6,8 °C 93 % 1013,1 hPa 0,0 mm 0,0 km/h (0 Bft) N 350 ° 0 min 0,000 mm 0,0 UV-I 14 W/m² 5,6 °C 6,7 °C 0,0 km/h (0 Bft)
17.09.2017 07:23 6,7 °C 6,8 °C 93 % 1013,1 hPa 0,0 mm 0,0 km/h (0 Bft) N 350 ° 0 min 0,000 mm 0,0 UV-I 14 W/m² 5,6 °C 6,7 °C 0,0 km/h (0 Bft)
17.09.2017 07:24 6,7 °C 6,7 °C 93 % 1013,1 hPa 0,0 mm 0,0 km/h (0 Bft) N 350 ° 0 min 0,000 mm 0,0 UV-I 14 W/m² 5,6 °C 6,7 °C 0,0 km/h (0 Bft)
17.09.2017 07:25 6,7 °C 6,7 °C 93 % 1013,1 hPa 0,0 mm 0,0 km/h (0 Bft) N 350 ° 0 min 0,000 mm 0,0 UV-I 14 W/m² 5,6 °C 6,7 °C 0,0 km/h (0 Bft)
17.09.2017 07:26 6,7 °C 6,7 °C 93 % 1013,2 hPa 0,0 mm 0,0 km/h (0 Bft) N 350 ° 0 min 0,000 mm 0,0 UV-I 12 W/m² 5,6 °C 6,7 °C 0,0 km/h (0 Bft)
17.09.2017 07:27 6,7 °C 6,7 °C 93 % 1013,2 hPa 0,0 mm 0,0 km/h (0 Bft) N 350 ° 0 min 0,000 mm 0,0 UV-I 12 W/m² 5,6 °C 6,7 °C 0,0 km/h (0 Bft)
17.09.2017 07:28 6,7 °C 6,7 °C 93 % 1013,2 hPa 0,0 mm 0,0 km/h (0 Bft) N 350 ° 0 min 0,000 mm 0,0 UV-I 12 W/m² 5,6 °C 6,7 °C 0,0 km/h (0 Bft)
17.09.2017 07:29 6,7 °C 6,8 °C 93 % 1013,2 hPa 0,0 mm 0,9 km/h (0 Bft) N 350 ° 0 min 0,000 mm 0,0 UV-I 12 W/m² 5,6 °C 6,7 °C 3,2 km/h (1 Bft)
17.09.2017 07:30 6,7 °C 6,8 °C 93 % 1013,2 hPa 0,0 mm 0,7 km/h (0 Bft) N 350 ° 0 min 0,000 mm 0,0 UV-I 12 W/m² 5,6 °C 6,7 °C 1,6 km/h (1 Bft)
17.09.2017 07:31 6,8 °C 6,8 °C 93 % 1013,2 hPa 0,0 mm 0,0 km/h (0 Bft) N 350 ° 0 min 0,000 mm 0,0 UV-I 12 W/m² 5,7 °C 6,8 °C 0,0 km/h (0 Bft)
17.09.2017 07:32 6,8 °C 6,8 °C 93 % 1013,2 hPa 0,0 mm 2,7 km/h (1 Bft) W-NW 294 ° 0 min 0,000 mm 0,0 UV-I 12 W/m² 5,7 °C 6,8 °C 3,2 km/h (1 Bft)
17.09.2017 07:33 6,8 °C 6,8 °C 93 % 1013,2 hPa 0,0 mm 1,7 km/h (1 Bft) W-NW 294 ° 0 min 0,000 mm 0,0 UV-I 14 W/m² 5,7 °C 6,8 °C 4,8 km/h (1 Bft)
17.09.2017 07:34 6,8 °C 6,8 °C 93 % 1013,2 hPa 0,0 mm 1,8 km/h (1 Bft) W-NW 294 ° 0 min 0,000 mm 0,0 UV-I 14 W/m² 5,7 °C 6,8 °C 3,2 km/h (1 Bft)
17.09.2017 07:35 6,8 °C 6,8 °C 93 % 1013,2 hPa 0,0 mm 0,3 km/h (0 Bft) W-NW 294 ° 0 min 0,000 mm 0,0 UV-I 14 W/m² 5,7 °C 6,8 °C 1,6 km/h (1 Bft)
17.09.2017 07:36 6,8 °C 6,8 °C 93 % 1013,2 hPa 0,0 mm 0,3 km/h (0 Bft) W-NW 294 ° 0 min 0,000 mm 0,0 UV-I 14 W/m² 5,7 °C 6,8 °C 1,6 km/h (1 Bft)
17.09.2017 07:37 6,8 °C 6,8 °C 93 % 1013,1 hPa 0,0 mm 1,3 km/h (1 Bft) W-NW 294 ° 0 min 0,000 mm 0,0 UV-I 16 W/m² 5,7 °C 6,8 °C 3,2 km/h (1 Bft)
17.09.2017 07:38 6,8 °C 6,8 °C 93 % 1013,2 hPa 0,0 mm 1,3 km/h (1 Bft) W-NW 290 ° 0 min 0,000 mm 0,0 UV-I 16 W/m² 5,7 °C 6,8 °C 4,8 km/h (1 Bft)
17.09.2017 07:39 6,8 °C 6,8 °C 93 % 1013,2 hPa 0,0 mm 1,7 km/h (1 Bft) W-NW 290 ° 0 min 0,000 mm 0,0 UV-I 18 W/m² 5,7 °C 6,8 °C 3,2 km/h (1 Bft)
17.09.2017 07:40 6,8 °C 6,9 °C 93 % 1013,2 hPa 0,0 mm 3,2 km/h (1 Bft) W-NW 284 ° 0 min 0,000 mm 0,0 UV-I 18 W/m² 5,7 °C 6,8 °C 4,8 km/h (1 Bft)
17.09.2017 07:41 6,9 °C 6,9 °C 93 % 1013,2 hPa 0,0 mm 2,6 km/h (1 Bft) W 275 ° 0 min 0,000 mm 0,0 UV-I 19 W/m² 5,8 °C 6,9 °C 4,8 km/h (1 Bft)
17.09.2017 07:42 6,9 °C 6,9 °C 93 % 1013,3 hPa 0,0 mm 0,0 km/h (0 Bft) W 275 ° 0 min 0,000 mm 0,0 UV-I 19 W/m² 5,8 °C 6,9 °C 0,0 km/h (0 Bft)
17.09.2017 07:43 6,9 °C 6,9 °C 93 % 1013,3 hPa 0,0 mm 0,0 km/h (0 Bft) W 275 ° 0 min 0,000 mm 0,0 UV-I 19 W/m² 5,8 °C 6,9 °C 0,0 km/h (0 Bft)
17.09.2017 07:44 6,8 °C 6,9 °C 93 % 1013,3 hPa 0,0 mm 0,0 km/h (0 Bft) W 275 ° 0 min 0,000 mm 0,0 UV-I 19 W/m² 5,7 °C 6,8 °C 0,0 km/h (0 Bft)
17.09.2017 07:45 6,8 °C 6,8 °C 93 % 1013,2 hPa 0,0 mm 0,0 km/h (0 Bft) W 275 ° 0 min 0,000 mm 0,0 UV-I 21 W/m² 5,7 °C 6,8 °C 0,0 km/h (0 Bft)
17.09.2017 07:46 6,8 °C 6,8 °C 93 % 1013,3 hPa 0,0 mm 0,0 km/h (0 Bft) W 275 ° 0 min 0,000 mm 0,0 UV-I 21 W/m² 5,7 °C 6,8 °C 0,0 km/h (0 Bft)
17.09.2017 07:47 6,8 °C 6,8 °C 93 % 1013,3 hPa 0,0 mm 0,0 km/h (0 Bft) W 275 ° 0 min 0,000 mm 0,0 UV-I 23 W/m² 5,7 °C 6,8 °C 0,0 km/h (0 Bft)
17.09.2017 07:48 6,8 °C 6,8 °C 93 % 1013,3 hPa 0,0 mm 0,0 km/h (0 Bft) W 275 ° 0 min 0,000 mm 0,0 UV-I 23 W/m² 5,7 °C 6,8 °C 0,0 km/h (0 Bft)
17.09.2017 07:49 6,8 °C 6,8 °C 93 % 1013,3 hPa 0,0 mm 0,0 km/h (0 Bft) W 275 ° 0 min 0,000 mm 0,0 UV-I 23 W/m² 5,7 °C 6,8 °C 0,0 km/h (0 Bft)
17.09.2017 07:50 6,8 °C 6,8 °C 94 % 1013,3 hPa 0,0 mm 0,0 km/h (0 Bft) W 275 ° 0 min 0,000 mm 0,0 UV-I 23 W/m² 5,9 °C 6,8 °C 0,0 km/h (0 Bft)
17.09.2017 07:51 6,8 °C 6,8 °C 93 % 1013,3 hPa 0,0 mm 0,0 km/h (0 Bft) W 275 ° 0 min 0,000 mm 0,0 UV-I 25 W/m² 5,7 °C 6,8 °C 0,0 km/h (0 Bft)
17.09.2017 07:52 6,7 °C 6,8 °C 94 % 1013,3 hPa 0,0 mm 0,0 km/h (0 Bft) W 275 ° 0 min 0,000 mm 0,0 UV-I 25 W/m² 5,8 °C 6,7 °C 0,0 km/h (0 Bft)
17.09.2017 07:53 6,8 °C 6,8 °C 94 % 1013,3 hPa 0,0 mm 0,0 km/h (0 Bft) W 275 ° 0 min 0,000 mm 0,0 UV-I 25 W/m² 5,9 °C 6,8 °C 0,0 km/h (0 Bft)
17.09.2017 07:54 6,8 °C 6,8 °C 94 % 1013,3 hPa 0,0 mm 0,0 km/h (0 Bft) W 275 ° 0 min 0,000 mm 0,0 UV-I 26 W/m² 5,9 °C 6,8 °C 0,0 km/h (0 Bft)
17.09.2017 07:55 6,8 °C 6,8 °C 94 % 1013,3 hPa 0,0 mm 0,0 km/h (0 Bft) W 275 ° 0 min 0,000 mm 0,0 UV-I 26 W/m² 5,9 °C 6,8 °C 0,0 km/h (0 Bft)
17.09.2017 07:56 6,8 °C 6,8 °C 94 % 1013,3 hPa 0,0 mm 0,2 km/h (0 Bft) W 275 ° 0 min 0,000 mm 0,0 UV-I 28 W/m² 5,9 °C 6,8 °C 1,6 km/h (1 Bft)
17.09.2017 07:57 6,8 °C 6,8 °C 93 % 1013,3 hPa 0,0 mm 0,0 km/h (0 Bft) W 275 ° 0 min 0,000 mm 0,0 UV-I 30 W/m² 5,7 °C 6,8 °C 0,0 km/h (0 Bft)
17.09.2017 07:58 6,9 °C 6,9 °C 94 % 1013,4 hPa 0,0 mm 1,5 km/h (1 Bft) W 262 ° 0 min 0,000 mm 0,0 UV-I 30 W/m² 6,0 °C 6,9 °C 3,2 km/h (1 Bft)
17.09.2017 07:59 6,9 °C 6,9 °C 93 % 1013,3 hPa 0,0 mm 0,2 km/h (0 Bft) W 262 ° 0 min 0,000 mm 0,0 UV-I 30 W/m² 5,8 °C 6,9 °C 1,6 km/h (1 Bft)
17.09.2017 08:00 6,9 °C 6,9 °C 93 % 1013,4 hPa 0,0 mm 0,0 km/h (0 Bft) W 262 ° 0 min 0,000 mm 0,0 UV-I 32 W/m² 5,8 °C 6,9 °C 0,0 km/h (0 Bft)
17.09.2017 08:01 6,9 °C 6,9 °C 93 % 1013,3 hPa 0,0 mm 0,0 km/h (0 Bft) W 262 ° 0 min 0,000 mm 0,0 UV-I 33 W/m² 5,8 °C 6,9 °C 0,0 km/h (0 Bft)
17.09.2017 08:02 6,9 °C 6,9 °C 94 % 1013,4 hPa 0,0 mm 0,0 km/h (0 Bft) W 261 ° 0 min 0,000 mm 0,0 UV-I 35 W/m² 6,0 °C 6,9 °C 0,0 km/h (0 Bft)
17.09.2017 08:03 6,9 °C 7,0 °C 94 % 1013,3 hPa 0,0 mm 0,0 km/h (0 Bft) W 261 ° 0 min 0,000 mm 0,0 UV-I 35 W/m² 6,0 °C 6,9 °C 0,0 km/h (0 Bft)
17.09.2017 08:04 7,0 °C 7,0 °C 94 % 1013,3 hPa 0,2 mm 0,0 km/h (0 Bft) W 261 ° 0 min 0,000 mm 0,0 UV-I 35 W/m² 6,1 °C 7,0 °C 0,0 km/h (0 Bft)
17.09.2017 08:05 7,0 °C 7,1 °C 94 % 1013,3 hPa 0,0 mm 0,0 km/h (0 Bft) W 261 ° 0 min 0,000 mm 0,0 UV-I 37 W/m² 6,1 °C 7,0 °C 0,0 km/h (0 Bft)
17.09.2017 08:06 7,0 °C 7,1 °C 94 % 1013,3 hPa 0,0 mm 0,0 km/h (0 Bft) W 261 ° 0 min 0,000 mm 0,0 UV-I 37 W/m² 6,1 °C 7,0 °C 0,0 km/h (0 Bft)
17.09.2017 08:07 7,0 °C 7,0 °C 94 % 1013,3 hPa 0,0 mm 0,0 km/h (0 Bft) W 261 ° 0 min 0,000 mm 0,0 UV-I 39 W/m² 6,1 °C 7,0 °C 0,0 km/h (0 Bft)
17.09.2017 08:08 7,0 °C 7,1 °C 94 % 1013,4 hPa 0,0 mm 0,0 km/h (0 Bft) W 261 ° 0 min 0,000 mm 0,0 UV-I 39 W/m² 6,1 °C 7,0 °C 0,0 km/h (0 Bft)
17.09.2017 08:09 7,0 °C 7,1 °C 94 % 1013,3 hPa 0,0 mm 0,0 km/h (0 Bft) W 261 ° 0 min 0,000 mm 0,0 UV-I 39 W/m² 6,1 °C 7,0 °C 0,0 km/h (0 Bft)
17.09.2017 08:10 7,0 °C 7,0 °C 94 % 1013,3 hPa 0,0 mm 0,0 km/h (0 Bft) W 261 ° 0 min 0,000 mm 0,0 UV-I 39 W/m² 6,1 °C 7,0 °C 0,0 km/h (0 Bft)
17.09.2017 08:11 7,0 °C 7,0 °C 94 % 1013,4 hPa 0,0 mm 0,0 km/h (0 Bft) W 261 ° 0 min 0,000 mm 0,0 UV-I 39 W/m² 6,1 °C 7,0 °C 0,0 km/h (0 Bft)
17.09.2017 08:12 7,0 °C 7,0 °C 94 % 1013,3 hPa 0,0 mm 0,0 km/h (0 Bft) W 261 ° 0 min 0,000 mm 0,0 UV-I 39 W/m² 6,1 °C 7,0 °C 0,0 km/h (0 Bft)
17.09.2017 08:13 7,1 °C 7,1 °C 94 % 1013,3 hPa 0,0 mm 0,0 km/h (0 Bft) W 261 ° 0 min 0,000 mm 0,0 UV-I 39 W/m² 6,2 °C 7,1 °C 0,0 km/h (0 Bft)
17.09.2017 08:14 7,0 °C 7,1 °C 94 % 1013,3 hPa 0,0 mm 0,0 km/h (0 Bft) W 261 ° 0 min 0,000 mm 0,0 UV-I 39 W/m² 6,1 °C 7,0 °C 0,0 km/h (0 Bft)
17.09.2017 08:15 7,0 °C 7,1 °C 94 % 1013,3 hPa 0,0 mm 0,0 km/h (0 Bft) W 261 ° 0 min 0,000 mm 0,0 UV-I 39 W/m² 6,1 °C 7,0 °C 0,0 km/h (0 Bft)
17.09.2017 08:16 7,0 °C 7,1 °C 94 % 1013,3 hPa 0,0 mm 0,6 km/h (0 Bft) W 261 ° 0 min 0,000 mm 0,0 UV-I 39 W/m² 6,1 °C 7,0 °C 1,6 km/h (1 Bft)
17.09.2017 08:17 7,0 °C 7,1 °C 94 % 1013,3 hPa 0,0 mm 0,2 km/h (0 Bft) W 261 ° 0 min 0,000 mm 0,0 UV-I 39 W/m² 6,1 °C 7,0 °C 1,6 km/h (1 Bft)
17.09.2017 08:18 7,1 °C 7,1 °C 94 % 1013,3 hPa 0,0 mm 0,0 km/h (0 Bft) W 261 ° 0 min 0,000 mm 0,0 UV-I 39 W/m² 6,2 °C 7,1 °C 0,0 km/h (0 Bft)
17.09.2017 08:19 7,1 °C 7,1 °C 94 % 1013,3 hPa 0,0 mm 0,0 km/h (0 Bft) W 261 ° 0 min 0,000 mm 0,0 UV-I 37 W/m² 6,2 °C 7,1 °C 0,0 km/h (0 Bft)
17.09.2017 08:20 7,1 °C 7,1 °C 94 % 1013,3 hPa 0,0 mm 0,0 km/h (0 Bft) W 261 ° 0 min 0,000 mm 0,0 UV-I 37 W/m² 6,2 °C 7,1 °C 0,0 km/h (0 Bft)
17.09.2017 08:21 7,1 °C 7,1 °C 94 % 1013,3 hPa 0,0 mm 0,5 km/h (0 Bft) W 262 ° 0 min 0,000 mm 0,0 UV-I 37 W/m² 6,2 °C 7,1 °C 3,2 km/h (1 Bft)
17.09.2017 08:22 7,1 °C 7,1 °C 94 % 1013,3 hPa 0,0 mm 0,1 km/h (0 Bft) W 262 ° 0 min 0,000 mm 0,0 UV-I 37 W/m² 6,2 °C 7,1 °C 1,6 km/h (1 Bft)
17.09.2017 08:23 7,1 °C 7,2 °C 94 % 1013,3 hPa 0,0 mm 0,9 km/h (0 Bft) W 262 ° 0 min 0,000 mm 0,0 UV-I 37 W/m² 6,2 °C 7,1 °C 1,6 km/h (1 Bft)
17.09.2017 08:24 7,2 °C 7,2 °C 94 % 1013,3 hPa 0,0 mm 0,0 km/h (0 Bft) W 262 ° 0 min 0,000 mm 0,0 UV-I 37 W/m² 6,3 °C 7,2 °C 0,0 km/h (0 Bft)
17.09.2017 08:25 7,2 °C 7,2 °C 94 % 1013,3 hPa 0,0 mm 0,0 km/h (0 Bft) W 262 ° 0 min 0,000 mm 0,0 UV-I 37 W/m² 6,3 °C 7,2 °C 0,0 km/h (0 Bft)
17.09.2017 08:26 7,2 °C 7,2 °C 94 % 1013,3 hPa 0,0 mm 0,0 km/h (0 Bft) W 262 ° 0 min 0,000 mm 0,0 UV-I 39 W/m² 6,3 °C 7,2 °C 0,0 km/h (0 Bft)
17.09.2017 08:27 7,2 °C 7,2 °C 94 % 1013,3 hPa 0,0 mm 0,0 km/h (0 Bft) W 262 ° 0 min 0,000 mm 0,0 UV-I 39 W/m² 6,3 °C 7,2 °C 0,0 km/h (0 Bft)
17.09.2017 08:28 7,2 °C 7,3 °C 94 % 1013,3 hPa 0,0 mm 0,7 km/h (0 Bft) W 262 ° 0 min 0,000 mm 0,0 UV-I 39 W/m² 6,3 °C 7,2 °C 1,6 km/h (1 Bft)
17.09.2017 08:29 7,3 °C 7,3 °C 94 % 1013,3 hPa 0,0 mm 0,1 km/h (0 Bft) W 262 ° 0 min 0,000 mm 0,0 UV-I 39 W/m² 6,4 °C 7,3 °C 1,6 km/h (1 Bft)
17.09.2017 08:30 7,2 °C 7,3 °C 94 % 1013,3 hPa 0,0 mm 0,0 km/h (0 Bft) W 262 ° 0 min 0,000 mm 0,0 UV-I 40 W/m² 6,3 °C 7,2 °C 0,0 km/h (0 Bft)
17.09.2017 08:31 7,2 °C 7,3 °C 94 % 1013,3 hPa 0,0 mm 0,0 km/h (0 Bft) W 262 ° 0 min 0,000 mm 0,0 UV-I 42 W/m² 6,3 °C 7,2 °C 0,0 km/h (0 Bft)
17.09.2017 08:32 7,2 °C 7,2 °C 93 % 1013,4 hPa 0,0 mm 0,0 km/h (0 Bft) W 262 ° 0 min 0,000 mm 0,0 UV-I 44 W/m² 6,1 °C 7,2 °C 0,0 km/h (0 Bft)
17.09.2017 08:33 7,2 °C 7,2 °C 93 % 1013,4 hPa 0,0 mm 0,0 km/h (0 Bft) W 262 ° 0 min 0,000 mm 0,0 UV-I 44 W/m² 6,1 °C 7,2 °C 0,0 km/h (0 Bft)
17.09.2017 08:34 7,2 °C 7,2 °C 94 % 1013,4 hPa 0,0 mm 0,0 km/h (0 Bft) W 262 ° 0 min 0,000 mm 0,0 UV-I 46 W/m² 6,3 °C 7,2 °C 0,0 km/h (0 Bft)
17.09.2017 08:35 7,2 °C 7,2 °C 94 % 1013,4 hPa 0,0 mm 0,0 km/h (0 Bft) W 262 ° 0 min 0,000 mm 0,0 UV-I 47 W/m² 6,3 °C 7,2 °C 0,0 km/h (0 Bft)
17.09.2017 08:36 7,2 °C 7,2 °C 94 % 1013,4 hPa 0,0 mm 0,0 km/h (0 Bft) W 262 ° 0 min 0,000 mm 0,0 UV-I 49 W/m² 6,3 °C 7,2 °C 0,0 km/h (0 Bft)
17.09.2017 08:37 7,2 °C 7,2 °C 94 % 1013,4 hPa 0,0 mm 0,0 km/h (0 Bft) W 262 ° 0 min 0,000 mm 0,0 UV-I 51 W/m² 6,3 °C 7,2 °C 0,0 km/h (0 Bft)
17.09.2017 08:38 7,2 °C 7,2 °C 94 % 1013,4 hPa 0,0 mm 0,0 km/h (0 Bft) W 262 ° 0 min 0,000 mm 0,0 UV-I 53 W/m² 6,3 °C 7,2 °C 0,0 km/h (0 Bft)
17.09.2017 08:39 7,2 °C 7,2 °C 94 % 1013,3 hPa 0,0 mm 0,0 km/h (0 Bft) W 262 ° 0 min 0,000 mm 0,0 UV-I 53 W/m² 6,3 °C 7,2 °C 0,0 km/h (0 Bft)
17.09.2017 08:40 7,2 °C 7,2 °C 94 % 1013,3 hPa 0,0 mm 0,3 km/h (0 Bft) W 262 ° 0 min 0,000 mm 0,0 UV-I 54 W/m² 6,3 °C 7,2 °C 1,6 km/h (1 Bft)
17.09.2017 08:41 7,2 °C 7,2 °C 94 % 1013,4 hPa 0,2 mm 0,0 km/h (0 Bft) W 262 ° 0 min 0,000 mm 0,0 UV-I 54 W/m² 6,3 °C 7,2 °C 0,0 km/h (0 Bft)
17.09.2017 08:42 7,2 °C 7,2 °C 94 % 1013,4 hPa 0,0 mm 0,0 km/h (0 Bft) W 262 ° 0 min 0,000 mm 0,0 UV-I 56 W/m² 6,3 °C 7,2 °C 0,0 km/h (0 Bft)
17.09.2017 08:43 7,2 °C 7,2 °C 94 % 1013,4 hPa 0,0 mm 0,0 km/h (0 Bft) W 262 ° 0 min 0,000 mm 0,0 UV-I 56 W/m² 6,3 °C 7,2 °C 0,0 km/h (0 Bft)
17.09.2017 08:44 7,2 °C 7,2 °C 94 % 1013,4 hPa 0,0 mm 0,0 km/h (0 Bft) W 262 ° 0 min 0,000 mm 0,0 UV-I 58 W/m² 6,3 °C 7,2 °C 0,0 km/h (0 Bft)
17.09.2017 08:45 7,2 °C 7,2 °C 94 % 1013,4 hPa 0,0 mm 0,0 km/h (0 Bft) W 262 ° 0 min 0,000 mm 0,0 UV-I 58 W/m² 6,3 °C 7,2 °C 0,0 km/h (0 Bft)
17.09.2017 08:46 7,2 °C 7,2 °C 94 % 1013,4 hPa 0,0 mm 0,0 km/h (0 Bft) W 262 ° 0 min 0,000 mm 0,0 UV-I 60 W/m² 6,3 °C 7,2 °C 0,0 km/h (0 Bft)
17.09.2017 08:47 7,2 °C 7,2 °C 94 % 1013,4 hPa 0,0 mm 0,0 km/h (0 Bft) W 262 ° 0 min 0,000 mm 0,0 UV-I 62 W/m² 6,3 °C 7,2 °C 0,0 km/h (0 Bft)
17.09.2017 08:48 7,2 °C 7,2 °C 94 % 1013,4 hPa 0,0 mm 0,0 km/h (0 Bft) W 262 ° 0 min 0,000 mm 0,0 UV-I 62 W/m² 6,3 °C 7,2 °C 0,0 km/h (0 Bft)
17.09.2017 08:49 7,2 °C 7,2 °C 94 % 1013,4 hPa 0,0 mm 0,0 km/h (0 Bft) W 262 ° 0 min 0,000 mm 0,0 UV-I 65 W/m² 6,3 °C 7,2 °C 0,0 km/h (0 Bft)
17.09.2017 08:50 7,2 °C 7,2 °C 94 % 1013,5 hPa 0,0 mm 0,0 km/h (0 Bft) W 262 ° 0 min 0,000 mm 0,0 UV-I 67 W/m² 6,3 °C 7,2 °C 0,0 km/h (0 Bft)
17.09.2017 08:51 7,2 °C 7,2 °C 94 % 1013,5 hPa 0,0 mm 0,0 km/h (0 Bft) W 262 ° 0 min 0,000 mm 0,0 UV-I 69 W/m² 6,3 °C 7,2 °C 0,0 km/h (0 Bft)
17.09.2017 08:52 7,2 °C 7,2 °C 94 % 1013,5 hPa 0,0 mm 0,0 km/h (0 Bft) W 262 ° 0 min 0,000 mm 0,0 UV-I 70 W/m² 6,3 °C 7,2 °C 0,0 km/h (0 Bft)
17.09.2017 08:53 7,3 °C 7,3 °C 94 % 1013,5 hPa 0,0 mm 0,1 km/h (0 Bft) W 262 ° 0 min 0,000 mm 0,0 UV-I 72 W/m² 6,4 °C 7,3 °C 1,6 km/h (1 Bft)
17.09.2017 08:54 7,3 °C 7,3 °C 94 % 1013,5 hPa 0,0 mm 3,1 km/h (1 Bft) W-NW 303 ° 0 min 0,000 mm 0,0 UV-I 74 W/m² 6,4 °C 7,3 °C 3,2 km/h (1 Bft)
17.09.2017 08:55 7,3 °C 7,4 °C 94 % 1013,5 hPa 0,0 mm 2,1 km/h (1 Bft) W-NW 303 ° 0 min 0,000 mm 0,5 UV-I 77 W/m² 6,4 °C 7,3 °C 3,2 km/h (1 Bft)
17.09.2017 08:56 7,3 °C 7,4 °C 94 % 1013,5 hPa 0,0 mm 0,7 km/h (0 Bft) W-NW 303 ° 0 min 0,000 mm 0,5 UV-I 79 W/m² 6,4 °C 7,3 °C 1,6 km/h (1 Bft)
17.09.2017 08:57 7,4 °C 7,4 °C 94 % 1013,5 hPa 0,0 mm 0,7 km/h (0 Bft) W-NW 303 ° 0 min 0,000 mm 0,5 UV-I 81 W/m² 6,5 °C 7,4 °C 1,6 km/h (1 Bft)
17.09.2017 08:58 7,4 °C 7,4 °C 94 % 1013,5 hPa 0,0 mm 0,0 km/h (0 Bft) W-NW 303 ° 0 min 0,000 mm 0,5 UV-I 83 W/m² 6,5 °C 7,4 °C 0,0 km/h (0 Bft)
17.09.2017 08:59 7,4 °C 7,4 °C 93 % 1013,5 hPa 0,0 mm 0,1 km/h (0 Bft) W-NW 303 ° 0 min 0,000 mm 0,5 UV-I 83 W/m² 6,3 °C 7,4 °C 1,6 km/h (1 Bft)
17.09.2017 09:00 7,4 °C 7,4 °C 93 % 1013,5 hPa 0,0 mm 0,0 km/h (0 Bft) W-NW 303 ° 0 min 0,025 mm 0,5 UV-I 84 W/m² 6,3 °C 7,4 °C 0,0 km/h (0 Bft)
17.09.2017 09:01 7,4 °C 7,4 °C 93 % 1013,5 hPa 0,0 mm 0,0 km/h (0 Bft) W-NW 303 ° 0 min 0,000 mm 0,5 UV-I 86 W/m² 6,3 °C 7,4 °C 0,0 km/h (0 Bft)
17.09.2017 09:02 7,4 °C 7,4 °C 93 % 1013,5 hPa 0,0 mm 0,1 km/h (0 Bft) W-NW 303 ° 0 min 0,000 mm 0,5 UV-I 86 W/m² 6,3 °C 7,4 °C 1,6 km/h (1 Bft)
17.09.2017 09:03 7,4 °C 7,4 °C 93 % 1013,5 hPa 0,0 mm 0,1 km/h (0 Bft) W-NW 303 ° 0 min 0,000 mm 0,5 UV-I 86 W/m² 6,3 °C 7,4 °C 1,6 km/h (1 Bft)
17.09.2017 09:04 7,4 °C 7,4 °C 93 % 1013,5 hPa 0,0 mm 0,5 km/h (0 Bft) W-NW 303 ° 0 min 0,000 mm 0,5 UV-I 88 W/m² 6,3 °C 7,4 °C 3,2 km/h (1 Bft)
17.09.2017 09:05 7,4 °C 7,4 °C 93 % 1013,5 hPa 0,0 mm 0,0 km/h (0 Bft) W-NW 303 ° 0 min 0,000 mm 0,5 UV-I 88 W/m² 6,3 °C 7,4 °C 0,0 km/h (0 Bft)
17.09.2017 09:06 7,4 °C 7,4 °C 93 % 1013,5 hPa 0,0 mm 0,0 km/h (0 Bft) W-NW 303 ° 0 min 0,000 mm 0,5 UV-I 88 W/m² 6,3 °C 7,4 °C 0,0 km/h (0 Bft)
17.09.2017 09:07 7,4 °C 7,4 °C 93 % 1013,5 hPa 0,0 mm 0,8 km/h (0 Bft) NW 313 ° 0 min 0,000 mm 0,5 UV-I 88 W/m² 6,3 °C 7,4 °C 3,2 km/h (1 Bft)
17.09.2017 09:08 7,4 °C 7,5 °C 93 % 1013,5 hPa 0,0 mm 1,5 km/h (1 Bft) S 190 ° 0 min 0,000 mm 0,5 UV-I 88 W/m² 6,3 °C 7,4 °C 3,2 km/h (1 Bft)
17.09.2017 09:09 7,5 °C 7,5 °C 93 % 1013,5 hPa 0,0 mm 0,3 km/h (0 Bft) S 190 ° 0 min 0,000 mm 0,5 UV-I 88 W/m² 6,4 °C 7,5 °C 1,6 km/h (1 Bft)
17.09.2017 09:10 7,6 °C 7,6 °C 93 % 1013,5 hPa 0,0 mm 0,0 km/h (0 Bft) S 190 ° 0 min 0,000 mm 0,5 UV-I 86 W/m² 6,5 °C 7,6 °C 0,0 km/h (0 Bft)
17.09.2017 09:11 7,6 °C 7,6 °C 93 % 1013,5 hPa 0,0 mm 0,0 km/h (0 Bft) S 190 ° 0 min 0,000 mm 0,5 UV-I 86 W/m² 6,5 °C 7,6 °C 0,0 km/h (0 Bft)
17.09.2017 09:12 7,6 °C 7,6 °C 93 % 1013,5 hPa 0,0 mm 0,1 km/h (0 Bft) S 190 ° 0 min 0,000 mm 0,5 UV-I 88 W/m² 6,5 °C 7,6 °C 1,6 km/h (1 Bft)
17.09.2017 09:13 7,6 °C 7,6 °C 93 % 1013,5 hPa 0,0 mm 0,0 km/h (0 Bft) S 190 ° 0 min 0,000 mm 0,6 UV-I 88 W/m² 6,5 °C 7,6 °C 0,0 km/h (0 Bft)
17.09.2017 09:14 7,6 °C 7,6 °C 93 % 1013,5 hPa 0,0 mm 0,0 km/h (0 Bft) S 190 ° 0 min 0,000 mm 0,6 UV-I 90 W/m² 6,5 °C 7,6 °C 0,0 km/h (0 Bft)
17.09.2017 09:15 7,6 °C 7,6 °C 93 % 1013,5 hPa 0,0 mm 0,0 km/h (0 Bft) S 182 ° 0 min 0,000 mm 0,6 UV-I 91 W/m² 6,5 °C 7,6 °C 0,0 km/h (0 Bft)
17.09.2017 09:16 7,6 °C 7,6 °C 93 % 1013,6 hPa 0,0 mm 0,2 km/h (0 Bft) S 182 ° 0 min 0,000 mm 0,6 UV-I 95 W/m² 6,5 °C 7,6 °C 1,6 km/h (1 Bft)
17.09.2017 09:17 7,6 °C 7,6 °C 93 % 1013,5 hPa 0,0 mm 0,0 km/h (0 Bft) S 182 ° 0 min 0,000 mm 0,6 UV-I 97 W/m² 6,5 °C 7,6 °C 0,0 km/h (0 Bft)
17.09.2017 09:18 7,6 °C 7,6 °C 93 % 1013,5 hPa 0,0 mm 0,0 km/h (0 Bft) S 182 ° 0 min 0,000 mm 0,6 UV-I 104 W/m² 6,5 °C 7,6 °C 0,0 km/h (0 Bft)
17.09.2017 09:19 7,6 °C 7,6 °C 93 % 1013,6 hPa 0,0 mm 0,1 km/h (0 Bft) S 182 ° 0 min 0,000 mm 0,7 UV-I 107 W/m² 6,5 °C 7,6 °C 1,6 km/h (1 Bft)
17.09.2017 09:20 7,6 °C 7,6 °C 93 % 1013,6 hPa 0,0 mm 0,7 km/h (0 Bft) W-SW 248 ° 0 min 0,000 mm 0,7 UV-I 109 W/m² 6,5 °C 7,6 °C 6,4 km/h (2 Bft)
17.09.2017 09:21 7,6 °C 7,6 °C 93 % 1013,6 hPa 0,0 mm 2,7 km/h (1 Bft) SW 225 ° 0 min 0,000 mm 0,7 UV-I 111 W/m² 6,5 °C 7,6 °C 6,4 km/h (2 Bft)
17.09.2017 09:22 7,7 °C 7,7 °C 92 % 1013,6 hPa 0,0 mm 1,0 km/h (0 Bft) N 350 ° 0 min 0,000 mm 0,7 UV-I 114 W/m² 6,5 °C 7,7 °C 4,8 km/h (1 Bft)
17.09.2017 09:23 7,7 °C 7,7 °C 92 % 1013,6 hPa 0,0 mm 1,5 km/h (1 Bft) SW 223 ° 0 min 0,000 mm 0,7 UV-I 116 W/m² 6,5 °C 7,7 °C 4,8 km/h (1 Bft)
17.09.2017 09:24 7,8 °C 7,8 °C 92 % 1013,6 hPa 0,0 mm 0,0 km/h (0 Bft) SW 223 ° 0 min 0,000 mm 0,7 UV-I 118 W/m² 6,6 °C 7,8 °C 0,0 km/h (0 Bft)
17.09.2017 09:25 7,8 °C 7,8 °C 92 % 1013,6 hPa 0,0 mm 0,0 km/h (0 Bft) SW 223 ° 0 min 0,000 mm 0,7 UV-I 120 W/m² 6,6 °C 7,8 °C 0,0 km/h (0 Bft)
17.09.2017 09:26 7,8 °C 7,8 °C 93 % 1013,7 hPa 0,0 mm 0,0 km/h (0 Bft) SW 215 ° 0 min 0,000 mm 0,8 UV-I 120 W/m² 6,7 °C 7,8 °C 0,0 km/h (0 Bft)
17.09.2017 09:27 7,8 °C 7,8 °C 92 % 1013,7 hPa 0,0 mm 1,5 km/h (1 Bft) S-SO 157 ° 0 min 0,000 mm 0,8 UV-I 121 W/m² 6,6 °C 7,8 °C 3,2 km/h (1 Bft)
17.09.2017 09:28 7,8 °C 7,8 °C 92 % 1013,6 hPa 0,0 mm 0,9 km/h (0 Bft) O-NO 72 ° 0 min 0,000 mm 0,8 UV-I 120 W/m² 6,6 °C 7,8 °C 4,8 km/h (1 Bft)
17.09.2017 09:29 7,8 °C 7,9 °C 92 % 1013,7 hPa 0,0 mm 3,1 km/h (1 Bft) NO 42 ° 0 min 0,000 mm 0,8 UV-I 120 W/m² 6,6 °C 7,8 °C 4,8 km/h (1 Bft)
17.09.2017 09:30 7,9 °C 7,9 °C 92 % 1013,7 hPa 0,0 mm 0,4 km/h (0 Bft) NO 42 ° 0 min 0,000 mm 0,8 UV-I 116 W/m² 6,7 °C 7,9 °C 1,6 km/h (1 Bft)
17.09.2017 09:31 8,0 °C 8,0 °C 92 % 1013,7 hPa 0,0 mm 0,0 km/h (0 Bft) NO 42 ° 0 min 0,000 mm 0,8 UV-I 116 W/m² 6,8 °C 8,0 °C 0,0 km/h (0 Bft)
17.09.2017 09:32 8,0 °C 8,0 °C 92 % 1013,7 hPa 0,0 mm 0,0 km/h (0 Bft) NO 42 ° 0 min 0,000 mm 0,8 UV-I 116 W/m² 6,8 °C 8,0 °C 0,0 km/h (0 Bft)
17.09.2017 09:33 8,1 °C 8,1 °C 92 % 1013,7 hPa 0,0 mm 0,0 km/h (0 Bft) NO 42 ° 0 min 0,000 mm 0,8 UV-I 120 W/m² 6,9 °C 8,1 °C 0,0 km/h (0 Bft)
17.09.2017 09:34 8,1 °C 8,1 °C 92 % 1013,7 hPa 0,0 mm 0,3 km/h (0 Bft) NO 42 ° 0 min 0,000 mm 0,8 UV-I 121 W/m² 6,9 °C 8,1 °C 1,6 km/h (1 Bft)
17.09.2017 09:35 8,1 °C 8,1 °C 92 % 1013,7 hPa 0,0 mm 0,1 km/h (0 Bft) NO 42 ° 0 min 0,000 mm 0,8 UV-I 123 W/m² 6,9 °C 8,1 °C 1,6 km/h (1 Bft)
17.09.2017 09:36 8,1 °C 8,1 °C 92 % 1013,8 hPa 0,0 mm 0,0 km/h (0 Bft) NO 42 ° 0 min 0,000 mm 0,8 UV-I 127 W/m² 6,9 °C 8,1 °C 0,0 km/h (0 Bft)
17.09.2017 09:37 8,1 °C 8,1 °C 92 % 1013,8 hPa 0,0 mm 1,3 km/h (1 Bft) O 92 ° 0 min 0,000 mm 0,9 UV-I 128 W/m² 6,9 °C 8,1 °C 4,8 km/h (1 Bft)
17.09.2017 09:38 8,1 °C 8,1 °C 92 % 1013,7 hPa 0,0 mm 1,4 km/h (1 Bft) O 91 ° 0 min 0,000 mm 0,9 UV-I 130 W/m² 6,9 °C 8,1 °C 3,2 km/h (1 Bft)
17.09.2017 09:39 8,1 °C 8,1 °C 92 % 1013,7 hPa 0,0 mm 1,5 km/h (1 Bft) O 91 ° 0 min 0,000 mm 0,9 UV-I 132 W/m² 6,9 °C 8,1 °C 3,2 km/h (1 Bft)
17.09.2017 09:40 8,1 °C 8,1 °C 92 % 1013,7 hPa 0,0 mm 1,9 km/h (1 Bft) O 91 ° 0 min 0,000 mm 0,9 UV-I 134 W/m² 6,9 °C 8,1 °C 3,2 km/h (1 Bft)
17.09.2017 09:41 8,1 °C 8,1 °C 92 % 1013,7 hPa 0,0 mm 0,6 km/h (0 Bft) NO 53 ° 0 min 0,000 mm 0,9 UV-I 135 W/m² 6,9 °C 8,1 °C 3,2 km/h (1 Bft)
17.09.2017 09:42 8,1 °C 8,1 °C 92 % 1013,7 hPa 0,0 mm 2,5 km/h (1 Bft) NO 49 ° 0 min 0,000 mm 0,9 UV-I 137 W/m² 6,9 °C 8,1 °C 4,8 km/h (1 Bft)
17.09.2017 09:43 8,1 °C 8,1 °C 91 % 1013,7 hPa 0,0 mm 0,7 km/h (0 Bft) NO 49 ° 0 min 0,000 mm 1,0 UV-I 139 W/m² 6,7 °C 8,1 °C 1,6 km/h (1 Bft)
17.09.2017 09:44 8,1 °C 8,1 °C 92 % 1013,7 hPa 0,0 mm 1,4 km/h (1 Bft) NO 43 ° 0 min 0,000 mm 1,0 UV-I 139 W/m² 6,9 °C 8,1 °C 3,2 km/h (1 Bft)
17.09.2017 09:45 8,2 °C 8,2 °C 91 % 1013,7 hPa 0,0 mm 2,5 km/h (1 Bft) O-NO 62 ° 0 min 0,000 mm 1,0 UV-I 142 W/m² 6,8 °C 8,2 °C 3,2 km/h (1 Bft)
17.09.2017 09:46 8,2 °C 8,2 °C 92 % 1013,7 hPa 0,0 mm 2,9 km/h (1 Bft) O-SO 115 ° 0 min 0,000 mm 1,0 UV-I 144 W/m² 7,0 °C 8,2 °C 4,8 km/h (1 Bft)
17.09.2017 09:47 8,2 °C 8,2 °C 91 % 1013,7 hPa 0,0 mm 1,5 km/h (1 Bft) O-SO 115 ° 0 min 0,000 mm 1,1 UV-I 146 W/m² 6,8 °C 8,2 °C 4,8 km/h (1 Bft)
17.09.2017 09:48 8,2 °C 8,2 °C 91 % 1013,7 hPa 0,0 mm 0,1 km/h (0 Bft) O-SO 115 ° 0 min 0,000 mm 1,1 UV-I 151 W/m² 6,8 °C 8,2 °C 1,6 km/h (1 Bft)
17.09.2017 09:49 8,2 °C 8,2 °C 91 % 1013,7 hPa 0,0 mm 1,0 km/h (0 Bft) O-SO 115 ° 0 min 0,000 mm 1,1 UV-I 153 W/m² 6,8 °C 8,2 °C 1,6 km/h (1 Bft)
17.09.2017 09:50 8,2 °C 8,2 °C 91 % 1013,7 hPa 0,0 mm 1,2 km/h (1 Bft) O-SO 115 ° 0 min 0,000 mm 1,1 UV-I 156 W/m² 6,8 °C 8,2 °C 3,2 km/h (1 Bft)
17.09.2017 09:51 8,3 °C 8,3 °C 91 % 1013,7 hPa 0,0 mm 0,1 km/h (0 Bft) O-SO 115 ° 0 min 0,000 mm 1,2 UV-I 160 W/m² 6,9 °C 8,3 °C 1,6 km/h (1 Bft)
17.09.2017 09:52 8,3 °C 8,3 °C 91 % 1013,6 hPa 0,0 mm 2,1 km/h (1 Bft) O 90 ° 0 min 0,000 mm 1,2 UV-I 163 W/m² 6,9 °C 8,3 °C 4,8 km/h (1 Bft)
17.09.2017 09:53 8,3 °C 8,3 °C 90 % 1013,7 hPa 0,0 mm 2,7 km/h (1 Bft) W-NW 298 ° 0 min 0,000 mm 1,2 UV-I 165 W/m² 6,8 °C 8,3 °C 4,8 km/h (1 Bft)
17.09.2017 09:54 8,3 °C 8,3 °C 91 % 1013,6 hPa 0,0 mm 1,0 km/h (0 Bft) NW 304 ° 0 min 0,000 mm 1,3 UV-I 179 W/m² 6,9 °C 8,3 °C 3,2 km/h (1 Bft)
17.09.2017 09:55 8,3 °C 8,4 °C 90 % 1013,6 hPa 0,0 mm 2,2 km/h (1 Bft) O 92 ° 0 min 0,000 mm 1,3 UV-I 188 W/m² 6,8 °C 8,3 °C 4,8 km/h (1 Bft)
17.09.2017 09:56 8,3 °C 8,3 °C 89 % 1013,6 hPa 0,0 mm 2,5 km/h (1 Bft) O 97 ° 0 min 0,000 mm 1,4 UV-I 199 W/m² 6,6 °C 8,3 °C 4,8 km/h (1 Bft)
17.09.2017 09:57 8,3 °C 8,3 °C 90 % 1013,6 hPa 0,0 mm 0,6 km/h (0 Bft) O 96 ° 0 min 0,000 mm 1,4 UV-I 213 W/m² 6,8 °C 8,3 °C 3,2 km/h (1 Bft)
17.09.2017 09:58 8,4 °C 8,4 °C 90 % 1013,6 hPa 0,0 mm 2,7 km/h (1 Bft) O-NO 74 ° 0 min 0,000 mm 1,5 UV-I 225 W/m² 6,9 °C 8,4 °C 4,8 km/h (1 Bft)
17.09.2017 09:59 8,4 °C 8,4 °C 91 % 1013,6 hPa 0,0 mm 2,7 km/h (1 Bft) O-NO 74 ° 0 min 0,000 mm 1,5 UV-I 246 W/m² 7,0 °C 8,4 °C 4,8 km/h (1 Bft)
17.09.2017 10:00 8,4 °C 8,4 °C 91 % 1013,6 hPa 0,0 mm 1,9 km/h (1 Bft) O-NO 67 ° 0 min 0,000 mm 1,6 UV-I 251 W/m² 7,0 °C 8,4 °C 4,8 km/h (1 Bft)
17.09.2017 10:01 8,5 °C 8,5 °C 90 % 1013,6 hPa 0,0 mm 1,5 km/h (1 Bft) O-NO 65 ° 0 min 0,051 mm 1,6 UV-I 260 W/m² 7,0 °C 8,5 °C 3,2 km/h (1 Bft)
17.09.2017 10:02 8,6 °C 8,6 °C 90 % 1013,6 hPa 0,0 mm 0,2 km/h (0 Bft) O-NO 65 ° 0 min 0,000 mm 1,6 UV-I 223 W/m² 7,1 °C 8,6 °C 1,6 km/h (1 Bft)
17.09.2017 10:03 8,7 °C 8,7 °C 91 % 1013,6 hPa 0,0 mm 2,7 km/h (1 Bft) O 79 ° 0 min 0,000 mm 1,7 UV-I 265 W/m² 7,3 °C 8,7 °C 3,2 km/h (1 Bft)
17.09.2017 10:04 8,7 °C 8,8 °C 91 % 1013,6 hPa 0,0 mm 1,7 km/h (1 Bft) O 80 ° 0 min 0,000 mm 1,7 UV-I 265 W/m² 7,3 °C 8,7 °C 3,2 km/h (1 Bft)
17.09.2017 10:05 8,8 °C 8,8 °C 90 % 1013,6 hPa 0,0 mm 3,2 km/h (1 Bft) O 80 ° 0 min 0,000 mm 1,7 UV-I 269 W/m² 7,3 °C 8,8 °C 4,8 km/h (1 Bft)
17.09.2017 10:06 8,8 °C 8,8 °C 89 % 1013,6 hPa 0,0 mm 1,3 km/h (1 Bft) O 84 ° 0 min 0,000 mm 1,7 UV-I 264 W/m² 7,1 °C 8,8 °C 3,2 km/h (1 Bft)
17.09.2017 10:07 8,8 °C 8,8 °C 89 % 1013,6 hPa 0,0 mm 2,3 km/h (1 Bft) NO 48 ° 0 min 0,000 mm 1,7 UV-I 269 W/m² 7,1 °C 8,8 °C 4,8 km/h (1 Bft)
17.09.2017 10:08 8,8 °C 8,8 °C 89 % 1013,7 hPa 0,0 mm 3,4 km/h (1 Bft) NO 45 ° 0 min 0,000 mm 1,7 UV-I 253 W/m² 7,1 °C 8,8 °C 6,4 km/h (2 Bft)
17.09.2017 10:09 8,9 °C 8,9 °C 89 % 1013,7 hPa 0,0 mm 3,5 km/h (1 Bft) NO 34 ° 0 min 0,000 mm 1,6 UV-I 253 W/m² 7,2 °C 8,9 °C 6,4 km/h (2 Bft)
17.09.2017 10:10 8,9 °C 8,9 °C 89 % 1013,7 hPa 0,0 mm 3,7 km/h (1 Bft) NO 56 ° 0 min 0,000 mm 1,7 UV-I 225 W/m² 7,2 °C 8,9 °C 6,4 km/h (2 Bft)
17.09.2017 10:11 8,9 °C 8,9 °C 88 % 1013,7 hPa 0,0 mm 1,3 km/h (1 Bft) NO 56 ° 0 min 0,000 mm 1,7 UV-I 218 W/m² 7,0 °C 8,9 °C 3,2 km/h (1 Bft)
17.09.2017 10:12 8,9 °C 8,9 °C 88 % 1013,7 hPa 0,0 mm 3,3 km/h (1 Bft) O-NO 76 ° 0 min 0,000 mm 1,7 UV-I 225 W/m² 7,0 °C 8,9 °C 4,8 km/h (1 Bft)
17.09.2017 10:13 8,9 °C 8,9 °C 89 % 1013,7 hPa 0,0 mm 2,8 km/h (1 Bft) O-NO 71 ° 0 min 0,000 mm 1,8 UV-I 260 W/m² 7,2 °C 8,9 °C 4,8 km/h (1 Bft)
17.09.2017 10:14 8,9 °C 8,9 °C 88 % 1013,6 hPa 0,0 mm 2,2 km/h (1 Bft) O-SO 121 ° 0 min 0,000 mm 1,9 UV-I 264 W/m² 7,0 °C 8,9 °C 4,8 km/h (1 Bft)
17.09.2017 10:15 8,9 °C 8,9 °C 87 % 1013,6 hPa 0,0 mm 3,2 km/h (1 Bft) SO 144 ° 1 min 0,000 mm 1,9 UV-I 295 W/m² 6,9 °C 8,9 °C 6,4 km/h (2 Bft)
17.09.2017 10:16 8,9 °C 8,9 °C 88 % 1013,6 hPa 0,0 mm 0,4 km/h (0 Bft) SO 144 ° 1 min 0,000 mm 1,9 UV-I 302 W/m² 7,0 °C 8,9 °C 3,2 km/h (1 Bft)
17.09.2017 10:17 8,9 °C 8,9 °C 88 % 1013,7 hPa 0,0 mm 0,0 km/h (0 Bft) SO 144 ° 0 min 0,000 mm 1,7 UV-I 278 W/m² 7,0 °C 8,9 °C 0,0 km/h (0 Bft)
17.09.2017 10:18 9,0 °C 9,0 °C 87 % 1013,6 hPa 0,0 mm 0,0 km/h (0 Bft) SO 144 ° 0 min 0,000 mm 2,1 UV-I 202 W/m² 7,0 °C 9,0 °C 0,0 km/h (0 Bft)
17.09.2017 10:19 8,9 °C 9,0 °C 87 % 1013,7 hPa 0,0 mm 0,5 km/h (0 Bft) SO 144 ° 1 min 0,000 mm 2,0 UV-I 329 W/m² 6,9 °C 8,9 °C 1,6 km/h (1 Bft)
17.09.2017 10:20 9,0 °C 9,0 °C 87 % 1013,7 hPa 0,0 mm 1,4 km/h (1 Bft) SO 144 ° 0 min 0,000 mm 1,7 UV-I 230 W/m² 7,0 °C 9,0 °C 3,2 km/h (1 Bft)
17.09.2017 10:21 9,0 °C 9,1 °C 86 % 1013,7 hPa 0,0 mm 1,7 km/h (1 Bft) O-SO 121 ° 0 min 0,000 mm 1,7 UV-I 218 W/m² 6,8 °C 9,0 °C 3,2 km/h (1 Bft)
17.09.2017 10:22 9,0 °C 9,0 °C 86 % 1013,7 hPa 0,0 mm 1,8 km/h (1 Bft) O-SO 121 ° 0 min 0,000 mm 1,7 UV-I 216 W/m² 6,8 °C 9,0 °C 3,2 km/h (1 Bft)
17.09.2017 10:23 9,0 °C 9,0 °C 85 % 1013,7 hPa 0,0 mm 0,1 km/h (0 Bft) O-SO 121 ° 0 min 0,000 mm 1,6 UV-I 209 W/m² 6,6 °C 9,0 °C 1,6 km/h (1 Bft)
17.09.2017 10:24 9,0 °C 9,0 °C 87 % 1013,7 hPa 0,0 mm 1,5 km/h (1 Bft) O-SO 121 ° 0 min 0,000 mm 1,6 UV-I 200 W/m² 7,0 °C 9,0 °C 3,2 km/h (1 Bft)
17.09.2017 10:25 9,0 °C 9,1 °C 88 % 1013,7 hPa 0,0 mm 2,0 km/h (1 Bft) O-SO 121 ° 0 min 0,000 mm 1,5 UV-I 195 W/m² 7,1 °C 9,0 °C 3,2 km/h (1 Bft)
17.09.2017 10:26 9,0 °C 9,0 °C 88 % 1013,7 hPa 0,0 mm 1,3 km/h (1 Bft) O-SO 121 ° 0 min 0,000 mm 1,5 UV-I 188 W/m² 7,1 °C 9,0 °C 3,2 km/h (1 Bft)
17.09.2017 10:27 8,9 °C 9,0 °C 88 % 1013,7 hPa 0,0 mm 0,0 km/h (0 Bft) O-SO 121 ° 0 min 0,000 mm 1,4 UV-I 181 W/m² 7,0 °C 8,9 °C 0,0 km/h (0 Bft)
17.09.2017 10:28 8,9 °C 9,0 °C 88 % 1013,7 hPa 0,0 mm 0,4 km/h (0 Bft) O-SO 113 ° 0 min 0,000 mm 1,4 UV-I 178 W/m² 7,0 °C 8,9 °C 1,6 km/h (1 Bft)
17.09.2017 10:29 9,1 °C 9,1 °C 88 % 1013,7 hPa 0,0 mm 0,0 km/h (0 Bft) O-SO 113 ° 0 min 0,000 mm 1,4 UV-I 174 W/m² 7,2 °C 9,1 °C 0,0 km/h (0 Bft)
17.09.2017 10:30 9,1 °C 9,1 °C 87 % 1013,7 hPa 0,0 mm 0,0 km/h (0 Bft) O-SO 113 ° 0 min 0,000 mm 1,3 UV-I 172 W/m² 7,1 °C 9,1 °C 0,0 km/h (0 Bft)
17.09.2017 10:31 9,1 °C 9,1 °C 86 % 1013,7 hPa 0,0 mm 0,1 km/h (0 Bft) O-SO 113 ° 0 min 0,000 mm 1,3 UV-I 172 W/m² 6,9 °C 9,1 °C 1,6 km/h (1 Bft)
17.09.2017 10:32 9,1 °C 9,1 °C 88 % 1013,7 hPa 0,0 mm 0,0 km/h (0 Bft) O-SO 113 ° 0 min 0,000 mm 1,3 UV-I 172 W/m² 7,2 °C 9,1 °C 0,0 km/h (0 Bft)
17.09.2017 10:33 9,2 °C 9,2 °C 89 % 1013,7 hPa 0,0 mm 0,2 km/h (0 Bft) O-SO 113 ° 0 min 0,000 mm 1,3 UV-I 169 W/m² 7,5 °C 9,2 °C 1,6 km/h (1 Bft)
17.09.2017 10:34 9,2 °C 9,2 °C 89 % 1013,7 hPa 0,0 mm 1,4 km/h (1 Bft) O 92 ° 0 min 0,000 mm 1,3 UV-I 160 W/m² 7,5 °C 9,2 °C 3,2 km/h (1 Bft)
17.09.2017 10:35 9,3 °C 9,3 °C 89 % 1013,7 hPa 0,0 mm 3,3 km/h (1 Bft) N 5 ° 0 min 0,000 mm 1,3 UV-I 158 W/m² 7,6 °C 9,3 °C 4,8 km/h (1 Bft)
17.09.2017 10:36 9,3 °C 9,3 °C 89 % 1013,7 hPa 0,0 mm 1,7 km/h (1 Bft) N 5 ° 0 min 0,000 mm 1,3 UV-I 160 W/m² 7,6 °C 9,3 °C 3,2 km/h (1 Bft)
17.09.2017 10:37 9,2 °C 9,3 °C 88 % 1013,7 hPa 0,0 mm 1,1 km/h (1 Bft) N 5 ° 0 min 0,000 mm 1,3 UV-I 162 W/m² 7,3 °C 9,2 °C 1,6 km/h (1 Bft)
17.09.2017 10:38 9,2 °C 9,2 °C 87 % 1013,7 hPa 0,0 mm 0,2 km/h (0 Bft) N 5 ° 0 min 0,000 mm 1,3 UV-I 165 W/m² 7,2 °C 9,2 °C 1,6 km/h (1 Bft)
17.09.2017 10:39 9,2 °C 9,2 °C 88 % 1013,7 hPa 0,0 mm 0,3 km/h (0 Bft) N 9 ° 0 min 0,000 mm 1,3 UV-I 169 W/m² 7,3 °C 9,2 °C 1,6 km/h (1 Bft)
17.09.2017 10:40 9,2 °C 9,2 °C 89 % 1013,7 hPa 0,0 mm 2,7 km/h (1 Bft) NO 38 ° 0 min 0,000 mm 1,3 UV-I 174 W/m² 7,5 °C 9,2 °C 3,2 km/h (1 Bft)
17.09.2017 10:41 9,2 °C 9,2 °C 89 % 1013,7 hPa 0,0 mm 2,8 km/h (1 Bft) NO 40 ° 0 min 0,000 mm 1,4 UV-I 176 W/m² 7,5 °C 9,2 °C 4,8 km/h (1 Bft)
17.09.2017 10:42 9,2 °C 9,2 °C 88 % 1013,7 hPa 0,0 mm 3,2 km/h (1 Bft) O-NO 70 ° 0 min 0,000 mm 1,4 UV-I 179 W/m² 7,3 °C 9,2 °C 4,8 km/h (1 Bft)
17.09.2017 10:43 9,1 °C 9,2 °C 86 % 1013,8 hPa 0,0 mm 1,9 km/h (1 Bft) O-NO 70 ° 0 min 0,000 mm 1,5 UV-I 186 W/m² 6,9 °C 9,1 °C 3,2 km/h (1 Bft)
17.09.2017 10:44 9,1 °C 9,1 °C 87 % 1013,8 hPa 0,0 mm 0,1 km/h (0 Bft) O-NO 70 ° 0 min 0,000 mm 1,6 UV-I 192 W/m² 7,1 °C 9,1 °C 1,6 km/h (1 Bft)
17.09.2017 10:45 9,1 °C 9,1 °C 87 % 1013,8 hPa 0,0 mm 2,2 km/h (1 Bft) O-NO 71 ° 0 min 0,000 mm 1,6 UV-I 199 W/m² 7,1 °C 9,1 °C 4,8 km/h (1 Bft)
17.09.2017 10:46 9,1 °C 9,1 °C 84 % 1013,8 hPa 0,0 mm 1,6 km/h (1 Bft) O-NO 71 ° 0 min 0,000 mm 1,7 UV-I 206 W/m² 6,5 °C 9,1 °C 3,2 km/h (1 Bft)
17.09.2017 10:47 9,1 °C 9,1 °C 85 % 1013,8 hPa 0,0 mm 1,6 km/h (1 Bft) O-NO 71 ° 0 min 0,000 mm 1,7 UV-I 211 W/m² 6,7 °C 9,1 °C 3,2 km/h (1 Bft)
17.09.2017 10:48 9,2 °C 9,2 °C 85 % 1013,8 hPa 0,0 mm 0,3 km/h (0 Bft) O-NO 71 ° 0 min 0,000 mm 1,7 UV-I 211 W/m² 6,8 °C 9,2 °C 3,2 km/h (1 Bft)
17.09.2017 10:49 9,2 °C 9,2 °C 85 % 1013,7 hPa 0,0 mm 0,0 km/h (0 Bft) O-NO 71 ° 0 min 0,000 mm 1,7 UV-I 216 W/m² 6,8 °C 9,2 °C 0,0 km/h (0 Bft)
17.09.2017 10:50 9,3 °C 9,3 °C 87 % 1013,7 hPa 0,0 mm 0,0 km/h (0 Bft) O-NO 71 ° 0 min 0,000 mm 1,7 UV-I 216 W/m² 7,2 °C 9,3 °C 0,0 km/h (0 Bft)
17.09.2017 10:51 9,4 °C 9,4 °C 85 % 1013,7 hPa 0,0 mm 0,0 km/h (0 Bft) O-NO 71 ° 0 min 0,000 mm 1,8 UV-I 218 W/m² 7,0 °C 9,4 °C 0,0 km/h (0 Bft)
17.09.2017 10:52 9,5 °C 9,5 °C 86 % 1013,7 hPa 0,0 mm 0,0 km/h (0 Bft) O-NO 71 ° 0 min 0,000 mm 1,8 UV-I 225 W/m² 7,3 °C 9,5 °C 0,0 km/h (0 Bft)
17.09.2017 10:53 9,6 °C 9,6 °C 87 % 1013,7 hPa 0,0 mm 0,4 km/h (0 Bft) O-NO 71 ° 0 min 0,000 mm 1,8 UV-I 230 W/m² 7,5 °C 9,6 °C 1,6 km/h (1 Bft)
17.09.2017 10:54 9,6 °C 9,6 °C 87 % 1013,8 hPa 0,0 mm 2,9 km/h (1 Bft) O-NO 71 ° 0 min 0,000 mm 1,9 UV-I 237 W/m² 7,5 °C 9,6 °C 4,8 km/h (1 Bft)
17.09.2017 10:55 9,4 °C 9,6 °C 83 % 1013,7 hPa 0,0 mm 0,2 km/h (0 Bft) O-NO 71 ° 0 min 0,000 mm 1,9 UV-I 243 W/m² 6,7 °C 9,4 °C 1,6 km/h (1 Bft)
17.09.2017 10:56 9,4 °C 9,4 °C 82 % 1013,7 hPa 0,0 mm 0,0 km/h (0 Bft) O-NO 71 ° 0 min 0,000 mm 1,9 UV-I 250 W/m² 6,5 °C 9,4 °C 0,0 km/h (0 Bft)
17.09.2017 10:57 9,3 °C 9,4 °C 83 % 1013,6 hPa 0,0 mm 0,0 km/h (0 Bft) O-NO 71 ° 0 min 0,000 mm 2,0 UV-I 264 W/m² 6,6 °C 9,3 °C 0,0 km/h (0 Bft)
17.09.2017 10:58 9,4 °C 9,4 °C 85 % 1013,7 hPa 0,0 mm 0,1 km/h (0 Bft) O-NO 71 ° 1 min 0,000 mm 2,1 UV-I 316 W/m² 7,0 °C 9,4 °C 1,6 km/h (1 Bft)
17.09.2017 10:59 9,6 °C 9,6 °C 86 % 1013,6 hPa 0,0 mm 1,3 km/h (1 Bft) O-NO 71 ° 0 min 0,000 mm 2,1 UV-I 288 W/m² 7,4 °C 9,6 °C 1,6 km/h (1 Bft)
17.09.2017 11:00 9,7 °C 9,7 °C 84 % 1013,6 hPa 0,0 mm 0,5 km/h (0 Bft) O-NO 71 ° 0 min 0,102 mm 2,1 UV-I 285 W/m² 7,1 °C 9,7 °C 1,6 km/h (1 Bft)
17.09.2017 11:01 9,7 °C 9,7 °C 86 % 1013,6 hPa 0,0 mm 0,9 km/h (0 Bft) O-NO 71 ° 0 min 0,000 mm 2,1 UV-I 283 W/m² 7,5 °C 9,7 °C 1,6 km/h (1 Bft)
17.09.2017 11:02 9,8 °C 9,8 °C 85 % 1013,6 hPa 0,0 mm 1,1 km/h (1 Bft) O-NO 71 ° 0 min 0,000 mm 2,1 UV-I 283 W/m² 7,4 °C 9,8 °C 1,6 km/h (1 Bft)
17.09.2017 11:03 9,9 °C 9,9 °C 85 % 1013,6 hPa 0,0 mm 0,7 km/h (0 Bft) O-NO 71 ° 0 min 0,000 mm 2,2 UV-I 287 W/m² 7,5 °C 9,9 °C 3,2 km/h (1 Bft)
17.09.2017 11:04 9,8 °C 9,9 °C 82 % 1013,5 hPa 0,0 mm 2,1 km/h (1 Bft) O-NO 71 ° 0 min 0,000 mm 2,2 UV-I 285 W/m² 6,9 °C 9,8 °C 3,2 km/h (1 Bft)
17.09.2017 11:05 9,7 °C 9,8 °C 84 % 1013,6 hPa 0,0 mm 0,0 km/h (0 Bft) O-NO 71 ° 1 min 0,000 mm 2,2 UV-I 294 W/m² 7,1 °C 9,7 °C 0,0 km/h (0 Bft)
17.09.2017 11:06 9,7 °C 9,7 °C 83 % 1013,5 hPa 0,0 mm 0,7 km/h (0 Bft) O-NO 71 ° 1 min 0,000 mm 2,4 UV-I 294 W/m² 7,0 °C 9,7 °C 3,2 km/h (1 Bft)
17.09.2017 11:07 9,7 °C 9,7 °C 83 % 1013,5 hPa 0,0 mm 0,3 km/h (0 Bft) O-NO 71 ° 1 min 0,000 mm 2,3 UV-I 301 W/m² 7,0 °C 9,7 °C 1,6 km/h (1 Bft)
17.09.2017 11:08 9,6 °C 9,7 °C 82 % 1013,5 hPa 0,0 mm 0,1 km/h (0 Bft) O-NO 72 ° 1 min 0,000 mm 2,3 UV-I 301 W/m² 6,7 °C 9,6 °C 1,6 km/h (1 Bft)
17.09.2017 11:09 9,6 °C 9,6 °C 82 % 1013,5 hPa 0,0 mm 0,8 km/h (0 Bft) O-NO 72 ° 1 min 0,000 mm 2,3 UV-I 301 W/m² 6,7 °C 9,6 °C 1,6 km/h (1 Bft)
17.09.2017 11:11 9,7 °C 9,7 °C 83 % 1013,5 hPa 0,0 mm 1,4 km/h (1 Bft) O-NO 71 ° 2 min 0,000 mm 2,3 UV-I 302 W/m² 7,0 °C 9,7 °C 3,2 km/h (1 Bft)
17.09.2017 11:12 9,8 °C 9,8 °C 83 % 1013,5 hPa 0,0 mm 1,3 km/h (1 Bft) O-NO 71 ° 1 min 0,000 mm 2,3 UV-I 301 W/m² 7,1 °C 9,8 °C 1,6 km/h (1 Bft)
17.09.2017 11:14 9,9 °C 9,9 °C 83 % 1013,5 hPa 0,0 mm 0,2 km/h (0 Bft) O-NO 71 ° 0 min 0,000 mm 2,2 UV-I 257 W/m² 7,2 °C 9,9 °C 1,6 km/h (1 Bft)
17.09.2017 11:15 10,0 °C 10,0 °C 82 % 1013,5 hPa 0,0 mm 0,0 km/h (0 Bft) O-NO 71 ° 0 min 0,000 mm 2,1 UV-I 255 W/m² 7,1 °C 10,0 °C 0,0 km/h (0 Bft)
17.09.2017 11:16 10,0 °C 10,0 °C 82 % 1013,6 hPa 0,0 mm 0,2 km/h (0 Bft) O-NO 71 ° 0 min 0,000 mm 2,2 UV-I 255 W/m² 7,1 °C 10,0 °C 1,6 km/h (1 Bft)
17.09.2017 11:17 10,0 °C 10,0 °C 81 % 1013,5 hPa 0,0 mm 0,6 km/h (0 Bft) O-NO 71 ° 0 min 0,000 mm 2,1 UV-I 253 W/m² 6,9 °C 10,0 °C 1,6 km/h (1 Bft)
17.09.2017 11:18 10,1 °C 10,1 °C 82 % 1013,5 hPa 0,0 mm 0,1 km/h (0 Bft) O-NO 71 ° 0 min 0,000 mm 2,1 UV-I 239 W/m² 7,2 °C 10,1 °C 1,6 km/h (1 Bft)
17.09.2017 11:19 10,1 °C 10,1 °C 82 % 1013,5 hPa 0,0 mm 0,3 km/h (0 Bft) O-NO 71 ° 0 min 0,000 mm 2,1 UV-I 243 W/m² 7,2 °C 10,1 °C 3,2 km/h (1 Bft)
17.09.2017 11:20 10,2 °C 10,2 °C 83 % 1013,5 hPa 0,0 mm 3,6 km/h (1 Bft) O-NO 69 ° 0 min 0,000 mm 2,1 UV-I 251 W/m² 7,4 °C 10,2 °C 4,8 km/h (1 Bft)
17.09.2017 11:21 10,2 °C 10,2 °C 80 % 1013,5 hPa 0,0 mm 2,3 km/h (1 Bft) O-NO 69 ° 0 min 0,000 mm 2,2 UV-I 262 W/m² 6,9 °C 10,2 °C 3,2 km/h (1 Bft)
17.09.2017 11:22 10,1 °C 10,2 °C 80 % 1013,5 hPa 0,0 mm 4,2 km/h (1 Bft) O-NO 66 ° 0 min 0,000 mm 2,2 UV-I 274 W/m² 6,8 °C 10,1 °C 4,8 km/h (1 Bft)
17.09.2017 11:24 10,0 °C 10,1 °C 80 % 1013,5 hPa 0,0 mm 3,9 km/h (1 Bft) O-NO 74 ° 2 min 0,000 mm 2,5 UV-I 332 W/m² 6,7 °C 10,0 °C 6,4 km/h (2 Bft)
17.09.2017 11:25 9,9 °C 10,0 °C 80 % 1013,5 hPa 0,0 mm 3,0 km/h (1 Bft) O-NO 74 ° 1 min 0,000 mm 2,3 UV-I 294 W/m² 6,6 °C 9,9 °C 3,2 km/h (1 Bft)
17.09.2017 11:26 9,8 °C 9,9 °C 80 % 1013,5 hPa 0,0 mm 0,8 km/h (0 Bft) O-NO 74 ° 0 min 0,000 mm 2,2 UV-I 279 W/m² 6,5 °C 9,8 °C 1,6 km/h (1 Bft)
17.09.2017 11:27 9,8 °C 9,8 °C 79 % 1013,5 hPa 0,0 mm 0,1 km/h (0 Bft) O-NO 74 ° 0 min 0,000 mm 2,2 UV-I 262 W/m² 6,3 °C 9,8 °C 1,6 km/h (1 Bft)
17.09.2017 11:28 9,8 °C 9,8 °C 81 % 1013,5 hPa 0,0 mm 1,7 km/h (1 Bft) O-NO 74 ° 0 min 0,000 mm 2,1 UV-I 257 W/m² 6,7 °C 9,8 °C 3,2 km/h (1 Bft)
17.09.2017 11:29 9,8 °C 9,8 °C 80 % 1013,5 hPa 0,0 mm 3,6 km/h (1 Bft) N 9 ° 0 min 0,000 mm 2,1 UV-I 257 W/m² 6,5 °C 9,8 °C 6,4 km/h (2 Bft)
17.09.2017 11:30 9,8 °C 9,8 °C 81 % 1013,4 hPa 0,0 mm 6,6 km/h (2 Bft) N 11 ° 0 min 0,000 mm 2,1 UV-I 260 W/m² 6,7 °C 9,1 °C 8,0 km/h (2 Bft)
17.09.2017 11:31 9,8 °C 9,8 °C 81 % 1013,4 hPa 0,0 mm 4,9 km/h (1 Bft) N-NO 26 ° 0 min 0,000 mm 2,1 UV-I 267 W/m² 6,7 °C 9,6 °C 9,7 km/h (2 Bft)
17.09.2017 11:32 9,9 °C 9,9 °C 81 % 1013,4 hPa 0,0 mm 5,4 km/h (1 Bft) N 5 ° 0 min 0,000 mm 2,1 UV-I 264 W/m² 6,8 °C 9,5 °C 8,0 km/h (2 Bft)
17.09.2017 11:33 10,0 °C 10,0 °C 82 % 1013,4 hPa 0,0 mm 3,6 km/h (1 Bft) N-NO 22 ° 0 min 0,000 mm 2,1 UV-I 269 W/m² 7,1 °C 10,0 °C 4,8 km/h (1 Bft)
17.09.2017 11:34 10,1 °C 10,1 °C 83 % 1013,4 hPa 0,0 mm 3,1 km/h (1 Bft) N-NO 26 ° 0 min 0,000 mm 2,2 UV-I 276 W/m² 7,3 °C 10,1 °C 4,8 km/h (1 Bft)
17.09.2017 11:35 10,1 °C 10,1 °C 81 % 1013,4 hPa 0,0 mm 3,1 km/h (1 Bft) NO 47 ° 0 min 0,000 mm 2,2 UV-I 283 W/m² 7,0 °C 10,1 °C 4,8 km/h (1 Bft)
17.09.2017 11:36 10,1 °C 10,1 °C 80 % 1013,4 hPa 0,0 mm 5,8 km/h (2 Bft) NO 35 ° 1 min 0,000 mm 2,2 UV-I 295 W/m² 6,8 °C 10,1 °C 8,0 km/h (2 Bft)
17.09.2017 11:37 10,1 °C 10,1 °C 80 % 1013,4 hPa 0,0 mm 2,3 km/h (1 Bft) NO 42 ° 1 min 0,000 mm 2,2 UV-I 304 W/m² 6,8 °C 10,1 °C 6,4 km/h (2 Bft)
17.09.2017 11:38 10,1 °C 10,1 °C 80 % 1013,4 hPa 0,0 mm 1,4 km/h (1 Bft) O-NO 58 ° 1 min 0,000 mm 2,3 UV-I 315 W/m² 6,8 °C 10,1 °C 3,2 km/h (1 Bft)
17.09.2017 11:39 10,1 °C 10,1 °C 82 % 1013,4 hPa 0,0 mm 1,6 km/h (1 Bft) O-NO 58 ° 0 min 0,000 mm 2,1 UV-I 272 W/m² 7,2 °C 10,1 °C 3,2 km/h (1 Bft)
17.09.2017 11:40 10,2 °C 10,2 °C 82 % 1013,4 hPa 0,0 mm 1,2 km/h (1 Bft) O-NO 58 ° 0 min 0,000 mm 2,1 UV-I 271 W/m² 7,3 °C 10,2 °C 3,2 km/h (1 Bft)
17.09.2017 11:41 10,2 °C 10,2 °C 82 % 1013,3 hPa 0,0 mm 3,4 km/h (1 Bft) O-NO 58 ° 0 min 0,000 mm 2,2 UV-I 278 W/m² 7,3 °C 10,2 °C 4,8 km/h (1 Bft)
17.09.2017 11:42 10,2 °C 10,3 °C 82 % 1013,4 hPa 0,0 mm 3,0 km/h (1 Bft) O-NO 64 ° 1 min 0,000 mm 2,3 UV-I 290 W/m² 7,3 °C 10,2 °C 6,4 km/h (2 Bft)
17.09.2017 11:43 10,3 °C 10,3 °C 82 % 1013,2 hPa 0,0 mm 3,0 km/h (1 Bft) O-NO 60 ° 0 min 0,000 mm 2,3 UV-I 288 W/m² 7,4 °C 10,3 °C 4,8 km/h (1 Bft)
17.09.2017 11:44 10,2 °C 10,3 °C 81 % 1013,2 hPa 0,0 mm 2,3 km/h (1 Bft) O-NO 60 ° 0 min 0,000 mm 2,3 UV-I 285 W/m² 7,1 °C 10,2 °C 4,8 km/h (1 Bft)
17.09.2017 11:45 10,2 °C 10,2 °C 81 % 1013,3 hPa 0,0 mm 3,8 km/h (1 Bft) O-NO 60 ° 0 min 0,000 mm 2,3 UV-I 271 W/m² 7,1 °C 10,2 °C 4,8 km/h (1 Bft)
17.09.2017 11:46 10,1 °C 10,2 °C 81 % 1013,3 hPa 0,0 mm 3,7 km/h (1 Bft) NO 51 ° 0 min 0,000 mm 2,3 UV-I 265 W/m² 7,0 °C 10,1 °C 4,8 km/h (1 Bft)
17.09.2017 11:47 10,0 °C 10,1 °C 80 % 1013,3 hPa 0,0 mm 3,2 km/h (1 Bft) NO 54 ° 0 min 0,000 mm 2,3 UV-I 258 W/m² 6,7 °C 10,0 °C 4,8 km/h (1 Bft)
17.09.2017 11:48 9,9 °C 10,0 °C 80 % 1013,2 hPa 0,0 mm 2,3 km/h (1 Bft) NO 54 ° 0 min 0,000 mm 2,3 UV-I 257 W/m² 6,6 °C 9,9 °C 3,2 km/h (1 Bft)
17.09.2017 11:49 9,9 °C 9,9 °C 81 % 1013,3 hPa 0,0 mm 2,7 km/h (1 Bft) NO 54 ° 0 min 0,000 mm 2,3 UV-I 264 W/m² 6,8 °C 9,9 °C 3,2 km/h (1 Bft)
17.09.2017 11:50 9,9 °C 9,9 °C 81 % 1013,2 hPa 0,0 mm 2,7 km/h (1 Bft) O-NO 63 ° 1 min 0,000 mm 2,4 UV-I 301 W/m² 6,8 °C 9,9 °C 4,8 km/h (1 Bft)
17.09.2017 11:51 10,0 °C 10,0 °C 81 % 1013,2 hPa 0,0 mm 1,7 km/h (1 Bft) O-NO 63 ° 1 min 0,000 mm 2,4 UV-I 294 W/m² 6,9 °C 10,0 °C 3,2 km/h (1 Bft)
17.09.2017 11:52 10,1 °C 10,1 °C 81 % 1013,2 hPa 0,0 mm 3,5 km/h (1 Bft) O-NO 66 ° 1 min 0,000 mm 2,6 UV-I 308 W/m² 7,0 °C 10,1 °C 4,8 km/h (1 Bft)
17.09.2017 11:53 10,1 °C 10,1 °C 82 % 1013,2 hPa 0,0 mm 5,3 km/h (1 Bft) O 86 ° 1 min 0,000 mm 3,0 UV-I 392 W/m² 7,2 °C 10,1 °C 6,4 km/h (2 Bft)
17.09.2017 11:54 10,1 °C 10,1 °C 79 % 1013,3 hPa 0,0 mm 2,4 km/h (1 Bft) O 87 ° 1 min 0,000 mm 3,0 UV-I 371 W/m² 6,6 °C 10,1 °C 6,4 km/h (2 Bft)
17.09.2017 11:55 10,2 °C 10,2 °C 81 % 1013,2 hPa 0,0 mm 0,0 km/h (0 Bft) O 87 ° 1 min 0,000 mm 2,7 UV-I 353 W/m² 7,1 °C 10,2 °C 0,0 km/h (0 Bft)
17.09.2017 11:56 10,2 °C 10,2 °C 79 % 1013,2 hPa 0,0 mm 3,7 km/h (1 Bft) O-NO 62 ° 1 min 0,000 mm 2,8 UV-I 348 W/m² 6,7 °C 10,2 °C 4,8 km/h (1 Bft)
17.09.2017 11:57 10,3 °C 10,3 °C 81 % 1013,2 hPa 0,0 mm 3,1 km/h (1 Bft) NO 42 ° 1 min 0,000 mm 2,8 UV-I 348 W/m² 7,2 °C 10,3 °C 6,4 km/h (2 Bft)
17.09.2017 11:58 10,5 °C 10,5 °C 80 % 1013,2 hPa 0,0 mm 6,0 km/h (2 Bft) O-NO 57 ° 1 min 0,000 mm 3,1 UV-I 422 W/m² 7,2 °C 10,5 °C 8,0 km/h (2 Bft)
17.09.2017 11:59 10,5 °C 10,6 °C 80 % 1013,2 hPa 0,0 mm 3,4 km/h (1 Bft) O 84 ° 1 min 0,000 mm 3,5 UV-I 422 W/m² 7,2 °C 10,5 °C 6,4 km/h (2 Bft)
17.09.2017 12:00 10,6 °C 10,6 °C 76 % 1013,2 hPa 0,0 mm 4,6 km/h (1 Bft) NO 47 ° 1 min 0,152 mm 3,1 UV-I 492 W/m² 6,5 °C 10,6 °C 6,4 km/h (2 Bft)
17.09.2017 12:01 10,6 °C 10,6 °C 75 % 1013,2 hPa 0,0 mm 3,8 km/h (1 Bft) O 90 ° 1 min 0,000 mm 3,0 UV-I 492 W/m² 6,4 °C 10,6 °C 8,0 km/h (2 Bft)
17.09.2017 12:02 10,6 °C 10,6 °C 77 % 1013,2 hPa 0,0 mm 4,8 km/h (1 Bft) O 82 ° 1 min 0,000 mm 3,6 UV-I 497 W/m² 6,7 °C 10,6 °C 8,0 km/h (2 Bft)
17.09.2017 12:04 10,6 °C 10,6 °C 75 % 1013,1 hPa 0,0 mm 3,3 km/h (1 Bft) O 94 ° 2 min 0,000 mm 2,9 UV-I 497 W/m² 6,4 °C 10,6 °C 6,4 km/h (2 Bft)
17.09.2017 12:05 10,6 °C 10,6 °C 76 % 1013,1 hPa 0,0 mm 5,4 km/h (1 Bft) O-NO 57 ° 1 min 0,000 mm 2,8 UV-I 329 W/m² 6,5 °C 10,6 °C 8,0 km/h (2 Bft)
17.09.2017 12:06 10,6 °C 10,6 °C 76 % 1013,1 hPa 0,0 mm 5,2 km/h (1 Bft) O-SO 122 ° 1 min 0,000 mm 2,6 UV-I 294 W/m² 6,5 °C 10,6 °C 6,4 km/h (2 Bft)
17.09.2017 12:07 10,5 °C 10,6 °C 76 % 1013,1 hPa 0,0 mm 2,9 km/h (1 Bft) O 79 ° 1 min 0,000 mm 2,7 UV-I 295 W/m² 6,5 °C 10,5 °C 4,8 km/h (1 Bft)
17.09.2017 12:09 10,4 °C 10,5 °C 76 % 1013,1 hPa 0,0 mm 4,8 km/h (1 Bft) O 85 ° 2 min 0,000 mm 3,6 UV-I 359 W/m² 6,4 °C 10,4 °C 8,0 km/h (2 Bft)
17.09.2017 12:10 10,5 °C 10,5 °C 77 % 1013,1 hPa 0,0 mm 4,1 km/h (1 Bft) O-NO 62 ° 1 min 0,000 mm 3,1 UV-I 436 W/m² 6,6 °C 10,5 °C 4,8 km/h (1 Bft)
17.09.2017 12:11 10,6 °C 10,6 °C 78 % 1013,1 hPa 0,0 mm 3,4 km/h (1 Bft) NO 43 ° 1 min 0,000 mm 3,6 UV-I 436 W/m² 6,9 °C 10,6 °C 6,4 km/h (2 Bft)
17.09.2017 12:12 10,6 °C 10,6 °C 77 % 1013,1 hPa 0,0 mm 4,5 km/h (1 Bft) O-NO 68 ° 1 min 0,000 mm 3,6 UV-I 552 W/m² 6,7 °C 10,6 °C 6,4 km/h (2 Bft)
17.09.2017 12:13 10,7 °C 10,7 °C 77 % 1013,0 hPa 0,0 mm 4,2 km/h (1 Bft) NO 48 ° 1 min 0,000 mm 3,1 UV-I 552 W/m² 6,8 °C 10,7 °C 6,4 km/h (2 Bft)
17.09.2017 12:14 10,8 °C 10,8 °C 76 % 1013,0 hPa 0,0 mm 3,4 km/h (1 Bft) O-NO 74 ° 1 min 0,000 mm 2,9 UV-I 396 W/m² 6,7 °C 10,8 °C 6,4 km/h (2 Bft)
17.09.2017 12:15 10,8 °C 10,8 °C 77 % 1013,1 hPa 0,0 mm 3,3 km/h (1 Bft) O 79 ° 1 min 0,000 mm 3,4 UV-I 396 W/m² 6,9 °C 10,8 °C 6,4 km/h (2 Bft)
17.09.2017 12:16 10,9 °C 10,9 °C 80 % 1013,1 hPa 0,0 mm 7,7 km/h (2 Bft) NO 44 ° 1 min 0,000 mm 3,5 UV-I 526 W/m² 7,6 °C 10,9 °C 9,7 km/h (2 Bft)
17.09.2017 12:17 10,9 °C 10,9 °C 76 % 1013,1 hPa 0,0 mm 2,0 km/h (1 Bft) NO 36 ° 1 min 0,000 mm 3,7 UV-I 599 W/m² 6,8 °C 10,9 °C 6,4 km/h (2 Bft)
17.09.2017 12:18 11,0 °C 11,0 °C 80 % 1013,1 hPa 0,0 mm 2,2 km/h (1 Bft) NO 36 ° 1 min 0,000 mm 3,5 UV-I 557 W/m² 7,7 °C 11,0 °C 3,2 km/h (1 Bft)
17.09.2017 12:19 10,9 °C 11,0 °C 75 % 1013,0 hPa 0,0 mm 2,1 km/h (1 Bft) N-NO 26 ° 1 min 0,000 mm 3,2 UV-I 557 W/m² 6,6 °C 10,9 °C 6,4 km/h (2 Bft)
17.09.2017 12:20 10,9 °C 10,9 °C 77 % 1013,0 hPa 0,0 mm 4,8 km/h (1 Bft) NO 46 ° 1 min 0,000 mm 3,3 UV-I 450 W/m² 7,0 °C 10,9 °C 8,0 km/h (2 Bft)
17.09.2017 12:21 10,9 °C 10,9 °C 76 % 1013,0 hPa 0,0 mm 5,6 km/h (1 Bft) S 175 ° 1 min 0,000 mm 3,4 UV-I 506 W/m² 6,8 °C 10,9 °C 11,3 km/h (2 Bft)
17.09.2017 12:22 10,9 °C 11,0 °C 77 % 1013,1 hPa 0,0 mm 5,2 km/h (1 Bft) O-NO 61 ° 1 min 0,000 mm 3,4 UV-I 466 W/m² 7,0 °C 10,9 °C 11,3 km/h (2 Bft)
17.09.2017 12:23 10,9 °C 11,0 °C 76 % 1013,1 hPa 0,0 mm 2,7 km/h (1 Bft) O-NO 61 ° 1 min 0,000 mm 3,1 UV-I 411 W/m² 6,8 °C 10,9 °C 4,8 km/h (1 Bft)
17.09.2017 12:24 10,9 °C 10,9 °C 77 % 1013,1 hPa 0,0 mm 1,5 km/h (1 Bft) O-NO 61 ° 1 min 0,000 mm 3,1 UV-I 403 W/m² 7,0 °C 10,9 °C 3,2 km/h (1 Bft)
17.09.2017 12:25 10,9 °C 10,9 °C 78 % 1013,1 hPa 0,0 mm 1,7 km/h (1 Bft) O 101 ° 1 min 0,000 mm 3,1 UV-I 399 W/m² 7,2 °C 10,9 °C 4,8 km/h (1 Bft)
17.09.2017 12:26 10,8 °C 10,9 °C 77 % 1013,1 hPa 0,0 mm 1,3 km/h (1 Bft) W-NW 293 ° 1 min 0,000 mm 3,1 UV-I 424 W/m² 6,9 °C 10,8 °C 3,2 km/h (1 Bft)
17.09.2017 12:27 10,9 °C 10,9 °C 79 % 1013,0 hPa 0,0 mm 0,7 km/h (0 Bft) W-NW 290 ° 1 min 0,000 mm 3,5 UV-I 503 W/m² 7,4 °C 10,9 °C 3,2 km/h (1 Bft)
17.09.2017 12:28 11,0 °C 11,0 °C 76 % 1013,0 hPa 0,0 mm 0,1 km/h (0 Bft) W-NW 303 ° 1 min 0,000 mm 3,6 UV-I 577 W/m² 6,9 °C 11,0 °C 1,6 km/h (1 Bft)
17.09.2017 12:29 11,1 °C 11,1 °C 74 % 1013,0 hPa 0,0 mm 6,8 km/h (2 Bft) N-NO 30 ° 1 min 0,000 mm 3,6 UV-I 561 W/m² 6,6 °C 11,1 °C 9,7 km/h (2 Bft)
17.09.2017 12:30 11,1 °C 11,1 °C 74 % 1013,0 hPa 0,0 mm 5,0 km/h (1 Bft) O-NO 59 ° 1 min 0,000 mm 3,5 UV-I 524 W/m² 6,6 °C 11,1 °C 8,0 km/h (2 Bft)
17.09.2017 12:31 11,1 °C 11,1 °C 73 % 1012,9 hPa 0,0 mm 6,2 km/h (2 Bft) NO 55 ° 1 min 0,000 mm 3,3 UV-I 385 W/m² 6,4 °C 11,1 °C 12,9 km/h (3 Bft)
17.09.2017 12:32 11,1 °C 11,1 °C 73 % 1013,0 hPa 0,0 mm 5,2 km/h (1 Bft) O 86 ° 1 min 0,000 mm 3,0 UV-I 385 W/m² 6,4 °C 11,1 °C 11,3 km/h (2 Bft)
17.09.2017 12:33 11,0 °C 11,1 °C 73 % 1012,9 hPa 0,0 mm 7,1 km/h (2 Bft) O 82 ° 1 min 0,000 mm 3,1 UV-I 397 W/m² 6,4 °C 11,0 °C 11,3 km/h (2 Bft)
17.09.2017 12:34 10,9 °C 11,0 °C 74 % 1013,0 hPa 0,0 mm 5,9 km/h (2 Bft) O-NO 67 ° 1 min 0,000 mm 3,3 UV-I 418 W/m² 6,5 °C 10,9 °C 9,7 km/h (2 Bft)
17.09.2017 12:35 10,9 °C 10,9 °C 71 % 1012,9 hPa 0,0 mm 4,9 km/h (1 Bft) NO 39 ° 1 min 0,000 mm 4,1 UV-I 418 W/m² 5,9 °C 10,9 °C 9,7 km/h (2 Bft)
17.09.2017 12:36 10,9 °C 10,9 °C 72 % 1013,0 hPa 0,0 mm 7,1 km/h (2 Bft) N-NO 19 ° 1 min 0,000 mm 4,1 UV-I 687 W/m² 6,1 °C 10,9 °C 14,5 km/h (3 Bft)
17.09.2017 12:37 11,0 °C 11,0 °C 73 % 1013,0 hPa 0,0 mm 3,0 km/h (1 Bft) O-NO 60 ° 1 min 0,000 mm 4,1 UV-I 654 W/m² 6,4 °C 11,0 °C 6,4 km/h (2 Bft)
17.09.2017 12:38 11,1 °C 11,1 °C 73 % 1013,0 hPa 0,0 mm 3,6 km/h (1 Bft) O-NO 59 ° 1 min 0,000 mm 4,0 UV-I 589 W/m² 6,4 °C 11,1 °C 4,8 km/h (1 Bft)
17.09.2017 12:39 11,2 °C 11,2 °C 75 % 1013,0 hPa 0,0 mm 3,1 km/h (1 Bft) O-NO 60 ° 1 min 0,000 mm 3,8 UV-I 635 W/m² 6,9 °C 11,2 °C 4,8 km/h (1 Bft)
17.09.2017 12:40 11,3 °C 11,3 °C 74 % 1013,0 hPa 0,0 mm 4,0 km/h (1 Bft) O-NO 76 ° 1 min 0,000 mm 3,6 UV-I 635 W/m² 6,8 °C 11,3 °C 4,8 km/h (1 Bft)
17.09.2017 12:41 11,2 °C 11,3 °C 72 % 1013,0 hPa 0,0 mm 1,9 km/h (1 Bft) N-NO 30 ° 1 min 0,000 mm 3,7 UV-I 520 W/m² 6,3 °C 11,2 °C 3,2 km/h (1 Bft)
17.09.2017 12:42 11,2 °C 11,2 °C 73 % 1013,0 hPa 0,0 mm 0,9 km/h (0 Bft) N-NO 30 ° 1 min 0,000 mm 3,4 UV-I 471 W/m² 6,5 °C 11,2 °C 3,2 km/h (1 Bft)
17.09.2017 12:43 11,2 °C 11,2 °C 76 % 1013,0 hPa 0,0 mm 4,3 km/h (1 Bft) SO 126 ° 1 min 0,000 mm 3,7 UV-I 415 W/m² 7,1 °C 11,2 °C 11,3 km/h (2 Bft)
17.09.2017 12:44 11,2 °C 11,2 °C 75 % 1013,0 hPa 0,0 mm 5,2 km/h (1 Bft) O-NO 71 ° 1 min 0,000 mm 3,8 UV-I 492 W/m² 6,9 °C 11,2 °C 12,9 km/h (3 Bft)
17.09.2017 12:45 11,2 °C 11,2 °C 75 % 1013,0 hPa 0,0 mm 9,5 km/h (2 Bft) NO 55 ° 1 min 0,000 mm 4,2 UV-I 492 W/m² 6,9 °C 11,2 °C 12,9 km/h (3 Bft)
17.09.2017 12:46 11,1 °C 11,2 °C 73 % 1012,9 hPa 0,0 mm 5,4 km/h (1 Bft) O 86 ° 1 min 0,000 mm 4,3 UV-I 705 W/m² 6,4 °C 11,1 °C 8,0 km/h (2 Bft)
17.09.2017 12:47 11,2 °C 11,2 °C 75 % 1012,9 hPa 0,0 mm 3,0 km/h (1 Bft) O 88 ° 1 min 0,000 mm 4,2 UV-I 657 W/m² 6,9 °C 11,2 °C 4,8 km/h (1 Bft)
17.09.2017 12:48 11,3 °C 11,3 °C 75 % 1012,9 hPa 0,0 mm 3,8 km/h (1 Bft) O 79 ° 1 min 0,000 mm 3,7 UV-I 475 W/m² 7,0 °C 11,3 °C 6,4 km/h (2 Bft)
17.09.2017 12:49 11,3 °C 11,3 °C 73 % 1012,9 hPa 0,0 mm 3,8 km/h (1 Bft) NO 35 ° 1 min 0,000 mm 3,5 UV-I 475 W/m² 6,6 °C 11,3 °C 6,4 km/h (2 Bft)
17.09.2017 12:50 11,3 °C 11,3 °C 76 % 1012,9 hPa 0,0 mm 6,4 km/h (2 Bft) O-NO 76 ° 1 min 0,000 mm 4,2 UV-I 675 W/m² 7,2 °C 11,3 °C 8,0 km/h (2 Bft)
17.09.2017 12:51 11,2 °C 11,3 °C 73 % 1012,9 hPa 0,0 mm 6,8 km/h (2 Bft) O-SO 107 ° 1 min 0,000 mm 4,3 UV-I 682 W/m² 6,5 °C 11,2 °C 9,7 km/h (2 Bft)
17.09.2017 12:52 11,2 °C 11,2 °C 74 % 1012,9 hPa 0,0 mm 5,2 km/h (1 Bft) NO 55 ° 1 min 0,000 mm 4,3 UV-I 696 W/m² 6,7 °C 11,2 °C 8,0 km/h (2 Bft)
17.09.2017 12:53 11,2 °C 11,2 °C 74 % 1012,9 hPa 0,0 mm 6,7 km/h (2 Bft) NO 55 ° 1 min 0,000 mm 4,2 UV-I 696 W/m² 6,7 °C 11,2 °C 9,7 km/h (2 Bft)
17.09.2017 12:54 11,3 °C 11,3 °C 73 % 1013,0 hPa 0,0 mm 6,8 km/h (2 Bft) O-NO 59 ° 1 min 0,000 mm 4,0 UV-I 671 W/m² 6,6 °C 11,3 °C 9,7 km/h (2 Bft)
17.09.2017 12:55 11,3 °C 11,3 °C 72 % 1012,9 hPa 0,0 mm 4,3 km/h (1 Bft) N 360 ° 1 min 0,000 mm 4,1 UV-I 666 W/m² 6,4 °C 11,3 °C 8,0 km/h (2 Bft)
17.09.2017 12:56 11,4 °C 11,4 °C 74 % 1012,9 hPa 0,0 mm 4,0 km/h (1 Bft) N-NO 33 ° 1 min 0,000 mm 3,8 UV-I 536 W/m² 6,9 °C 11,4 °C 6,4 km/h (2 Bft)
17.09.2017 12:57 11,6 °C 11,6 °C 75 % 1013,0 hPa 0,0 mm 6,8 km/h (2 Bft) N-NO 14 ° 1 min 0,000 mm 3,8 UV-I 566 W/m² 7,3 °C 11,6 °C 9,7 km/h (2 Bft)
17.09.2017 12:58 11,7 °C 11,7 °C 74 % 1012,9 hPa 0,0 mm 6,0 km/h (2 Bft) NO 35 ° 1 min 0,000 mm 4,2 UV-I 566 W/m² 7,2 °C 11,7 °C 9,7 km/h (2 Bft)
17.09.2017 12:59 11,7 °C 11,7 °C 72 % 1012,9 hPa 0,0 mm 6,7 km/h (2 Bft) N 360 ° 1 min 0,000 mm 4,0 UV-I 605 W/m² 6,8 °C 11,7 °C 14,5 km/h (3 Bft)
17.09.2017 13:00 11,7 °C 11,7 °C 73 % 1013,0 hPa 0,0 mm 6,0 km/h (2 Bft) NO 55 ° 1 min 0,000 mm 4,0 UV-I 666 W/m² 7,0 °C 11,7 °C 9,7 km/h (2 Bft)
17.09.2017 13:01 11,7 °C 11,7 °C 73 % 1013,0 hPa 0,0 mm 8,9 km/h (2 Bft) N-NO 30 ° 1 min 0,254 mm 4,0 UV-I 633 W/m² 7,0 °C 11,7 °C 11,3 km/h (2 Bft)
17.09.2017 13:02 11,6 °C 11,7 °C 70 % 1013,0 hPa 0,0 mm 5,0 km/h (1 Bft) O-NO 67 ° 1 min 0,000 mm 3,2 UV-I 633 W/m² 6,3 °C 11,6 °C 9,7 km/h (2 Bft)
17.09.2017 13:03 11,5 °C 11,6 °C 72 % 1013,0 hPa 0,0 mm 4,4 km/h (1 Bft) O 90 ° 1 min 0,000 mm 4,0 UV-I 633 W/m² 6,6 °C 11,5 °C 6,4 km/h (2 Bft)
17.09.2017 13:04 11,4 °C 11,5 °C 71 % 1013,0 hPa 0,0 mm 1,1 km/h (1 Bft) O 84 ° 1 min 0,000 mm 4,0 UV-I 633 W/m² 6,3 °C 11,4 °C 3,2 km/h (1 Bft)
17.09.2017 13:05 11,3 °C 11,4 °C 72 % 1013,0 hPa 0,0 mm 0,5 km/h (0 Bft) O 82 ° 1 min 0,000 mm 3,3 UV-I 633 W/m² 6,4 °C 11,3 °C 3,2 km/h (1 Bft)
17.09.2017 13:06 11,3 °C 11,3 °C 75 % 1012,9 hPa 0,0 mm 2,7 km/h (1 Bft) O-NO 61 ° 1 min 0,000 mm 3,4 UV-I 459 W/m² 7,0 °C 11,3 °C 9,7 km/h (2 Bft)
17.09.2017 13:07 11,3 °C 11,3 °C 73 % 1012,9 hPa 0,0 mm 7,4 km/h (2 Bft) O-NO 69 ° 1 min 0,000 mm 3,3 UV-I 418 W/m² 6,6 °C 11,3 °C 14,5 km/h (3 Bft)
17.09.2017 13:08 11,3 °C 11,3 °C 73 % 1012,9 hPa 0,0 mm 6,7 km/h (2 Bft) O-SO 109 ° 1 min 0,000 mm 3,4 UV-I 431 W/m² 6,6 °C 11,3 °C 9,7 km/h (2 Bft)
17.09.2017 13:09 11,2 °C 11,3 °C 72 % 1012,9 hPa 0,0 mm 4,0 km/h (1 Bft) O 94 ° 1 min 0,000 mm 3,7 UV-I 515 W/m² 6,3 °C 11,2 °C 9,7 km/h (2 Bft)
17.09.2017 13:10 11,3 °C 11,3 °C 74 % 1012,9 hPa 0,0 mm 3,4 km/h (1 Bft) NO 55 ° 1 min 0,000 mm 3,7 UV-I 513 W/m² 6,8 °C 11,3 °C 6,4 km/h (2 Bft)
17.09.2017 13:11 11,3 °C 11,3 °C 75 % 1012,9 hPa 0,0 mm 4,4 km/h (1 Bft) NO 44 ° 1 min 0,000 mm 3,6 UV-I 494 W/m² 7,0 °C 11,3 °C 8,0 km/h (2 Bft)
17.09.2017 13:12 11,3 °C 11,3 °C 75 % 1012,9 hPa 0,0 mm 4,7 km/h (1 Bft) NO 37 ° 1 min 0,000 mm 4,0 UV-I 494 W/m² 7,0 °C 11,3 °C 6,4 km/h (2 Bft)
17.09.2017 13:13 11,4 °C 11,4 °C 74 % 1012,9 hPa 0,0 mm 6,6 km/h (2 Bft) NO 45 ° 1 min 0,000 mm 3,1 UV-I 336 W/m² 6,9 °C 11,4 °C 12,9 km/h (3 Bft)
17.09.2017 13:14 11,4 °C 11,4 °C 71 % 1012,9 hPa 0,0 mm 6,5 km/h (2 Bft) NO 40 ° 1 min 0,000 mm 3,8 UV-I 436 W/m² 6,3 °C 11,4 °C 8,0 km/h (2 Bft)
17.09.2017 13:15 11,4 °C 11,4 °C 72 % 1012,8 hPa 0,0 mm 9,1 km/h (2 Bft) O 93 ° 1 min 0,000 mm 3,9 UV-I 436 W/m² 6,5 °C 11,4 °C 14,5 km/h (3 Bft)
17.09.2017 13:16 11,3 °C 11,4 °C 72 % 1012,9 hPa 0,0 mm 7,7 km/h (2 Bft) NO 50 ° 1 min 0,000 mm 3,8 UV-I 550 W/m² 6,4 °C 11,3 °C 11,3 km/h (2 Bft)
17.09.2017 13:17 11,3 °C 11,4 °C 73 % 1012,9 hPa 0,0 mm 5,9 km/h (2 Bft) NO 41 ° 1 min 0,000 mm 3,7 UV-I 526 W/m² 6,6 °C 11,3 °C 9,7 km/h (2 Bft)
17.09.2017 13:18 11,4 °C 11,4 °C 71 % 1012,9 hPa 0,0 mm 7,4 km/h (2 Bft) NO 41 ° 1 min 0,000 mm 3,2 UV-I 512 W/m² 6,3 °C 11,4 °C 9,7 km/h (2 Bft)
17.09.2017 13:19 11,5 °C 11,5 °C 72 % 1012,9 hPa 0,0 mm 8,1 km/h (2 Bft) O-NO 69 ° 1 min 0,000 mm 3,2 UV-I 406 W/m² 6,6 °C 11,5 °C 12,9 km/h (3 Bft)
17.09.2017 13:20 11,5 °C 11,6 °C 71 % 1012,9 hPa 0,0 mm 8,2 km/h (2 Bft) O-NO 73 ° 1 min 0,000 mm 4,2 UV-I 406 W/m² 6,4 °C 11,5 °C 12,9 km/h (3 Bft)
17.09.2017 13:21 11,4 °C 11,5 °C 71 % 1012,9 hPa 0,0 mm 4,4 km/h (1 Bft) O-NO 61 ° 1 min 0,000 mm 4,1 UV-I 645 W/m² 6,3 °C 11,4 °C 8,0 km/h (2 Bft)
17.09.2017 13:22 11,4 °C 11,4 °C 71 % 1012,8 hPa 0,0 mm 7,7 km/h (2 Bft) O 101 ° 1 min 0,000 mm 4,3 UV-I 673 W/m² 6,3 °C 11,4 °C 12,9 km/h (3 Bft)
17.09.2017 13:23 11,4 °C 11,4 °C 71 % 1012,8 hPa 0,0 mm 5,1 km/h (1 Bft) NO 49 ° 1 min 0,000 mm 4,1 UV-I 656 W/m² 6,3 °C 11,4 °C 11,3 km/h (2 Bft)
17.09.2017 13:24 11,5 °C 11,5 °C 73 % 1012,8 hPa 0,0 mm 4,1 km/h (1 Bft) NO 40 ° 1 min 0,000 mm 4,0 UV-I 640 W/m² 6,8 °C 11,5 °C 6,4 km/h (2 Bft)
17.09.2017 13:25 11,7 °C 11,7 °C 73 % 1012,8 hPa 0,0 mm 6,5 km/h (2 Bft) NO 51 ° 1 min 0,000 mm 3,9 UV-I 608 W/m² 7,0 °C 11,7 °C 9,7 km/h (2 Bft)
17.09.2017 13:26 11,8 °C 11,8 °C 73 % 1012,8 hPa 0,0 mm 7,7 km/h (2 Bft) O-NO 72 ° 1 min 0,000 mm 4,0 UV-I 677 W/m² 7,1 °C 11,8 °C 12,9 km/h (3 Bft)
17.09.2017 13:27 11,7 °C 11,8 °C 69 % 1012,8 hPa 0,0 mm 7,7 km/h (2 Bft) NO 46 ° 1 min 0,000 mm 2,8 UV-I 677 W/m² 6,2 °C 11,7 °C 11,3 km/h (2 Bft)
17.09.2017 13:28 11,7 °C 11,7 °C 70 % 1012,9 hPa 0,0 mm 7,2 km/h (2 Bft) NO 55 ° 1 min 0,000 mm 2,6 UV-I 677 W/m² 6,4 °C 11,7 °C 11,3 km/h (2 Bft)
17.09.2017 13:29 11,7 °C 11,7 °C 70 % 1012,9 hPa 0,0 mm 4,3 km/h (1 Bft) NO 36 ° 1 min 0,000 mm 2,5 UV-I 677 W/m² 6,4 °C 11,7 °C 6,4 km/h (2 Bft)
17.09.2017 13:30 11,7 °C 11,7 °C 70 % 1012,8 hPa 0,0 mm 5,2 km/h (1 Bft) O 96 ° 0 min 0,000 mm 2,3 UV-I 255 W/m² 6,4 °C 11,7 °C 8,0 km/h (2 Bft)
17.09.2017 13:31 11,6 °C 11,7 °C 71 % 1012,9 hPa 0,0 mm 2,7 km/h (1 Bft) SO 132 ° 0 min 0,000 mm 2,2 UV-I 246 W/m² 6,5 °C 11,6 °C 4,8 km/h (1 Bft)
17.09.2017 13:32 11,4 °C 11,6 °C 70 % 1012,9 hPa 0,0 mm 0,5 km/h (0 Bft) SO 132 ° 0 min 0,000 mm 2,1 UV-I 239 W/m² 6,1 °C 11,4 °C 3,2 km/h (1 Bft)
17.09.2017 13:33 11,2 °C 11,4 °C 69 % 1012,9 hPa 0,0 mm 1,7 km/h (1 Bft) S-SO 162 ° 0 min 0,000 mm 2,0 UV-I 236 W/m² 5,7 °C 11,2 °C 6,4 km/h (2 Bft)
17.09.2017 13:34 11,1 °C 11,2 °C 71 % 1012,9 hPa 0,0 mm 5,0 km/h (1 Bft) S-SO 150 ° 0 min 0,000 mm 1,9 UV-I 230 W/m² 6,0 °C 11,1 °C 8,0 km/h (2 Bft)
17.09.2017 13:35 11,1 °C 11,1 °C 71 % 1012,8 hPa 0,0 mm 3,3 km/h (1 Bft) S 169 ° 0 min 0,000 mm 1,9 UV-I 227 W/m² 6,0 °C 11,1 °C 6,4 km/h (2 Bft)
17.09.2017 13:36 10,9 °C 11,1 °C 71 % 1012,7 hPa 0,0 mm 1,9 km/h (1 Bft) S 169 ° 0 min 0,000 mm 1,8 UV-I 218 W/m² 5,9 °C 10,9 °C 6,4 km/h (2 Bft)
17.09.2017 13:37 10,9 °C 10,9 °C 72 % 1012,7 hPa 0,0 mm 0,7 km/h (0 Bft) NO 54 ° 0 min 0,000 mm 1,7 UV-I 211 W/m² 6,1 °C 10,9 °C 4,8 km/h (1 Bft)
17.09.2017 13:38 11,0 °C 11,0 °C 72 % 1012,7 hPa 0,0 mm 3,4 km/h (1 Bft) O-NO 59 ° 0 min 0,000 mm 1,6 UV-I 200 W/m² 6,2 °C 11,0 °C 4,8 km/h (1 Bft)
17.09.2017 13:39 11,1 °C 11,1 °C 74 % 1012,7 hPa 0,0 mm 4,6 km/h (1 Bft) NO 49 ° 0 min 0,000 mm 1,5 UV-I 192 W/m² 6,6 °C 11,1 °C 8,0 km/h (2 Bft)
17.09.2017 13:40 11,2 °C 11,2 °C 73 % 1012,7 hPa 0,0 mm 5,5 km/h (1 Bft) O 79 ° 0 min 0,000 mm 1,5 UV-I 188 W/m² 6,5 °C 11,2 °C 9,7 km/h (2 Bft)
17.09.2017 13:41 11,2 °C 11,2 °C 72 % 1012,7 hPa 0,0 mm 6,1 km/h (2 Bft) O-NO 61 ° 0 min 0,000 mm 1,4 UV-I 183 W/m² 6,3 °C 11,2 °C 12,9 km/h (3 Bft)
17.09.2017 13:42 11,2 °C 11,2 °C 74 % 1012,7 hPa 0,0 mm 7,8 km/h (2 Bft) O-SO 115 ° 0 min 0,000 mm 1,4 UV-I 167 W/m² 6,7 °C 11,2 °C 12,9 km/h (3 Bft)
17.09.2017 13:43 11,2 °C 11,2 °C 72 % 1012,8 hPa 0,0 mm 2,9 km/h (1 Bft) O-NO 61 ° 0 min 0,000 mm 1,3 UV-I 162 W/m² 6,3 °C 11,2 °C 4,8 km/h (1 Bft)
17.09.2017 13:44 11,2 °C 11,2 °C 72 % 1012,8 hPa 0,0 mm 5,0 km/h (1 Bft) NO 52 ° 0 min 0,000 mm 1,3 UV-I 158 W/m² 6,3 °C 11,2 °C 9,7 km/h (2 Bft)
17.09.2017 13:45 11,2 °C 11,2 °C 73 % 1012,7 hPa 0,0 mm 6,5 km/h (2 Bft) N-NO 28 ° 0 min 0,000 mm 1,3 UV-I 156 W/m² 6,5 °C 11,2 °C 9,7 km/h (2 Bft)
17.09.2017 13:46 11,2 °C 11,2 °C 74 % 1012,8 hPa 0,0 mm 3,7 km/h (1 Bft) O 94 ° 0 min 0,000 mm 1,4 UV-I 162 W/m² 6,7 °C 11,2 °C 4,8 km/h (1 Bft)
17.09.2017 13:47 11,1 °C 11,2 °C 76 % 1012,7 hPa 0,0 mm 6,7 km/h (2 Bft) O-NO 65 ° 0 min 0,000 mm 1,4 UV-I 181 W/m² 7,0 °C 11,1 °C 11,3 km/h (2 Bft)
17.09.2017 13:48 11,0 °C 11,1 °C 75 % 1012,7 hPa 0,0 mm 7,1 km/h (2 Bft) SO 134 ° 0 min 0,000 mm 1,5 UV-I 193 W/m² 6,7 °C 11,0 °C 11,3 km/h (2 Bft)
17.09.2017 13:49 10,9 °C 11,0 °C 74 % 1012,8 hPa 0,0 mm 5,0 km/h (1 Bft) O 89 ° 0 min 0,000 mm 1,7 UV-I 207 W/m² 6,5 °C 10,9 °C 9,7 km/h (2 Bft)
17.09.2017 13:50 10,8 °C 10,9 °C 74 % 1012,8 hPa 0,0 mm 3,6 km/h (1 Bft) O 82 ° 0 min 0,000 mm 1,8 UV-I 218 W/m² 6,4 °C 10,8 °C 6,4 km/h (2 Bft)
17.09.2017 13:51 10,8 °C 10,8 °C 75 % 1012,8 hPa 0,0 mm 7,6 km/h (2 Bft) SO 137 ° 0 min 0,000 mm 1,9 UV-I 227 W/m² 6,5 °C 10,8 °C 12,9 km/h (3 Bft)
17.09.2017 13:52 10,8 °C 10,8 °C 75 % 1012,8 hPa 0,0 mm 5,6 km/h (1 Bft) O-SO 107 ° 0 min 0,000 mm 1,9 UV-I 234 W/m² 6,5 °C 10,8 °C 9,7 km/h (2 Bft)
17.09.2017 13:53 10,8 °C 10,8 °C 75 % 1012,8 hPa 0,0 mm 3,4 km/h (1 Bft) O-SO 106 ° 0 min 0,000 mm 2,0 UV-I 257 W/m² 6,5 °C 10,8 °C 4,8 km/h (1 Bft)
17.09.2017 13:54 10,8 °C 10,8 °C 76 % 1012,7 hPa 0,0 mm 3,1 km/h (1 Bft) O 90 ° 0 min 0,000 mm 2,1 UV-I 257 W/m² 6,7 °C 10,8 °C 9,7 km/h (2 Bft)
17.09.2017 13:55 10,8 °C 10,8 °C 76 % 1012,7 hPa 0,0 mm 6,3 km/h (2 Bft) O 83 ° 0 min 0,000 mm 2,2 UV-I 264 W/m² 6,7 °C 10,8 °C 8,0 km/h (2 Bft)
17.09.2017 13:56 10,9 °C 10,9 °C 75 % 1012,7 hPa 0,0 mm 4,9 km/h (1 Bft) O 79 ° 0 min 0,000 mm 2,2 UV-I 271 W/m² 6,6 °C 10,9 °C 6,4 km/h (2 Bft)
17.09.2017 13:57 10,9 °C 10,9 °C 76 % 1012,7 hPa 0,0 mm 3,0 km/h (1 Bft) O 79 ° 0 min 0,000 mm 2,3 UV-I 281 W/m² 6,8 °C 10,9 °C 4,8 km/h (1 Bft)
17.09.2017 13:58 11,0 °C 11,0 °C 75 % 1012,7 hPa 0,0 mm 3,0 km/h (1 Bft) NO 51 ° 1 min 0,000 mm 2,4 UV-I 294 W/m² 6,7 °C 11,0 °C 4,8 km/h (1 Bft)
17.09.2017 13:59 11,1 °C 11,1 °C 75 % 1012,7 hPa 0,0 mm 6,9 km/h (2 Bft) O 94 ° 1 min 0,000 mm 2,6 UV-I 373 W/m² 6,8 °C 11,1 °C 12,9 km/h (3 Bft)
17.09.2017 14:00 11,2 °C 11,2 °C 75 % 1012,7 hPa 0,0 mm 8,1 km/h (2 Bft) O 87 ° 1 min 0,000 mm 2,9 UV-I 373 W/m² 6,9 °C 11,2 °C 14,5 km/h (3 Bft)
17.09.2017 14:01 11,3 °C 11,3 °C 74 % 1012,7 hPa 0,0 mm 4,0 km/h (1 Bft) O 82 ° 1 min 0,203 mm 4,1 UV-I 373 W/m² 6,8 °C 11,3 °C 4,8 km/h (1 Bft)
17.09.2017 14:02 11,3 °C 11,3 °C 75 % 1012,7 hPa 0,0 mm 7,3 km/h (2 Bft) O 95 ° 1 min 0,000 mm 4,2 UV-I 745 W/m² 7,0 °C 11,3 °C 12,9 km/h (3 Bft)
17.09.2017 14:03 11,4 °C 11,4 °C 76 % 1012,7 hPa 0,0 mm 6,4 km/h (2 Bft) O-NO 64 ° 1 min 0,000 mm 4,4 UV-I 745 W/m² 7,3 °C 11,4 °C 11,3 km/h (2 Bft)
17.09.2017 14:04 11,6 °C 11,6 °C 75 % 1012,8 hPa 0,0 mm 4,2 km/h (1 Bft) NO 49 ° 1 min 0,000 mm 3,5 UV-I 745 W/m² 7,3 °C 11,6 °C 4,8 km/h (1 Bft)
17.09.2017 14:05 11,7 °C 11,7 °C 75 % 1012,7 hPa 0,0 mm 4,0 km/h (1 Bft) O-NO 63 ° 1 min 0,000 mm 3,9 UV-I 745 W/m² 7,4 °C 11,7 °C 6,4 km/h (2 Bft)
17.09.2017 14:06 11,7 °C 11,7 °C 74 % 1012,7 hPa 0,0 mm 4,9 km/h (1 Bft) NO 49 ° 1 min 0,000 mm 2,5 UV-I 745 W/m² 7,2 °C 11,7 °C 8,0 km/h (2 Bft)
17.09.2017 14:07 11,7 °C 11,8 °C 74 % 1012,7 hPa 0,0 mm 4,2 km/h (1 Bft) O 85 ° 0 min 0,000 mm 2,4 UV-I 241 W/m² 7,2 °C 11,7 °C 6,4 km/h (2 Bft)
17.09.2017 14:09 11,5 °C 11,7 °C 73 % 1012,7 hPa 0,0 mm 6,8 km/h (2 Bft) O 93 ° 0 min 0,000 mm 2,4 UV-I 260 W/m² 6,8 °C 11,5 °C 11,3 km/h (2 Bft)
17.09.2017 14:10 11,3 °C 11,5 °C 74 % 1012,7 hPa 0,0 mm 3,4 km/h (1 Bft) O-NO 63 ° 0 min 0,000 mm 2,3 UV-I 230 W/m² 6,8 °C 11,3 °C 6,4 km/h (2 Bft)
17.09.2017 14:11 11,3 °C 11,3 °C 75 % 1012,7 hPa 0,0 mm 7,0 km/h (2 Bft) O-NO 73 ° 0 min 0,000 mm 2,2 UV-I 206 W/m² 7,0 °C 11,3 °C 11,3 km/h (2 Bft)
17.09.2017 14:12 11,3 °C 11,3 °C 76 % 1012,7 hPa 0,0 mm 3,5 km/h (1 Bft) O-NO 58 ° 0 min 0,000 mm 2,2 UV-I 195 W/m² 7,2 °C 11,3 °C 4,8 km/h (1 Bft)
17.09.2017 14:13 11,2 °C 11,3 °C 75 % 1012,7 hPa 0,0 mm 4,7 km/h (1 Bft) O-NO 67 ° 0 min 0,000 mm 2,0 UV-I 186 W/m² 6,9 °C 11,2 °C 8,0 km/h (2 Bft)
17.09.2017 14:14 11,2 °C 11,2 °C 75 % 1012,7 hPa 0,0 mm 3,4 km/h (1 Bft) O 100 ° 0 min 0,000 mm 1,9 UV-I 181 W/m² 6,9 °C 11,2 °C 6,4 km/h (2 Bft)
17.09.2017 14:15 11,1 °C 11,2 °C 75 % 1012,7 hPa 0,0 mm 2,9 km/h (1 Bft) NO 45 ° 0 min 0,000 mm 1,9 UV-I 178 W/m² 6,8 °C 11,1 °C 4,8 km/h (1 Bft)
17.09.2017 14:16 11,1 °C 11,1 °C 74 % 1012,7 hPa 0,0 mm 2,8 km/h (1 Bft) O-NO 71 ° 0 min 0,000 mm 1,8 UV-I 176 W/m² 6,6 °C 11,1 °C 6,4 km/h (2 Bft)
17.09.2017 14:17 11,1 °C 11,1 °C 75 % 1012,7 hPa 0,0 mm 5,5 km/h (1 Bft) O-NO 63 ° 0 min 0,000 mm 1,8 UV-I 174 W/m² 6,8 °C 11,1 °C 8,0 km/h (2 Bft)
17.09.2017 14:18 11,1 °C 11,1 °C 75 % 1012,7 hPa 0,0 mm 3,6 km/h (1 Bft) O-NO 69 ° 0 min 0,000 mm 1,7 UV-I 167 W/m² 6,8 °C 11,1 °C 8,0 km/h (2 Bft)
17.09.2017 14:19 11,0 °C 11,1 °C 76 % 1012,7 hPa 0,0 mm 2,2 km/h (1 Bft) SO 135 ° 0 min 0,000 mm 1,6 UV-I 167 W/m² 6,9 °C 11,0 °C 4,8 km/h (1 Bft)
17.09.2017 14:20 10,9 °C 11,0 °C 75 % 1012,7 hPa 0,0 mm 7,0 km/h (2 Bft) O-NO 66 ° 0 min 0,000 mm 1,6 UV-I 167 W/m² 6,6 °C 10,9 °C 14,5 km/h (3 Bft)
17.09.2017 14:21 10,9 °C 10,9 °C 76 % 1012,7 hPa 0,0 mm 5,1 km/h (1 Bft) O 95 ° 0 min 0,000 mm 1,6 UV-I 167 W/m² 6,8 °C 10,9 °C 9,7 km/h (2 Bft)
17.09.2017 14:22 10,9 °C 10,9 °C 77 % 1012,6 hPa 0,0 mm 2,9 km/h (1 Bft) O 101 ° 0 min 0,000 mm 1,5 UV-I 163 W/m² 7,0 °C 10,9 °C 9,7 km/h (2 Bft)
17.09.2017 14:23 10,9 °C 10,9 °C 76 % 1012,7 hPa 0,0 mm 7,0 km/h (2 Bft) O-SO 109 ° 0 min 0,000 mm 1,5 UV-I 158 W/m² 6,8 °C 10,9 °C 11,3 km/h (2 Bft)
17.09.2017 14:24 10,8 °C 10,9 °C 76 % 1012,7 hPa 0,0 mm 4,1 km/h (1 Bft) O 95 ° 0 min 0,000 mm 1,4 UV-I 156 W/m² 6,7 °C 10,8 °C 6,4 km/h (2 Bft)
17.09.2017 14:25 10,8 °C 10,8 °C 76 % 1012,8 hPa 0,0 mm 5,4 km/h (1 Bft) O-NO 76 ° 0 min 0,000 mm 1,4 UV-I 155 W/m² 6,7 °C 10,8 °C 8,0 km/h (2 Bft)
17.09.2017 14:26 10,8 °C 10,9 °C 77 % 1012,7 hPa 0,0 mm 4,4 km/h (1 Bft) O-NO 67 ° 0 min 0,000 mm 1,4 UV-I 155 W/m² 6,9 °C 10,8 °C 9,7 km/h (2 Bft)
17.09.2017 14:27 10,9 °C 10,9 °C 77 % 1012,6 hPa 0,0 mm 5,7 km/h (1 Bft) O 98 ° 0 min 0,000 mm 1,3 UV-I 153 W/m² 7,0 °C 10,9 °C 9,7 km/h (2 Bft)
17.09.2017 14:28 10,9 °C 10,9 °C 78 % 1012,7 hPa 0,0 mm 4,1 km/h (1 Bft) O-SO 113 ° 0 min 0,000 mm 1,3 UV-I 149 W/m² 7,2 °C 10,9 °C 6,4 km/h (2 Bft)
17.09.2017 14:29 10,9 °C 10,9 °C 77 % 1012,7 hPa 0,0 mm 4,4 km/h (1 Bft) O 86 ° 0 min 0,000 mm 1,3 UV-I 146 W/m² 7,0 °C 10,9 °C 9,7 km/h (2 Bft)
17.09.2017 14:30 10,8 °C 10,9 °C 77 % 1012,7 hPa 0,0 mm 2,7 km/h (1 Bft) O-NO 67 ° 0 min 0,000 mm 1,2 UV-I 146 W/m² 6,9 °C 10,8 °C 4,8 km/h (1 Bft)
17.09.2017 14:31 10,8 °C 10,8 °C 77 % 1012,7 hPa 0,0 mm 2,2 km/h (1 Bft) O-NO 75 ° 0 min 0,000 mm 1,2 UV-I 144 W/m² 6,9 °C 10,8 °C 4,8 km/h (1 Bft)
17.09.2017 14:32 10,8 °C 10,8 °C 77 % 1012,7 hPa 0,0 mm 1,3 km/h (1 Bft) O-NO 75 ° 0 min 0,000 mm 1,2 UV-I 142 W/m² 6,9 °C 10,8 °C 3,2 km/h (1 Bft)
17.09.2017 14:33 10,8 °C 10,8 °C 76 % 1012,7 hPa 0,0 mm 3,8 km/h (1 Bft) O-SO 102 ° 0 min 0,000 mm 1,2 UV-I 141 W/m² 6,7 °C 10,8 °C 6,4 km/h (2 Bft)
17.09.2017 14:34 10,8 °C 10,8 °C 76 % 1012,7 hPa 0,0 mm 2,6 km/h (1 Bft) O-NO 63 ° 0 min 0,000 mm 1,1 UV-I 141 W/m² 6,7 °C 10,8 °C 3,2 km/h (1 Bft)
17.09.2017 14:35 10,8 °C 10,8 °C 77 % 1012,7 hPa 0,0 mm 0,1 km/h (0 Bft) O-NO 63 ° 0 min 0,000 mm 1,1 UV-I 141 W/m² 6,9 °C 10,8 °C 1,6 km/h (1 Bft)
17.09.2017 14:36 10,8 °C 10,8 °C 77 % 1012,7 hPa 0,0 mm 0,9 km/h (0 Bft) O-NO 63 ° 0 min 0,000 mm 1,1 UV-I 141 W/m² 6,9 °C 10,8 °C 3,2 km/h (1 Bft)
17.09.2017 14:37 10,8 °C 10,8 °C 77 % 1012,7 hPa 0,0 mm 1,9 km/h (1 Bft) O-SO 103 ° 0 min 0,000 mm 1,1 UV-I 139 W/m² 6,9 °C 10,8 °C 6,4 km/h (2 Bft)
17.09.2017 14:38 10,8 °C 10,8 °C 77 % 1012,7 hPa 0,0 mm 3,0 km/h (1 Bft) O 79 ° 0 min 0,000 mm 1,1 UV-I 139 W/m² 6,9 °C 10,8 °C 4,8 km/h (1 Bft)
17.09.2017 14:39 10,7 °C 10,8 °C 77 % 1012,7 hPa 0,0 mm 3,4 km/h (1 Bft) O 84 ° 0 min 0,000 mm 1,1 UV-I 137 W/m² 6,8 °C 10,7 °C 4,8 km/h (1 Bft)
17.09.2017 14:40 10,7 °C 10,7 °C 76 % 1012,7 hPa 0,0 mm 2,7 km/h (1 Bft) O-NO 76 ° 0 min 0,000 mm 1,1 UV-I 135 W/m² 6,6 °C 10,7 °C 4,8 km/h (1 Bft)
17.09.2017 14:41 10,7 °C 10,7 °C 76 % 1012,7 hPa 0,0 mm 2,0 km/h (1 Bft) O 80 ° 0 min 0,000 mm 1,1 UV-I 135 W/m² 6,6 °C 10,7 °C 4,8 km/h (1 Bft)
17.09.2017 14:42 10,7 °C 10,7 °C 77 % 1012,7 hPa 0,0 mm 3,4 km/h (1 Bft) O 95 ° 0 min 0,000 mm 1,0 UV-I 134 W/m² 6,8 °C 10,7 °C 6,4 km/h (2 Bft)
17.09.2017 14:43 10,7 °C 10,7 °C 76 % 1012,7 hPa 0,0 mm 4,8 km/h (1 Bft) O-SO 103 ° 0 min 0,000 mm 1,0 UV-I 134 W/m² 6,6 °C 10,7 °C 9,7 km/h (2 Bft)
17.09.2017 14:44 10,6 °C 10,7 °C 78 % 1012,7 hPa 0,0 mm 5,9 km/h (2 Bft) S 176 ° 0 min 0,000 mm 1,0 UV-I 134 W/m² 6,9 °C 10,6 °C 9,7 km/h (2 Bft)
17.09.2017 14:45 10,6 °C 10,6 °C 77 % 1012,7 hPa 0,0 mm 1,0 km/h (0 Bft) S 174 ° 0 min 0,000 mm 1,0 UV-I 135 W/m² 6,7 °C 10,6 °C 3,2 km/h (1 Bft)
17.09.2017 14:46 10,6 °C 10,6 °C 78 % 1012,8 hPa 0,0 mm 1,3 km/h (1 Bft) SO 133 ° 0 min 0,000 mm 1,0 UV-I 141 W/m² 6,9 °C 10,6 °C 4,8 km/h (1 Bft)
17.09.2017 14:47 10,5 °C 10,6 °C 78 % 1012,8 hPa 0,0 mm 3,6 km/h (1 Bft) SO 134 ° 0 min 0,000 mm 1,1 UV-I 146 W/m² 6,8 °C 10,5 °C 6,4 km/h (2 Bft)
17.09.2017 14:48 10,4 °C 10,5 °C 78 % 1012,8 hPa 0,0 mm 1,9 km/h (1 Bft) O-NO 75 ° 0 min 0,000 mm 1,1 UV-I 153 W/m² 6,7 °C 10,4 °C 4,8 km/h (1 Bft)
17.09.2017 14:49 10,4 °C 10,5 °C 78 % 1012,8 hPa 0,0 mm 1,0 km/h (0 Bft) O-NO 77 ° 0 min 0,000 mm 1,1 UV-I 160 W/m² 6,7 °C 10,4 °C 3,2 km/h (1 Bft)
17.09.2017 14:50 10,4 °C 10,4 °C 79 % 1012,7 hPa 0,0 mm 4,2 km/h (1 Bft) O 82 ° 0 min 0,000 mm 1,2 UV-I 169 W/m² 6,9 °C 10,4 °C 6,4 km/h (2 Bft)
17.09.2017 14:51 10,4 °C 10,4 °C 79 % 1012,7 hPa 0,0 mm 2,7 km/h (1 Bft) O 83 ° 0 min 0,000 mm 1,3 UV-I 178 W/m² 6,9 °C 10,4 °C 4,8 km/h (1 Bft)
17.09.2017 14:52 10,4 °C 10,4 °C 78 % 1012,7 hPa 0,0 mm 2,2 km/h (1 Bft) O 83 ° 0 min 0,000 mm 1,3 UV-I 190 W/m² 6,7 °C 10,4 °C 4,8 km/h (1 Bft)
17.09.2017 14:53 10,4 °C 10,4 °C 80 % 1012,6 hPa 0,0 mm 2,9 km/h (1 Bft) O 83 ° 0 min 0,000 mm 1,4 UV-I 193 W/m² 7,1 °C 10,4 °C 3,2 km/h (1 Bft)
17.09.2017 14:54 10,4 °C 10,4 °C 80 % 1012,7 hPa 0,0 mm 0,9 km/h (0 Bft) O 83 ° 0 min 0,000 mm 1,4 UV-I 193 W/m² 7,1 °C 10,4 °C 3,2 km/h (1 Bft)
17.09.2017 14:55 10,5 °C 10,5 °C 82 % 1012,7 hPa 0,0 mm 2,1 km/h (1 Bft) O 84 ° 0 min 0,000 mm 1,4 UV-I 190 W/m² 7,6 °C 10,5 °C 4,8 km/h (1 Bft)
17.09.2017 14:56 10,5 °C 10,6 °C 82 % 1012,6 hPa 0,0 mm 4,5 km/h (1 Bft) O-NO 60 ° 0 min 0,000 mm 1,3 UV-I 188 W/m² 7,6 °C 10,5 °C 6,4 km/h (2 Bft)
17.09.2017 14:57 10,6 °C 10,6 °C 83 % 1012,7 hPa 0,0 mm 3,3 km/h (1 Bft) O-NO 74 ° 0 min 0,000 mm 1,3 UV-I 185 W/m² 7,8 °C 10,6 °C 6,4 km/h (2 Bft)
17.09.2017 14:58 10,6 °C 10,6 °C 82 % 1012,7 hPa 0,0 mm 2,3 km/h (1 Bft) O-NO 73 ° 0 min 0,000 mm 1,3 UV-I 178 W/m² 7,7 °C 10,6 °C 4,8 km/h (1 Bft)
17.09.2017 14:59 10,6 °C 10,6 °C 81 % 1012,7 hPa 0,0 mm 3,6 km/h (1 Bft) O-NO 71 ° 0 min 0,000 mm 1,3 UV-I 176 W/m² 7,5 °C 10,6 °C 4,8 km/h (1 Bft)
17.09.2017 15:00 10,6 °C 10,6 °C 82 % 1012,7 hPa 0,0 mm 2,3 km/h (1 Bft) O-NO 69 ° 0 min 0,000 mm 1,3 UV-I 174 W/m² 7,7 °C 10,6 °C 4,8 km/h (1 Bft)
17.09.2017 15:01 10,6 °C 10,6 °C 81 % 1012,6 hPa 0,0 mm 3,0 km/h (1 Bft) O-NO 57 ° 0 min 0,102 mm 1,3 UV-I 174 W/m² 7,5 °C 10,6 °C 4,8 km/h (1 Bft)
17.09.2017 15:02 10,6 °C 10,6 °C 80 % 1012,7 hPa 0,0 mm 2,2 km/h (1 Bft) NO 56 ° 0 min 0,000 mm 1,3 UV-I 176 W/m² 7,3 °C 10,6 °C 4,8 km/h (1 Bft)
17.09.2017 15:03 10,6 °C 10,6 °C 79 % 1012,7 hPa 0,0 mm 1,5 km/h (1 Bft) NO 56 ° 0 min 0,000 mm 1,3 UV-I 176 W/m² 7,1 °C 10,6 °C 3,2 km/h (1 Bft)
17.09.2017 15:04 10,6 °C 10,6 °C 81 % 1012,7 hPa 0,0 mm 1,1 km/h (1 Bft) O-NO 59 ° 0 min 0,000 mm 1,3 UV-I 176 W/m² 7,5 °C 10,6 °C 3,2 km/h (1 Bft)
17.09.2017 15:05 10,6 °C 10,6 °C 81 % 1012,7 hPa 0,0 mm 3,1 km/h (1 Bft) O-NO 59 ° 0 min 0,000 mm 1,3 UV-I 176 W/m² 7,5 °C 10,6 °C 4,8 km/h (1 Bft)
17.09.2017 15:06 10,5 °C 10,6 °C 79 % 1012,7 hPa 0,0 mm 0,5 km/h (0 Bft) O-NO 59 ° 0 min 0,000 mm 1,3 UV-I 172 W/m² 7,0 °C 10,5 °C 3,2 km/h (1 Bft)
17.09.2017 15:07 10,6 °C 10,6 °C 80 % 1012,7 hPa 0,0 mm 0,9 km/h (0 Bft) O-NO 59 ° 0 min 0,000 mm 1,2 UV-I 171 W/m² 7,3 °C 10,6 °C 3,2 km/h (1 Bft)
17.09.2017 15:08 10,6 °C 10,6 °C 79 % 1012,7 hPa 0,0 mm 0,2 km/h (0 Bft) O-NO 59 ° 0 min 0,000 mm 1,2 UV-I 167 W/m² 7,1 °C 10,6 °C 1,6 km/h (1 Bft)
17.09.2017 15:09 10,6 °C 10,6 °C 82 % 1012,7 hPa 0,0 mm 2,0 km/h (1 Bft) O-NO 59 ° 0 min 0,000 mm 1,2 UV-I 165 W/m² 7,7 °C 10,6 °C 4,8 km/h (1 Bft)
17.09.2017 15:10 10,7 °C 10,7 °C 82 % 1012,7 hPa 0,0 mm 2,1 km/h (1 Bft) O-NO 59 ° 0 min 0,000 mm 1,2 UV-I 165 W/m² 7,8 °C 10,7 °C 4,8 km/h (1 Bft)
17.09.2017 15:11 10,7 °C 10,7 °C 81 % 1012,7 hPa 0,0 mm 1,7 km/h (1 Bft) O-NO 59 ° 0 min 0,000 mm 1,2 UV-I 165 W/m² 7,6 °C 10,7 °C 3,2 km/h (1 Bft)
17.09.2017 15:12 10,7 °C 10,7 °C 81 % 1012,8 hPa 0,0 mm 0,7 km/h (0 Bft) O-NO 59 ° 0 min 0,000 mm 1,2 UV-I 165 W/m² 7,6 °C 10,7 °C 1,6 km/h (1 Bft)
17.09.2017 15:13 10,8 °C 10,8 °C 83 % 1012,7 hPa 0,0 mm 0,9 km/h (0 Bft) O-NO 59 ° 0 min 0,000 mm 1,2 UV-I 163 W/m² 8,0 °C 10,8 °C 3,2 km/h (1 Bft)
17.09.2017 15:14 10,7 °C 10,8 °C 83 % 1012,8 hPa 0,0 mm 2,9 km/h (1 Bft) O-NO 61 ° 0 min 0,000 mm 1,2 UV-I 160 W/m² 7,9 °C 10,7 °C 4,8 km/h (1 Bft)
17.09.2017 15:15 10,7 °C 10,7 °C 80 % 1012,8 hPa 0,0 mm 4,4 km/h (1 Bft) O 86 ° 0 min 0,000 mm 1,1 UV-I 156 W/m² 7,4 °C 10,7 °C 6,4 km/h (2 Bft)
17.09.2017 15:16 10,7 °C 10,7 °C 80 % 1012,8 hPa 0,0 mm 3,6 km/h (1 Bft) O 82 ° 0 min 0,000 mm 1,1 UV-I 148 W/m² 7,4 °C 10,7 °C 4,8 km/h (1 Bft)
17.09.2017 15:17 10,8 °C 10,8 °C 80 % 1012,8 hPa 0,0 mm 0,6 km/h (0 Bft) O 82 ° 0 min 0,000 mm 1,1 UV-I 146 W/m² 7,5 °C 10,8 °C 3,2 km/h (1 Bft)
17.09.2017 15:19 10,7 °C 10,8 °C 79 % 1012,8 hPa 0,0 mm 0,3 km/h (0 Bft) O 82 ° 0 min 0,000 mm 1,1 UV-I 148 W/m² 7,2 °C 10,7 °C 1,6 km/h (1 Bft)
17.09.2017 15:20 10,7 °C 10,7 °C 81 % 1012,8 hPa 0,0 mm 0,5 km/h (0 Bft) O 82 ° 0 min 0,000 mm 1,2 UV-I 151 W/m² 7,6 °C 10,7 °C 1,6 km/h (1 Bft)
17.09.2017 15:21 10,7 °C 10,7 °C 79 % 1012,8 hPa 0,0 mm 0,7 km/h (0 Bft) O 82 ° 0 min 0,000 mm 1,1 UV-I 142 W/m² 7,2 °C 10,7 °C 1,6 km/h (1 Bft)
17.09.2017 15:22 10,7 °C 10,7 °C 81 % 1012,8 hPa 0,0 mm 1,6 km/h (1 Bft) O 82 ° 0 min 0,000 mm 1,1 UV-I 137 W/m² 7,6 °C 10,7 °C 3,2 km/h (1 Bft)
17.09.2017 15:23 10,7 °C 10,7 °C 82 % 1012,8 hPa 0,0 mm 2,2 km/h (1 Bft) O 82 ° 0 min 0,000 mm 1,1 UV-I 134 W/m² 7,8 °C 10,7 °C 3,2 km/h (1 Bft)
17.09.2017 15:24 10,7 °C 10,7 °C 82 % 1012,9 hPa 0,0 mm 1,7 km/h (1 Bft) O 82 ° 0 min 0,000 mm 1,0 UV-I 128 W/m² 7,8 °C 10,7 °C 3,2 km/h (1 Bft)
17.09.2017 15:25 10,7 °C 10,7 °C 82 % 1012,9 hPa 0,0 mm 0,4 km/h (0 Bft) S-SW 202 ° 0 min 0,000 mm 1,0 UV-I 123 W/m² 7,8 °C 10,7 °C 3,2 km/h (1 Bft)
17.09.2017 15:26 10,8 °C 10,8 °C 82 % 1012,9 hPa 0,0 mm 4,6 km/h (1 Bft) W 272 ° 0 min 0,000 mm 0,9 UV-I 118 W/m² 7,9 °C 10,8 °C 9,7 km/h (2 Bft)
17.09.2017 15:27 10,8 °C 10,8 °C 81 % 1012,9 hPa 0,0 mm 5,0 km/h (1 Bft) W 267 ° 0 min 0,000 mm 0,9 UV-I 105 W/m² 7,7 °C 10,8 °C 6,4 km/h (2 Bft)
17.09.2017 15:28 10,7 °C 10,8 °C 81 % 1013,0 hPa 0,0 mm 6,1 km/h (2 Bft) W 265 ° 0 min 0,000 mm 0,8 UV-I 98 W/m² 7,6 °C 10,7 °C 12,9 km/h (3 Bft)
17.09.2017 15:29 10,7 °C 10,7 °C 79 % 1013,0 hPa 0,0 mm 5,9 km/h (2 Bft) W-NW 290 ° 0 min 0,000 mm 0,7 UV-I 93 W/m² 7,2 °C 10,7 °C 12,9 km/h (3 Bft)
17.09.2017 15:30 10,6 °C 10,7 °C 81 % 1013,0 hPa 0,0 mm 8,8 km/h (2 Bft) S-SW 205 ° 0 min 0,000 mm 0,7 UV-I 88 W/m² 7,5 °C 10,6 °C 14,5 km/h (3 Bft)
17.09.2017 15:31 10,6 °C 10,6 °C 79 % 1013,0 hPa 0,0 mm 6,7 km/h (2 Bft) W-SW 257 ° 0 min 0,000 mm 0,7 UV-I 84 W/m² 7,1 °C 10,6 °C 11,3 km/h (2 Bft)
17.09.2017 15:32 10,4 °C 10,6 °C 80 % 1013,0 hPa 0,0 mm 10,2 km/h (2 Bft) W 281 ° 0 min 0,000 mm 0,6 UV-I 81 W/m² 7,1 °C 10,4 °C 14,5 km/h (3 Bft)
17.09.2017 15:33 10,3 °C 10,4 °C 80 % 1013,1 hPa 0,0 mm 10,3 km/h (2 Bft) W 264 ° 0 min 0,000 mm 0,6 UV-I 77 W/m² 7,0 °C 10,3 °C 16,1 km/h (3 Bft)
17.09.2017 15:34 10,2 °C 10,3 °C 81 % 1013,0 hPa 0,0 mm 9,3 km/h (2 Bft) W 260 ° 0 min 0,000 mm 0,6 UV-I 72 W/m² 7,1 °C 10,2 °C 16,1 km/h (3 Bft)
17.09.2017 15:35 10,1 °C 10,2 °C 81 % 1013,1 hPa 0,0 mm 9,5 km/h (2 Bft) SW 225 ° 0 min 0,000 mm 0,5 UV-I 69 W/m² 7,0 °C 10,1 °C 16,1 km/h (3 Bft)
17.09.2017 15:36 9,9 °C 10,1 °C 81 % 1013,0 hPa 0,0 mm 7,4 km/h (2 Bft) W-SW 255 ° 0 min 0,000 mm 0,5 UV-I 65 W/m² 6,8 °C 9,0 °C 9,7 km/h (2 Bft)
17.09.2017 15:37 9,8 °C 9,9 °C 81 % 1013,0 hPa 0,0 mm 5,3 km/h (1 Bft) W-SW 246 ° 0 min 0,000 mm 0,5 UV-I 60 W/m² 6,7 °C 9,4 °C 9,7 km/h (2 Bft)
17.09.2017 15:38 9,7 °C 9,8 °C 81 % 1013,1 hPa 0,0 mm 4,4 km/h (1 Bft) W-NW 286 ° 0 min 0,000 mm 0,0 UV-I 54 W/m² 6,6 °C 9,7 °C 9,7 km/h (2 Bft)
17.09.2017 15:39 9,6 °C 9,7 °C 82 % 1013,1 hPa 0,0 mm 5,4 km/h (1 Bft) W-SW 257 ° 0 min 0,000 mm 0,0 UV-I 51 W/m² 6,7 °C 9,2 °C 9,7 km/h (2 Bft)
17.09.2017 15:40 9,3 °C 9,6 °C 82 % 1013,1 hPa 0,0 mm 6,6 km/h (2 Bft) W 266 ° 0 min 0,000 mm 0,0 UV-I 49 W/m² 6,4 °C 8,5 °C 11,3 km/h (2 Bft)
17.09.2017 15:41 9,3 °C 9,3 °C 82 % 1013,0 hPa 0,0 mm 5,3 km/h (1 Bft) W 269 ° 0 min 0,000 mm 0,0 UV-I 47 W/m² 6,4 °C 8,9 °C 9,7 km/h (2 Bft)
17.09.2017 15:42 9,2 °C 9,3 °C 84 % 1013,0 hPa 0,2 mm 3,4 km/h (1 Bft) W 263 ° 0 min 0,000 mm 0,0 UV-I 46 W/m² 6,6 °C 9,2 °C 4,8 km/h (1 Bft)
17.09.2017 15:43 9,1 °C 9,2 °C 83 % 1013,1 hPa 0,0 mm 1,9 km/h (1 Bft) W 263 ° 0 min 0,000 mm 0,0 UV-I 44 W/m² 6,4 °C 9,1 °C 3,2 km/h (1 Bft)
17.09.2017 15:44 9,0 °C 9,1 °C 83 % 1013,1 hPa 0,0 mm 1,4 km/h (1 Bft) W 270 ° 0 min 0,000 mm 0,0 UV-I 44 W/m² 6,3 °C 9,0 °C 3,2 km/h (1 Bft)
17.09.2017 15:45 8,9 °C 9,0 °C 83 % 1013,1 hPa 0,0 mm 1,9 km/h (1 Bft) W 270 ° 0 min 0,000 mm 0,0 UV-I 44 W/m² 6,2 °C 8,9 °C 3,2 km/h (1 Bft)
17.09.2017 15:46 8,8 °C 8,9 °C 83 % 1013,1 hPa 0,0 mm 2,4 km/h (1 Bft) W 270 ° 0 min 0,000 mm 0,0 UV-I 46 W/m² 6,1 °C 8,8 °C 3,2 km/h (1 Bft)
17.09.2017 15:47 8,8 °C 8,8 °C 85 % 1013,1 hPa 0,0 mm 3,1 km/h (1 Bft) W 270 ° 0 min 0,000 mm 0,0 UV-I 47 W/m² 6,4 °C 8,8 °C 4,8 km/h (1 Bft)
17.09.2017 15:48 8,7 °C 8,8 °C 83 % 1013,1 hPa 0,0 mm 1,1 km/h (1 Bft) W-SW 256 ° 0 min 0,000 mm 0,0 UV-I 49 W/m² 6,0 °C 8,7 °C 3,2 km/h (1 Bft)
17.09.2017 15:49 8,7 °C 8,7 °C 82 % 1013,1 hPa 0,0 mm 1,9 km/h (1 Bft) W-SW 240 ° 0 min 0,000 mm 0,0 UV-I 51 W/m² 5,8 °C 8,7 °C 3,2 km/h (1 Bft)
17.09.2017 15:50 8,6 °C 8,7 °C 83 % 1013,1 hPa 0,0 mm 0,9 km/h (0 Bft) W-SW 240 ° 0 min 0,000 mm 0,0 UV-I 56 W/m² 5,9 °C 8,6 °C 3,2 km/h (1 Bft)
17.09.2017 15:51 8,6 °C 8,6 °C 85 % 1013,1 hPa 0,0 mm 1,5 km/h (1 Bft) SW 219 ° 0 min 0,000 mm 0,0 UV-I 67 W/m² 6,2 °C 8,6 °C 4,8 km/h (1 Bft)
17.09.2017 15:52 8,5 °C 8,6 °C 84 % 1013,1 hPa 0,0 mm 3,1 km/h (1 Bft) SW 233 ° 0 min 0,000 mm 0,5 UV-I 74 W/m² 6,0 °C 8,5 °C 4,8 km/h (1 Bft)
17.09.2017 15:53 8,5 °C 8,5 °C 84 % 1013,1 hPa 0,0 mm 0,1 km/h (0 Bft) SW 233 ° 0 min 0,000 mm 0,5 UV-I 81 W/m² 6,0 °C 8,5 °C 1,6 km/h (1 Bft)
17.09.2017 15:54 8,4 °C 8,5 °C 86 % 1013,1 hPa 0,0 mm 0,7 km/h (0 Bft) SW 233 ° 0 min 0,000 mm 0,6 UV-I 90 W/m² 6,2 °C 8,4 °C 3,2 km/h (1 Bft)
17.09.2017 15:55 8,3 °C 8,4 °C 87 % 1013,1 hPa 0,2 mm 0,1 km/h (0 Bft) SW 233 ° 0 min 0,000 mm 0,6 UV-I 97 W/m² 6,3 °C 8,3 °C 1,6 km/h (1 Bft)
17.09.2017 15:56 8,3 °C 8,3 °C 87 % 1013,1 hPa 0,0 mm 1,5 km/h (1 Bft) W-SW 241 ° 0 min 0,000 mm 0,6 UV-I 104 W/m² 6,3 °C 8,3 °C 4,8 km/h (1 Bft)
17.09.2017 15:57 8,2 °C 8,3 °C 88 % 1013,1 hPa 0,0 mm 0,8 km/h (0 Bft) W-SW 241 ° 0 min 0,000 mm 0,7 UV-I 118 W/m² 6,3 °C 8,2 °C 4,8 km/h (1 Bft)
17.09.2017 15:58 8,2 °C 8,2 °C 88 % 1013,0 hPa 0,0 mm 0,0 km/h (0 Bft) W-SW 241 ° 0 min 0,000 mm 0,7 UV-I 125 W/m² 6,3 °C 8,2 °C 0,0 km/h (0 Bft)
17.09.2017 15:59 8,1 °C 8,2 °C 89 % 1013,0 hPa 0,0 mm 0,0 km/h (0 Bft) W-SW 241 ° 0 min 0,000 mm 0,8 UV-I 134 W/m² 6,4 °C 8,1 °C 0,0 km/h (0 Bft)
17.09.2017 16:00 8,1 °C 8,2 °C 89 % 1013,0 hPa 0,0 mm 1,0 km/h (0 Bft) S-SW 200 ° 0 min 0,051 mm 0,8 UV-I 141 W/m² 6,4 °C 8,1 °C 3,2 km/h (1 Bft)
17.09.2017 16:01 8,1 °C 8,1 °C 89 % 1013,0 hPa 0,0 mm 0,3 km/h (0 Bft) S-SW 200 ° 0 min 0,000 mm 0,9 UV-I 148 W/m² 6,4 °C 8,1 °C 1,6 km/h (1 Bft)
17.09.2017 16:02 8,1 °C 8,1 °C 89 % 1013,0 hPa 0,0 mm 0,0 km/h (0 Bft) S-SW 200 ° 0 min 0,000 mm 0,9 UV-I 156 W/m² 6,4 °C 8,1 °C 0,0 km/h (0 Bft)
17.09.2017 16:03 8,2 °C 8,2 °C 90 % 1012,9 hPa 0,0 mm 0,3 km/h (0 Bft) S-SW 200 ° 0 min 0,000 mm 0,9 UV-I 172 W/m² 6,7 °C 8,2 °C 1,6 km/h (1 Bft)
17.09.2017 16:04 8,2 °C 8,2 °C 90 % 1012,9 hPa 0,0 mm 0,0 km/h (0 Bft) S-SW 200 ° 0 min 0,000 mm 1,1 UV-I 181 W/m² 6,7 °C 8,2 °C 0,0 km/h (0 Bft)
17.09.2017 16:05 8,3 °C 8,3 °C 90 % 1012,9 hPa 0,0 mm 0,0 km/h (0 Bft) S-SW 200 ° 0 min 0,000 mm 1,1 UV-I 190 W/m² 6,8 °C 8,3 °C 0,0 km/h (0 Bft)
17.09.2017 16:06 8,4 °C 8,4 °C 91 % 1012,9 hPa 0,0 mm 0,0 km/h (0 Bft) S-SW 200 ° 0 min 0,000 mm 1,2 UV-I 197 W/m² 7,0 °C 8,4 °C 0,0 km/h (0 Bft)
17.09.2017 16:07 8,5 °C 8,5 °C 91 % 1012,9 hPa 0,0 mm 0,7 km/h (0 Bft) S-SW 200 ° 0 min 0,000 mm 1,2 UV-I 206 W/m² 7,1 °C 8,5 °C 1,6 km/h (1 Bft)
17.09.2017 16:08 8,6 °C 8,6 °C 90 % 1012,8 hPa 0,0 mm 0,9 km/h (0 Bft) W-SW 254 ° 0 min 0,000 mm 1,3 UV-I 221 W/m² 7,1 °C 8,6 °C 3,2 km/h (1 Bft)
17.09.2017 16:09 8,6 °C 8,7 °C 91 % 1012,9 hPa 0,0 mm 1,2 km/h (1 Bft) S-SW 206 ° 0 min 0,000 mm 1,3 UV-I 229 W/m² 7,2 °C 8,6 °C 3,2 km/h (1 Bft)
17.09.2017 16:10 8,7 °C 8,7 °C 90 % 1012,8 hPa 0,0 mm 0,1 km/h (0 Bft) S-SW 206 ° 0 min 0,000 mm 1,3 UV-I 230 W/m² 7,2 °C 8,7 °C 1,6 km/h (1 Bft)
17.09.2017 16:11 8,7 °C 8,7 °C 90 % 1012,8 hPa 0,0 mm 0,2 km/h (0 Bft) O 82 ° 0 min 0,000 mm 1,3 UV-I 229 W/m² 7,2 °C 8,7 °C 1,6 km/h (1 Bft)
17.09.2017 16:12 8,8 °C 8,8 °C 90 % 1012,9 hPa 0,0 mm 0,7 km/h (0 Bft) O 82 ° 0 min 0,000 mm 1,3 UV-I 223 W/m² 7,3 °C 8,8 °C 1,6 km/h (1 Bft)
17.09.2017 16:13 8,9 °C 8,9 °C 90 % 1012,8 hPa 0,0 mm 2,5 km/h (1 Bft) N-NO 31 ° 0 min 0,000 mm 1,3 UV-I 221 W/m² 7,4 °C 8,9 °C 4,8 km/h (1 Bft)
17.09.2017 16:14 9,1 °C 9,1 °C 89 % 1012,9 hPa 0,0 mm 1,1 km/h (1 Bft) N-NO 31 ° 0 min 0,000 mm 1,3 UV-I 220 W/m² 7,4 °C 9,1 °C 3,2 km/h (1 Bft)
17.09.2017 16:15 9,2 °C 9,2 °C 88 % 1012,9 hPa 0,0 mm 3,2 km/h (1 Bft) NW 306 ° 0 min 0,000 mm 1,4 UV-I 220 W/m² 7,3 °C 9,2 °C 6,4 km/h (2 Bft)
17.09.2017 16:16 9,2 °C 9,2 °C 88 % 1012,9 hPa 0,0 mm 1,3 km/h (1 Bft) NW 307 ° 0 min 0,000 mm 1,4 UV-I 214 W/m² 7,3 °C 9,2 °C 4,8 km/h (1 Bft)
17.09.2017 16:17 9,3 °C 9,3 °C 87 % 1012,9 hPa 0,0 mm 0,0 km/h (0 Bft) NW 307 ° 0 min 0,000 mm 1,4 UV-I 213 W/m² 7,2 °C 9,3 °C 0,0 km/h (0 Bft)
17.09.2017 16:18 9,3 °C 9,3 °C 87 % 1012,9 hPa 0,0 mm 3,7 km/h (1 Bft) N-NO 28 ° 0 min 0,000 mm 1,4 UV-I 213 W/m² 7,2 °C 9,3 °C 6,4 km/h (2 Bft)
17.09.2017 16:19 9,3 °C 9,3 °C 87 % 1012,9 hPa 0,0 mm 0,2 km/h (0 Bft) N-NO 28 ° 0 min 0,000 mm 1,4 UV-I 200 W/m² 7,2 °C 9,3 °C 1,6 km/h (1 Bft)
17.09.2017 16:20 9,3 °C 9,3 °C 86 % 1012,9 hPa 0,0 mm 0,2 km/h (0 Bft) N-NO 28 ° 0 min 0,000 mm 1,4 UV-I 179 W/m² 7,1 °C 9,3 °C 1,6 km/h (1 Bft)
17.09.2017 16:21 9,2 °C 9,3 °C 86 % 1012,9 hPa 0,0 mm 0,9 km/h (0 Bft) N 11 ° 0 min 0,000 mm 1,3 UV-I 171 W/m² 7,0 °C 9,2 °C 3,2 km/h (1 Bft)
17.09.2017 16:22 9,2 °C 9,2 °C 84 % 1012,8 hPa 0,0 mm 2,5 km/h (1 Bft) N-NO 31 ° 0 min 0,000 mm 1,3 UV-I 163 W/m² 6,6 °C 9,2 °C 4,8 km/h (1 Bft)
17.09.2017 16:24 9,1 °C 9,2 °C 85 % 1012,8 hPa 0,0 mm 1,2 km/h (1 Bft) W-SW 250 ° 0 min 0,000 mm 1,3 UV-I 149 W/m² 6,7 °C 9,1 °C 4,8 km/h (1 Bft)
17.09.2017 16:25 9,1 °C 9,1 °C 84 % 1012,8 hPa 0,0 mm 0,6 km/h (0 Bft) W-SW 250 ° 0 min 0,000 mm 1,2 UV-I 146 W/m² 6,5 °C 9,1 °C 1,6 km/h (1 Bft)
17.09.2017 16:26 9,1 °C 9,1 °C 84 % 1012,8 hPa 0,0 mm 3,0 km/h (1 Bft) NW 325 ° 0 min 0,000 mm 1,2 UV-I 142 W/m² 6,5 °C 9,1 °C 4,8 km/h (1 Bft)
17.09.2017 16:27 9,1 °C 9,1 °C 85 % 1012,8 hPa 0,0 mm 1,5 km/h (1 Bft) N 355 ° 0 min 0,000 mm 1,2 UV-I 142 W/m² 6,7 °C 9,1 °C 3,2 km/h (1 Bft)
17.09.2017 16:28 9,1 °C 9,2 °C 86 % 1012,8 hPa 0,0 mm 1,9 km/h (1 Bft) NO 34 ° 0 min 0,000 mm 1,2 UV-I 148 W/m² 6,9 °C 9,1 °C 3,2 km/h (1 Bft)
17.09.2017 16:29 9,1 °C 9,1 °C 87 % 1012,8 hPa 0,0 mm 1,8 km/h (1 Bft) NO 51 ° 0 min 0,000 mm 1,2 UV-I 155 W/m² 7,1 °C 9,1 °C 3,2 km/h (1 Bft)
17.09.2017 16:30 9,1 °C 9,1 °C 87 % 1012,8 hPa 0,0 mm 1,7 km/h (1 Bft) NO 51 ° 0 min 0,000 mm 1,3 UV-I 181 W/m² 7,1 °C 9,1 °C 3,2 km/h (1 Bft)
17.09.2017 16:31 9,1 °C 9,1 °C 87 % 1012,8 hPa 0,0 mm 1,0 km/h (0 Bft) NO 51 ° 0 min 0,000 mm 1,3 UV-I 213 W/m² 7,1 °C 9,1 °C 3,2 km/h (1 Bft)
17.09.2017 16:32 9,2 °C 9,2 °C 88 % 1012,8 hPa 0,0 mm 0,1 km/h (0 Bft) NO 51 ° 0 min 0,000 mm 1,4 UV-I 204 W/m² 7,3 °C 9,2 °C 1,6 km/h (1 Bft)
17.09.2017 16:33 9,2 °C 9,2 °C 88 % 1012,8 hPa 0,0 mm 1,4 km/h (1 Bft) O 80 ° 0 min 0,000 mm 1,3 UV-I 211 W/m² 7,3 °C 9,2 °C 1,6 km/h (1 Bft)
17.09.2017 16:34 9,2 °C 9,2 °C 88 % 1012,8 hPa 0,0 mm 0,4 km/h (0 Bft) O 80 ° 0 min 0,000 mm 1,3 UV-I 216 W/m² 7,3 °C 9,2 °C 1,6 km/h (1 Bft)
17.09.2017 16:35 9,1 °C 9,2 °C 87 % 1012,8 hPa 0,0 mm 2,2 km/h (1 Bft) N-NO 28 ° 0 min 0,000 mm 1,3 UV-I 200 W/m² 7,1 °C 9,1 °C 6,4 km/h (2 Bft)
17.09.2017 16:36 9,2 °C 9,2 °C 87 % 1012,8 hPa 0,0 mm 1,6 km/h (1 Bft) O-NO 71 ° 0 min 0,000 mm 1,3 UV-I 195 W/m² 7,2 °C 9,2 °C 4,8 km/h (1 Bft)
17.09.2017 16:37 9,2 °C 9,2 °C 87 % 1012,7 hPa 0,0 mm 1,8 km/h (1 Bft) O-NO 71 ° 0 min 0,000 mm 1,3 UV-I 193 W/m² 7,2 °C 9,2 °C 3,2 km/h (1 Bft)
17.09.2017 16:38 9,3 °C 9,3 °C 88 % 1012,7 hPa 0,0 mm 0,5 km/h (0 Bft) O-NO 70 ° 0 min 0,000 mm 1,3 UV-I 172 W/m² 7,4 °C 9,3 °C 1,6 km/h (1 Bft)
17.09.2017 16:39 9,3 °C 9,3 °C 88 % 1012,7 hPa 0,0 mm 0,5 km/h (0 Bft) O-NO 70 ° 0 min 0,000 mm 1,2 UV-I 165 W/m² 7,4 °C 9,3 °C 1,6 km/h (1 Bft)
17.09.2017 16:40 9,3 °C 9,3 °C 86 % 1012,7 hPa 0,0 mm 0,0 km/h (0 Bft) O-NO 70 ° 0 min 0,000 mm 1,2 UV-I 160 W/m² 7,1 °C 9,3 °C 0,0 km/h (0 Bft)
17.09.2017 16:41 9,3 °C 9,3 °C 86 % 1012,7 hPa 0,0 mm 0,7 km/h (0 Bft) O-NO 70 ° 0 min 0,000 mm 1,2 UV-I 155 W/m² 7,1 °C 9,3 °C 3,2 km/h (1 Bft)
17.09.2017 16:42 9,4 °C 9,4 °C 87 % 1012,8 hPa 0,0 mm 1,1 km/h (1 Bft) O-NO 66 ° 0 min 0,000 mm 1,2 UV-I 151 W/m² 7,3 °C 9,4 °C 3,2 km/h (1 Bft)
17.09.2017 16:43 9,5 °C 9,5 °C 88 % 1012,7 hPa 0,0 mm 1,7 km/h (1 Bft) N-NO 26 ° 0 min 0,000 mm 1,2 UV-I 153 W/m² 7,6 °C 9,5 °C 3,2 km/h (1 Bft)
17.09.2017 16:44 9,5 °C 9,5 °C 87 % 1012,7 hPa 0,0 mm 0,9 km/h (0 Bft) N-NO 26 ° 0 min 0,000 mm 1,2 UV-I 156 W/m² 7,4 °C 9,5 °C 3,2 km/h (1 Bft)
17.09.2017 16:45 9,5 °C 9,5 °C 85 % 1012,7 hPa 0,0 mm 0,9 km/h (0 Bft) N-NO 26 ° 0 min 0,000 mm 1,2 UV-I 160 W/m² 7,1 °C 9,5 °C 1,6 km/h (1 Bft)
17.09.2017 16:46 9,5 °C 9,5 °C 85 % 1012,7 hPa 0,0 mm 3,8 km/h (1 Bft) O 84 ° 0 min 0,000 mm 1,2 UV-I 162 W/m² 7,1 °C 9,5 °C 9,7 km/h (2 Bft)
17.09.2017 16:47 9,5 °C 9,5 °C 84 % 1012,7 hPa 0,0 mm 2,7 km/h (1 Bft) NW 309 ° 0 min 0,000 mm 1,2 UV-I 169 W/m² 6,9 °C 9,5 °C 4,8 km/h (1 Bft)
17.09.2017 16:48 9,6 °C 9,6 °C 85 % 1012,7 hPa 0,0 mm 2,0 km/h (1 Bft) NW 325 ° 0 min 0,000 mm 1,2 UV-I 172 W/m² 7,2 °C 9,6 °C 3,2 km/h (1 Bft)
17.09.2017 16:49 9,7 °C 9,7 °C 85 % 1012,7 hPa 0,0 mm 3,6 km/h (1 Bft) N 355 ° 0 min 0,000 mm 1,2 UV-I 179 W/m² 7,3 °C 9,7 °C 6,4 km/h (2 Bft)
17.09.2017 16:50 9,8 °C 9,8 °C 84 % 1012,7 hPa 0,0 mm 2,8 km/h (1 Bft) N-NW 342 ° 0 min 0,000 mm 1,3 UV-I 171 W/m² 7,2 °C 9,8 °C 4,8 km/h (1 Bft)
17.09.2017 16:51 9,9 °C 9,9 °C 84 % 1012,7 hPa 0,0 mm 1,2 km/h (1 Bft) NO 36 ° 0 min 0,000 mm 1,2 UV-I 165 W/m² 7,3 °C 9,9 °C 3,2 km/h (1 Bft)
17.09.2017 16:52 9,8 °C 9,9 °C 84 % 1012,7 hPa 0,0 mm 2,9 km/h (1 Bft) O-NO 65 ° 0 min 0,000 mm 1,2 UV-I 162 W/m² 7,2 °C 9,8 °C 6,4 km/h (2 Bft)
17.09.2017 16:53 9,8 °C 9,8 °C 82 % 1012,7 hPa 0,0 mm 1,8 km/h (1 Bft) N-NO 23 ° 0 min 0,000 mm 1,2 UV-I 160 W/m² 6,9 °C 9,8 °C 3,2 km/h (1 Bft)
17.09.2017 16:54 9,9 °C 9,9 °C 83 % 1012,7 hPa 0,0 mm 1,7 km/h (1 Bft) N-NO 24 ° 0 min 0,000 mm 1,2 UV-I 156 W/m² 7,2 °C 9,9 °C 3,2 km/h (1 Bft)
17.09.2017 16:55 9,9 °C 10,0 °C 83 % 1012,6 hPa 0,0 mm 2,7 km/h (1 Bft) N 360 ° 0 min 0,000 mm 1,2 UV-I 149 W/m² 7,2 °C 9,9 °C 6,4 km/h (2 Bft)
17.09.2017 16:56 10,1 °C 10,1 °C 83 % 1012,6 hPa 0,0 mm 2,1 km/h (1 Bft) NW 320 ° 0 min 0,000 mm 1,2 UV-I 148 W/m² 7,3 °C 10,1 °C 3,2 km/h (1 Bft)
17.09.2017 16:57 10,3 °C 10,3 °C 83 % 1012,7 hPa 0,0 mm 2,7 km/h (1 Bft) N-NW 331 ° 0 min 0,000 mm 1,2 UV-I 135 W/m² 7,5 °C 10,3 °C 4,8 km/h (1 Bft)
17.09.2017 16:58 10,3 °C 10,3 °C 82 % 1012,6 hPa 0,0 mm 4,0 km/h (1 Bft) W-NW 302 ° 0 min 0,000 mm 1,1 UV-I 128 W/m² 7,4 °C 10,3 °C 4,8 km/h (1 Bft)
17.09.2017 16:59 10,4 °C 10,4 °C 83 % 1012,6 hPa 0,0 mm 1,5 km/h (1 Bft) W-NW 300 ° 0 min 0,000 mm 1,1 UV-I 116 W/m² 7,6 °C 10,4 °C 3,2 km/h (1 Bft)
17.09.2017 17:00 10,5 °C 10,5 °C 82 % 1012,6 hPa 0,0 mm 2,7 km/h (1 Bft) S-SO 153 ° 0 min 0,000 mm 1,1 UV-I 107 W/m² 7,6 °C 10,5 °C 4,8 km/h (1 Bft)
17.09.2017 17:01 10,5 °C 10,6 °C 82 % 1012,6 hPa 0,0 mm 3,7 km/h (1 Bft) W-NW 299 ° 0 min 0,076 mm 1,0 UV-I 86 W/m² 7,6 °C 10,5 °C 6,4 km/h (2 Bft)
17.09.2017 17:02 10,5 °C 10,5 °C 81 % 1012,6 hPa 0,0 mm 2,7 km/h (1 Bft) NW 309 ° 0 min 0,000 mm 1,0 UV-I 77 W/m² 7,4 °C 10,5 °C 4,8 km/h (1 Bft)
17.09.2017 17:03 10,4 °C 10,5 °C 81 % 1012,6 hPa 0,0 mm 4,3 km/h (1 Bft) NO 43 ° 0 min 0,000 mm 1,0 UV-I 70 W/m² 7,3 °C 10,4 °C 4,8 km/h (1 Bft)
17.09.2017 17:04 10,4 °C 10,4 °C 81 % 1012,6 hPa 0,0 mm 0,5 km/h (0 Bft) O-NO 64 ° 0 min 0,000 mm 0,9 UV-I 60 W/m² 7,3 °C 10,4 °C 1,6 km/h (1 Bft)
17.09.2017 17:05 10,4 °C 10,4 °C 81 % 1012,5 hPa 0,0 mm 1,3 km/h (1 Bft) N-NW 341 ° 0 min 0,000 mm 0,0 UV-I 54 W/m² 7,3 °C 10,4 °C 3,2 km/h (1 Bft)
17.09.2017 17:06 10,4 °C 10,4 °C 81 % 1012,6 hPa 0,0 mm 3,5 km/h (1 Bft) S-SO 158 ° 0 min 0,000 mm 0,0 UV-I 49 W/m² 7,3 °C 10,4 °C 4,8 km/h (1 Bft)
17.09.2017 17:07 10,3 °C 10,4 °C 82 % 1012,5 hPa 0,0 mm 0,8 km/h (0 Bft) S-SO 158 ° 0 min 0,000 mm 0,0 UV-I 44 W/m² 7,4 °C 10,3 °C 3,2 km/h (1 Bft)
17.09.2017 17:08 10,3 °C 10,3 °C 81 % 1012,5 hPa 0,0 mm 0,0 km/h (0 Bft) S-SO 158 ° 0 min 0,000 mm 0,0 UV-I 42 W/m² 7,2 °C 10,3 °C 0,0 km/h (0 Bft)
17.09.2017 17:09 10,2 °C 10,3 °C 81 % 1012,5 hPa 0,0 mm 1,3 km/h (1 Bft) S-SO 158 ° 0 min 0,000 mm 0,0 UV-I 42 W/m² 7,1 °C 10,2 °C 3,2 km/h (1 Bft)
17.09.2017 17:10 10,2 °C 10,2 °C 80 % 1012,5 hPa 0,0 mm 2,4 km/h (1 Bft) SO 144 ° 0 min 0,000 mm 0,0 UV-I 46 W/m² 6,9 °C 10,2 °C 4,8 km/h (1 Bft)
17.09.2017 17:11 10,2 °C 10,2 °C 80 % 1012,5 hPa 0,0 mm 0,7 km/h (0 Bft) SO 144 ° 0 min 0,000 mm 0,0 UV-I 42 W/m² 6,9 °C 10,2 °C 1,6 km/h (1 Bft)
17.09.2017 17:12 10,2 °C 10,2 °C 81 % 1012,4 hPa 0,0 mm 0,7 km/h (0 Bft) SO 144 ° 0 min 0,000 mm 0,0 UV-I 49 W/m² 7,1 °C 10,2 °C 3,2 km/h (1 Bft)
17.09.2017 17:13 10,1 °C 10,2 °C 80 % 1012,4 hPa 0,0 mm 1,3 km/h (1 Bft) SO 125 ° 0 min 0,000 mm 0,0 UV-I 40 W/m² 6,8 °C 10,1 °C 3,2 km/h (1 Bft)
17.09.2017 17:14 10,1 °C 10,1 °C 80 % 1012,4 hPa 0,0 mm 0,3 km/h (0 Bft) SO 125 ° 0 min 0,000 mm 0,9 UV-I 65 W/m² 6,8 °C 10,1 °C 1,6 km/h (1 Bft)
17.09.2017 17:15 10,0 °C 10,1 °C 81 % 1012,4 hPa 0,0 mm 0,0 km/h (0 Bft) SO 125 ° 0 min 0,000 mm 0,9 UV-I 63 W/m² 6,9 °C 10,0 °C 0,0 km/h (0 Bft)
17.09.2017 17:16 9,9 °C 10,0 °C 82 % 1012,4 hPa 0,0 mm 0,7 km/h (0 Bft) O-SO 119 ° 0 min 0,000 mm 0,9 UV-I 77 W/m² 7,0 °C 9,9 °C 3,2 km/h (1 Bft)
17.09.2017 17:17 9,9 °C 9,9 °C 82 % 1012,4 hPa 0,0 mm 0,1 km/h (0 Bft) O-SO 119 ° 0 min 0,000 mm 0,9 UV-I 160 W/m² 7,0 °C 9,9 °C 1,6 km/h (1 Bft)
17.09.2017 17:18 9,8 °C 9,9 °C 81 % 1012,4 hPa 0,0 mm 0,3 km/h (0 Bft) O-SO 119 ° 0 min 0,000 mm 1,0 UV-I 223 W/m² 6,7 °C 9,8 °C 1,6 km/h (1 Bft)
17.09.2017 17:19 9,8 °C 9,8 °C 83 % 1012,5 hPa 0,0 mm 0,2 km/h (0 Bft) O-SO 119 ° 0 min 0,000 mm 1,1 UV-I 220 W/m² 7,1 °C 9,8 °C 1,6 km/h (1 Bft)
17.09.2017 17:20 9,8 °C 9,8 °C 84 % 1012,4 hPa 0,0 mm 0,0 km/h (0 Bft) O-SO 119 ° 0 min 0,000 mm 1,0 UV-I 125 W/m² 7,2 °C 9,8 °C 0,0 km/h (0 Bft)
17.09.2017 17:21 9,7 °C 9,8 °C 83 % 1012,4 hPa 0,0 mm 0,1 km/h (0 Bft) O-SO 119 ° 0 min 0,000 mm 0,9 UV-I 83 W/m² 7,0 °C 9,7 °C 1,6 km/h (1 Bft)
17.09.2017 17:22 9,7 °C 9,8 °C 81 % 1012,4 hPa 0,0 mm 0,2 km/h (0 Bft) O-SO 119 ° 0 min 0,000 mm 0,0 UV-I 46 W/m² 6,6 °C 9,7 °C 1,6 km/h (1 Bft)
17.09.2017 17:23 9,8 °C 9,8 °C 81 % 1012,4 hPa 0,0 mm 3,1 km/h (1 Bft) O 85 ° 0 min 0,000 mm 0,8 UV-I 62 W/m² 6,7 °C 9,8 °C 6,4 km/h (2 Bft)
17.09.2017 17:24 9,8 °C 9,8 °C 82 % 1012,3 hPa 0,0 mm 1,4 km/h (1 Bft) O 98 ° 0 min 0,000 mm 0,8 UV-I 46 W/m² 6,9 °C 9,8 °C 3,2 km/h (1 Bft)
17.09.2017 17:25 9,8 °C 9,8 °C 83 % 1012,3 hPa 0,0 mm 0,0 km/h (0 Bft) O 98 ° 0 min 0,000 mm 0,0 UV-I 42 W/m² 7,1 °C 9,8 °C 0,0 km/h (0 Bft)
17.09.2017 17:26 9,8 °C 9,8 °C 83 % 1012,4 hPa 0,0 mm 0,0 km/h (0 Bft) O 98 ° 0 min 0,000 mm 0,0 UV-I 49 W/m² 7,1 °C 9,8 °C 0,0 km/h (0 Bft)
17.09.2017 17:27 9,7 °C 9,8 °C 83 % 1012,4 hPa 0,0 mm 0,2 km/h (0 Bft) O 98 ° 0 min 0,000 mm 0,0 UV-I 54 W/m² 7,0 °C 9,7 °C 1,6 km/h (1 Bft)
17.09.2017 17:28 9,7 °C 9,7 °C 83 % 1012,3 hPa 0,0 mm 0,0 km/h (0 Bft) O 98 ° 0 min 0,000 mm 0,0 UV-I 44 W/m² 7,0 °C 9,7 °C 0,0 km/h (0 Bft)
17.09.2017 17:29 9,6 °C 9,7 °C 83 % 1012,4 hPa 0,0 mm 1,0 km/h (0 Bft) O 98 ° 0 min 0,000 mm 0,0 UV-I 33 W/m² 6,9 °C 9,6 °C 1,6 km/h (1 Bft)
17.09.2017 17:30 9,6 °C 9,6 °C 84 % 1012,4 hPa 0,0 mm 0,0 km/h (0 Bft) O 98 ° 0 min 0,000 mm 0,0 UV-I 33 W/m² 7,0 °C 9,6 °C 0,0 km/h (0 Bft)
17.09.2017 17:31 9,6 °C 9,6 °C 83 % 1012,4 hPa 0,0 mm 0,0 km/h (0 Bft) O 98 ° 0 min 0,000 mm 0,0 UV-I 35 W/m² 6,9 °C 9,6 °C 0,0 km/h (0 Bft)
17.09.2017 17:32 9,5 °C 9,6 °C 84 % 1012,4 hPa 0,0 mm 0,1 km/h (0 Bft) O 98 ° 0 min 0,000 mm 0,0 UV-I 33 W/m² 6,9 °C 9,5 °C 1,6 km/h (1 Bft)
17.09.2017 17:33 9,6 °C 9,6 °C 83 % 1012,3 hPa 0,0 mm 0,0 km/h (0 Bft) O 98 ° 0 min 0,000 mm 0,0 UV-I 33 W/m² 6,9 °C 9,6 °C 0,0 km/h (0 Bft)
17.09.2017 17:34 9,5 °C 9,6 °C 83 % 1012,4 hPa 0,0 mm 0,0 km/h (0 Bft) O 98 ° 0 min 0,000 mm 0,0 UV-I 32 W/m² 6,8 °C 9,5 °C 0,0 km/h (0 Bft)
17.09.2017 17:35 9,6 °C 9,6 °C 83 % 1012,4 hPa 0,0 mm 0,0 km/h (0 Bft) O 98 ° 0 min 0,000 mm 0,0 UV-I 32 W/m² 6,9 °C 9,6 °C 0,0 km/h (0 Bft)
17.09.2017 17:36 9,5 °C 9,6 °C 84 % 1012,4 hPa 0,0 mm 0,0 km/h (0 Bft) O 98 ° 0 min 0,000 mm 0,0 UV-I 32 W/m² 6,9 °C 9,5 °C 0,0 km/h (0 Bft)
17.09.2017 17:37 9,4 °C 9,5 °C 84 % 1012,3 hPa 0,0 mm 0,0 km/h (0 Bft) O 98 ° 0 min 0,000 mm 0,0 UV-I 32 W/m² 6,8 °C 9,4 °C 0,0 km/h (0 Bft)
17.09.2017 17:38 9,4 °C 9,4 °C 83 % 1012,3 hPa 0,0 mm 1,9 km/h (1 Bft) O 98 ° 0 min 0,000 mm 0,0 UV-I 32 W/m² 6,7 °C 9,4 °C 3,2 km/h (1 Bft)
17.09.2017 17:39 9,4 °C 9,4 °C 83 % 1012,3 hPa 0,0 mm 0,8 km/h (0 Bft) O 98 ° 0 min 0,000 mm 0,0 UV-I 32 W/m² 6,7 °C 9,4 °C 1,6 km/h (1 Bft)
17.09.2017 17:40 9,4 °C 9,4 °C 83 % 1012,3 hPa 0,0 mm 1,2 km/h (1 Bft) O 98 ° 0 min 0,000 mm 0,0 UV-I 32 W/m² 6,7 °C 9,4 °C 3,2 km/h (1 Bft)
17.09.2017 17:41 9,4 °C 9,4 °C 83 % 1012,3 hPa 0,0 mm 0,5 km/h (0 Bft) O 98 ° 0 min 0,000 mm 0,0 UV-I 32 W/m² 6,7 °C 9,4 °C 1,6 km/h (1 Bft)
17.09.2017 17:42 9,4 °C 9,4 °C 83 % 1012,3 hPa 0,0 mm 1,9 km/h (1 Bft) O-NO 69 ° 0 min 0,000 mm 0,0 UV-I 30 W/m² 6,7 °C 9,4 °C 4,8 km/h (1 Bft)
17.09.2017 17:43 9,4 °C 9,4 °C 81 % 1012,4 hPa 0,0 mm 1,5 km/h (1 Bft) O-NO 69 ° 0 min 0,000 mm 0,0 UV-I 30 W/m² 6,3 °C 9,4 °C 3,2 km/h (1 Bft)
17.09.2017 17:44 9,4 °C 9,4 °C 83 % 1012,4 hPa 0,0 mm 3,7 km/h (1 Bft) O-SO 102 ° 0 min 0,000 mm 0,0 UV-I 30 W/m² 6,7 °C 9,4 °C 8,0 km/h (2 Bft)
17.09.2017 17:45 9,4 °C 9,4 °C 83 % 1012,4 hPa 0,0 mm 3,3 km/h (1 Bft) SO 142 ° 0 min 0,000 mm 0,0 UV-I 30 W/m² 6,7 °C 9,4 °C 6,4 km/h (2 Bft)
17.09.2017 17:46 9,3 °C 9,4 °C 84 % 1012,4 hPa 0,0 mm 1,6 km/h (1 Bft) O-SO 122 ° 0 min 0,000 mm 0,0 UV-I 30 W/m² 6,7 °C 9,3 °C 3,2 km/h (1 Bft)
17.09.2017 17:47 9,3 °C 9,3 °C 84 % 1012,5 hPa 0,0 mm 1,1 km/h (1 Bft) O-SO 122 ° 0 min 0,000 mm 0,0 UV-I 30 W/m² 6,7 °C 9,3 °C 3,2 km/h (1 Bft)
17.09.2017 17:48 9,2 °C 9,3 °C 84 % 1012,4 hPa 0,0 mm 0,1 km/h (0 Bft) O-SO 122 ° 0 min 0,000 mm 0,0 UV-I 28 W/m² 6,6 °C 9,2 °C 1,6 km/h (1 Bft)
17.09.2017 17:49 9,2 °C 9,2 °C 84 % 1012,5 hPa 0,0 mm 3,8 km/h (1 Bft) O 82 ° 0 min 0,000 mm 0,0 UV-I 28 W/m² 6,6 °C 9,2 °C 4,8 km/h (1 Bft)
17.09.2017 17:50 9,2 °C 9,2 °C 84 % 1012,4 hPa 0,0 mm 1,5 km/h (1 Bft) O 82 ° 0 min 0,000 mm 0,0 UV-I 28 W/m² 6,6 °C 9,2 °C 3,2 km/h (1 Bft)
17.09.2017 17:51 9,2 °C 9,2 °C 84 % 1012,4 hPa 0,0 mm 0,2 km/h (0 Bft) O 82 ° 0 min 0,000 mm 0,0 UV-I 28 W/m² 6,6 °C 9,2 °C 1,6 km/h (1 Bft)
17.09.2017 17:52 9,2 °C 9,2 °C 83 % 1012,4 hPa 0,0 mm 0,1 km/h (0 Bft) O 82 ° 0 min 0,000 mm 0,0 UV-I 28 W/m² 6,5 °C 9,2 °C 1,6 km/h (1 Bft)
17.09.2017 17:53 9,2 °C 9,2 °C 84 % 1012,5 hPa 0,0 mm 0,0 km/h (0 Bft) O 82 ° 0 min 0,000 mm 0,0 UV-I 28 W/m² 6,6 °C 9,2 °C 0,0 km/h (0 Bft)
17.09.2017 17:54 9,1 °C 9,2 °C 84 % 1012,5 hPa 0,0 mm 0,1 km/h (0 Bft) O 82 ° 0 min 0,000 mm 0,0 UV-I 28 W/m² 6,5 °C 9,1 °C 1,6 km/h (1 Bft)
17.09.2017 17:55 9,0 °C 9,1 °C 84 % 1012,4 hPa 0,0 mm 1,2 km/h (1 Bft) O 82 ° 0 min 0,000 mm 0,0 UV-I 26 W/m² 6,4 °C 9,0 °C 1,6 km/h (1 Bft)
17.09.2017 17:56 9,0 °C 9,1 °C 84 % 1012,4 hPa 0,0 mm 0,0 km/h (0 Bft) O 82 ° 0 min 0,000 mm 0,0 UV-I 28 W/m² 6,4 °C 9,0 °C 0,0 km/h (0 Bft)
17.09.2017 17:57 9,0 °C 9,0 °C 84 % 1012,5 hPa 0,0 mm 0,0 km/h (0 Bft) O 82 ° 0 min 0,000 mm 0,0 UV-I 26 W/m² 6,4 °C 9,0 °C 0,0 km/h (0 Bft)
17.09.2017 17:58 9,0 °C 9,0 °C 84 % 1012,5 hPa 0,0 mm 0,4 km/h (0 Bft) O 82 ° 0 min 0,000 mm 0,0 UV-I 23 W/m² 6,4 °C 9,0 °C 1,6 km/h (1 Bft)
17.09.2017 17:59 8,9 °C 9,0 °C 83 % 1012,5 hPa 0,0 mm 0,6 km/h (0 Bft) O 82 ° 0 min 0,000 mm 0,0 UV-I 23 W/m² 6,2 °C 8,9 °C 1,6 km/h (1 Bft)
17.09.2017 18:00 8,9 °C 8,9 °C 83 % 1012,5 hPa 0,0 mm 1,0 km/h (0 Bft) O 84 ° 0 min 0,025 mm 0,0 UV-I 26 W/m² 6,2 °C 8,9 °C 3,2 km/h (1 Bft)
17.09.2017 18:01 9,0 °C 9,0 °C 83 % 1012,5 hPa 0,0 mm 1,1 km/h (1 Bft) O-NO 78 ° 0 min 0,000 mm 0,0 UV-I 26 W/m² 6,3 °C 9,0 °C 3,2 km/h (1 Bft)
17.09.2017 18:02 8,9 °C 9,0 °C 82 % 1012,5 hPa 0,0 mm 0,9 km/h (0 Bft) O-NO 78 ° 0 min 0,000 mm 0,0 UV-I 26 W/m² 6,0 °C 8,9 °C 3,2 km/h (1 Bft)
17.09.2017 18:03 8,9 °C 9,0 °C 84 % 1012,5 hPa 0,0 mm 0,5 km/h (0 Bft) O-NO 78 ° 0 min 0,000 mm 0,0 UV-I 26 W/m² 6,3 °C 8,9 °C 3,2 km/h (1 Bft)
17.09.2017 18:04 8,9 °C 9,0 °C 84 % 1012,5 hPa 0,0 mm 0,0 km/h (0 Bft) O-NO 78 ° 0 min 0,000 mm 0,0 UV-I 26 W/m² 6,3 °C 8,9 °C 0,0 km/h (0 Bft)
17.09.2017 18:05 8,9 °C 8,9 °C 85 % 1012,4 hPa 0,0 mm 0,0 km/h (0 Bft) O-NO 78 ° 0 min 0,000 mm 0,0 UV-I 25 W/m² 6,5 °C 8,9 °C 0,0 km/h (0 Bft)
17.09.2017 18:06 8,8 °C 8,9 °C 84 % 1012,4 hPa 0,0 mm 0,0 km/h (0 Bft) O-NO 78 ° 0 min 0,000 mm 0,0 UV-I 25 W/m² 6,2 °C 8,8 °C 0,0 km/h (0 Bft)
17.09.2017 18:07 8,7 °C 8,8 °C 84 % 1012,4 hPa 0,0 mm 0,0 km/h (0 Bft) O-NO 78 ° 0 min 0,000 mm 0,0 UV-I 25 W/m² 6,2 °C 8,7 °C 0,0 km/h (0 Bft)
17.09.2017 18:08 8,7 °C 8,7 °C 85 % 1012,5 hPa 0,0 mm 0,0 km/h (0 Bft) O-NO 78 ° 0 min 0,000 mm 0,0 UV-I 25 W/m² 6,3 °C 8,7 °C 0,0 km/h (0 Bft)
17.09.2017 18:09 8,7 °C 8,7 °C 84 % 1012,4 hPa 0,0 mm 0,5 km/h (0 Bft) O-NO 78 ° 0 min 0,000 mm 0,0 UV-I 25 W/m² 6,2 °C 8,7 °C 1,6 km/h (1 Bft)
17.09.2017 18:10 8,7 °C 8,7 °C 84 % 1012,5 hPa 0,0 mm 0,0 km/h (0 Bft) O-NO 78 ° 0 min 0,000 mm 0,0 UV-I 25 W/m² 6,2 °C 8,7 °C 0,0 km/h (0 Bft)
17.09.2017 18:11 8,8 °C 8,8 °C 85 % 1012,5 hPa 0,0 mm 1,2 km/h (1 Bft) O-NO 78 ° 0 min 0,000 mm 0,0 UV-I 23 W/m² 6,4 °C 8,8 °C 3,2 km/h (1 Bft)
17.09.2017 18:12 8,7 °C 8,8 °C 84 % 1012,5 hPa 0,0 mm 0,1 km/h (0 Bft) O-NO 78 ° 0 min 0,000 mm 0,0 UV-I 23 W/m² 6,2 °C 8,7 °C 1,6 km/h (1 Bft)
17.09.2017 18:13 8,7 °C 8,7 °C 85 % 1012,4 hPa 0,0 mm 0,0 km/h (0 Bft) O-NO 78 ° 0 min 0,000 mm 0,0 UV-I 23 W/m² 6,3 °C 8,7 °C 0,0 km/h (0 Bft)
17.09.2017 18:14 8,7 °C 8,7 °C 84 % 1012,4 hPa 0,0 mm 0,0 km/h (0 Bft) O-NO 78 ° 0 min 0,000 mm 0,0 UV-I 23 W/m² 6,2 °C 8,7 °C 0,0 km/h (0 Bft)
17.09.2017 18:15 8,6 °C 8,7 °C 84 % 1012,4 hPa 0,0 mm 0,0 km/h (0 Bft) O-NO 78 ° 0 min 0,000 mm 0,0 UV-I 23 W/m² 6,1 °C 8,6 °C 0,0 km/h (0 Bft)
17.09.2017 18:16 8,6 °C 8,6 °C 85 % 1012,4 hPa 0,0 mm 0,0 km/h (0 Bft) O-NO 78 ° 0 min 0,000 mm 0,0 UV-I 23 W/m² 6,2 °C 8,6 °C 0,0 km/h (0 Bft)
17.09.2017 18:17 8,6 °C 8,6 °C 85 % 1012,4 hPa 0,0 mm 0,5 km/h (0 Bft) O-NO 78 ° 0 min 0,000 mm 0,0 UV-I 21 W/m² 6,2 °C 8,6 °C 1,6 km/h (1 Bft)
17.09.2017 18:18 8,6 °C 8,6 °C 85 % 1012,4 hPa 0,0 mm 0,5 km/h (0 Bft) O-NO 78 ° 0 min 0,000 mm 0,0 UV-I 21 W/m² 6,2 °C 8,6 °C 1,6 km/h (1 Bft)
17.09.2017 18:19 8,6 °C 8,6 °C 85 % 1012,4 hPa 0,0 mm 0,4 km/h (0 Bft) O-NO 78 ° 0 min 0,000 mm 0,0 UV-I 19 W/m² 6,2 °C 8,6 °C 1,6 km/h (1 Bft)
17.09.2017 18:20 8,5 °C 8,6 °C 85 % 1012,4 hPa 0,0 mm 0,0 km/h (0 Bft) O-NO 78 ° 0 min 0,000 mm 0,0 UV-I 19 W/m² 6,1 °C 8,5 °C 0,0 km/h (0 Bft)
17.09.2017 18:21 8,4 °C 8,5 °C 86 % 1012,4 hPa 0,0 mm 0,3 km/h (0 Bft) O-NO 78 ° 0 min 0,000 mm 0,0 UV-I 19 W/m² 6,2 °C 8,4 °C 1,6 km/h (1 Bft)
17.09.2017 18:22 8,4 °C 8,4 °C 86 % 1012,4 hPa 0,0 mm 0,7 km/h (0 Bft) O-NO 78 ° 0 min 0,000 mm 0,0 UV-I 19 W/m² 6,2 °C 8,4 °C 3,2 km/h (1 Bft)
17.09.2017 18:23 8,4 °C 8,4 °C 86 % 1012,4 hPa 0,0 mm 0,2 km/h (0 Bft) O-NO 78 ° 0 min 0,000 mm 0,0 UV-I 19 W/m² 6,2 °C 8,4 °C 1,6 km/h (1 Bft)
17.09.2017 18:24 8,3 °C 8,4 °C 85 % 1012,5 hPa 0,0 mm 0,0 km/h (0 Bft) O-NO 78 ° 0 min 0,000 mm 0,0 UV-I 19 W/m² 5,9 °C 8,3 °C 0,0 km/h (0 Bft)
17.09.2017 18:25 8,3 °C 8,3 °C 85 % 1012,4 hPa 0,0 mm 0,0 km/h (0 Bft) O-NO 78 ° 0 min 0,000 mm 0,0 UV-I 19 W/m² 5,9 °C 8,3 °C 0,0 km/h (0 Bft)
17.09.2017 18:26 8,3 °C 8,3 °C 86 % 1012,4 hPa 0,0 mm 0,1 km/h (0 Bft) O-NO 78 ° 0 min 0,000 mm 0,0 UV-I 19 W/m² 6,1 °C 8,3 °C 1,6 km/h (1 Bft)
17.09.2017 18:27 8,3 °C 8,3 °C 86 % 1012,4 hPa 0,0 mm 1,3 km/h (1 Bft) NO 46 ° 0 min 0,000 mm 0,0 UV-I 19 W/m² 6,1 °C 8,3 °C 3,2 km/h (1 Bft)
17.09.2017 18:28 8,2 °C 8,3 °C 86 % 1012,5 hPa 0,0 mm 1,8 km/h (1 Bft) NO 46 ° 0 min 0,000 mm 0,0 UV-I 19 W/m² 6,0 °C 8,2 °C 3,2 km/h (1 Bft)
17.09.2017 18:29 8,2 °C 8,3 °C 86 % 1012,5 hPa 0,0 mm 1,4 km/h (1 Bft) NO 46 ° 0 min 0,000 mm 0,0 UV-I 21 W/m² 6,0 °C 8,2 °C 3,2 km/h (1 Bft)
17.09.2017 18:30 8,2 °C 8,2 °C 87 % 1012,5 hPa 0,0 mm 0,3 km/h (0 Bft) NO 46 ° 0 min 0,000 mm 0,0 UV-I 21 W/m² 6,2 °C 8,2 °C 1,6 km/h (1 Bft)
17.09.2017 18:31 8,2 °C 8,2 °C 87 % 1012,4 hPa 0,0 mm 0,9 km/h (0 Bft) NO 46 ° 0 min 0,000 mm 0,0 UV-I 21 W/m² 6,2 °C 8,2 °C 1,6 km/h (1 Bft)
17.09.2017 18:32 8,2 °C 8,2 °C 87 % 1012,5 hPa 0,0 mm 1,9 km/h (1 Bft) NO 46 ° 0 min 0,000 mm 0,0 UV-I 21 W/m² 6,2 °C 8,2 °C 3,2 km/h (1 Bft)
17.09.2017 18:33 8,2 °C 8,2 °C 88 % 1012,5 hPa 0,0 mm 2,0 km/h (1 Bft) NO 46 ° 0 min 0,000 mm 0,0 UV-I 21 W/m² 6,3 °C 8,2 °C 3,2 km/h (1 Bft)
17.09.2017 18:34 8,2 °C 8,2 °C 87 % 1012,5 hPa 0,0 mm 1,4 km/h (1 Bft) NO 46 ° 0 min 0,000 mm 0,0 UV-I 21 W/m² 6,2 °C 8,2 °C 3,2 km/h (1 Bft)
17.09.2017 18:35 8,2 °C 8,2 °C 87 % 1012,5 hPa 0,0 mm 0,6 km/h (0 Bft) NO 46 ° 0 min 0,000 mm 0,0 UV-I 21 W/m² 6,2 °C 8,2 °C 3,2 km/h (1 Bft)
17.09.2017 18:36 8,1 °C 8,2 °C 87 % 1012,5 hPa 0,0 mm 0,0 km/h (0 Bft) NO 46 ° 0 min 0,000 mm 0,0 UV-I 21 W/m² 6,1 °C 8,1 °C 0,0 km/h (0 Bft)
17.09.2017 18:37 8,1 °C 8,2 °C 86 % 1012,6 hPa 0,0 mm 0,0 km/h (0 Bft) NO 46 ° 0 min 0,000 mm 0,0 UV-I 19 W/m² 5,9 °C 8,1 °C 0,0 km/h (0 Bft)
17.09.2017 18:38 8,1 °C 8,1 °C 86 % 1012,6 hPa 0,0 mm 0,0 km/h (0 Bft) NO 46 ° 0 min 0,000 mm 0,0 UV-I 19 W/m² 5,9 °C 8,1 °C 0,0 km/h (0 Bft)
17.09.2017 18:39 8,1 °C 8,2 °C 86 % 1012,6 hPa 0,0 mm 0,0 km/h (0 Bft) NO 46 ° 0 min 0,000 mm 0,0 UV-I 19 W/m² 5,9 °C 8,1 °C 0,0 km/h (0 Bft)
17.09.2017 18:40 8,1 °C 8,1 °C 87 % 1012,6 hPa 0,0 mm 0,0 km/h (0 Bft) NO 46 ° 0 min 0,000 mm 0,0 UV-I 19 W/m² 6,1 °C 8,1 °C 0,0 km/h (0 Bft)
17.09.2017 18:41 8,1 °C 8,1 °C 87 % 1012,6 hPa 0,0 mm 0,0 km/h (0 Bft) NO 46 ° 0 min 0,000 mm 0,0 UV-I 19 W/m² 6,1 °C 8,1 °C 0,0 km/h (0 Bft)
17.09.2017 18:42 8,0 °C 8,1 °C 87 % 1012,6 hPa 0,0 mm 0,1 km/h (0 Bft) NO 46 ° 0 min 0,000 mm 0,0 UV-I 21 W/m² 6,0 °C 8,0 °C 1,6 km/h (1 Bft)
17.09.2017 18:43 7,9 °C 8,0 °C 87 % 1012,6 hPa 0,0 mm 0,0 km/h (0 Bft) NO 46 ° 0 min 0,000 mm 0,0 UV-I 21 W/m² 5,9 °C 7,9 °C 0,0 km/h (0 Bft)
17.09.2017 18:44 7,9 °C 7,9 °C 87 % 1012,6 hPa 0,0 mm 0,0 km/h (0 Bft) NO 46 ° 0 min 0,000 mm 0,0 UV-I 21 W/m² 5,9 °C 7,9 °C 0,0 km/h (0 Bft)
17.09.2017 18:45 7,8 °C 7,9 °C 87 % 1012,6 hPa 0,0 mm 0,0 km/h (0 Bft) NO 46 ° 0 min 0,000 mm 0,0 UV-I 21 W/m² 5,8 °C 7,8 °C 0,0 km/h (0 Bft)
17.09.2017 18:46 7,8 °C 7,8 °C 88 % 1012,6 hPa 0,0 mm 0,0 km/h (0 Bft) NO 46 ° 0 min 0,000 mm 0,0 UV-I 19 W/m² 5,9 °C 7,8 °C 0,0 km/h (0 Bft)
17.09.2017 18:47 7,8 °C 7,8 °C 88 % 1012,7 hPa 0,0 mm 0,0 km/h (0 Bft) NO 46 ° 0 min 0,000 mm 0,0 UV-I 19 W/m² 5,9 °C 7,8 °C 0,0 km/h (0 Bft)
17.09.2017 18:48 7,8 °C 7,8 °C 88 % 1012,6 hPa 0,0 mm 0,0 km/h (0 Bft) NO 46 ° 0 min 0,000 mm 0,0 UV-I 19 W/m² 5,9 °C 7,8 °C 0,0 km/h (0 Bft)
17.09.2017 18:49 7,8 °C 7,8 °C 88 % 1012,6 hPa 0,0 mm 0,0 km/h (0 Bft) NO 46 ° 0 min 0,000 mm 0,0 UV-I 19 W/m² 5,9 °C 7,8 °C 0,0 km/h (0 Bft)
17.09.2017 18:50 7,7 °C 7,8 °C 88 % 1012,7 hPa 0,0 mm 0,0 km/h (0 Bft) NO 46 ° 0 min 0,000 mm 0,0 UV-I 19 W/m² 5,8 °C 7,7 °C 0,0 km/h (0 Bft)
17.09.2017 18:51 7,6 °C 7,7 °C 88 % 1012,6 hPa 0,0 mm 0,0 km/h (0 Bft) NO 46 ° 0 min 0,000 mm 0,0 UV-I 19 W/m² 5,7 °C 7,6 °C 0,0 km/h (0 Bft)
17.09.2017 18:52 7,5 °C 7,6 °C 88 % 1012,7 hPa 0,0 mm 0,0 km/h (0 Bft) NO 46 ° 0 min 0,000 mm 0,0 UV-I 18 W/m² 5,6 °C 7,5 °C 0,0 km/h (0 Bft)
17.09.2017 18:53 7,5 °C 7,5 °C 88 % 1012,6 hPa 0,0 mm 0,0 km/h (0 Bft) NO 46 ° 0 min 0,000 mm 0,0 UV-I 18 W/m² 5,6 °C 7,5 °C 0,0 km/h (0 Bft)
17.09.2017 18:54 7,4 °C 7,5 °C 88 % 1012,6 hPa 0,0 mm 0,0 km/h (0 Bft) NO 46 ° 0 min 0,000 mm 0,0 UV-I 18 W/m² 5,5 °C 7,4 °C 0,0 km/h (0 Bft)
17.09.2017 18:55 7,4 °C 7,4 °C 88 % 1012,7 hPa 0,0 mm 0,0 km/h (0 Bft) NO 46 ° 0 min 0,000 mm 0,0 UV-I 18 W/m² 5,5 °C 7,4 °C 0,0 km/h (0 Bft)
17.09.2017 18:56 7,4 °C 7,4 °C 88 % 1012,7 hPa 0,0 mm 0,0 km/h (0 Bft) NO 46 ° 0 min 0,000 mm 0,0 UV-I 18 W/m² 5,5 °C 7,4 °C 0,0 km/h (0 Bft)
17.09.2017 18:57 7,4 °C 7,4 °C 89 % 1012,7 hPa 0,0 mm 0,0 km/h (0 Bft) NO 46 ° 0 min 0,000 mm 0,0 UV-I 18 W/m² 5,7 °C 7,4 °C 0,0 km/h (0 Bft)
17.09.2017 18:58 7,3 °C 7,4 °C 89 % 1012,7 hPa 0,0 mm 0,0 km/h (0 Bft) NO 46 ° 0 min 0,000 mm 0,0 UV-I 18 W/m² 5,6 °C 7,3 °C 0,0 km/h (0 Bft)
17.09.2017 18:59 7,3 °C 7,3 °C 89 % 1012,8 hPa 0,0 mm 0,0 km/h (0 Bft) NO 46 ° 0 min 0,000 mm 0,0 UV-I 16 W/m² 5,6 °C 7,3 °C 0,0 km/h (0 Bft)
17.09.2017 19:00 7,3 °C 7,3 °C 89 % 1012,8 hPa 0,0 mm 0,0 km/h (0 Bft) NO 46 ° 0 min 0,000 mm 0,0 UV-I 16 W/m² 5,6 °C 7,3 °C 0,0 km/h (0 Bft)
17.09.2017 19:01 7,3 °C 7,3 °C 89 % 1012,8 hPa 0,0 mm 0,0 km/h (0 Bft) NO 46 ° 0 min 0,000 mm 0,0 UV-I 16 W/m² 5,6 °C 7,3 °C 0,0 km/h (0 Bft)
17.09.2017 19:02 7,2 °C 7,3 °C 89 % 1012,9 hPa 0,0 mm 0,0 km/h (0 Bft) NO 46 ° 0 min 0,000 mm 0,0 UV-I 16 W/m² 5,5 °C 7,2 °C 0,0 km/h (0 Bft)
17.09.2017 19:03 7,2 °C 7,2 °C 89 % 1012,8 hPa 0,0 mm 0,0 km/h (0 Bft) NO 46 ° 0 min 0,000 mm 0,0 UV-I 16 W/m² 5,5 °C 7,2 °C 0,0 km/h (0 Bft)
17.09.2017 19:04 7,2 °C 7,2 °C 89 % 1012,9 hPa 0,0 mm 0,0 km/h (0 Bft) NO 46 ° 0 min 0,000 mm 0,0 UV-I 16 W/m² 5,5 °C 7,2 °C 0,0 km/h (0 Bft)
17.09.2017 19:05 7,2 °C 7,3 °C 89 % 1012,8 hPa 0,0 mm 0,0 km/h (0 Bft) NO 46 ° 0 min 0,000 mm 0,0 UV-I 14 W/m² 5,5 °C 7,2 °C 0,0 km/h (0 Bft)
17.09.2017 19:06 7,2 °C 7,3 °C 89 % 1012,9 hPa 0,0 mm 0,0 km/h (0 Bft) NO 46 ° 0 min 0,000 mm 0,0 UV-I 14 W/m² 5,5 °C 7,2 °C 0,0 km/h (0 Bft)
17.09.2017 19:07 7,2 °C 7,2 °C 89 % 1012,8 hPa 0,0 mm 0,0 km/h (0 Bft) NO 46 ° 0 min 0,000 mm 0,0 UV-I 14 W/m² 5,5 °C 7,2 °C 0,0 km/h (0 Bft)
17.09.2017 19:08 7,2 °C 7,2 °C 90 % 1012,8 hPa 0,0 mm 0,0 km/h (0 Bft) NO 46 ° 0 min 0,000 mm 0,0 UV-I 12 W/m² 5,7 °C 7,2 °C 0,0 km/h (0 Bft)
17.09.2017 19:09 7,2 °C 7,2 °C 89 % 1012,8 hPa 0,0 mm 0,0 km/h (0 Bft) NO 46 ° 0 min 0,000 mm 0,0 UV-I 12 W/m² 5,5 °C 7,2 °C 0,0 km/h (0 Bft)
17.09.2017 19:10 7,2 °C 7,2 °C 89 % 1012,8 hPa 0,0 mm 0,0 km/h (0 Bft) NO 46 ° 0 min 0,000 mm 0,0 UV-I 11 W/m² 5,5 °C 7,2 °C 0,0 km/h (0 Bft)
17.09.2017 19:11 7,2 °C 7,2 °C 89 % 1012,8 hPa 0,0 mm 0,0 km/h (0 Bft) NO 46 ° 0 min 0,000 mm 0,0 UV-I 11 W/m² 5,5 °C 7,2 °C 0,0 km/h (0 Bft)
17.09.2017 19:12 7,2 °C 7,2 °C 89 % 1012,9 hPa 0,0 mm 0,0 km/h (0 Bft) NO 46 ° 0 min 0,000 mm 0,0 UV-I 9 W/m² 5,5 °C 7,2 °C 0,0 km/h (0 Bft)
17.09.2017 19:13 7,1 °C 7,2 °C 89 % 1012,8 hPa 0,0 mm 0,0 km/h (0 Bft) NO 46 ° 0 min 0,000 mm 0,0 UV-I 9 W/m² 5,4 °C 7,1 °C 0,0 km/h (0 Bft)
17.09.2017 19:14 7,1 °C 7,1 °C 90 % 1012,8 hPa 0,0 mm 0,0 km/h (0 Bft) NO 46 ° 0 min 0,000 mm 0,0 UV-I 7 W/m² 5,6 °C 7,1 °C 0,0 km/h (0 Bft)
17.09.2017 19:15 7,1 °C 7,1 °C 90 % 1012,9 hPa 0,0 mm 0,0 km/h (0 Bft) NO 46 ° 0 min 0,000 mm 0,0 UV-I 5 W/m² 5,6 °C 7,1 °C 0,0 km/h (0 Bft)
17.09.2017 19:16 7,1 °C 7,1 °C 90 % 1012,9 hPa 0,0 mm 0,3 km/h (0 Bft) NO 46 ° 0 min 0,000 mm 0,0 UV-I 5 W/m² 5,6 °C 7,1 °C 1,6 km/h (1 Bft)
17.09.2017 19:17 7,1 °C 7,1 °C 90 % 1012,9 hPa 0,0 mm 0,0 km/h (0 Bft) NO 46 ° 0 min 0,000 mm 0,0 UV-I 5 W/m² 5,6 °C 7,1 °C 0,0 km/h (0 Bft)
17.09.2017 19:18 7,1 °C 7,1 °C 90 % 1012,9 hPa 0,0 mm 0,0 km/h (0 Bft) NO 46 ° 0 min 0,000 mm 0,0 UV-I 5 W/m² 5,6 °C 7,1 °C 0,0 km/h (0 Bft)
17.09.2017 19:19 7,1 °C 7,1 °C 90 % 1012,9 hPa 0,0 mm 0,0 km/h (0 Bft) NO 46 ° 0 min 0,000 mm 0,0 UV-I 0 W/m² 5,6 °C 7,1 °C 0,0 km/h (0 Bft)
17.09.2017 19:20 7,1 °C 7,1 °C 90 % 1013,0 hPa 0,0 mm 0,0 km/h (0 Bft) NO 46 ° 0 min 0,000 mm 0,0 UV-I 0 W/m² 5,6 °C 7,1 °C 0,0 km/h (0 Bft)
17.09.2017 19:21 7,1 °C 7,1 °C 90 % 1012,9 hPa 0,0 mm 0,0 km/h (0 Bft) NO 46 ° 0 min 0,000 mm 0,0 UV-I 0 W/m² 5,6 °C 7,1 °C 0,0 km/h (0 Bft)
17.09.2017 19:22 7,1 °C 7,1 °C 90 % 1012,9 hPa 0,0 mm 1,3 km/h (1 Bft) NO 43 ° 0 min 0,000 mm 0,0 UV-I 0 W/m² 5,6 °C 7,1 °C 3,2 km/h (1 Bft)
17.09.2017 19:23 7,1 °C 7,1 °C 90 % 1013,0 hPa 0,0 mm 0,0 km/h (0 Bft) NO 43 ° 0 min 0,000 mm 0,0 UV-I 0 W/m² 5,6 °C 7,1 °C 0,0 km/h (0 Bft)
17.09.2017 19:24 7,1 °C 7,1 °C 90 % 1013,0 hPa 0,0 mm 0,0 km/h (0 Bft) NO 43 ° 0 min 0,000 mm 0,0 UV-I 0 W/m² 5,6 °C 7,1 °C 0,0 km/h (0 Bft)
17.09.2017 19:25 7,1 °C 7,1 °C 90 % 1013,0 hPa 0,0 mm 0,0 km/h (0 Bft) NO 43 ° 0 min 0,000 mm 0,0 UV-I 0 W/m² 5,6 °C 7,1 °C 0,0 km/h (0 Bft)
17.09.2017 19:26 7,1 °C 7,1 °C 90 % 1013,0 hPa 0,0 mm 2,2 km/h (1 Bft) NO 43 ° 0 min 0,000 mm 0,0 UV-I 0 W/m² 5,6 °C 7,1 °C 3,2 km/h (1 Bft)
17.09.2017 19:27 7,2 °C 7,2 °C 90 % 1013,0 hPa 0,0 mm 0,0 km/h (0 Bft) NO 43 ° 0 min 0,000 mm 0,0 UV-I 0 W/m² 5,7 °C 7,2 °C 0,0 km/h (0 Bft)
17.09.2017 19:28 7,2 °C 7,2 °C 90 % 1013,0 hPa 0,0 mm 0,7 km/h (0 Bft) NO 43 ° 0 min 0,000 mm 0,0 UV-I 0 W/m² 5,7 °C 7,2 °C 3,2 km/h (1 Bft)
17.09.2017 19:29 7,2 °C 7,2 °C 90 % 1013,0 hPa 0,0 mm 0,7 km/h (0 Bft) NO 43 ° 0 min 0,000 mm 0,0 UV-I 0 W/m² 5,7 °C 7,2 °C 1,6 km/h (1 Bft)
17.09.2017 19:30 7,2 °C 7,2 °C 90 % 1013,0 hPa 0,0 mm 0,5 km/h (0 Bft) NO 43 ° 0 min 0,000 mm 0,0 UV-I 0 W/m² 5,7 °C 7,2 °C 3,2 km/h (1 Bft)
17.09.2017 19:31 7,2 °C 7,2 °C 90 % 1013,0 hPa 0,0 mm 0,0 km/h (0 Bft) NO 43 ° 0 min 0,000 mm 0,0 UV-I 0 W/m² 5,7 °C 7,2 °C 0,0 km/h (0 Bft)
17.09.2017 19:32 7,3 °C 7,3 °C 90 % 1013,0 hPa 0,0 mm 0,0 km/h (0 Bft) NO 43 ° 0 min 0,000 mm 0,0 UV-I 0 W/m² 5,8 °C 7,3 °C 0,0 km/h (0 Bft)
17.09.2017 19:33 7,2 °C 7,3 °C 90 % 1012,9 hPa 0,0 mm 0,0 km/h (0 Bft) NO 43 ° 0 min 0,000 mm 0,0 UV-I 0 W/m² 5,7 °C 7,2 °C 0,0 km/h (0 Bft)
17.09.2017 19:34 7,3 °C 7,3 °C 90 % 1012,9 hPa 0,0 mm 0,0 km/h (0 Bft) NO 43 ° 0 min 0,000 mm 0,0 UV-I 0 W/m² 5,8 °C 7,3 °C 0,0 km/h (0 Bft)
17.09.2017 19:35 7,3 °C 7,3 °C 90 % 1012,9 hPa 0,0 mm 0,0 km/h (0 Bft) NO 43 ° 0 min 0,000 mm 0,0 UV-I 0 W/m² 5,8 °C 7,3 °C 0,0 km/h (0 Bft)
17.09.2017 19:36 7,2 °C 7,3 °C 90 % 1012,9 hPa 0,0 mm 0,0 km/h (0 Bft) NO 43 ° 0 min 0,000 mm 0,0 UV-I 0 W/m² 5,7 °C 7,2 °C 0,0 km/h (0 Bft)
17.09.2017 19:37 7,2 °C 7,3 °C 90 % 1012,9 hPa 0,0 mm 0,0 km/h (0 Bft) NO 43 ° 0 min 0,000 mm 0,0 UV-I 0 W/m² 5,7 °C 7,2 °C 0,0 km/h (0 Bft)
17.09.2017 19:38 7,2 °C 7,3 °C 90 % 1012,9 hPa 0,0 mm 0,0 km/h (0 Bft) NO 53 ° 0 min 0,000 mm 0,0 UV-I 0 W/m² 5,7 °C 7,2 °C 0,0 km/h (0 Bft)
17.09.2017 19:39 7,3 °C 7,3 °C 90 % 1012,9 hPa 0,0 mm 0,0 km/h (0 Bft) NO 53 ° 0 min 0,000 mm 0,0 UV-I 0 W/m² 5,8 °C 7,3 °C 0,0 km/h (0 Bft)
17.09.2017 19:40 7,3 °C 7,3 °C 90 % 1012,9 hPa 0,0 mm 0,0 km/h (0 Bft) NO 53 ° 0 min 0,000 mm 0,0 UV-I 0 W/m² 5,8 °C 7,3 °C 0,0 km/h (0 Bft)
17.09.2017 19:41 7,2 °C 7,3 °C 90 % 1012,9 hPa 0,0 mm 0,0 km/h (0 Bft) NO 53 ° 0 min 0,000 mm 0,0 UV-I 0 W/m² 5,7 °C 7,2 °C 0,0 km/h (0 Bft)
17.09.2017 19:42 7,2 °C 7,3 °C 90 % 1012,9 hPa 0,0 mm 0,0 km/h (0 Bft) NO 53 ° 0 min 0,000 mm 0,0 UV-I 0 W/m² 5,7 °C 7,2 °C 0,0 km/h (0 Bft)
17.09.2017 19:43 7,2 °C 7,3 °C 90 % 1012,9 hPa 0,0 mm 0,0 km/h (0 Bft) NO 53 ° 0 min 0,000 mm 0,0 UV-I 0 W/m² 5,7 °C 7,2 °C 0,0 km/h (0 Bft)
17.09.2017 19:44 7,2 °C 7,3 °C 90 % 1012,9 hPa 0,0 mm 0,5 km/h (0 Bft) O-NO 59 ° 0 min 0,000 mm 0,0 UV-I 0 W/m² 5,7 °C 7,2 °C 1,6 km/h (1 Bft)
17.09.2017 19:45 7,2 °C 7,2 °C 91 % 1012,9 hPa 0,0 mm 0,9 km/h (0 Bft) O-NO 59 ° 0 min 0,000 mm 0,0 UV-I 0 W/m² 5,8 °C 7,2 °C 3,2 km/h (1 Bft)
17.09.2017 19:46 7,2 °C 7,2 °C 91 % 1013,0 hPa 0,0 mm 0,3 km/h (0 Bft) O-NO 57 ° 0 min 0,000 mm 0,0 UV-I 0 W/m² 5,8 °C 7,2 °C 1,6 km/h (1 Bft)
17.09.2017 19:47 7,3 °C 7,3 °C 90 % 1012,9 hPa 0,0 mm 0,2 km/h (0 Bft) O-NO 57 ° 0 min 0,000 mm 0,0 UV-I 0 W/m² 5,8 °C 7,3 °C 1,6 km/h (1 Bft)
17.09.2017 19:48 7,3 °C 7,3 °C 91 % 1013,0 hPa 0,0 mm 0,8 km/h (0 Bft) O-NO 57 ° 0 min 0,000 mm 0,0 UV-I 0 W/m² 5,9 °C 7,3 °C 3,2 km/h (1 Bft)
17.09.2017 19:49 7,3 °C 7,3 °C 90 % 1013,0 hPa 0,0 mm 0,0 km/h (0 Bft) O-NO 57 ° 0 min 0,000 mm 0,0 UV-I 0 W/m² 5,8 °C 7,3 °C 0,0 km/h (0 Bft)
17.09.2017 19:50 7,3 °C 7,3 °C 90 % 1012,9 hPa 0,0 mm 0,7 km/h (0 Bft) O-NO 57 ° 0 min 0,000 mm 0,0 UV-I 0 W/m² 5,8 °C 7,3 °C 1,6 km/h (1 Bft)
17.09.2017 19:51 7,3 °C 7,4 °C 90 % 1013,0 hPa 0,0 mm 1,1 km/h (1 Bft) O-NO 57 ° 0 min 0,000 mm 0,0 UV-I 0 W/m² 5,8 °C 7,3 °C 1,6 km/h (1 Bft)
17.09.2017 19:52 7,3 °C 7,3 °C 90 % 1012,9 hPa 0,0 mm 0,3 km/h (0 Bft) O-NO 57 ° 0 min 0,000 mm 0,0 UV-I 0 W/m² 5,8 °C 7,3 °C 1,6 km/h (1 Bft)
17.09.2017 19:53 7,3 °C 7,3 °C 90 % 1012,9 hPa 0,0 mm 1,7 km/h (1 Bft) O-NO 57 ° 0 min 0,000 mm 0,0 UV-I 0 W/m² 5,8 °C 7,3 °C 3,2 km/h (1 Bft)
17.09.2017 19:54 7,3 °C 7,3 °C 90 % 1013,0 hPa 0,0 mm 1,5 km/h (1 Bft) N-NW 329 ° 0 min 0,000 mm 0,0 UV-I 0 W/m² 5,8 °C 7,3 °C 4,8 km/h (1 Bft)
17.09.2017 19:55 7,3 °C 7,3 °C 90 % 1013,0 hPa 0,0 mm 0,8 km/h (0 Bft) N-NW 329 ° 0 min 0,000 mm 0,0 UV-I 0 W/m² 5,8 °C 7,3 °C 3,2 km/h (1 Bft)
17.09.2017 19:56 7,3 °C 7,3 °C 90 % 1012,9 hPa 0,0 mm 0,5 km/h (0 Bft) N-NW 329 ° 0 min 0,000 mm 0,0 UV-I 0 W/m² 5,8 °C 7,3 °C 1,6 km/h (1 Bft)
17.09.2017 19:57 7,3 °C 7,3 °C 90 % 1013,0 hPa 0,0 mm 0,1 km/h (0 Bft) N-NW 329 ° 0 min 0,000 mm 0,0 UV-I 0 W/m² 5,8 °C 7,3 °C 1,6 km/h (1 Bft)
17.09.2017 19:58 7,3 °C 7,3 °C 90 % 1013,0 hPa 0,0 mm 0,8 km/h (0 Bft) N-NW 329 ° 0 min 0,000 mm 0,0 UV-I 0 W/m² 5,8 °C 7,3 °C 1,6 km/h (1 Bft)
17.09.2017 19:59 7,3 °C 7,3 °C 90 % 1013,0 hPa 0,0 mm 0,0 km/h (0 Bft) N-NW 329 ° 0 min 0,000 mm 0,0 UV-I 0 W/m² 5,8 °C 7,3 °C 0,0 km/h (0 Bft)
17.09.2017 20:00 7,3 °C 7,3 °C 90 % 1013,1 hPa 0,0 mm 0,0 km/h (0 Bft) N-NW 329 ° 0 min 0,000 mm 0,0 UV-I 0 W/m² 5,8 °C 7,3 °C 0,0 km/h (0 Bft)
17.09.2017 20:01 7,3 °C 7,3 °C 90 % 1013,0 hPa 0,0 mm 0,0 km/h (0 Bft) N-NW 329 ° 0 min 0,000 mm 0,0 UV-I 0 W/m² 5,8 °C 7,3 °C 0,0 km/h (0 Bft)
17.09.2017 20:02 7,3 °C 7,3 °C 90 % 1013,0 hPa 0,0 mm 0,0 km/h (0 Bft) N-NW 329 ° 0 min 0,000 mm 0,0 UV-I 0 W/m² 5,8 °C 7,3 °C 0,0 km/h (0 Bft)
17.09.2017 20:03 7,3 °C 7,3 °C 90 % 1013,1 hPa 0,0 mm 0,2 km/h (0 Bft) N-NW 329 ° 0 min 0,000 mm 0,0 UV-I 0 W/m² 5,8 °C 7,3 °C 1,6 km/h (1 Bft)
17.09.2017 20:04 7,3 °C 7,3 °C 90 % 1013,0 hPa 0,0 mm 0,3 km/h (0 Bft) N-NW 329 ° 0 min 0,000 mm 0,0 UV-I 0 W/m² 5,8 °C 7,3 °C 1,6 km/h (1 Bft)
17.09.2017 20:05 7,3 °C 7,3 °C 90 % 1013,0 hPa 0,0 mm 0,8 km/h (0 Bft) N-NW 347 ° 0 min 0,000 mm 0,0 UV-I 0 W/m² 5,8 °C 7,3 °C 3,2 km/h (1 Bft)
17.09.2017 20:06 7,3 °C 7,3 °C 90 % 1013,1 hPa 0,0 mm 0,0 km/h (0 Bft) N-NW 347 ° 0 min 0,000 mm 0,0 UV-I 0 W/m² 5,8 °C 7,3 °C 0,0 km/h (0 Bft)
17.09.2017 20:07 7,3 °C 7,3 °C 90 % 1013,1 hPa 0,0 mm 0,0 km/h (0 Bft) N-NW 347 ° 0 min 0,000 mm 0,0 UV-I 0 W/m² 5,8 °C 7,3 °C 0,0 km/h (0 Bft)
17.09.2017 20:08 7,3 °C 7,3 °C 90 % 1013,1 hPa 0,0 mm 1,4 km/h (1 Bft) N 360 ° 0 min 0,000 mm 0,0 UV-I 0 W/m² 5,8 °C 7,3 °C 3,2 km/h (1 Bft)
17.09.2017 20:09 7,3 °C 7,3 °C 90 % 1013,1 hPa 0,0 mm 0,3 km/h (0 Bft) N 360 ° 0 min 0,000 mm 0,0 UV-I 0 W/m² 5,8 °C 7,3 °C 1,6 km/h (1 Bft)
17.09.2017 20:10 7,3 °C 7,4 °C 90 % 1013,1 hPa 0,0 mm 0,2 km/h (0 Bft) N 360 ° 0 min 0,000 mm 0,0 UV-I 0 W/m² 5,8 °C 7,3 °C 1,6 km/h (1 Bft)
17.09.2017 20:11 7,3 °C 7,4 °C 90 % 1013,2 hPa 0,0 mm 0,2 km/h (0 Bft) N 360 ° 0 min 0,000 mm 0,0 UV-I 0 W/m² 5,8 °C 7,3 °C 1,6 km/h (1 Bft)
17.09.2017 20:12 7,3 °C 7,4 °C 90 % 1013,2 hPa 0,0 mm 0,0 km/h (0 Bft) N 360 ° 0 min 0,000 mm 0,0 UV-I 0 W/m² 5,8 °C 7,3 °C 0,0 km/h (0 Bft)
17.09.2017 20:13 7,3 °C 7,3 °C 90 % 1013,2 hPa 0,0 mm 0,7 km/h (0 Bft) N 360 ° 0 min 0,000 mm 0,0 UV-I 0 W/m² 5,8 °C 7,3 °C 1,6 km/h (1 Bft)
17.09.2017 20:14 7,3 °C 7,3 °C 90 % 1013,2 hPa 0,0 mm 0,2 km/h (0 Bft) N 360 ° 0 min 0,000 mm 0,0 UV-I 0 W/m² 5,8 °C 7,3 °C 1,6 km/h (1 Bft)
17.09.2017 20:15 7,4 °C 7,4 °C 90 % 1013,2 hPa 0,0 mm 0,1 km/h (0 Bft) N 360 ° 0 min 0,000 mm 0,0 UV-I 0 W/m² 5,9 °C 7,4 °C 1,6 km/h (1 Bft)
17.09.2017 20:16 7,3 °C 7,4 °C 90 % 1013,2 hPa 0,0 mm 0,6 km/h (0 Bft) N 360 ° 0 min 0,000 mm 0,0 UV-I 0 W/m² 5,8 °C 7,3 °C 1,6 km/h (1 Bft)
17.09.2017 20:17 7,4 °C 7,4 °C 90 % 1013,2 hPa 0,0 mm 0,0 km/h (0 Bft) N 360 ° 0 min 0,000 mm 0,0 UV-I 0 W/m² 5,9 °C 7,4 °C 0,0 km/h (0 Bft)
17.09.2017 20:18 7,3 °C 7,4 °C 90 % 1013,2 hPa 0,0 mm 0,0 km/h (0 Bft) N 360 ° 0 min 0,000 mm 0,0 UV-I 0 W/m² 5,8 °C 7,3 °C 0,0 km/h (0 Bft)
17.09.2017 20:19 7,3 °C 7,3 °C 90 % 1013,2 hPa 0,0 mm 0,0 km/h (0 Bft) N 360 ° 0 min 0,000 mm 0,0 UV-I 0 W/m² 5,8 °C 7,3 °C 0,0 km/h (0 Bft)
17.09.2017 20:20 7,3 °C 7,3 °C 90 % 1013,2 hPa 0,0 mm 0,0 km/h (0 Bft) N 360 ° 0 min 0,000 mm 0,0 UV-I 0 W/m² 5,8 °C 7,3 °C 0,0 km/h (0 Bft)
17.09.2017 20:21 7,3 °C 7,3 °C 90 % 1013,3 hPa 0,0 mm 0,0 km/h (0 Bft) N 360 ° 0 min 0,000 mm 0,0 UV-I 0 W/m² 5,8 °C 7,3 °C 0,0 km/h (0 Bft)
17.09.2017 20:22 7,3 °C 7,3 °C 90 % 1013,3 hPa 0,0 mm 0,0 km/h (0 Bft) N 360 ° 0 min 0,000 mm 0,0 UV-I 0 W/m² 5,8 °C 7,3 °C 0,0 km/h (0 Bft)
17.09.2017 20:23 7,3 °C 7,3 °C 90 % 1013,3 hPa 0,0 mm 0,3 km/h (0 Bft) O-NO 71 ° 0 min 0,000 mm 0,0 UV-I 0 W/m² 5,8 °C 7,3 °C 1,6 km/h (1 Bft)
17.09.2017 20:24 7,3 °C 7,3 °C 91 % 1013,3 hPa 0,0 mm 0,0 km/h (0 Bft) O-NO 71 ° 0 min 0,000 mm 0,0 UV-I 0 W/m² 5,9 °C 7,3 °C 0,0 km/h (0 Bft)
17.09.2017 20:25 7,3 °C 7,3 °C 91 % 1013,3 hPa 0,0 mm 0,0 km/h (0 Bft) O-NO 71 ° 0 min 0,000 mm 0,0 UV-I 0 W/m² 5,9 °C 7,3 °C 0,0 km/h (0 Bft)
17.09.2017 20:26 7,3 °C 7,3 °C 91 % 1013,3 hPa 0,0 mm 0,0 km/h (0 Bft) O-NO 71 ° 0 min 0,000 mm 0,0 UV-I 0 W/m² 5,9 °C 7,3 °C 0,0 km/h (0 Bft)
17.09.2017 20:27 7,3 °C 7,3 °C 91 % 1013,3 hPa 0,0 mm 0,0 km/h (0 Bft) O-NO 71 ° 0 min 0,000 mm 0,0 UV-I 0 W/m² 5,9 °C 7,3 °C 0,0 km/h (0 Bft)
17.09.2017 20:28 7,3 °C 7,3 °C 91 % 1013,2 hPa 0,0 mm 0,0 km/h (0 Bft) O-NO 71 ° 0 min 0,000 mm 0,0 UV-I 0 W/m² 5,9 °C 7,3 °C 0,0 km/h (0 Bft)
17.09.2017 20:29 7,3 °C 7,3 °C 91 % 1013,3 hPa 0,0 mm 0,0 km/h (0 Bft) O-NO 71 ° 0 min 0,000 mm 0,0 UV-I 0 W/m² 5,9 °C 7,3 °C 0,0 km/h (0 Bft)
17.09.2017 20:30 7,3 °C 7,3 °C 91 % 1013,3 hPa 0,0 mm 0,0 km/h (0 Bft) O-NO 71 ° 0 min 0,000 mm 0,0 UV-I 0 W/m² 5,9 °C 7,3 °C 0,0 km/h (0 Bft)
17.09.2017 20:31 7,3 °C 7,3 °C 91 % 1013,3 hPa 0,0 mm 0,0 km/h (0 Bft) O-NO 71 ° 0 min 0,000 mm 0,0 UV-I 0 W/m² 5,9 °C 7,3 °C 0,0 km/h (0 Bft)
17.09.2017 20:32 7,3 °C 7,3 °C 91 % 1013,3 hPa 0,0 mm 0,0 km/h (0 Bft) O-NO 71 ° 0 min 0,000 mm 0,0 UV-I 0 W/m² 5,9 °C 7,3 °C 0,0 km/h (0 Bft)
17.09.2017 20:33 7,3 °C 7,3 °C 91 % 1013,3 hPa 0,0 mm 0,0 km/h (0 Bft) O-NO 71 ° 0 min 0,000 mm 0,0 UV-I 0 W/m² 5,9 °C 7,3 °C 0,0 km/h (0 Bft)
17.09.2017 20:34 7,3 °C 7,3 °C 91 % 1013,2 hPa 0,0 mm 0,0 km/h (0 Bft) O-NO 71 ° 0 min 0,000 mm 0,0 UV-I 0 W/m² 5,9 °C 7,3 °C 0,0 km/h (0 Bft)
17.09.2017 20:35 7,3 °C 7,3 °C 91 % 1013,2 hPa 0,0 mm 1,1 km/h (1 Bft) O-NO 71 ° 0 min 0,000 mm 0,0 UV-I 0 W/m² 5,9 °C 7,3 °C 3,2 km/h (1 Bft)
17.09.2017 20:36 7,2 °C 7,3 °C 91 % 1013,2 hPa 0,0 mm 1,1 km/h (1 Bft) O-NO 71 ° 0 min 0,000 mm 0,0 UV-I 0 W/m² 5,8 °C 7,2 °C 3,2 km/h (1 Bft)
17.09.2017 20:37 7,2 °C 7,3 °C 91 % 1013,3 hPa 0,0 mm 0,6 km/h (0 Bft) O-NO 71 ° 0 min 0,000 mm 0,0 UV-I 0 W/m² 5,8 °C 7,2 °C 3,2 km/h (1 Bft)
17.09.2017 20:38 7,2 °C 7,3 °C 91 % 1013,3 hPa 0,0 mm 0,3 km/h (0 Bft) O-NO 71 ° 0 min 0,000 mm 0,0 UV-I 0 W/m² 5,8 °C 7,2 °C 1,6 km/h (1 Bft)
17.09.2017 20:39 7,2 °C 7,2 °C 91 % 1013,2 hPa 0,0 mm 0,3 km/h (0 Bft) O-NO 71 ° 0 min 0,000 mm 0,0 UV-I 0 W/m² 5,8 °C 7,2 °C 1,6 km/h (1 Bft)
17.09.2017 20:40 7,2 °C 7,2 °C 91 % 1013,2 hPa 0,0 mm 0,0 km/h (0 Bft) O-NO 71 ° 0 min 0,000 mm 0,0 UV-I 0 W/m² 5,8 °C 7,2 °C 0,0 km/h (0 Bft)
17.09.2017 20:41 7,2 °C 7,2 °C 91 % 1013,3 hPa 0,0 mm 0,0 km/h (0 Bft) O-NO 71 ° 0 min 0,000 mm 0,0 UV-I 0 W/m² 5,8 °C 7,2 °C 0,0 km/h (0 Bft)
17.09.2017 20:42 7,2 °C 7,2 °C 91 % 1013,3 hPa 0,0 mm 0,0 km/h (0 Bft) O-NO 71 ° 0 min 0,000 mm 0,0 UV-I 0 W/m² 5,8 °C 7,2 °C 0,0 km/h (0 Bft)
17.09.2017 20:43 7,2 °C 7,2 °C 90 % 1013,2 hPa 0,0 mm 0,0 km/h (0 Bft) O-NO 71 ° 0 min 0,000 mm 0,0 UV-I 0 W/m² 5,7 °C 7,2 °C 0,0 km/h (0 Bft)
17.09.2017 20:44 7,2 °C 7,2 °C 90 % 1013,3 hPa 0,0 mm 0,0 km/h (0 Bft) O-NO 71 ° 0 min 0,000 mm 0,0 UV-I 0 W/m² 5,7 °C 7,2 °C 0,0 km/h (0 Bft)
17.09.2017 20:45 7,2 °C 7,2 °C 90 % 1013,2 hPa 0,0 mm 0,0 km/h (0 Bft) O-NO 71 ° 0 min 0,000 mm 0,0 UV-I 0 W/m² 5,7 °C 7,2 °C 0,0 km/h (0 Bft)
17.09.2017 20:46 7,2 °C 7,2 °C 91 % 1013,2 hPa 0,0 mm 0,0 km/h (0 Bft) O-NO 71 ° 0 min 0,000 mm 0,0 UV-I 0 W/m² 5,8 °C 7,2 °C 0,0 km/h (0 Bft)
17.09.2017 20:47 7,2 °C 7,2 °C 90 % 1013,2 hPa 0,0 mm 0,0 km/h (0 Bft) O-NO 71 ° 0 min 0,000 mm 0,0 UV-I 0 W/m² 5,7 °C 7,2 °C 0,0 km/h (0 Bft)
17.09.2017 20:48 7,2 °C 7,2 °C 90 % 1013,2 hPa 0,0 mm 0,0 km/h (0 Bft) O-NO 71 ° 0 min 0,000 mm 0,0 UV-I 0 W/m² 5,7 °C 7,2 °C 0,0 km/h (0 Bft)
17.09.2017 20:49 7,2 °C 7,2 °C 90 % 1013,3 hPa 0,0 mm 0,0 km/h (0 Bft) O-NO 71 ° 0 min 0,000 mm 0,0 UV-I 0 W/m² 5,7 °C 7,2 °C 0,0 km/h (0 Bft)
17.09.2017 20:50 7,2 °C 7,2 °C 90 % 1013,3 hPa 0,0 mm 0,0 km/h (0 Bft) O-NO 71 ° 0 min 0,000 mm 0,0 UV-I 0 W/m² 5,7 °C 7,2 °C 0,0 km/h (0 Bft)
17.09.2017 20:51 7,1 °C 7,2 °C 90 % 1013,3 hPa 0,0 mm 0,0 km/h (0 Bft) O-NO 71 ° 0 min 0,000 mm 0,0 UV-I 0 W/m² 5,6 °C 7,1 °C 0,0 km/h (0 Bft)
17.09.2017 20:52 7,2 °C 7,2 °C 90 % 1013,3 hPa 0,0 mm 0,0 km/h (0 Bft) O-NO 71 ° 0 min 0,000 mm 0,0 UV-I 0 W/m² 5,7 °C 7,2 °C 0,0 km/h (0 Bft)
17.09.2017 20:53 7,2 °C 7,2 °C 90 % 1013,3 hPa 0,0 mm 0,0 km/h (0 Bft) O-NO 71 ° 0 min 0,000 mm 0,0 UV-I 0 W/m² 5,7 °C 7,2 °C 0,0 km/h (0 Bft)
17.09.2017 20:54 7,1 °C 7,2 °C 91 % 1013,3 hPa 0,0 mm 0,0 km/h (0 Bft) O-NO 71 ° 0 min 0,000 mm 0,0 UV-I 0 W/m² 5,7 °C 7,1 °C 0,0 km/h (0 Bft)
17.09.2017 20:55 7,2 °C 7,2 °C 91 % 1013,4 hPa 0,0 mm 0,0 km/h (0 Bft) O-NO 71 ° 0 min 0,000 mm 0,0 UV-I 0 W/m² 5,8 °C 7,2 °C 0,0 km/h (0 Bft)
17.09.2017 20:56 7,2 °C 7,2 °C 90 % 1013,4 hPa 0,0 mm 0,0 km/h (0 Bft) O-NO 71 ° 0 min 0,000 mm 0,0 UV-I 0 W/m² 5,7 °C 7,2 °C 0,0 km/h (0 Bft)
17.09.2017 20:57 7,2 °C 7,2 °C 90 % 1013,4 hPa 0,0 mm 0,0 km/h (0 Bft) O-NO 71 ° 0 min 0,000 mm 0,0 UV-I 0 W/m² 5,7 °C 7,2 °C 0,0 km/h (0 Bft)
17.09.2017 20:58 7,2 °C 7,2 °C 91 % 1013,4 hPa 0,0 mm 0,0 km/h (0 Bft) O-NO 71 ° 0 min 0,000 mm 0,0 UV-I 0 W/m² 5,8 °C 7,2 °C 0,0 km/h (0 Bft)
17.09.2017 20:59 7,1 °C 7,2 °C 91 % 1013,4 hPa 0,0 mm 0,0 km/h (0 Bft) O-NO 71 ° 0 min 0,000 mm 0,0 UV-I 0 W/m² 5,7 °C 7,1 °C 0,0 km/h (0 Bft)
17.09.2017 21:00 7,2 °C 7,2 °C 91 % 1013,4 hPa 0,0 mm 0,0 km/h (0 Bft) O-NO 71 ° 0 min 0,000 mm 0,0 UV-I 0 W/m² 5,8 °C 7,2 °C 0,0 km/h (0 Bft)
17.09.2017 21:01 7,2 °C 7,2 °C 91 % 1013,4 hPa 0,0 mm 0,0 km/h (0 Bft) O-NO 71 ° 0 min 0,000 mm 0,0 UV-I 0 W/m² 5,8 °C 7,2 °C 0,0 km/h (0 Bft)
17.09.2017 21:02 7,1 °C 7,2 °C 91 % 1013,4 hPa 0,0 mm 0,0 km/h (0 Bft) O-NO 71 ° 0 min 0,000 mm 0,0 UV-I 0 W/m² 5,7 °C 7,1 °C 0,0 km/h (0 Bft)
17.09.2017 21:03 7,1 °C 7,2 °C 91 % 1013,5 hPa 0,0 mm 0,2 km/h (0 Bft) O-NO 69 ° 0 min 0,000 mm 0,0 UV-I 0 W/m² 5,7 °C 7,1 °C 1,6 km/h (1 Bft)
17.09.2017 21:04 7,1 °C 7,2 °C 91 % 1013,5 hPa 0,0 mm 0,9 km/h (0 Bft) NO 47 ° 0 min 0,000 mm 0,0 UV-I 0 W/m² 5,7 °C 7,1 °C 3,2 km/h (1 Bft)
17.09.2017 21:05 7,1 °C 7,1 °C 91 % 1013,5 hPa 0,0 mm 0,0 km/h (0 Bft) NO 47 ° 0 min 0,000 mm 0,0 UV-I 0 W/m² 5,7 °C 7,1 °C 0,0 km/h (0 Bft)
17.09.2017 21:06 7,1 °C 7,1 °C 91 % 1013,6 hPa 0,0 mm 0,9 km/h (0 Bft) NO 47 ° 0 min 0,000 mm 0,0 UV-I 0 W/m² 5,7 °C 7,1 °C 1,6 km/h (1 Bft)
17.09.2017 21:07 7,1 °C 7,1 °C 91 % 1013,5 hPa 0,0 mm 0,9 km/h (0 Bft) NO 47 ° 0 min 0,000 mm 0,0 UV-I 0 W/m² 5,7 °C 7,1 °C 3,2 km/h (1 Bft)
17.09.2017 21:08 7,1 °C 7,1 °C 91 % 1013,6 hPa 0,0 mm 1,9 km/h (1 Bft) NO 47 ° 0 min 0,000 mm 0,0 UV-I 0 W/m² 5,7 °C 7,1 °C 4,8 km/h (1 Bft)
17.09.2017 21:09 7,1 °C 7,1 °C 91 % 1013,6 hPa 0,0 mm 0,0 km/h (0 Bft) NO 47 ° 0 min 0,000 mm 0,0 UV-I 0 W/m² 5,7 °C 7,1 °C 0,0 km/h (0 Bft)
17.09.2017 21:10 7,1 °C 7,1 °C 91 % 1013,6 hPa 0,0 mm 0,0 km/h (0 Bft) NO 47 ° 0 min 0,000 mm 0,0 UV-I 0 W/m² 5,7 °C 7,1 °C 0,0 km/h (0 Bft)
17.09.2017 21:11 7,1 °C 7,1 °C 91 % 1013,6 hPa 0,0 mm 0,7 km/h (0 Bft) NO 47 ° 0 min 0,000 mm 0,0 UV-I 0 W/m² 5,7 °C 7,1 °C 1,6 km/h (1 Bft)
17.09.2017 21:12 7,1 °C 7,1 °C 91 % 1013,6 hPa 0,0 mm 0,5 km/h (0 Bft) NO 47 ° 0 min 0,000 mm 0,0 UV-I 0 W/m² 5,7 °C 7,1 °C 1,6 km/h (1 Bft)
17.09.2017 21:13 7,1 °C 7,1 °C 91 % 1013,6 hPa 0,0 mm 0,0 km/h (0 Bft) NO 47 ° 0 min 0,000 mm 0,0 UV-I 0 W/m² 5,7 °C 7,1 °C 0,0 km/h (0 Bft)
17.09.2017 21:14 7,1 °C 7,1 °C 91 % 1013,6 hPa 0,0 mm 1,3 km/h (1 Bft) NO 47 ° 0 min 0,000 mm 0,0 UV-I 0 W/m² 5,7 °C 7,1 °C 3,2 km/h (1 Bft)
17.09.2017 21:15 7,1 °C 7,1 °C 91 % 1013,6 hPa 0,0 mm 0,1 km/h (0 Bft) NO 47 ° 0 min 0,000 mm 0,0 UV-I 0 W/m² 5,7 °C 7,1 °C 1,6 km/h (1 Bft)
17.09.2017 21:16 7,1 °C 7,1 °C 91 % 1013,6 hPa 0,0 mm 0,0 km/h (0 Bft) NO 47 ° 0 min 0,000 mm 0,0 UV-I 0 W/m² 5,7 °C 7,1 °C 0,0 km/h (0 Bft)
17.09.2017 21:17 7,1 °C 7,1 °C 91 % 1013,6 hPa 0,0 mm 0,0 km/h (0 Bft) NO 47 ° 0 min 0,000 mm 0,0 UV-I 0 W/m² 5,7 °C 7,1 °C 0,0 km/h (0 Bft)
17.09.2017 21:18 7,2 °C 7,2 °C 91 % 1013,6 hPa 0,0 mm 0,0 km/h (0 Bft) NO 47 ° 0 min 0,000 mm 0,0 UV-I 0 W/m² 5,8 °C 7,2 °C 0,0 km/h (0 Bft)
17.09.2017 21:19 7,2 °C 7,2 °C 91 % 1013,6 hPa 0,0 mm 0,0 km/h (0 Bft) NO 47 ° 0 min 0,000 mm 0,0 UV-I 0 W/m² 5,8 °C 7,2 °C 0,0 km/h (0 Bft)
17.09.2017 21:20 7,2 °C 7,2 °C 91 % 1013,6 hPa 0,0 mm 0,0 km/h (0 Bft) NO 47 ° 0 min 0,000 mm 0,0 UV-I 0 W/m² 5,8 °C 7,2 °C 0,0 km/h (0 Bft)
17.09.2017 21:21 7,2 °C 7,2 °C 91 % 1013,6 hPa 0,0 mm 0,1 km/h (0 Bft) NO 47 ° 0 min 0,000 mm 0,0 UV-I 0 W/m² 5,8 °C 7,2 °C 1,6 km/h (1 Bft)
17.09.2017 21:22 7,2 °C 7,2 °C 90 % 1013,6 hPa 0,0 mm 0,4 km/h (0 Bft) NO 47 ° 0 min 0,000 mm 0,0 UV-I 0 W/m² 5,7 °C 7,2 °C 1,6 km/h (1 Bft)
17.09.2017 21:23 7,2 °C 7,2 °C 90 % 1013,6 hPa 0,0 mm 0,0 km/h (0 Bft) NO 47 ° 0 min 0,000 mm 0,0 UV-I 0 W/m² 5,7 °C 7,2 °C 0,0 km/h (0 Bft)
17.09.2017 21:24 7,2 °C 7,2 °C 90 % 1013,7 hPa 0,0 mm 0,0 km/h (0 Bft) NO 47 ° 0 min 0,000 mm 0,0 UV-I 0 W/m² 5,7 °C 7,2 °C 0,0 km/h (0 Bft)
17.09.2017 21:25 7,1 °C 7,2 °C 90 % 1013,7 hPa 0,0 mm 0,0 km/h (0 Bft) NO 47 ° 0 min 0,000 mm 0,0 UV-I 0 W/m² 5,6 °C 7,1 °C 0,0 km/h (0 Bft)
17.09.2017 21:26 7,1 °C 7,1 °C 90 % 1013,6 hPa 0,0 mm 0,0 km/h (0 Bft) NO 47 ° 0 min 0,000 mm 0,0 UV-I 0 W/m² 5,6 °C 7,1 °C 0,0 km/h (0 Bft)
17.09.2017 21:27 7,0 °C 7,1 °C 90 % 1013,6 hPa 0,0 mm 0,0 km/h (0 Bft) NO 47 ° 0 min 0,000 mm 0,0 UV-I 0 W/m² 5,5 °C 7,0 °C 0,0 km/h (0 Bft)
17.09.2017 21:28 6,9 °C 7,0 °C 90 % 1013,6 hPa 0,0 mm 0,0 km/h (0 Bft) NO 47 ° 0 min 0,000 mm 0,0 UV-I 0 W/m² 5,4 °C 6,9 °C 0,0 km/h (0 Bft)
17.09.2017 21:29 6,8 °C 6,9 °C 90 % 1013,6 hPa 0,0 mm 0,0 km/h (0 Bft) NO 47 ° 0 min 0,000 mm 0,0 UV-I 0 W/m² 5,3 °C 6,8 °C 0,0 km/h (0 Bft)
17.09.2017 21:30 6,8 °C 6,9 °C 90 % 1013,6 hPa 0,0 mm 0,1 km/h (0 Bft) NO 47 ° 0 min 0,000 mm 0,0 UV-I 0 W/m² 5,3 °C 6,8 °C 1,6 km/h (1 Bft)
17.09.2017 21:31 6,9 °C 6,9 °C 90 % 1013,6 hPa 0,0 mm 0,1 km/h (0 Bft) NO 47 ° 0 min 0,000 mm 0,0 UV-I 0 W/m² 5,4 °C 6,9 °C 1,6 km/h (1 Bft)
17.09.2017 21:32 6,9 °C 6,9 °C 91 % 1013,6 hPa 0,0 mm 0,0 km/h (0 Bft) NO 47 ° 0 min 0,000 mm 0,0 UV-I 0 W/m² 5,5 °C 6,9 °C 0,0 km/h (0 Bft)
17.09.2017 21:33 6,8 °C 6,9 °C 91 % 1013,6 hPa 0,0 mm 0,0 km/h (0 Bft) NO 47 ° 0 min 0,000 mm 0,0 UV-I 0 W/m² 5,4 °C 6,8 °C 0,0 km/h (0 Bft)
17.09.2017 21:34 6,8 °C 6,8 °C 90 % 1013,7 hPa 0,0 mm 0,0 km/h (0 Bft) NO 47 ° 0 min 0,000 mm 0,0 UV-I 0 W/m² 5,3 °C 6,8 °C 0,0 km/h (0 Bft)
17.09.2017 21:35 6,7 °C 6,8 °C 91 % 1013,6 hPa 0,0 mm 0,0 km/h (0 Bft) NO 47 ° 0 min 0,000 mm 0,0 UV-I 0 W/m² 5,3 °C 6,7 °C 0,0 km/h (0 Bft)
17.09.2017 21:36 6,7 °C 6,7 °C 91 % 1013,7 hPa 0,0 mm 0,0 km/h (0 Bft) NO 47 ° 0 min 0,000 mm 0,0 UV-I 0 W/m² 5,3 °C 6,7 °C 0,0 km/h (0 Bft)
17.09.2017 21:37 6,7 °C 6,7 °C 91 % 1013,6 hPa 0,0 mm 0,0 km/h (0 Bft) NO 47 ° 0 min 0,000 mm 0,0 UV-I 0 W/m² 5,3 °C 6,7 °C 0,0 km/h (0 Bft)
17.09.2017 21:38 6,6 °C 6,7 °C 90 % 1013,6 hPa 0,0 mm 0,0 km/h (0 Bft) NO 47 ° 0 min 0,000 mm 0,0 UV-I 0 W/m² 5,1 °C 6,6 °C 0,0 km/h (0 Bft)
17.09.2017 21:39 6,5 °C 6,6 °C 90 % 1013,6 hPa 0,0 mm 0,0 km/h (0 Bft) NO 47 ° 0 min 0,000 mm 0,0 UV-I 0 W/m² 5,0 °C 6,5 °C 0,0 km/h (0 Bft)
17.09.2017 21:40 6,5 °C 6,5 °C 91 % 1013,6 hPa 0,0 mm 0,0 km/h (0 Bft) NO 47 ° 0 min 0,000 mm 0,0 UV-I 0 W/m² 5,1 °C 6,5 °C 0,0 km/h (0 Bft)
17.09.2017 21:41 6,5 °C 6,5 °C 91 % 1013,6 hPa 0,0 mm 0,0 km/h (0 Bft) NO 47 ° 0 min 0,000 mm 0,0 UV-I 0 W/m² 5,1 °C 6,5 °C 0,0 km/h (0 Bft)
17.09.2017 21:42 6,4 °C 6,5 °C 91 % 1013,6 hPa 0,0 mm 0,0 km/h (0 Bft) NO 47 ° 0 min 0,000 mm 0,0 UV-I 0 W/m² 5,0 °C 6,4 °C 0,0 km/h (0 Bft)
17.09.2017 21:43 6,4 °C 6,4 °C 91 % 1013,6 hPa 0,0 mm 0,0 km/h (0 Bft) NO 47 ° 0 min 0,000 mm 0,0 UV-I 0 W/m² 5,0 °C 6,4 °C 0,0 km/h (0 Bft)
17.09.2017 21:44 6,3 °C 6,4 °C 91 % 1013,6 hPa 0,0 mm 0,5 km/h (0 Bft) NO 47 ° 0 min 0,000 mm 0,0 UV-I 0 W/m² 4,9 °C 6,3 °C 1,6 km/h (1 Bft)
17.09.2017 21:45 6,3 °C 6,3 °C 91 % 1013,7 hPa 0,0 mm 0,0 km/h (0 Bft) NO 47 ° 0 min 0,000 mm 0,0 UV-I 0 W/m² 4,9 °C 6,3 °C 0,0 km/h (0 Bft)
17.09.2017 21:46 6,3 °C 6,3 °C 91 % 1013,7 hPa 0,0 mm 2,5 km/h (1 Bft) W-NW 300 ° 0 min 0,000 mm 0,0 UV-I 0 W/m² 4,9 °C 6,3 °C 4,8 km/h (1 Bft)
17.09.2017 21:47 6,3 °C 6,3 °C 91 % 1013,7 hPa 0,0 mm 4,8 km/h (1 Bft) W 275 ° 0 min 0,000 mm 0,0 UV-I 0 W/m² 4,9 °C 5,6 °C 9,7 km/h (2 Bft)
17.09.2017 21:48 6,4 °C 6,4 °C 91 % 1013,7 hPa 0,0 mm 7,5 km/h (2 Bft) W 268 ° 0 min 0,000 mm 0,0 UV-I 0 W/m² 5,0 °C 4,9 °C 9,7 km/h (2 Bft)
17.09.2017 21:49 6,4 °C 6,4 °C 91 % 1013,9 hPa 0,0 mm 4,6 km/h (1 Bft) W-SW 257 ° 0 min 0,000 mm 0,0 UV-I 0 W/m² 5,0 °C 5,8 °C 9,7 km/h (2 Bft)
17.09.2017 21:50 6,4 °C 6,4 °C 91 % 1013,9 hPa 0,0 mm 3,9 km/h (1 Bft) S 184 ° 0 min 0,000 mm 0,0 UV-I 0 W/m² 5,0 °C 6,4 °C 8,0 km/h (2 Bft)
17.09.2017 21:51 6,6 °C 6,6 °C 91 % 1013,8 hPa 0,0 mm 7,5 km/h (2 Bft) S-SO 151 ° 0 min 0,000 mm 0,0 UV-I 0 W/m² 5,2 °C 5,1 °C 11,3 km/h (2 Bft)
17.09.2017 21:52 6,6 °C 6,6 °C 91 % 1013,8 hPa 0,0 mm 2,0 km/h (1 Bft) S-SW 207 ° 0 min 0,000 mm 0,0 UV-I 0 W/m² 5,2 °C 6,6 °C 6,4 km/h (2 Bft)
17.09.2017 21:53 6,6 °C 6,6 °C 91 % 1013,8 hPa 0,0 mm 5,3 km/h (1 Bft) W-SW 253 ° 0 min 0,000 mm 0,0 UV-I 0 W/m² 5,2 °C 5,8 °C 9,7 km/h (2 Bft)
17.09.2017 21:54 6,6 °C 6,6 °C 91 % 1013,8 hPa 0,0 mm 4,4 km/h (1 Bft) S 190 ° 0 min 0,000 mm 0,0 UV-I 0 W/m² 5,2 °C 6,6 °C 8,0 km/h (2 Bft)
17.09.2017 21:55 6,7 °C 6,7 °C 91 % 1013,8 hPa 0,0 mm 2,4 km/h (1 Bft) S-SW 200 ° 0 min 0,000 mm 0,0 UV-I 0 W/m² 5,3 °C 6,7 °C 4,8 km/h (1 Bft)
17.09.2017 21:56 6,7 °C 6,7 °C 91 % 1013,8 hPa 0,0 mm 5,6 km/h (1 Bft) SW 219 ° 0 min 0,000 mm 0,0 UV-I 0 W/m² 5,3 °C 5,8 °C 11,3 km/h (2 Bft)
17.09.2017 21:57 6,8 °C 6,8 °C 90 % 1013,8 hPa 0,0 mm 2,9 km/h (1 Bft) SW 225 ° 0 min 0,000 mm 0,0 UV-I 0 W/m² 5,3 °C 6,8 °C 4,8 km/h (1 Bft)
17.09.2017 21:58 6,8 °C 6,8 °C 90 % 1013,9 hPa 0,0 mm 2,2 km/h (1 Bft) SW 225 ° 0 min 0,000 mm 0,0 UV-I 0 W/m² 5,3 °C 6,8 °C 4,8 km/h (1 Bft)
17.09.2017 21:59 6,8 °C 6,8 °C 89 % 1013,9 hPa 0,0 mm 0,2 km/h (0 Bft) SW 225 ° 0 min 0,000 mm 0,0 UV-I 0 W/m² 5,1 °C 6,8 °C 1,6 km/h (1 Bft)
17.09.2017 22:00 6,9 °C 6,9 °C 89 % 1013,8 hPa 0,0 mm 3,0 km/h (1 Bft) S 190 ° 0 min 0,000 mm 0,0 UV-I 0 W/m² 5,2 °C 6,9 °C 6,4 km/h (2 Bft)
17.09.2017 22:01 6,9 °C 6,9 °C 89 % 1013,8 hPa 0,0 mm 5,8 km/h (2 Bft) S 190 ° 0 min 0,000 mm 0,0 UV-I 0 W/m² 5,2 °C 6,0 °C 8,0 km/h (2 Bft)
17.09.2017 22:02 6,9 °C 6,9 °C 89 % 1013,8 hPa 0,0 mm 7,9 km/h (2 Bft) S 191 ° 0 min 0,000 mm 0,0 UV-I 0 W/m² 5,2 °C 5,4 °C 9,7 km/h (2 Bft)
17.09.2017 22:03 6,9 °C 6,9 °C 89 % 1013,8 hPa 0,0 mm 6,0 km/h (2 Bft) S 179 ° 0 min 0,000 mm 0,0 UV-I 0 W/m² 5,2 °C 5,9 °C 8,0 km/h (2 Bft)
17.09.2017 22:04 6,9 °C 6,9 °C 89 % 1013,8 hPa 0,0 mm 3,0 km/h (1 Bft) S 184 ° 0 min 0,000 mm 0,0 UV-I 0 W/m² 5,2 °C 6,9 °C 4,8 km/h (1 Bft)
17.09.2017 22:05 6,9 °C 6,9 °C 89 % 1013,8 hPa 0,0 mm 3,7 km/h (1 Bft) S 191 ° 0 min 0,000 mm 0,0 UV-I 0 W/m² 5,2 °C 6,9 °C 6,4 km/h (2 Bft)
17.09.2017 22:06 6,8 °C 6,9 °C 88 % 1013,8 hPa 0,0 mm 3,0 km/h (1 Bft) S 191 ° 0 min 0,000 mm 0,0 UV-I 0 W/m² 5,0 °C 6,8 °C 4,8 km/h (1 Bft)
17.09.2017 22:07 6,8 °C 6,9 °C 88 % 1013,8 hPa 0,0 mm 2,8 km/h (1 Bft) S 191 ° 0 min 0,000 mm 0,0 UV-I 0 W/m² 5,0 °C 6,8 °C 4,8 km/h (1 Bft)
17.09.2017 22:08 6,8 °C 6,8 °C 89 % 1013,9 hPa 0,0 mm 2,3 km/h (1 Bft) S-SW 203 ° 0 min 0,000 mm 0,0 UV-I 0 W/m² 5,1 °C 6,8 °C 6,4 km/h (2 Bft)
17.09.2017 22:09 6,9 °C 6,9 °C 89 % 1013,9 hPa 0,0 mm 4,3 km/h (1 Bft) S 186 ° 0 min 0,000 mm 0,0 UV-I 0 W/m² 5,2 °C 6,9 °C 8,0 km/h (2 Bft)
17.09.2017 22:10 6,9 °C 6,9 °C 89 % 1013,9 hPa 0,0 mm 3,5 km/h (1 Bft) S-SO 155 ° 0 min 0,000 mm 0,0 UV-I 0 W/m² 5,2 °C 6,9 °C 6,4 km/h (2 Bft)
17.09.2017 22:11 6,9 °C 6,9 °C 88 % 1013,9 hPa 0,0 mm 2,7 km/h (1 Bft) S 179 ° 0 min 0,000 mm 0,0 UV-I 0 W/m² 5,1 °C 6,9 °C 6,4 km/h (2 Bft)
17.09.2017 22:12 7,0 °C 7,0 °C 88 % 1013,9 hPa 0,0 mm 3,6 km/h (1 Bft) S 189 ° 0 min 0,000 mm 0,0 UV-I 0 W/m² 5,2 °C 7,0 °C 6,4 km/h (2 Bft)
17.09.2017 22:13 7,1 °C 7,1 °C 88 % 1014,0 hPa 0,0 mm 1,6 km/h (1 Bft) S 183 ° 0 min 0,000 mm 0,0 UV-I 0 W/m² 5,2 °C 7,1 °C 6,4 km/h (2 Bft)
17.09.2017 22:14 7,1 °C 7,1 °C 88 % 1014,0 hPa 0,0 mm 4,1 km/h (1 Bft) S 169 ° 0 min 0,000 mm 0,0 UV-I 0 W/m² 5,2 °C 7,1 °C 6,4 km/h (2 Bft)
17.09.2017 22:15 7,0 °C 7,1 °C 88 % 1014,0 hPa 0,0 mm 2,7 km/h (1 Bft) S 174 ° 0 min 0,000 mm 0,0 UV-I 0 W/m² 5,2 °C 7,0 °C 6,4 km/h (2 Bft)
17.09.2017 22:16 7,0 °C 7,1 °C 88 % 1014,0 hPa 0,0 mm 1,1 km/h (1 Bft) S 174 ° 0 min 0,000 mm 0,0 UV-I 0 W/m² 5,2 °C 7,0 °C 3,2 km/h (1 Bft)
17.09.2017 22:17 7,0 °C 7,0 °C 88 % 1014,0 hPa 0,0 mm 2,1 km/h (1 Bft) W 270 ° 0 min 0,000 mm 0,0 UV-I 0 W/m² 5,2 °C 7,0 °C 4,8 km/h (1 Bft)
17.09.2017 22:18 6,9 °C 7,0 °C 88 % 1014,0 hPa 0,0 mm 3,1 km/h (1 Bft) S-SW 199 ° 0 min 0,000 mm 0,0 UV-I 0 W/m² 5,1 °C 6,9 °C 4,8 km/h (1 Bft)
17.09.2017 22:19 6,9 °C 6,9 °C 88 % 1014,0 hPa 0,0 mm 1,1 km/h (1 Bft) S 184 ° 0 min 0,000 mm 0,0 UV-I 0 W/m² 5,1 °C 6,9 °C 4,8 km/h (1 Bft)
17.09.2017 22:20 6,8 °C 6,9 °C 88 % 1014,0 hPa 0,0 mm 1,9 km/h (1 Bft) S 184 ° 0 min 0,000 mm 0,0 UV-I 0 W/m² 5,0 °C 6,8 °C 4,8 km/h (1 Bft)
17.09.2017 22:21 6,8 °C 6,9 °C 88 % 1014,1 hPa 0,0 mm 1,7 km/h (1 Bft) S 178 ° 0 min 0,000 mm 0,0 UV-I 0 W/m² 5,0 °C 6,8 °C 4,8 km/h (1 Bft)
17.09.2017 22:22 6,8 °C 6,8 °C 88 % 1014,1 hPa 0,0 mm 2,7 km/h (1 Bft) S-SW 195 ° 0 min 0,000 mm 0,0 UV-I 0 W/m² 5,0 °C 6,8 °C 4,8 km/h (1 Bft)
17.09.2017 22:23 6,8 °C 6,8 °C 88 % 1014,1 hPa 0,0 mm 3,7 km/h (1 Bft) S 184 ° 0 min 0,000 mm 0,0 UV-I 0 W/m² 5,0 °C 6,8 °C 6,4 km/h (2 Bft)
17.09.2017 22:24 6,7 °C 6,8 °C 89 % 1014,1 hPa 0,0 mm 0,5 km/h (0 Bft) S 184 ° 0 min 0,000 mm 0,0 UV-I 0 W/m² 5,0 °C 6,7 °C 1,6 km/h (1 Bft)
17.09.2017 22:25 6,7 °C 6,7 °C 89 % 1014,1 hPa 0,0 mm 0,0 km/h (0 Bft) S 184 ° 0 min 0,000 mm 0,0 UV-I 0 W/m² 5,0 °C 6,7 °C 0,0 km/h (0 Bft)
17.09.2017 22:26 6,6 °C 6,7 °C 89 % 1014,1 hPa 0,0 mm 0,1 km/h (0 Bft) S 184 ° 0 min 0,000 mm 0,0 UV-I 0 W/m² 4,9 °C 6,6 °C 1,6 km/h (1 Bft)
17.09.2017 22:27 6,5 °C 6,6 °C 90 % 1014,1 hPa 0,0 mm 0,6 km/h (0 Bft) S 184 ° 0 min 0,000 mm 0,0 UV-I 0 W/m² 5,0 °C 6,5 °C 1,6 km/h (1 Bft)
17.09.2017 22:28 6,4 °C 6,5 °C 90 % 1014,1 hPa 0,0 mm 0,1 km/h (0 Bft) S 184 ° 0 min 0,000 mm 0,0 UV-I 0 W/m² 4,9 °C 6,4 °C 1,6 km/h (1 Bft)
17.09.2017 22:29 6,3 °C 6,4 °C 90 % 1014,1 hPa 0,0 mm 0,0 km/h (0 Bft) S 184 ° 0 min 0,000 mm 0,0 UV-I 0 W/m² 4,8 °C 6,3 °C 0,0 km/h (0 Bft)
17.09.2017 22:30 6,3 °C 6,3 °C 91 % 1014,1 hPa 0,0 mm 0,0 km/h (0 Bft) S 184 ° 0 min 0,000 mm 0,0 UV-I 0 W/m² 4,9 °C 6,3 °C 0,0 km/h (0 Bft)
17.09.2017 22:31 6,3 °C 6,3 °C 91 % 1014,1 hPa 0,0 mm 0,0 km/h (0 Bft) S 184 ° 0 min 0,000 mm 0,0 UV-I 0 W/m² 4,9 °C 6,3 °C 0,0 km/h (0 Bft)
17.09.2017 22:32 6,2 °C 6,3 °C 91 % 1014,1 hPa 0,0 mm 1,2 km/h (1 Bft) S 184 ° 0 min 0,000 mm 0,0 UV-I 0 W/m² 4,8 °C 6,2 °C 3,2 km/h (1 Bft)
17.09.2017 22:33 6,2 °C 6,2 °C 91 % 1014,2 hPa 0,0 mm 0,0 km/h (0 Bft) S 184 ° 0 min 0,000 mm 0,0 UV-I 0 W/m² 4,8 °C 6,2 °C 0,0 km/h (0 Bft)
17.09.2017 22:34 6,1 °C 6,2 °C 91 % 1014,2 hPa 0,0 mm 0,0 km/h (0 Bft) S 184 ° 0 min 0,000 mm 0,0 UV-I 0 W/m² 4,7 °C 6,1 °C 0,0 km/h (0 Bft)
17.09.2017 22:35 6,1 °C 6,1 °C 91 % 1014,1 hPa 0,0 mm 1,8 km/h (1 Bft) SW 234 ° 0 min 0,000 mm 0,0 UV-I 0 W/m² 4,7 °C 6,1 °C 4,8 km/h (1 Bft)
17.09.2017 22:36 6,1 °C 6,1 °C 91 % 1014,2 hPa 0,0 mm 1,3 km/h (1 Bft) SW 234 ° 0 min 0,000 mm 0,0 UV-I 0 W/m² 4,7 °C 6,1 °C 3,2 km/h (1 Bft)
17.09.2017 22:37 6,1 °C 6,1 °C 91 % 1014,2 hPa 0,0 mm 0,3 km/h (0 Bft) SW 234 ° 0 min 0,000 mm 0,0 UV-I 0 W/m² 4,7 °C 6,1 °C 1,6 km/h (1 Bft)
17.09.2017 22:38 6,1 °C 6,1 °C 91 % 1014,2 hPa 0,0 mm 0,0 km/h (0 Bft) SW 234 ° 0 min 0,000 mm 0,0 UV-I 0 W/m² 4,7 °C 6,1 °C 0,0 km/h (0 Bft)
17.09.2017 22:39 6,1 °C 6,1 °C 91 % 1014,1 hPa 0,0 mm 0,0 km/h (0 Bft) SW 234 ° 0 min 0,000 mm 0,0 UV-I 0 W/m² 4,7 °C 6,1 °C 0,0 km/h (0 Bft)
17.09.2017 22:40 6,1 °C 6,1 °C 91 % 1014,2 hPa 0,0 mm 0,0 km/h (0 Bft) SW 234 ° 0 min 0,000 mm 0,0 UV-I 0 W/m² 4,7 °C 6,1 °C 0,0 km/h (0 Bft)
17.09.2017 22:41 6,0 °C 6,1 °C 91 % 1014,2 hPa 0,0 mm 1,0 km/h (0 Bft) S-SW 211 ° 0 min 0,000 mm 0,0 UV-I 0 W/m² 4,6 °C 6,0 °C 3,2 km/h (1 Bft)
17.09.2017 22:42 5,9 °C 6,0 °C 91 % 1014,1 hPa 0,0 mm 4,0 km/h (1 Bft) S 187 ° 0 min 0,000 mm 0,0 UV-I 0 W/m² 4,5 °C 5,9 °C 6,4 km/h (2 Bft)
17.09.2017 22:43 5,9 °C 6,0 °C 91 % 1014,1 hPa 0,0 mm 2,5 km/h (1 Bft) S 187 ° 0 min 0,000 mm 0,0 UV-I 0 W/m² 4,5 °C 5,9 °C 6,4 km/h (2 Bft)
17.09.2017 22:44 6,0 °C 6,0 °C 91 % 1014,1 hPa 0,0 mm 0,1 km/h (0 Bft) S 187 ° 0 min 0,000 mm 0,0 UV-I 0 W/m² 4,6 °C 6,0 °C 1,6 km/h (1 Bft)
17.09.2017 22:45 6,1 °C 6,1 °C 92 % 1014,1 hPa 0,0 mm 1,5 km/h (1 Bft) S 187 ° 0 min 0,000 mm 0,0 UV-I 0 W/m² 4,9 °C 6,1 °C 3,2 km/h (1 Bft)
17.09.2017 22:46 6,1 °C 6,1 °C 92 % 1014,1 hPa 0,0 mm 1,7 km/h (1 Bft) S 187 ° 0 min 0,000 mm 0,0 UV-I 0 W/m² 4,9 °C 6,1 °C 3,2 km/h (1 Bft)
17.09.2017 22:47 6,1 °C 6,1 °C 92 % 1014,1 hPa 0,0 mm 0,5 km/h (0 Bft) S 187 ° 0 min 0,000 mm 0,0 UV-I 0 W/m² 4,9 °C 6,1 °C 3,2 km/h (1 Bft)
17.09.2017 22:48 6,0 °C 6,1 °C 91 % 1014,1 hPa 0,0 mm 0,1 km/h (0 Bft) S 187 ° 0 min 0,000 mm 0,0 UV-I 0 W/m² 4,6 °C 6,0 °C 1,6 km/h (1 Bft)
17.09.2017 22:49 6,0 °C 6,1 °C 91 % 1014,2 hPa 0,0 mm 2,2 km/h (1 Bft) S-SW 199 ° 0 min 0,000 mm 0,0 UV-I 0 W/m² 4,6 °C 6,0 °C 3,2 km/h (1 Bft)
17.09.2017 22:50 6,0 °C 6,1 °C 91 % 1014,1 hPa 0,0 mm 1,7 km/h (1 Bft) S-SW 196 ° 0 min 0,000 mm 0,0 UV-I 0 W/m² 4,6 °C 6,0 °C 3,2 km/h (1 Bft)
17.09.2017 22:51 6,1 °C 6,1 °C 91 % 1014,2 hPa 0,0 mm 2,7 km/h (1 Bft) S-SW 197 ° 0 min 0,000 mm 0,0 UV-I 0 W/m² 4,7 °C 6,1 °C 6,4 km/h (2 Bft)
17.09.2017 22:52 6,1 °C 6,1 °C 91 % 1014,2 hPa 0,0 mm 3,0 km/h (1 Bft) S 191 ° 0 min 0,000 mm 0,0 UV-I 0 W/m² 4,7 °C 6,1 °C 4,8 km/h (1 Bft)
17.09.2017 22:53 6,2 °C 6,2 °C 91 % 1014,1 hPa 0,0 mm 2,4 km/h (1 Bft) S 191 ° 0 min 0,000 mm 0,0 UV-I 0 W/m² 4,8 °C 6,2 °C 3,2 km/h (1 Bft)
17.09.2017 22:54 6,2 °C 6,2 °C 91 % 1014,1 hPa 0,0 mm 0,2 km/h (0 Bft) S 191 ° 0 min 0,000 mm 0,0 UV-I 0 W/m² 4,8 °C 6,2 °C 1,6 km/h (1 Bft)
17.09.2017 22:55 6,1 °C 6,2 °C 91 % 1014,1 hPa 0,0 mm 0,0 km/h (0 Bft) S 191 ° 0 min 0,000 mm 0,0 UV-I 0 W/m² 4,7 °C 6,1 °C 0,0 km/h (0 Bft)
17.09.2017 22:56 6,1 °C 6,2 °C 90 % 1014,1 hPa 0,0 mm 0,4 km/h (0 Bft) S-SW 192 ° 0 min 0,000 mm 0,0 UV-I 0 W/m² 4,6 °C 6,1 °C 1,6 km/h (1 Bft)
17.09.2017 22:57 6,1 °C 6,1 °C 90 % 1014,2 hPa 0,0 mm 1,7 km/h (1 Bft) S-SW 192 ° 0 min 0,000 mm 0,0 UV-I 0 W/m² 4,6 °C 6,1 °C 3,2 km/h (1 Bft)
17.09.2017 22:58 6,1 °C 6,1 °C 90 % 1014,2 hPa 0,0 mm 0,7 km/h (0 Bft) S-SW 192 ° 0 min 0,000 mm 0,0 UV-I 0 W/m² 4,6 °C 6,1 °C 3,2 km/h (1 Bft)
17.09.2017 22:59 6,1 °C 6,1 °C 90 % 1014,2 hPa 0,0 mm 3,6 km/h (1 Bft) S-SW 192 ° 0 min 0,000 mm 0,0 UV-I 0 W/m² 4,6 °C 6,1 °C 4,8 km/h (1 Bft)
17.09.2017 23:00 6,1 °C 6,1 °C 90 % 1014,1 hPa 0,0 mm 1,5 km/h (1 Bft) S-SW 192 ° 0 min 0,000 mm 0,0 UV-I 0 W/m² 4,6 °C 6,1 °C 3,2 km/h (1 Bft)
17.09.2017 23:01 6,1 °C 6,1 °C 90 % 1014,1 hPa 0,0 mm 1,5 km/h (1 Bft) S-SW 192 ° 0 min 0,000 mm 0,0 UV-I 0 W/m² 4,6 °C 6,1 °C 3,2 km/h (1 Bft)
17.09.2017 23:02 6,1 °C 6,1 °C 90 % 1014,2 hPa 0,0 mm 2,1 km/h (1 Bft) S-SW 192 ° 0 min 0,000 mm 0,0 UV-I 0 W/m² 4,6 °C 6,1 °C 3,2 km/h (1 Bft)
17.09.2017 23:03 6,0 °C 6,1 °C 90 % 1014,1 hPa 0,0 mm 1,9 km/h (1 Bft) S-SW 192 ° 0 min 0,000 mm 0,0 UV-I 0 W/m² 4,5 °C 6,0 °C 3,2 km/h (1 Bft)
17.09.2017 23:04 5,9 °C 6,0 °C 90 % 1014,1 hPa 0,0 mm 0,0 km/h (0 Bft) S-SW 192 ° 0 min 0,000 mm 0,0 UV-I 0 W/m² 4,4 °C 5,9 °C 0,0 km/h (0 Bft)
17.09.2017 23:05 5,9 °C 5,9 °C 90 % 1014,1 hPa 0,0 mm 0,0 km/h (0 Bft) S-SW 192 ° 0 min 0,000 mm 0,0 UV-I 0 W/m² 4,4 °C 5,9 °C 0,0 km/h (0 Bft)
17.09.2017 23:06 5,8 °C 5,9 °C 90 % 1014,0 hPa 0,0 mm 0,0 km/h (0 Bft) S-SW 192 ° 0 min 0,000 mm 0,0 UV-I 0 W/m² 4,3 °C 5,8 °C 0,0 km/h (0 Bft)
17.09.2017 23:07 5,8 °C 5,8 °C 90 % 1014,1 hPa 0,0 mm 0,0 km/h (0 Bft) S-SW 192 ° 0 min 0,000 mm 0,0 UV-I 0 W/m² 4,3 °C 5,8 °C 0,0 km/h (0 Bft)
17.09.2017 23:08 5,8 °C 5,8 °C 91 % 1014,0 hPa 0,0 mm 0,0 km/h (0 Bft) S-SW 192 ° 0 min 0,000 mm 0,0 UV-I 0 W/m² 4,4 °C 5,8 °C 0,0 km/h (0 Bft)
17.09.2017 23:09 5,8 °C 5,8 °C 91 % 1014,0 hPa 0,0 mm 0,0 km/h (0 Bft) S-SW 192 ° 0 min 0,000 mm 0,0 UV-I 0 W/m² 4,4 °C 5,8 °C 0,0 km/h (0 Bft)
17.09.2017 23:10 5,8 °C 5,8 °C 91 % 1014,0 hPa 0,0 mm 2,3 km/h (1 Bft) S 191 ° 0 min 0,000 mm 0,0 UV-I 0 W/m² 4,4 °C 5,8 °C 3,2 km/h (1 Bft)
17.09.2017 23:11 5,8 °C 5,8 °C 91 % 1014,0 hPa 0,0 mm 0,3 km/h (0 Bft) S 191 ° 0 min 0,000 mm 0,0 UV-I 0 W/m² 4,4 °C 5,8 °C 1,6 km/h (1 Bft)
17.09.2017 23:12 5,8 °C 5,8 °C 91 % 1014,1 hPa 0,0 mm 0,0 km/h (0 Bft) S 191 ° 0 min 0,000 mm 0,0 UV-I 0 W/m² 4,4 °C 5,8 °C 0,0 km/h (0 Bft)
17.09.2017 23:13 5,7 °C 5,8 °C 91 % 1014,1 hPa 0,0 mm 0,0 km/h (0 Bft) S 191 ° 0 min 0,000 mm 0,0 UV-I 0 W/m² 4,3 °C 5,7 °C 0,0 km/h (0 Bft)
17.09.2017 23:14 5,6 °C 5,7 °C 91 % 1014,1 hPa 0,0 mm 0,0 km/h (0 Bft) S 178 ° 0 min 0,000 mm 0,0 UV-I 0 W/m² 4,2 °C 5,6 °C 0,0 km/h (0 Bft)
17.09.2017 23:15 5,6 °C 5,6 °C 92 % 1014,1 hPa 0,0 mm 1,0 km/h (0 Bft) S 178 ° 0 min 0,000 mm 0,0 UV-I 0 W/m² 4,4 °C 5,6 °C 1,6 km/h (1 Bft)
17.09.2017 23:16 5,6 °C 5,6 °C 92 % 1014,1 hPa 0,0 mm 0,0 km/h (0 Bft) S 178 ° 0 min 0,000 mm 0,0 UV-I 0 W/m² 4,4 °C 5,6 °C 0,0 km/h (0 Bft)
17.09.2017 23:17 5,6 °C 5,6 °C 92 % 1014,1 hPa 0,0 mm 0,0 km/h (0 Bft) S 178 ° 0 min 0,000 mm 0,0 UV-I 0 W/m² 4,4 °C 5,6 °C 0,0 km/h (0 Bft)
17.09.2017 23:18 5,5 °C 5,6 °C 92 % 1014,1 hPa 0,0 mm 0,5 km/h (0 Bft) S 178 ° 0 min 0,000 mm 0,0 UV-I 0 W/m² 4,3 °C 5,5 °C 3,2 km/h (1 Bft)
17.09.2017 23:19 5,5 °C 5,5 °C 92 % 1014,1 hPa 0,0 mm 0,4 km/h (0 Bft) S 178 ° 0 min 0,000 mm 0,0 UV-I 0 W/m² 4,3 °C 5,5 °C 3,2 km/h (1 Bft)
17.09.2017 23:20 5,4 °C 5,5 °C 92 % 1014,1 hPa 0,0 mm 0,1 km/h (0 Bft) S 178 ° 0 min 0,000 mm 0,0 UV-I 0 W/m² 4,2 °C 5,4 °C 1,6 km/h (1 Bft)
17.09.2017 23:21 5,4 °C 5,4 °C 92 % 1014,1 hPa 0,0 mm 0,6 km/h (0 Bft) S 178 ° 0 min 0,000 mm 0,0 UV-I 0 W/m² 4,2 °C 5,4 °C 3,2 km/h (1 Bft)
17.09.2017 23:22 5,4 °C 5,4 °C 92 % 1014,1 hPa 0,0 mm 0,0 km/h (0 Bft) S 178 ° 0 min 0,000 mm 0,0 UV-I 0 W/m² 4,2 °C 5,4 °C 0,0 km/h (0 Bft)
17.09.2017 23:23 5,3 °C 5,4 °C 92 % 1014,1 hPa 0,0 mm 0,1 km/h (0 Bft) S 178 ° 0 min 0,000 mm 0,0 UV-I 0 W/m² 4,1 °C 5,3 °C 1,6 km/h (1 Bft)
17.09.2017 23:24 5,3 °C 5,3 °C 92 % 1014,1 hPa 0,0 mm 0,0 km/h (0 Bft) S 178 ° 0 min 0,000 mm 0,0 UV-I 0 W/m² 4,1 °C 5,3 °C 0,0 km/h (0 Bft)
17.09.2017 23:25 5,3 °C 5,3 °C 92 % 1014,1 hPa 0,0 mm 0,1 km/h (0 Bft) S 178 ° 0 min 0,000 mm 0,0 UV-I 0 W/m² 4,1 °C 5,3 °C 1,6 km/h (1 Bft)
17.09.2017 23:26 5,3 °C 5,3 °C 92 % 1014,1 hPa 0,0 mm 0,0 km/h (0 Bft) S 178 ° 0 min 0,000 mm 0,0 UV-I 0 W/m² 4,1 °C 5,3 °C 0,0 km/h (0 Bft)
17.09.2017 23:27 5,3 °C 5,3 °C 92 % 1014,1 hPa 0,0 mm 0,0 km/h (0 Bft) S 178 ° 0 min 0,000 mm 0,0 UV-I 0 W/m² 4,1 °C 5,3 °C 0,0 km/h (0 Bft)
17.09.2017 23:28 5,2 °C 5,3 °C 92 % 1014,1 hPa 0,0 mm 0,5 km/h (0 Bft) S 178 ° 0 min 0,000 mm 0,0 UV-I 0 W/m² 4,0 °C 5,2 °C 1,6 km/h (1 Bft)
17.09.2017 23:29 5,3 °C 5,3 °C 92 % 1014,1 hPa 0,0 mm 1,2 km/h (1 Bft) S-SW 194 ° 0 min 0,000 mm 0,0 UV-I 0 W/m² 4,1 °C 5,3 °C 1,6 km/h (1 Bft)
17.09.2017 23:30 5,3 °C 5,3 °C 92 % 1014,1 hPa 0,0 mm 1,3 km/h (1 Bft) S-SW 196 ° 0 min 0,000 mm 0,0 UV-I 0 W/m² 4,1 °C 5,3 °C 3,2 km/h (1 Bft)
17.09.2017 23:31 5,3 °C 5,3 °C 92 % 1014,1 hPa 0,0 mm 3,3 km/h (1 Bft) S-SW 201 ° 0 min 0,000 mm 0,0 UV-I 0 W/m² 4,1 °C 5,3 °C 6,4 km/h (2 Bft)
17.09.2017 23:32 5,3 °C 5,4 °C 92 % 1014,1 hPa 0,0 mm 2,7 km/h (1 Bft) S-SW 201 ° 0 min 0,000 mm 0,0 UV-I 0 W/m² 4,1 °C 5,3 °C 3,2 km/h (1 Bft)
17.09.2017 23:33 5,3 °C 5,3 °C 92 % 1014,1 hPa 0,0 mm 1,6 km/h (1 Bft) S-SW 201 ° 0 min 0,000 mm 0,0 UV-I 0 W/m² 4,1 °C 5,3 °C 3,2 km/h (1 Bft)
17.09.2017 23:34 5,3 °C 5,3 °C 92 % 1014,2 hPa 0,0 mm 0,4 km/h (0 Bft) S-SW 200 ° 0 min 0,000 mm 0,0 UV-I 0 W/m² 4,1 °C 5,3 °C 1,6 km/h (1 Bft)
17.09.2017 23:35 5,4 °C 5,4 °C 92 % 1014,1 hPa 0,0 mm 3,8 km/h (1 Bft) S-SW 198 ° 0 min 0,000 mm 0,0 UV-I 0 W/m² 4,2 °C 5,4 °C 6,4 km/h (2 Bft)
17.09.2017 23:36 5,4 °C 5,4 °C 92 % 1014,2 hPa 0,0 mm 2,7 km/h (1 Bft) S-SW 198 ° 0 min 0,000 mm 0,0 UV-I 0 W/m² 4,2 °C 5,4 °C 4,8 km/h (1 Bft)
17.09.2017 23:37 5,4 °C 5,4 °C 92 % 1014,2 hPa 0,0 mm 3,2 km/h (1 Bft) S-SW 198 ° 0 min 0,000 mm 0,0 UV-I 0 W/m² 4,2 °C 5,4 °C 4,8 km/h (1 Bft)
17.09.2017 23:38 5,4 °C 5,4 °C 92 % 1014,2 hPa 0,0 mm 2,5 km/h (1 Bft) S-SW 196 ° 0 min 0,000 mm 0,0 UV-I 0 W/m² 4,2 °C 5,4 °C 3,2 km/h (1 Bft)
17.09.2017 23:39 5,3 °C 5,4 °C 92 % 1014,2 hPa 0,0 mm 3,2 km/h (1 Bft) S-SW 196 ° 0 min 0,000 mm 0,0 UV-I 0 W/m² 4,1 °C 5,3 °C 4,8 km/h (1 Bft)
17.09.2017 23:40 5,3 °C 5,3 °C 92 % 1014,2 hPa 0,0 mm 1,5 km/h (1 Bft) S-SW 196 ° 0 min 0,000 mm 0,0 UV-I 0 W/m² 4,1 °C 5,3 °C 3,2 km/h (1 Bft)
17.09.2017 23:41 5,3 °C 5,3 °C 92 % 1014,2 hPa 0,0 mm 0,3 km/h (0 Bft) S-SW 196 ° 0 min 0,000 mm 0,0 UV-I 0 W/m² 4,1 °C 5,3 °C 1,6 km/h (1 Bft)
17.09.2017 23:42 5,3 °C 5,3 °C 92 % 1014,2 hPa 0,0 mm 0,9 km/h (0 Bft) S-SW 196 ° 0 min 0,000 mm 0,0 UV-I 0 W/m² 4,1 °C 5,3 °C 3,2 km/h (1 Bft)
17.09.2017 23:43 5,4 °C 5,4 °C 92 % 1014,2 hPa 0,0 mm 0,0 km/h (0 Bft) S-SW 196 ° 0 min 0,000 mm 0,0 UV-I 0 W/m² 4,2 °C 5,4 °C 0,0 km/h (0 Bft)
17.09.2017 23:44 5,4 °C 5,4 °C 92 % 1014,3 hPa 0,0 mm 1,9 km/h (1 Bft) S-SW 192 ° 0 min 0,000 mm 0,0 UV-I 0 W/m² 4,2 °C 5,4 °C 4,8 km/h (1 Bft)
17.09.2017 23:45 5,5 °C 5,5 °C 92 % 1014,3 hPa 0,0 mm 0,7 km/h (0 Bft) S 191 ° 0 min 0,000 mm 0,0 UV-I 0 W/m² 4,3 °C 5,5 °C 1,6 km/h (1 Bft)
17.09.2017 23:46 5,6 °C 5,6 °C 92 % 1014,3 hPa 0,0 mm 1,4 km/h (1 Bft) S 172 ° 0 min 0,000 mm 0,0 UV-I 0 W/m² 4,4 °C 5,6 °C 4,8 km/h (1 Bft)
17.09.2017 23:47 5,5 °C 5,6 °C 92 % 1014,3 hPa 0,0 mm 0,0 km/h (0 Bft) S-SO 167 ° 0 min 0,000 mm 0,0 UV-I 0 W/m² 4,3 °C 5,5 °C 0,0 km/h (0 Bft)
17.09.2017 23:48 5,5 °C 5,5 °C 92 % 1014,3 hPa 0,0 mm 0,3 km/h (0 Bft) S-SO 167 ° 0 min 0,000 mm 0,0 UV-I 0 W/m² 4,3 °C 5,5 °C 1,6 km/h (1 Bft)
17.09.2017 23:49 5,5 °C 5,5 °C 92 % 1014,4 hPa 0,0 mm 0,0 km/h (0 Bft) S-SO 167 ° 0 min 0,000 mm 0,0 UV-I 0 W/m² 4,3 °C 5,5 °C 0,0 km/h (0 Bft)
17.09.2017 23:50 5,5 °C 5,5 °C 92 % 1014,4 hPa 0,0 mm 0,0 km/h (0 Bft) S-SO 167 ° 0 min 0,000 mm 0,0 UV-I 0 W/m² 4,3 °C 5,5 °C 0,0 km/h (0 Bft)
17.09.2017 23:51 5,5 °C 5,5 °C 92 % 1014,4 hPa 0,0 mm 0,0 km/h (0 Bft) S-SO 167 ° 0 min 0,000 mm 0,0 UV-I 0 W/m² 4,3 °C 5,5 °C 0,0 km/h (0 Bft)
17.09.2017 23:52 5,6 °C 5,6 °C 92 % 1014,4 hPa 0,0 mm 0,0 km/h (0 Bft) S-SO 167 ° 0 min 0,000 mm 0,0 UV-I 0 W/m² 4,4 °C 5,6 °C 0,0 km/h (0 Bft)
17.09.2017 23:53 5,6 °C 5,6 °C 92 % 1014,4 hPa 0,0 mm 0,0 km/h (0 Bft) S-SO 167 ° 0 min 0,000 mm 0,0 UV-I 0 W/m² 4,4 °C 5,6 °C 0,0 km/h (0 Bft)
17.09.2017 23:54 5,6 °C 5,6 °C 92 % 1014,5 hPa 0,0 mm 0,5 km/h (0 Bft) S-SO 167 ° 0 min 0,000 mm 0,0 UV-I 0 W/m² 4,4 °C 5,6 °C 4,8 km/h (1 Bft)
17.09.2017 23:55 5,6 °C 5,6 °C 92 % 1014,4 hPa 0,0 mm 0,1 km/h (0 Bft) S-SO 167 ° 0 min 0,000 mm 0,0 UV-I 0 W/m² 4,4 °C 5,6 °C 1,6 km/h (1 Bft)
17.09.2017 23:56 5,6 °C 5,6 °C 92 % 1014,5 hPa 0,0 mm 0,3 km/h (0 Bft) S 169 ° 0 min 0,000 mm 0,0 UV-I 0 W/m² 4,4 °C 5,6 °C 1,6 km/h (1 Bft)
17.09.2017 23:57 5,7 °C 5,7 °C 92 % 1014,5 hPa 0,0 mm 3,4 km/h (1 Bft) S 175 ° 0 min 0,000 mm 0,0 UV-I 0 W/m² 4,5 °C 5,7 °C 4,8 km/h (1 Bft)
17.09.2017 23:58 5,8 °C 5,8 °C 92 % 1014,5 hPa 0,0 mm 1,3 km/h (1 Bft) S 175 ° 0 min 0,000 mm 0,0 UV-I 0 W/m² 4,6 °C 5,8 °C 3,2 km/h (1 Bft)
17.09.2017 23:59 5,8 °C 5,8 °C 92 % 1014,5 hPa 0,0 mm 0,1 km/h (0 Bft) S 175 ° 0 min 0,000 mm 0,0 UV-I 0 W/m² 4,6 °C 5,8 °C 1,6 km/h (1 Bft)
_ Min-Zeit 23:28 23:42 13:33 06:10 - 23:53 - - - - - - 23:28 00:10 23:53
Minimum _ 5,2 °C 5,3 °C 69 % 1012,2 hPa - 0,0 km/h (0 Bft) - - - - - - 4,0 °C 4,5 °C 0,0 km/h (0 Bft)
_ Max-Zeit 13:26 14:07 06:13 23:59 15:55 15:33 - - 12:09 13:01 14:03 14:06 15:13 13:26 15:35
Maximum _ 11,8 °C 11,8 °C 95 % 1014,5 hPa 0,2 mm 10,3 km/h
W (2 Bft)
- - 2 min 0,254 mm 4,4 UV-I 745 W/m² 8,0 °C 11,8 °C 16,1 km/h
W-SW (3 Bft)
Durchschnitt _ 8,0 °C 8,0 °C 88 % 1013,0 hPa #1,0 mm 1,5 km/h (1 Bft) O-NO - #2:08 h #1,041 mm 1,8 UV-I 91 W/m² 6,1 °C 8,0 °C 2,9 km/h (1 Bft)